# Wetter Temperatur Luftdruck Luftfeuchtigkeit Sichtweite Windgeschwindigkeit Windrichtung Zeit
1 Clouds 10 1021 87 10000 1.5 300 00:42 05.04.2020
2 Clouds 10 1021 87 10000 1.5 300 00:21 05.04.2020
3 Clear 11 1021 87 10000 2.6 240 23:42 04.04.2020
4 Clear 11 1021 87 10000 2.6 240 23:42 04.04.2020
5 Clear 11 1021 93 10000 2.6 230 23:23 04.04.2020
6 Clear 11 1021 93 10000 2.6 230 22:57 04.04.2020
7 Clear 12 1021 87 10000 3.1 230 22:39 04.04.2020
8 Clear 12 1021 87 10000 3.1 230 22:21 04.04.2020
9 Clear 13 1020 87 10000 3.1 220 21:58 04.04.2020
10 Clear 13 1020 87 10000 3.1 220 21:39 04.04.2020
11 Clear 13 1020 87 10000 3.1 220 21:19 04.04.2020
12 Clear 14 1020 82 10000 3.6 220 20:58 04.04.2020
13 Clear 14 1020 82 10000 4.6 220 20:39 04.04.2020
14 Clear 15 1020 82 10000 4.6 220 20:20 04.04.2020
15 Clear 15 1020 77 10000 5.7 220 19:56 04.04.2020
16 Clear 16 1019 77 10000 5.1 210 19:36 04.04.2020
17 Clear 16 1019 77 10000 5.1 210 19:18 04.04.2020
18 Clear 17 1019 77 10000 5.1 210 18:55 04.04.2020
19 Clear 17 1019 67 10000 5.1 210 18:37 04.04.2020
20 Clear 17 1019 63 10000 5.7 220 18:18 04.04.2020
21 Clear 18 1020 67 10000 6.2 210 17:40 04.04.2020
22 Clouds 18 1020 63 10000 6.2 210 17:20 04.04.2020
23 Clouds 18 1020 63 10000 6.2 210 16:55 04.04.2020
24 Clouds 18 1020 67 10000 6.2 210 16:37 04.04.2020
25 Clouds 18 1020 67 10000 6.2 210 16:18 04.04.2020
26 Clouds 18 1020 67 10000 6.2 200 15:40 04.04.2020
27 Clouds 18 1020 67 10000 6.2 200 15:22 04.04.2020
28 Clouds 17 1020 77 10000 5.1 190 14:57 04.04.2020
29 Clouds 17 1020 72 10000 4.1 200 14:39 04.04.2020
30 Clouds 17 1020 72 10000 4.1 200 14:20 04.04.2020
31 Clouds 17 1020 67 10000 3.1 170 13:55 04.04.2020
32 Clear 17 1021 67 10000 2.1 160 13:37 04.04.2020
33 Clear 17 1021 62 10000 1.5 110 13:18 04.04.2020
34 Clear 16 1021 62 10000 2.6 70 12:43 04.04.2020
35 Clear 16 1021 62 10000 2.6 70 12:23 04.04.2020
36 Clear 15 1021 62 10000 1 0 11:55 04.04.2020
37 Clear 14 1020 62 10000 1 0 11:36 04.04.2020
38 Clear 14 1020 62 10000 1 0 11:18 04.04.2020
39 Clear 13 1020 66 10000 2.6 310 10:55 04.04.2020
40 Clear 13 1020 66 10000 4.1 320 10:37 04.04.2020
41 Clear 12 1020 76 10000 3.6 310 10:18 04.04.2020
42 Clear 11 1019 81 10000 4.6 320 09:44 04.04.2020
43 Clear 10 1019 81 10000 4.6 320 09:25 04.04.2020
44 Clear 8 1019 81 10000 5.1 320 08:58 04.04.2020
45 Clear 8 1019 87 10000 4.6 310 08:38 04.04.2020
46 Clear 8 1019 87 10000 4.6 320 08:19 04.04.2020
47 Clear 8 1018 81 10000 4.1 320 07:40 04.04.2020
48 Clear 8 1018 81 10000 4.1 320 07:22 04.04.2020
49 Clear 8 1018 81 10000 4.1 320 06:46 04.04.2020
50 Clear 8 1018 81 10000 3.6 310 06:18 04.04.2020
51 Clear 8 1018 87 10000 3.6 310 05:40 04.04.2020
52 Clear 8 1018 87 10000 3.6 310 05:22 04.04.2020
53 Clear 9 1019 81 10000 3.1 310 04:25 04.04.2020
54 Clear 9 1019 87 10000 3.6 320 03:47 04.04.2020
55 Clear 9 1019 81 10000 2.6 310 02:49 04.04.2020
56 Clear 9 1019 81 10000 3.1 310 02:30 04.04.2020
57 Clouds 9 1019 81 10000 1.5 330 01:51 04.04.2020
58 Clouds 10 1019 76 10000 1.5 300 01:22 04.04.2020
59 Clouds 10 1019 76 10000 1.5 300 00:47 04.04.2020
60 Clouds 10 1018 71 10000 0.5 50 00:27 04.04.2020
61 Clouds 11 1018 76 10000 2.1 210 23:39 03.04.2020
62 Clouds 11 1018 76 10000 2.1 210 23:39 03.04.2020
63 Clouds 11 1018 76 10000 2.1 210 23:21 03.04.2020
64 Clouds 11 1018 71 10000 2.6 220 22:56 03.04.2020
65 Clouds 11 1018 71 10000 1 230 22:38 03.04.2020
66 Clouds 12 1018 71 10000 1 230 22:18 03.04.2020
67 Clouds 12 1017 71 10000 3.6 230 21:43 03.04.2020
68 Clouds 12 1017 71 10000 3.6 230 21:24 03.04.2020
69 Clouds 13 1017 67 10000 3.6 210 20:57 03.04.2020
70 Clouds 13 1017 67 10000 5.1 220 20:37 03.04.2020
71 Clouds 14 1017 67 10000 5.1 220 20:19 03.04.2020
72 Clouds 14 1016 62 10000 6.2 220 19:57 03.04.2020
73 Clouds 15 1016 58 10000 6.2 220 19:38 03.04.2020
74 Clouds 15 1016 58 10000 6.2 220 19:38 03.04.2020
75 Clouds 15 1016 58 10000 6.2 220 19:20 03.04.2020
76 Clouds 15 1016 58 10000 6.2 210 18:58 03.04.2020
77 Clouds 16 1016 54 10000 6.7 220 18:40 03.04.2020
78 Clouds 16 1016 51 10000 7.2 220 18:22 03.04.2020
79 Clouds 16 1016 48 10000 7.2 220 17:54 03.04.2020
80 Clouds 16 1016 48 10000 7.2 220 17:36 03.04.2020
81 Clouds 16 1016 55 10000 7.2 220 17:18 03.04.2020
82 Clouds 16 1016 51 10000 5.7 220 16:42 03.04.2020
83 Clouds 16 1016 51 10000 5.7 220 16:21 03.04.2020
84 Clouds 16 1016 59 10000 6.7 210 15:58 03.04.2020
85 Clouds 16 1016 62 10000 6.7 220 15:39 03.04.2020
86 Clouds 16 1016 62 10000 6.7 220 15:19 03.04.2020
87 Clouds 16 1021 52 0 3.08 231 14:55 03.04.2020
88 Clouds 16 1021 54 0 3.08 231 14:55 03.04.2020
89 Clouds 16 1016 64 0 3.08 231 14:37 03.04.2020
90 Clouds 16 1016 58 10000 4.6 200 14:19 03.04.2020
91 Clouds 15 1016 58 10000 4.6 200 13:42 03.04.2020
92 Clouds 15 1016 58 10000 4.6 200 13:24 03.04.2020
93 Clouds 15 1016 58 10000 3.6 320 12:44 03.04.2020
94 Clouds 14 1016 58 10000 3.6 320 12:21 03.04.2020
95 Clouds 14 1016 58 10000 4.1 300 11:57 03.04.2020
96 Clouds 14 1016 62 10000 4.1 310 11:39 03.04.2020
97 Clouds 13 1016 62 10000 4.1 310 11:21 03.04.2020
98 Clouds 13 1016 66 10000 4.6 310 10:59 03.04.2020
99 Clouds 12 1015 71 10000 3.6 310 10:39 03.04.2020
100 Clouds 12 1015 71 10000 3.6 310 10:20 03.04.2020
101 Clouds 11 1015 76 10000 3.1 330 09:59 03.04.2020
102 Clouds 10 1015 87 10000 3.6 330 09:40 03.04.2020
103 Clouds 10 1015 87 10000 3.6 330 09:21 03.04.2020
104 Clouds 9 1014 81 10000 4.1 320 08:56 03.04.2020
105 Clouds 9 1014 87 10000 4.1 320 08:38 03.04.2020
106 Clouds 9 1014 87 10000 4.1 320 08:20 03.04.2020
107 Clouds 8 1013 93 10000 3.6 340 07:46 03.04.2020
108 Clouds 8 1013 93 10000 3.6 340 07:28 03.04.2020
109 Clouds 8 1013 87 10000 3.6 310 06:41 03.04.2020
110 Clouds 8 1013 87 10000 3.6 310 06:22 03.04.2020
111 Clouds 8 1013 93 10000 1.5 10 05:39 03.04.2020
112 Clouds 9 1014 81 10000 2.1 300 03:42 03.04.2020
113 Clouds 9 1014 87 10000 3.1 300 02:56 03.04.2020
114 Clouds 10 1014 87 10000 2.1 300 02:18 03.04.2020
115 Clouds 10 1014 81 10000 1.5 330 01:22 03.04.2020
116 Clouds 11 1014 71 10000 1.5 20 00:37 03.04.2020
117 Clouds 11 1014 71 10000 3.1 60 00:19 03.04.2020
118 Clouds 11 1014 71 10000 4.6 60 23:42 02.04.2020
119 Clouds 11 1014 71 10000 4.6 60 23:23 02.04.2020
120 Clouds 11 1014 71 10000 5.1 60 22:58 02.04.2020
121 Clouds 11 1013 71 10000 5.7 70 22:38 02.04.2020
122 Clouds 12 1013 71 10000 5.7 70 22:20 02.04.2020
123 Clouds 12 1013 66 10000 5.7 70 21:39 02.04.2020
124 Clouds 12 1013 66 10000 5.7 70 21:20 02.04.2020
125 Clouds 12 1012 66 10000 7.2 70 20:58 02.04.2020
126 Clouds 12 1012 66 10000 7.2 70 20:40 02.04.2020
127 Clouds 12 1012 66 10000 7.2 70 20:21 02.04.2020
128 Clouds 13 1012 62 10000 10.3 70 19:44 02.04.2020
129 Clouds 13 1012 62 10000 10.3 70 19:21 02.04.2020
130 Clouds 14 1011 62 10000 9.8 70 18:59 02.04.2020
131 Clouds 14 1011 62 10000 9.8 70 18:39 02.04.2020
132 Clouds 14 1011 62 10000 9.8 70 18:20 02.04.2020
133 Clouds 14 1011 58 10000 8.7 70 17:57 02.04.2020
134 Clouds 14 1011 58 10000 9.3 70 17:38 02.04.2020
135 Clouds 14 1011 58 10000 9.3 70 17:20 02.04.2020
136 Clouds 15 1011 62 10000 9.3 70 16:56 02.04.2020
137 Clouds 15 1011 62 10000 10.3 70 16:37 02.04.2020
138 Clouds 15 1011 62 10000 10.3 70 16:19 02.04.2020
139 Clouds 15 1012 62 10000 9.8 70 15:54 02.04.2020
140 Clouds 14 1012 66 10000 9.8 70 15:36 02.04.2020
141 Clouds 14 1012 66 10000 9.8 70 15:18 02.04.2020
142 Drizzle 14 1012 71 10000 7.7 50 14:40 02.04.2020
143 Drizzle 14 1012 71 10000 7.7 50 14:40 02.04.2020
144 Drizzle 14 1012 66 10000 8.7 60 14:20 02.04.2020
145 Drizzle 14 1012 66 10000 8.7 60 13:58 02.04.2020
146 Clouds 13 1012 62 10000 8.2 60 13:39 02.04.2020
147 Clouds 13 1012 62 10000 8.2 60 13:21 02.04.2020
148 Clouds 13 1012 62 10000 6.7 50 12:56 02.04.2020
149 Clouds 13 1012 62 10000 6.7 50 12:56 02.04.2020
150 Clouds 13 1012 62 10000 6.7 50 12:56 02.04.2020
151 Clouds 13 1012 62 10000 8.2 50 12:37 02.04.2020
152 Clouds 12 1012 58 10000 7.2 50 12:19 02.04.2020
153 Clouds 12 1012 58 10000 7.2 50 11:57 02.04.2020
154 Clouds 12 1012 66 10000 9.3 50 11:38 02.04.2020
155 Clouds 12 1012 66 10000 9.3 50 11:38 02.04.2020
156 Clouds 12 1011 66 10000 8.2 40 11:19 02.04.2020
157 Clouds 12 1011 66 10000 8.2 40 11:19 02.04.2020
158 Clouds 11 1011 66 10000 8.2 40 10:55 02.04.2020
159 Clouds 11 1011 66 10000 8.2 40 10:37 02.04.2020
160 Clouds 11 1011 76 10000 6.2 40 10:19 02.04.2020
161 Clouds 10 1011 71 10000 6.2 40 09:43 02.04.2020
162 Clouds 10 1011 71 10000 6.2 40 09:25 02.04.2020
163 Clouds 10 1011 76 10000 6.2 30 08:59 02.04.2020
164 Clouds 10 1011 76 10000 6.7 30 08:40 02.04.2020
165 Clouds 9 1011 76 10000 6.7 30 08:22 02.04.2020
166 Clouds 9 1011 76 10000 7.2 30 07:45 02.04.2020
167 Clouds 10 1011 76 10000 6.2 30 07:20 02.04.2020
168 Clouds 10 1011 76 10000 6.2 30 06:58 02.04.2020
169 Clouds 10 1011 76 10000 6.2 30 06:21 02.04.2020
170 Drizzle 10 1011 76 10000 5.7 30 05:45 02.04.2020
171 Clouds 10 1011 76 10000 7.2 30 04:33 02.04.2020
172 Clouds 10 1012 81 10000 8.2 40 01:51 02.04.2020
173 Clouds 10 1013 87 10000 7.7 40 00:48 02.04.2020
174 Clouds 10 1013 87 9000 9.8 60 00:27 02.04.2020
175 Drizzle 10 1013 87 9000 8.7 50 23:55 01.04.2020
176 Drizzle 10 1013 87 10000 10.3 60 23:37 01.04.2020
177 Drizzle 10 1013 87 10000 10.3 60 23:37 01.04.2020
178 Drizzle 10 1013 87 10000 10.3 60 23:18 01.04.2020
179 Rain 10 1013 87 9000 10.3 60 22:41 01.04.2020
180 Rain 10 1013 87 9000 10.3 60 22:22 01.04.2020
181 Rain 9 1013 87 7000 11.3 60 21:57 01.04.2020
182 Clouds 9 1013 87 10000 9.8 70 21:38 01.04.2020
183 Clouds 9 1013 87 10000 9.8 70 21:18 01.04.2020
184 Drizzle 9 1012 87 10000 11.8 60 20:55 01.04.2020
185 Drizzle 9 1012 87 10000 11.8 60 20:37 01.04.2020
186 Rain 9 1012 93 9000 11.8 60 20:18 01.04.2020
187 Rain 10 1012 100 4000 13.4 60 19:43 01.04.2020
188 Rain 10 1012 100 4000 13.4 60 19:22 01.04.2020
189 Rain 10 1013 100 3200 10.8 70 18:59 01.04.2020
190 Rain 10 1013 100 3200 10.8 70 18:59 01.04.2020
191 Rain 10 1013 100 3200 10.8 70 18:59 01.04.2020
192 Rain 10 1013 100 4000 10.3 70 18:40 01.04.2020
193 Rain 10 1013 100 4000 10.3 70 18:21 01.04.2020
194 Rain 10 1013 93 3000 11.8 60 17:56 01.04.2020
195 Rain 10 1013 93 3000 11.8 60 17:56 01.04.2020
196 Rain 10 1013 93 3000 12.9 70 17:36 01.04.2020
197 Rain 10 1013 87 6000 11.8 60 17:18 01.04.2020
198 Rain 10 1013 93 3200 13.4 70 16:43 01.04.2020
199 Rain 10 1013 93 3200 13.4 70 16:43 01.04.2020
200 Rain 11 1013 93 2500 12.9 60 16:25 01.04.2020
201 Rain 11 1013 93 2500 12.9 60 15:59 01.04.2020
202 Rain 11 1013 93 1400 12.3 50 15:41 01.04.2020
203 Rain 11 1013 93 1400 12.3 50 15:22 01.04.2020
204 Rain 11 1013 93 1200 12.9 60 14:58 01.04.2020
205 Clouds 11 1014 87 10000 12.3 50 14:39 01.04.2020
206 Clouds 11 1014 87 10000 12.3 50 14:20 01.04.2020
207 Clouds 11 1014 87 10000 11.3 50 13:58 01.04.2020
208 Clouds 11 1014 87 10000 11.3 50 13:38 01.04.2020
209 Clouds 11 1014 87 10000 11.3 50 13:19 01.04.2020
210 Clouds 11 1015 87 10000 9.8 50 12:57 01.04.2020
211 Clouds 11 1015 87 9000 11.3 50 12:37 01.04.2020
212 Clouds 11 1015 87 10000 11.3 50 12:18 01.04.2020
213 Clouds 11 1015 87 10000 11.3 50 11:56 01.04.2020
214 Clouds 11 1015 87 8000 11.3 50 11:37 01.04.2020
215 Clouds 11 1015 87 8000 11.3 50 11:18 01.04.2020
216 Drizzle 10 1015 87 10000 10.8 50 10:38 01.04.2020
217 Clouds 10 1015 81 10000 10.8 50 10:20 01.04.2020
218 Clouds 10 1015 81 10000 10.8 50 09:58 01.04.2020
219 Rain 10 1015 93 10000 10.3 50 09:39 01.04.2020
220 Rain 10 1015 87 10000 11.3 60 09:19 01.04.2020
221 Drizzle 10 1014 87 10000 10.3 60 08:44 01.04.2020
222 Drizzle 11 1014 87 10000 10.3 60 08:18 01.04.2020
223 Drizzle 10 1014 87 10000 9.8 60 07:48 01.04.2020
224 Drizzle 11 1014 87 10000 11.8 60 07:23 01.04.2020
225 Drizzle 11 1014 87 10000 11.8 60 06:59 01.04.2020
226 Clouds 11 1014 93 10000 9.3 60 06:39 01.04.2020
227 Clouds 11 1014 93 10000 9.3 60 06:20 01.04.2020
228 Clouds 11 1014 93 10000 10.3 50 04:55 01.04.2020
229 Clouds 11 1015 82 10000 8.7 60 03:36 01.04.2020
230 Clouds 11 1015 82 10000 8.2 50 02:59 01.04.2020
231 Clouds 11 1015 82 10000 8.2 60 02:31 01.04.2020
232 Clouds 11 1015 82 10000 7.2 50 01:46 01.04.2020
233 Clouds 11 1015 76 9000 7.2 50 01:24 01.04.2020
234 Clouds 11 1015 76 9000 6.7 50 00:47 01.04.2020
235 Clouds 11 1015 76 9000 6.7 50 00:21 01.04.2020
236 Clouds 11 1015 81 9000 8.7 50 23:54 31.03.2020
237 Clouds 11 1015 76 9000 7.7 60 23:36 31.03.2020
238 Clouds 11 1015 76 9000 8.2 50 23:18 31.03.2020
239 Clouds 11 1015 76 9000 9.8 50 22:40 31.03.2020
240 Clouds 11 1014 81 9000 9.3 50 22:21 31.03.2020
241 Clouds 11 1014 81 9000 9.3 50 21:58 31.03.2020
242 Clouds 11 1014 81 9000 9.3 50 21:58 31.03.2020
243 Clouds 11 1014 81 9000 9.3 50 21:39 31.03.2020
244 Clouds 11 1014 81 9000 9.3 50 21:21 31.03.2020
245 Rain 11 1014 76 9000 9.8 50 20:57 31.03.2020
246 Rain 11 1014 76 9000 9.8 50 20:37 31.03.2020
247 Rain 11 1014 76 9000 10.8 50 20:18 31.03.2020
248 Clouds 11 1014 76 9000 10.8 50 19:55 31.03.2020
249 Rain 11 1013 76 10000 9.3 60 19:37 31.03.2020
250 Drizzle 11 1013 81 7000 10.8 60 19:18 31.03.2020
251 Drizzle 11 1013 81 7000 10.8 60 19:18 31.03.2020
252 Rain 11 1013 81 6000 10.8 50 18:43 31.03.2020
253 Rain 12 1013 81 6000 9.3 60 18:20 31.03.2020
254 Rain 12 1013 81 6000 9.3 60 17:56 31.03.2020
255 Rain 12 1013 81 7000 8.2 60 17:56 31.03.2020
256 Rain 12 1013 81 7000 8.2 60 17:38 31.03.2020
257 Rain 12 1013 81 7000 8.2 60 17:38 31.03.2020
258 Rain 12 1013 81 7000 8.2 60 17:20 31.03.2020
259 Rain 12 1013 81 7000 8.2 60 16:56 31.03.2020
260 Rain 12 1013 76 8000 7.7 60 16:36 31.03.2020
261 Rain 12 1013 76 8000 7.7 60 16:18 31.03.2020
262 Rain 12 1014 76 9000 8.2 60 15:54 31.03.2020
263 Rain 12 1013 81 9000 9.3 60 15:36 31.03.2020
264 Rain 12 1014 81 9000 8.2 60 15:18 31.03.2020
265 Rain 12 1014 81 9000 9.3 60 14:41 31.03.2020
266 Rain 12 1014 81 9000 9.3 60 14:22 31.03.2020
267 Drizzle 12 1014 71 10000 9.8 70 13:58 31.03.2020
268 Clouds 13 1014 62 10000 10.3 70 13:40 31.03.2020
269 Clouds 13 1014 62 10000 10.3 70 13:19 31.03.2020
270 Clouds 12 1014 66 10000 9.3 60 12:45 31.03.2020
271 -273 0 0 0 0 0 12:20 31.03.2020
272 Clouds 11 1014 66 10000 10.3 60 11:56 31.03.2020
273 Clouds 11 1014 66 10000 10.3 60 11:37 31.03.2020
274 Clouds 11 1014 66 10000 10.3 60 11:19 31.03.2020
275 Clouds 10 1014 66 10000 8.7 60 10:55 31.03.2020
276 Clouds 10 1014 66 10000 8.7 60 10:55 31.03.2020
277 Clouds 10 1014 66 10000 8.7 60 10:37 31.03.2020
278 Clouds 10 1014 71 10000 9.3 60 10:18 31.03.2020
279 Drizzle 9 1014 76 10000 8.7 60 09:43 31.03.2020
280 Drizzle 9 1014 76 10000 8.7 60 09:25 31.03.2020
281 Clouds 9 1014 71 10000 8.7 60 08:58 31.03.2020
282 Clouds 9 1014 71 10000 7.7 50 08:40 31.03.2020
283 Clouds 9 1014 71 10000 7.7 50 08:20 31.03.2020
284 Clouds 9 1014 71 10000 7.7 50 08:20 31.03.2020
285 Clouds 9 1013 66 10000 8.7 60 07:57 31.03.2020
286 Clouds 9 1013 71 10000 10.3 60 07:38 31.03.2020
287 Clouds 9 1013 66 10000 9.3 60 07:20 31.03.2020
288 Clouds 9 1013 66 10000 9.3 60 06:51 31.03.2020
289 Clouds 9 1013 71 10000 8.7 70 06:31 31.03.2020
290 Clouds 9 1013 66 10000 8.2 70 05:41 31.03.2020
291 Clouds 8 1014 87 10000 4.6 40 03:57 31.03.2020
292 Clouds 8 1014 87 10000 2.6 340 02:30 31.03.2020
293 Clouds 8 1015 81 10000 4.1 330 01:46 31.03.2020
294 Rain 8 1015 81 10000 3.1 320 00:52 31.03.2020
295 Clouds 8 1015 81 10000 3.6 330 00:25 31.03.2020
296 Clouds 8 1015 81 10000 2.6 320 23:59 30.03.2020
297 Clouds 8 1015 81 10000 3.1 330 23:38 30.03.2020
298 Clouds 8 1015 81 10000 4.1 330 23:19 30.03.2020
299 Clouds 8 1015 81 10000 4.1 330 22:57 30.03.2020
300 Clouds 8 1015 81 10000 4.1 320 22:37 30.03.2020
301 Clouds 8 1015 81 10000 4.6 320 22:18 30.03.2020
302 Clouds 8 1015 81 10000 4.6 320 21:57 30.03.2020
303 Clouds 8 1015 81 10000 4.6 320 21:37 30.03.2020
304 Clouds 8 1015 81 10000 4.6 320 21:19 30.03.2020
305 Clouds 8 1015 81 10000 4.6 330 20:55 30.03.2020
306 Clouds 8 1015 81 10000 4.1 330 20:36 30.03.2020
307 Clouds 8 1015 81 10000 4.1 330 20:36 30.03.2020
308 Clouds 7 1015 81 10000 4.1 330 20:18 30.03.2020
309 Clouds 7 1015 87 10000 4.1 340 19:41 30.03.2020
310 Rain 7 1015 87 10000 4.1 340 19:22 30.03.2020
311 Rain 7 1015 81 10000 5.1 320 18:57 30.03.2020
312 Rain 7 1015 81 10000 3.1 320 18:39 30.03.2020
313 Rain 8 1015 81 10000 3.1 320 18:20 30.03.2020
314 Rain 8 1015 81 10000 2.1 320 17:57 30.03.2020
315 Clouds 8 1015 81 10000 2.6 340 17:38 30.03.2020
316 Clouds 8 1015 81 10000 2.6 340 17:19 30.03.2020
317 Clouds 8 1015 81 10000 3.6 320 16:56 30.03.2020
318 Clouds 8 1015 81 10000 3.6 320 16:56 30.03.2020
319 Clouds 8 1015 81 10000 3.6 330 16:38 30.03.2020
320 Rain 8 1015 81 10000 3.6 330 16:19 30.03.2020
321 Rain 8 1015 87 10000 4.1 350 15:54 30.03.2020
322 Rain 8 1015 81 10000 5.1 340 15:36 30.03.2020
323 Rain 8 1015 81 10000 5.7 340 15:18 30.03.2020
324 Rain 8 1015 81 10000 5.1 330 14:54 30.03.2020
325 Rain 8 1015 81 10000 5.1 330 14:36 30.03.2020
326 Rain 8 1015 81 10000 5.1 330 14:18 30.03.2020
327 Rain 9 1015 81 10000 3.6 320 13:43 30.03.2020
328 Rain 9 1015 81 8000 3.6 330 13:21 30.03.2020
329 Rain 9 1015 81 8000 3.6 330 12:57 30.03.2020
330 Rain 10 1015 81 7000 2.6 320 12:38 30.03.2020
331 Rain 10 1015 81 7000 2.6 320 12:38 30.03.2020
332 Rain 9 1015 87 10000 1 80 12:19 30.03.2020
333 Clouds 10 1015 87 10000 1 80 11:56 30.03.2020
334 Clouds 10 1015 87 10000 2.6 70 11:38 30.03.2020
335 Clouds 10 1015 87 10000 2.6 70 11:20 30.03.2020
336 Rain 10 1014 93 8000 4.6 70 10:39 30.03.2020
337 Rain 10 1014 87 5000 4.1 60 10:21 30.03.2020
338 Rain 10 1014 87 5000 4.1 60 09:56 30.03.2020
339 Rain 10 1014 87 5000 4.1 60 09:56 30.03.2020
340 Rain 10 1013 87 10000 6.2 80 09:38 30.03.2020
341 Rain 10 1013 81 10000 4.1 60 09:18 30.03.2020
342 Clouds 10 1013 76 10000 7.2 70 08:41 30.03.2020
343 Clouds 10 1013 76 10000 7.2 70 08:22 30.03.2020
344 Clouds 10 1013 76 10000 7.2 70 08:22 30.03.2020
345 Clouds 10 1013 71 10000 8.2 70 07:49 30.03.2020
346 Clouds 11 1013 71 10000 8.2 70 07:31 30.03.2020
347 Clouds 11 1013 76 10000 8.2 80 06:56 30.03.2020
348 Clouds 11 1013 76 10000 7.7 70 06:32 30.03.2020
349 Clouds 11 1013 76 10000 9.8 60 05:54 30.03.2020
350 Clouds 11 1013 76 10000 9.8 60 05:22 30.03.2020
351 Clouds 11 1013 67 10000 9.3 70 04:23 30.03.2020
352 Clouds 11 1013 82 10000 5.1 60 03:44 30.03.2020
353 Clouds 12 1013 82 10000 2.1 70 02:42 30.03.2020
354 Clouds 12 1013 76 10000 1 0 01:44 30.03.2020
355 Clouds 12 1013 77 10000 1.5 150 00:50 30.03.2020
356 Clouds 13 1013 77 10000 1.5 120 00:23 30.03.2020
357 Clouds 13 1014 72 10000 1 0 23:42 29.03.2020
358 Clouds 13 1014 72 10000 1 0 23:24 29.03.2020
359 Clouds 13 1014 67 10000 0.5 70 22:59 29.03.2020
360 Clouds 13 1014 67 10000 1 60 22:39 29.03.2020
361 Clouds 13 1014 67 10000 1 60 22:19 29.03.2020
362 Clouds 13 1014 67 10000 1 0 21:57 29.03.2020
363 Clouds 14 1014 72 10000 2.6 90 21:36 29.03.2020
364 Clouds 14 1014 72 10000 2.6 90 21:18 29.03.2020
365 Clouds 14 1013 72 10000 2.6 90 20:55 29.03.2020
366 Clouds 14 1013 72 10000 3.1 100 20:37 29.03.2020
367 Clouds 14 1013 72 10000 3.1 100 20:37 29.03.2020
368 Clouds 14 1013 72 10000 3.1 100 20:37 29.03.2020
369 Clouds 15 1013 67 10000 3.6 100 20:18 29.03.2020
370 Clouds 15 1013 67 10000 3.6 100 19:54 29.03.2020
371 Clouds 16 1013 63 10000 4.1 80 19:36 29.03.2020
372 Clouds 16 1013 59 10000 4.6 70 19:18 29.03.2020
373 Clouds 16 1013 59 10000 4.6 70 18:54 29.03.2020
374 Clouds 16 1013 51 10000 3.1 100 18:36 29.03.2020
375 Clouds 16 1013 51 10000 3.1 100 18:36 29.03.2020
376 Clouds 17 1013 55 10000 2.1 0 18:18 29.03.2020
377 Clouds 17 1013 55 10000 2.1 0 18:18 29.03.2020
378 Clouds 18 1013 55 10000 3.1 180 17:42 29.03.2020
379 Clouds 18 1013 55 10000 4.1 180 17:22 29.03.2020
380 Clouds 18 1013 55 10000 4.1 180 16:59 29.03.2020
381 Clouds 18 1013 52 10000 5.1 200 16:40 29.03.2020
382 Clouds 18 1013 52 10000 5.1 200 16:21 29.03.2020
383 Clouds 19 1013 48 10000 5.1 200 15:58 29.03.2020
384 Clouds 19 1014 45 10000 4.1 210 15:40 29.03.2020
385 Clouds 19 1014 45 10000 4.1 210 15:20 29.03.2020
386 Clouds 19 1014 55 10000 3.6 210 14:56 29.03.2020
387 Clouds 19 1014 63 10000 4.6 190 14:37 29.03.2020
388 Clouds 19 1014 63 10000 4.6 190 14:19 29.03.2020
389 Clouds 19 1014 63 10000 4.6 200 13:55 29.03.2020
390 Clouds 18 1015 63 10000 4.1 200 13:37 29.03.2020
391 Clouds 18 1015 48 10000 2.6 230 13:18 29.03.2020
392 Clouds 18 1015 48 10000 2.6 230 12:54 29.03.2020
393 Clouds 18 1015 48 10000 2.6 230 12:54 29.03.2020
394 Clouds 17 1015 51 10000 3.1 310 12:36 29.03.2020
395 Clouds 15 1015 51 10000 3.6 310 12:18 29.03.2020
396 Clouds 15 1015 58 10000 4.1 320 11:38 29.03.2020
397 Clouds 15 1015 58 10000 4.1 320 11:20 29.03.2020
398 Clouds 13 1015 66 10000 5.1 330 10:40 29.03.2020
399 Clouds 12 1015 66 10000 5.1 330 10:21 29.03.2020
400 Clouds 12 1015 71 10000 5.7 330 09:59 29.03.2020
401 Clouds 11 1015 76 10000 5.1 330 09:38 29.03.2020
402 Clouds 9 1016 76 10000 5.7 330 09:19 29.03.2020
403 Clouds 8 1016 76 10000 5.7 330 08:45 29.03.2020
404 Clouds 9 1015 76 10000 4.6 320 08:27 29.03.2020
405 Clouds 8 1015 76 10000 4.1 320 07:56 29.03.2020
406 Clouds 8 1015 76 10000 3.6 320 07:37 29.03.2020
407 Clouds 8 1015 81 10000 4.1 320 07:19 29.03.2020
408 Clouds 9 1016 76 10000 2.6 310 04:58 29.03.2020
409 Clouds 10 1017 76 10000 1 310 03:42 29.03.2020
410 Clouds 10 1017 76 10000 1 310 03:24 29.03.2020
411 Clouds 10 1017 71 10000 1.5 290 01:50 29.03.2020
412 Clouds 11 1017 66 10000 2.6 300 01:23 29.03.2020
413 Clouds 11 1017 66 10000 3.1 270 00:53 29.03.2020
414 Clouds 11 1017 66 10000 5.7 240 00:29 29.03.2020
415 Clouds 11 1017 66 10000 5.1 230 23:42 28.03.2020
416 Clouds 11 1017 66 10000 5.1 230 23:23 28.03.2020
417 Clouds 11 1017 71 10000 5.1 230 22:57 28.03.2020
418 Clouds 12 1017 67 10000 3.6 240 22:37 28.03.2020
419 Clouds 12 1017 67 10000 3.6 240 22:18 28.03.2020
420 Clouds 12 1017 67 10000 4.6 230 21:42 28.03.2020
421 Clouds 12 1017 67 10000 4.6 230 21:24 28.03.2020
422 Clouds 13 1017 67 10000 4.1 220 20:58 28.03.2020
423 Clouds 13 1017 71 10000 4.1 230 20:39 28.03.2020
424 Clouds 13 1017 71 10000 4.1 230 20:21 28.03.2020
425 Clouds 13 1017 71 10000 3.6 220 19:56 28.03.2020
426 Clouds 13 1017 71 10000 3.6 220 19:56 28.03.2020
427 Clouds 14 1016 62 10000 4.1 220 19:37 28.03.2020
428 Clouds 14 1016 58 10000 4.6 210 19:19 28.03.2020
429 Clouds 14 1016 58 10000 4.6 210 18:55 28.03.2020
430 Clouds 15 1016 58 10000 4.6 210 18:36 28.03.2020
431 Clouds 15 1016 62 10000 4.6 210 18:18 28.03.2020
432 Clouds 15 1016 58 10000 4.1 210 17:38 28.03.2020
433 Clouds 16 1016 54 10000 4.6 210 17:19 28.03.2020
434 Clouds 16 1017 55 10000 4.6 200 16:42 28.03.2020
435 Clouds 16 1017 55 10000 4.6 200 16:20 28.03.2020
436 Clouds 16 1017 51 10000 4.1 190 15:56 28.03.2020
437 Clouds 17 1017 54 10000 3.6 170 15:38 28.03.2020
438 Clouds 17 1017 51 10000 3.6 160 15:19 28.03.2020
439 Clouds 17 1017 48 10000 3.1 150 14:43 28.03.2020
440 Clouds 17 1017 48 10000 3.1 150 14:23 28.03.2020
441 Clouds 17 1017 48 10000 3.1 150 13:59 28.03.2020
442 Clouds 17 1017 48 10000 3.1 140 13:38 28.03.2020
443 Clouds 17 1018 48 10000 3.1 110 13:18 28.03.2020
444 Clouds 16 1018 44 10000 4.1 90 12:39 28.03.2020
445 Clouds 16 1018 44 10000 4.1 90 12:21 28.03.2020
446 Clouds 15 1018 51 10000 2.6 60 11:42 28.03.2020
447 Clouds 13 1017 51 10000 1.5 350 11:21 28.03.2020
448 Clouds 14 1017 51 10000 1.5 350 10:56 28.03.2020
449 Clouds 13 1017 54 10000 3.1 320 10:37 28.03.2020
450 Clouds 12 1017 58 10000 3.6 320 10:18 28.03.2020
451 Clouds 11 1017 58 10000 4.1 320 09:41 28.03.2020
452 Clouds 11 1017 58 10000 4.1 320 09:22 28.03.2020
453 Clouds 10 1017 71 10000 4.1 320 08:45 28.03.2020
454 Clouds 9 1017 71 10000 4.1 320 08:27 28.03.2020
455 Clouds 9 1016 71 10000 4.6 320 07:59 28.03.2020
456 Clouds 9 1016 71 10000 3.6 320 07:41 28.03.2020
457 Clouds 9 1016 66 10000 4.1 320 06:55 28.03.2020
458 Clouds 9 1016 71 10000 4.1 320 06:32 28.03.2020
459 Clouds 9 1016 71 10000 4.6 320 05:39 28.03.2020
460 Clouds 9 1016 71 10000 5.1 320 05:19 28.03.2020
461 Clouds 9 1016 71 10000 4.1 330 04:39 28.03.2020
462 Clouds 9 1016 71 10000 4.1 320 02:55 28.03.2020
463 Clouds 10 1016 71 10000 4.1 320 01:48 28.03.2020
464 Clouds 9 1016 76 10000 3.6 320 01:24 28.03.2020
465 Clouds 10 1016 71 10000 2.6 320 00:54 28.03.2020
466 Clouds 10 1016 71 10000 2.6 300 00:33 28.03.2020
467 Clouds 9 1016 76 10000 3.1 320 23:45 27.03.2020
468 Clouds 9 1016 76 10000 3.1 320 23:26 27.03.2020
469 Clouds 9 1016 81 10000 2.1 300 22:58 27.03.2020
470 Drizzle 9 1016 71 10000 1.5 290 22:40 27.03.2020
471 Drizzle 9 1016 71 10000 1.5 290 22:21 27.03.2020
472 Drizzle 9 1016 71 10000 1.5 270 22:00 27.03.2020
473 Rain 10 1016 76 10000 1.5 300 21:41 27.03.2020
474 Rain 10 1016 76 10000 1.5 300 21:23 27.03.2020
475 Clouds 10 1016 71 10000 0.5 210 20:58 27.03.2020
476 Clouds 10 1015 66 10000 3.18 356 20:39 27.03.2020
477 Clouds 10 1015 62 10000 3.6 70 20:19 27.03.2020
478 Clouds 10 1015 62 10000 3.6 70 19:56 27.03.2020
479 Drizzle 11 1015 46 10000 1 90 19:38 27.03.2020
480 Drizzle 11 1015 47 10000 2.6 100 19:19 27.03.2020
481 Clouds 12 1014 43 10000 2.1 200 18:43 27.03.2020
482 Clouds 12 1014 43 10000 2.1 200 18:23 27.03.2020
483 Clouds 12 1014 47 10000 3.1 210 17:57 27.03.2020
484 Clouds 12 1014 47 10000 3.1 210 17:38 27.03.2020
485 Clouds 13 1013 43 10000 3.6 210 17:19 27.03.2020
486 Clouds 13 1014 43 10000 4.1 210 16:44 27.03.2020
487 Clouds 13 1014 43 10000 4.1 210 16:25 27.03.2020
488 Clouds 13 1014 43 10000 4.1 210 16:25 27.03.2020
489 Clouds 13 1014 43 10000 4.1 210 16:25 27.03.2020
490 Clouds 14 1013 35 10000 4.1 160 15:46 27.03.2020
491 Clouds 14 1013 35 10000 4.1 160 15:27 27.03.2020
492 Clouds 15 1013 35 10000 4.1 170 14:59 27.03.2020
493 Clouds 14 1013 35 10000 4.1 170 14:40 27.03.2020
494 Clouds 15 1013 38 10000 3.1 170 14:21 27.03.2020
495 Clouds 15 1013 38 10000 3.1 170 13:54 27.03.2020
496 Clouds 15 1013 37 10000 3.6 180 13:36 27.03.2020
497 Clouds 14 1013 37 10000 3.6 180 13:18 27.03.2020
498 Clouds 14 1014 37 10000 1.5 320 12:42 27.03.2020
499 Clouds 13 1014 44 10000 5.1 320 12:19 27.03.2020
500 Clouds 13 1014 50 10000 5.7 330 11:44 27.03.2020
501 Clouds 13 1014 50 10000 5.7 330 11:25 27.03.2020
502 Clouds 11 1014 53 10000 5.7 310 10:59 27.03.2020
503 Clouds 10 1014 66 10000 5.1 320 10:41 27.03.2020
504 Clouds 9 1014 61 10000 5.7 310 10:22 27.03.2020
505 Clouds 9 1014 61 10000 5.7 310 09:58 27.03.2020
506 Clouds 8 1014 65 10000 6.7 310 09:40 27.03.2020
507 Clouds 7 1014 65 10000 6.7 310 09:22 27.03.2020
508 Clouds 8 1014 70 10000 6.7 310 08:58 27.03.2020
509 Clouds 8 1014 70 10000 6.7 310 08:58 27.03.2020
510 Clouds 7 1013 75 10000 6.2 300 08:40 27.03.2020
511 Clouds 6 1013 58 10000 4.6 300 08:21 27.03.2020
512 Clouds 6 1013 58 10000 4.6 300 07:55 27.03.2020
513 Clouds 5 1013 58 10000 5.7 320 07:37 27.03.2020
514 Clouds 6 1013 80 10000 6.7 320 07:19 27.03.2020
515 Clouds 6 1013 80 10000 5.7 320 06:38 27.03.2020
516 Clouds 6 1013 80 10000 5.7 320 05:45 27.03.2020
517 Clouds 6 1013 80 10000 4.6 320 03:26 27.03.2020
518 Clouds 7 1013 75 10000 3.6 320 01:55 27.03.2020
519 Clouds 6 1013 70 10000 4.1 320 01:18 27.03.2020
520 Clouds 6 1013 70 10000 3.1 320 00:38 27.03.2020
521 Clouds 6 1013 70 10000 3.1 320 00:19 27.03.2020
522 Clouds 7 1013 65 10000 2.1 320 23:37 26.03.2020
523 Clouds 8 1013 65 10000 3.1 360 23:18 26.03.2020
524 Clouds 8 1013 65 10000 3.1 360 22:56 26.03.2020
525 Clouds 8 1013 61 10000 3.6 20 22:36 26.03.2020
526 Clouds 8 1013 61 10000 3.6 20 22:18 26.03.2020
527 Clouds 9 1012 57 10000 3.1 30 21:40 26.03.2020
528 Clouds 9 1012 57 10000 3.1 30 21:21 26.03.2020
529 Clouds 9 1012 57 10000 4.6 40 20:59 26.03.2020
530 Clouds 9 1012 57 10000 5.1 30 20:39 26.03.2020
531 Clouds 9 1012 57 10000 5.1 30 20:21 26.03.2020
532 Clouds 9 1012 61 10000 6.7 50 19:58 26.03.2020
533 Clouds 9 1012 61 10000 6.7 50 19:58 26.03.2020
534 Clouds 9 1011 61 10000 6.7 60 19:39 26.03.2020
535 Clouds 9 1011 61 10000 6.7 60 19:21 26.03.2020
536 Clouds 9 1011 70 10000 8.7 60 18:58 26.03.2020
537 Clouds 9 1011 66 10000 9.8 60 18:40 26.03.2020
538 Clouds 9 1010 66 10000 9.8 60 18:21 26.03.2020
539 Clouds 10 1010 66 10000 4.1 50 17:44 26.03.2020
540 Clouds 10 1010 66 10000 10.8 40 17:20 26.03.2020
541 Clouds 10 1010 66 10000 10.8 40 16:57 26.03.2020
542 Clouds 10 1009 66 10000 5.1 50 16:38 26.03.2020
543 Clouds 10 1009 62 10000 10.8 60 16:18 26.03.2020
544 Clouds 11 1009 62 10000 10.8 60 15:54 26.03.2020
545 Clouds 10 1009 62 10000 10.3 60 15:36 26.03.2020
546 Clouds 11 1009 62 10000 10.8 60 15:18 26.03.2020
547 Clouds 10 1009 62 10000 10.3 60 14:42 26.03.2020
548 Clouds 10 1009 62 10000 10.3 60 14:24 26.03.2020
549 Clouds 10 1009 62 10000 10.3 60 13:54 26.03.2020
550 Clouds 10 1009 66 10000 9.3 60 13:36 26.03.2020
551 Clouds 10 1009 71 10000 9.8 70 13:18 26.03.2020
552 Clouds 10 1008 62 10000 4.6 50 12:38 26.03.2020
553 Clouds 10 1008 66 10000 10.8 60 12:38 26.03.2020
554 Clouds 11 1008 66 10000 10.8 60 12:20 26.03.2020
555 Clouds 11 1008 58 10000 7.2 60 11:46 26.03.2020
556 Clouds 10 1008 57 10000 4.6 40 11:23 26.03.2020
557 Clouds 11 1008 57 10000 4.6 40 10:57 26.03.2020
558 Clouds 10 1008 61 10000 2.6 350 10:39 26.03.2020
559 Clouds 10 1008 61 10000 2.6 350 10:19 26.03.2020
560 Clouds 8 1008 66 10000 4.1 320 09:44 26.03.2020
561 Clouds 7 1008 75 10000 4.1 320 09:21 26.03.2020
562 Clouds 7 1008 75 10000 4.1 320 08:57 26.03.2020
563 Clouds 7 1008 75 10000 3.6 320 08:38 26.03.2020
564 Clouds 7 1008 75 10000 3.6 320 08:19 26.03.2020
565 Clouds 7 1008 80 10000 3.1 330 07:44 26.03.2020
566 Clouds 7 1008 75 10000 1 0 07:22 26.03.2020
567 Clouds 7 1008 75 10000 1 0 06:57 26.03.2020
568 Clouds 7 1009 80 10000 1 0 06:27 26.03.2020
569 Clouds 7 1009 80 10000 2.6 310 05:29 26.03.2020
570 Clouds 7 1011 75 10000 3.1 320 03:45 26.03.2020
571 Clouds 7 1011 81 10000 3.1 310 02:56 26.03.2020
572 Clouds 8 1012 81 10000 2.6 300 01:51 26.03.2020
573 Clouds 8 1013 75 10000 2.6 340 00:56 26.03.2020
574 Clouds 8 1013 75 10000 2.6 320 00:23 26.03.2020
575 Clouds 9 1014 75 10000 2.1 310 23:42 25.03.2020
576 Clouds 9 1014 70 10000 2.6 310 23:22 25.03.2020
577 Clouds 9 1015 65 10000 2.1 300 22:42 25.03.2020
578 Clouds 8 1015 65 10000 2.1 300 22:22 25.03.2020
579 Clouds 9 1015 61 10000 1 300 21:59 25.03.2020
580 Clouds 9 1015 61 10000 1.5 280 21:40 25.03.2020
581 Clouds 9 1015 66 10000 3.1 250 21:22 25.03.2020
582 Clouds 9 1015 66 10000 3.1 250 20:57 25.03.2020
583 Clouds 9 1015 61 10000 3.1 240 20:37 25.03.2020
584 Clouds 10 1015 61 10000 3.1 240 20:18 25.03.2020
585 Clouds 10 1015 57 10000 3.1 220 19:43 25.03.2020
586 Clouds 10 1015 57 10000 3.1 220 19:24 25.03.2020
587 Clouds 10 1015 53 10000 3.1 200 18:59 25.03.2020
588 Clouds 10 1015 53 10000 2.1 190 18:41 25.03.2020
589 Clouds 10 1015 53 10000 2.1 190 18:23 25.03.2020
590 Drizzle 10 1015 53 10000 2.1 180 17:58 25.03.2020
591 Drizzle 10 1015 53 10000 2.1 180 17:58 25.03.2020
592 Drizzle 10 1015 53 10000 2.1 150 17:39 25.03.2020
593 Drizzle 10 1015 53 10000 2.1 150 17:21 25.03.2020
594 Rain 10 1015 57 10000 3.1 180 16:55 25.03.2020
595 Drizzle 10 1016 57 10000 3.1 160 16:37 25.03.2020
596 Rain 10 1016 54 10000 3.1 150 16:19 25.03.2020
597 Clouds 11 1016 46 10000 2.6 170 15:41 25.03.2020
598 Clouds 12 1016 46 10000 2.6 160 15:20 25.03.2020
599 Clouds 12 1016 46 10000 2.6 160 14:56 25.03.2020
600 Clouds 12 1017 44 10000 2.1 120 14:37 25.03.2020
601 Drizzle 12 1017 50 10000 1.5 80 14:19 25.03.2020
602 Clouds 12 1017 53 10000 2.6 130 13:44 25.03.2020
603 Clouds 12 1017 53 10000 2.6 130 13:24 25.03.2020
604 Clouds 12 1017 46 10000 4.6 60 12:39 25.03.2020
605 Clouds 12 1017 46 10000 4.6 60 12:39 25.03.2020
606 Clouds 12 1017 46 10000 4.6 60 12:21 25.03.2020
607 Clouds 12 1017 50 10000 4.1 310 11:57 25.03.2020
608 Clouds 12 1018 53 10000 6.2 310 11:39 25.03.2020
609 Clouds 11 1018 53 10000 5.7 330 11:21 25.03.2020
610 Clouds 10 1018 53 10000 5.7 330 10:58 25.03.2020
611 Clouds 10 1018 47 10000 4.1 330 10:39 25.03.2020
612 Clouds 10 1018 47 10000 4.1 330 10:39 25.03.2020
613 Clouds 10 1018 47 10000 4.1 330 10:18 25.03.2020
614 Clouds 10 1018 46 10000 3.6 320 09:56 25.03.2020
615 Clouds 10 1018 47 10000 3.1 340 09:38 25.03.2020
616 Clouds 9 1018 47 10000 0.5 310 09:19 25.03.2020
617 Clouds 9 1018 57 10000 5.7 20 08:41 25.03.2020
618 Clouds 9 1018 57 10000 5.7 20 08:23 25.03.2020
619 Clouds 9 1018 57 10000 3.6 360 07:56 25.03.2020
620 Clouds 9 1018 46 10000 5.7 30 07:37 25.03.2020
621 Clouds 9 1017 46 10000 4.6 30 07:18 25.03.2020
622 Clouds 9 1017 46 10000 5.1 40 06:41 25.03.2020
623 Clouds 9 1017 46 10000 5.1 40 06:23 25.03.2020
624 Clouds 9 1018 53 10000 5.7 20 05:47 25.03.2020
625 Clouds 9 1018 53 10000 6.7 40 04:42 25.03.2020
626 Clouds 9 1018 53 10000 6.2 30 03:57 25.03.2020
627 Clouds 10 1018 57 10000 6.7 30 03:32 25.03.2020
628 Clouds 10 1019 53 10000 3.6 30 01:40 25.03.2020
629 Clouds 10 1019 57 10000 4.1 40 00:50 25.03.2020
630 Clouds 10 1019 57 10000 7.2 60 00:27 25.03.2020
631 Clouds 10 1020 57 10000 6.7 60 23:58 24.03.2020
632 Clouds 10 1020 57 10000 6.7 50 23:39 24.03.2020
633 Clouds 10 1020 62 10000 6.7 50 23:19 24.03.2020
634 Clouds 10 1020 62 10000 8.7 50 22:54 24.03.2020
635 Clouds 10 1020 62 10000 8.7 50 22:36 24.03.2020
636 Clouds 10 1020 62 10000 8.7 50 22:18 24.03.2020
637 Clouds 11 1019 62 10000 9.3 70 21:42 24.03.2020
638 Clouds 11 1019 62 10000 9.3 70 21:19 24.03.2020
639 Clouds 11 1019 58 10000 9.3 70 20:59 24.03.2020
640 Clouds 11 1019 62 10000 9.3 60 20:40 24.03.2020
641 Clouds 11 1019 62 10000 9.3 60 20:22 24.03.2020
642 Clouds 11 1019 62 10000 10.3 60 19:48 24.03.2020
643 Clouds 11 1019 62 10000 10.8 60 19:22 24.03.2020
644 Clouds 12 1019 62 10000 9.8 70 18:59 24.03.2020
645 Clouds 12 1018 62 10000 10.8 70 18:39 24.03.2020
646 Clouds 12 1019 62 10000 9.3 70 18:20 24.03.2020
647 Clouds 12 1019 62 10000 9.3 70 17:58 24.03.2020
648 Clouds 12 1019 71 10000 8.7 70 17:40 24.03.2020
649 Clouds 12 1019 71 10000 8.7 70 17:40 24.03.2020
650 Clouds 12 1019 71 10000 8.7 70 17:22 24.03.2020
651 Clouds 12 1019 67 10000 8.2 90 16:57 24.03.2020
652 Clouds 12 1019 66 10000 7.2 90 16:57 24.03.2020
653 Clouds 12 1019 67 10000 8.2 90 16:38 24.03.2020
654 Clouds 12 1019 62 10000 7.7 90 16:20 24.03.2020
655 Clouds 13 1019 58 10000 9.3 80 15:43 24.03.2020
656 Clouds 13 1019 58 10000 9.3 80 15:25 24.03.2020
657 Clouds 13 1019 62 10000 9.3 80 14:57 24.03.2020
658 Clouds 13 1020 62 10000 8.2 80 14:37 24.03.2020
659 Clouds 14 1020 58 10000 8.7 70 14:18 24.03.2020
660 Clouds 13 1020 54 10000 8.7 80 13:41 24.03.2020
661 Clouds 13 1020 58 10000 9.3 70 13:22 24.03.2020
662 Clouds 13 1020 58 10000 9.8 60 12:47 24.03.2020
663 Clouds 13 1020 58 10000 9.8 60 12:28 24.03.2020
664 Clouds 14 1020 62 10000 8.7 60 11:58 24.03.2020
665 Clouds 13 1021 62 10000 9.8 60 11:39 24.03.2020
666 Clouds 13 1021 62 10000 9.8 60 11:18 24.03.2020
667 Clouds 13 1021 62 10000 9.3 50 10:42 24.03.2020
668 Clouds 13 1021 62 10000 9.3 50 10:19 24.03.2020
669 Clouds 12 1021 66 10000 8.2 60 09:55 24.03.2020
670 Clouds 12 1020 66 10000 9.3 40 09:37 24.03.2020
671 Clouds 12 1020 71 10000 7.7 50 09:19 24.03.2020
672 Clouds 11 1020 76 10000 7.7 50 08:38 24.03.2020
673 Clouds 11 1020 76 10000 7.7 50 08:20 24.03.2020
674 Clouds 10 1020 76 10000 6.2 40 07:47 24.03.2020
675 Clouds 10 1020 76 10000 6.2 40 07:24 24.03.2020
676 -273 0 0 0 0 0 06:50 24.03.2020
677 Clouds 10 1020 76 10000 7.7 50 06:24 24.03.2020
678 Clouds 11 1020 81 10000 8.7 50 04:57 24.03.2020
679 Clouds 11 1020 81 10000 8.7 50 03:46 24.03.2020
680 Clouds 11 1021 76 10000 6.7 50 02:49 24.03.2020
681 Clouds 12 1021 76 10000 7.7 50 01:42 24.03.2020
682 Clouds 12 1021 76 10000 7.7 50 00:44 24.03.2020
683 Clouds 12 1021 76 10000 7.7 50 00:23 24.03.2020
684 Clouds 12 1021 76 10000 8.7 70 23:44 23.03.2020
685 Clouds 12 1021 76 10000 8.7 70 23:26 23.03.2020
686 Clouds 12 1020 87 10000 8.2 60 22:55 23.03.2020
687 Clouds 12 1020 87 10000 8.2 60 22:36 23.03.2020
688 Clouds 12 1020 87 10000 9.8 60 22:18 23.03.2020
689 Clouds 12 1020 87 10000 7.7 50 21:42 23.03.2020
690 Clouds 12 1020 87 10000 7.7 50 21:20 23.03.2020
691 Clouds 12 1020 82 10000 10.8 60 20:57 23.03.2020
692 Clouds 12 1020 76 10000 8.7 60 20:39 23.03.2020
693 Clouds 13 1020 76 10000 8.7 60 20:19 23.03.2020
694 Clouds 13 1019 82 10000 9.3 60 19:45 23.03.2020
695 Clouds 13 1019 82 10000 8.7 60 19:27 23.03.2020
696 Clouds 13 1019 82 10000 8.2 80 18:59 23.03.2020
697 Clouds 14 1019 77 10000 8.2 70 18:40 23.03.2020
698 Clouds 14 1019 72 10000 8.2 80 18:21 23.03.2020
699 Clouds 14 1018 77 10000 8.7 60 17:43 23.03.2020
700 Clouds 15 1018 67 10000 4.6 50 17:21 23.03.2020
701 Clouds 15 1018 67 10000 4.6 50 16:59 23.03.2020
702 Clouds 15 1019 77 10000 10.3 60 16:39 23.03.2020
703 Clouds 15 1019 77 10000 10.3 60 16:20 23.03.2020
704 Clouds 15 1019 72 10000 7.7 70 15:42 23.03.2020
705 Clouds 15 1019 77 10000 8.7 60 15:20 23.03.2020
706 Clouds 15 1019 77 10000 8.7 60 14:55 23.03.2020
707 Clouds 15 1019 77 10000 8.2 60 14:36 23.03.2020
708 Clouds 15 1019 77 10000 8.2 60 14:18 23.03.2020
709 Clouds 14 1020 87 10000 7.2 50 13:40 23.03.2020
710 Drizzle 14 1020 93 10000 5.7 50 13:21 23.03.2020
711 Rain 13 1020 93 6000 2.6 30 12:46 23.03.2020
712 Drizzle 13 1019 93 10000 6.2 30 12:26 23.03.2020
713 Drizzle 13 1019 93 10000 6.2 30 11:59 23.03.2020
714 Rain 13 1019 93 8000 1.5 350 11:40 23.03.2020
715 Rain 13 1019 93 8000 1.5 350 11:21 23.03.2020
716 Rain 12 1019 93 6000 5.1 340 10:58 23.03.2020
717 Thunderstorm 12 1019 93 10000 5.7 50 10:39 23.03.2020
718 Drizzle 12 1019 87 10000 6.2 80 10:21 23.03.2020
719 Rain 12 1018 93 9000 3.6 40 09:48 23.03.2020
720 Rain 12 1018 87 9000 3.6 60 09:21 23.03.2020
721 Rain 12 1018 87 9000 3.6 60 08:58 23.03.2020
722 Drizzle 12 1018 93 9000 6.2 80 08:37 23.03.2020
723 Drizzle 12 1017 87 10000 5.7 40 08:19 23.03.2020
724 Drizzle 12 1017 87 10000 5.7 40 07:48 23.03.2020
725 Drizzle 12 1017 87 10000 6.2 40 07:29 23.03.2020
726 Rain 12 1017 87 10000 6.2 40 06:52 23.03.2020
727 Drizzle 12 1017 87 9000 7.2 40 06:20 23.03.2020
728 Drizzle 12 1016 87 9000 5.1 40 05:34 23.03.2020
729 Rain 12 1016 87 10000 4.6 50 03:45 23.03.2020
730 Rain 12 1016 87 10000 4.6 60 02:37 23.03.2020
731 Clouds 12 1016 87 10000 5.1 60 01:34 23.03.2020
732 Clouds 12 1016 93 9000 3.6 60 00:40 23.03.2020
733 Clouds 12 1016 93 9000 4.1 60 23:53 22.03.2020
734 Clouds 12 1016 93 9000 5.1 50 23:27 22.03.2020
735 Drizzle 12 1016 93 8000 4.6 60 22:59 22.03.2020
736 Drizzle 12 1016 93 9000 3.6 70 22:39 22.03.2020
737 Drizzle 13 1016 93 10000 3.1 50 22:18 22.03.2020
738 Drizzle 13 1016 93 10000 4.1 60 21:40 22.03.2020
739 Drizzle 13 1016 93 10000 4.1 60 21:20 22.03.2020
740 Rain 13 1015 93 10000 4.1 70 20:58 22.03.2020
741 Rain 13 1015 93 5000 6.2 90 20:39 22.03.2020
742 Rain 13 1015 93 5000 6.2 90 20:21 22.03.2020
743 Rain 13 1015 93 10000 5.7 60 19:55 22.03.2020
744 Rain 13 1014 87 10000 6.7 70 19:37 22.03.2020
745 Clouds 14 1014 87 10000 6.7 70 19:18 22.03.2020
746 Clouds 14 1014 82 10000 6.7 70 18:56 22.03.2020
747 Clouds 14 1014 82 10000 6.7 70 18:37 22.03.2020
748 Clouds 14 1014 82 10000 5.1 70 18:18 22.03.2020
749 Clouds 14 1014 82 10000 5.1 70 17:56 22.03.2020
750 Clouds 15 1013 82 10000 6.2 70 17:36 22.03.2020
751 Clouds 15 1013 82 10000 6.2 70 17:36 22.03.2020
752 Clouds 15 1013 82 10000 6.2 70 17:36 22.03.2020
753 Clouds 15 1013 82 10000 6.7 70 17:18 22.03.2020
754 Clouds 15 1013 82 10000 6.7 70 16:54 22.03.2020
755 Clouds 15 1013 82 10000 6.2 70 16:36 22.03.2020
756 Clouds 15 1013 82 10000 6.2 70 16:18 22.03.2020
757 Clouds 16 1013 77 10000 7.2 70 15:39 22.03.2020
758 Clouds 16 1013 77 10000 7.2 70 14:47 22.03.2020
759 Clouds 16 1013 77 10000 7.2 70 14:20 22.03.2020
760 Clouds 16 1014 77 10000 6.7 90 13:58 22.03.2020
761 Clouds 16 1014 77 10000 6.7 90 13:58 22.03.2020
762 Clouds 16 1014 77 10000 6.2 70 13:40 22.03.2020
763 Clouds 16 1014 77 10000 6.2 70 13:19 22.03.2020
764 Clouds 16 1014 77 10000 6.2 70 12:47 22.03.2020
765 Clouds 15 1014 77 10000 6.7 70 12:23 22.03.2020
766 Clouds 15 1014 82 10000 7.2 70 11:59 22.03.2020
767 Clouds 15 1014 82 10000 6.2 70 11:41 22.03.2020
768 Clouds 15 1014 82 10000 6.2 70 11:22 22.03.2020
769 Clouds 15 1013 82 10000 5.7 70 10:54 22.03.2020
770 Clouds 14 1013 77 10000 5.1 50 10:36 22.03.2020
771 Clouds 14 1013 82 10000 4.6 50 10:18 22.03.2020
772 Clouds 13 1013 87 10000 2.1 350 09:41 22.03.2020
773 Clouds 12 1013 87 10000 2.1 350 09:19 22.03.2020
774 Clouds 11 1012 93 10000 3.6 330 08:43 22.03.2020
775 Clouds 10 1012 93 9000 3.1 320 08:24 22.03.2020
776 Clouds 9 1012 93 9000 3.1 320 07:51 22.03.2020
777 Clouds 10 1012 87 9000 3.6 320 07:23 22.03.2020
778 Clouds 10 1012 87 10000 3.6 320 06:35 22.03.2020
779 Clouds 10 1012 87 10000 2.6 320 05:35 22.03.2020
780 Clouds 10 1012 87 10000 2.6 330 03:30 22.03.2020
781 Clouds 11 1013 87 10000 1.5 320 01:27 22.03.2020
782 Clouds 11 1013 87 10000 2.1 320 00:48 22.03.2020
783 Clouds 12 1013 87 10000 2.1 320 00:28 22.03.2020
784 Clouds 12 1013 93 10000 2.1 40 23:43 21.03.2020
785 Clouds 12 1013 93 10000 2.1 40 23:19 21.03.2020
786 Clouds 12 1013 93 10000 2.6 60 22:58 21.03.2020
787 Clouds 12 1013 93 10000 2.6 50 22:37 21.03.2020
788 Clouds 12 1013 93 10000 1.5 70 22:18 21.03.2020
789 Clouds 12 1013 93 10000 1.5 70 21:56 21.03.2020
790 Clouds 12 1013 93 10000 2.6 50 21:37 21.03.2020
791 Clouds 12 1013 87 10000 2.6 50 21:18 21.03.2020
792 Clouds 13 1013 82 10000 2.6 60 20:41 21.03.2020
793 Clouds 13 1013 82 10000 2.6 60 20:20 21.03.2020
794 Clouds 13 1013 82 10000 3.1 60 19:45 21.03.2020
795 Clouds 14 1012 82 10000 3.1 70 19:25 21.03.2020
796 Clouds 14 1012 82 10000 3.6 80 18:59 21.03.2020
797 Clouds 14 1012 77 10000 3.6 80 18:40 21.03.2020
798 Clouds 14 1012 77 10000 3.6 80 18:20 21.03.2020
799 Clouds 15 1012 72 10000 4.1 90 17:57 21.03.2020
800 Clouds 15 1012 72 10000 4.1 90 17:39 21.03.2020
801 Clouds 15 1012 72 10000 4.1 90 17:21 21.03.2020
802 Clouds 16 1012 67 10000 4.1 110 16:42 21.03.2020
803 Clouds 16 1013 63 10000 5.1 100 16:22 21.03.2020
804 Clouds 16 1013 63 10000 5.1 100 15:58 21.03.2020
805 Clouds 16 1013 63 10000 6.2 90 15:39 21.03.2020
806 Clouds 16 1013 63 10000 5.1 100 15:21 21.03.2020
807 Clouds 16 1013 63 10000 5.1 100 14:55 21.03.2020
808 Clouds 16 1013 67 10000 5.7 100 14:37 21.03.2020
809 Clouds 16 1013 67 10000 5.7 100 14:19 21.03.2020
810 Clouds 16 1014 63 10000 5.1 80 13:57 21.03.2020
811 Clouds 16 1014 59 10000 5.7 70 13:38 21.03.2020
812 Clouds 16 1014 67 10000 5.1 70 13:20 21.03.2020
813 Clouds 15 1015 67 10000 5.1 70 12:41 21.03.2020
814 Clouds 15 1015 62 10000 4.6 80 12:21 21.03.2020
815 Clouds 15 1015 62 10000 4.6 80 11:59 21.03.2020
816 Clouds 15 1015 58 10000 2.1 10 11:39 21.03.2020
817 Clouds 15 1015 58 10000 2.1 10 11:39 21.03.2020
818 Clouds 14 1015 58 10000 3.1 320 11:20 21.03.2020
819 Clouds 14 1015 58 10000 3.1 320 10:58 21.03.2020
820 Clouds 14 1015 58 10000 3.1 320 10:58 21.03.2020
821 Clouds 13 1015 62 10000 3.6 320 10:40 21.03.2020
822 Clouds 13 1015 62 10000 3.6 320 10:22 21.03.2020
823 Clouds 12 1015 71 10000 4.1 320 09:59 21.03.2020
824 Clouds 11 1015 76 10000 5.1 320 09:39 21.03.2020
825 Clouds 10 1015 76 10000 4.6 320 09:20 21.03.2020
826 Clouds 9 1015 76 10000 4.6 320 08:55 21.03.2020
827 Clouds 9 1015 81 10000 4.6 320 08:37 21.03.2020
828 Clouds 8 1015 81 10000 4.6 320 08:19 21.03.2020
829 Clouds 7 1015 81 10000 5.1 330 07:39 21.03.2020
830 Clouds 7 1015 81 10000 5.1 330 07:20 21.03.2020
831 Clouds 7 1015 81 10000 4.6 320 06:44 21.03.2020
832 Clouds 7 1015 81 10000 4.6 320 06:25 21.03.2020
833 Clouds 7 1016 81 10000 4.1 320 05:40 21.03.2020
834 Clouds 8 1016 87 10000 4.1 320 04:34 21.03.2020
835 Clouds 8 1017 87 10000 3.6 320 02:37 21.03.2020
836 Clouds 9 1017 87 10000 2.6 330 01:49 21.03.2020
837 Clouds 9 1017 87 10000 2.6 330 01:26 21.03.2020
838 Clouds 9 1018 81 10000 2.6 320 00:43 21.03.2020
839 Clouds 9 1018 81 10000 2.6 320 00:23 21.03.2020
840 Clouds 9 1018 81 10000 2.1 330 23:44 20.03.2020
841 Clouds 9 1018 81 10000 2.1 330 23:22 20.03.2020
842 Clouds 10 1018 76 10000 2.1 20 22:44 20.03.2020
843 Clouds 10 1018 76 10000 2.1 20 22:44 20.03.2020
844 Clouds 10 1018 76 10000 2.1 20 22:25 20.03.2020
845 Clouds 10 1018 82 10000 2.6 40 21:59 20.03.2020
846 Clouds 11 1018 76 10000 2.6 50 21:40 20.03.2020
847 Clouds 11 1019 76 10000 2.6 60 21:20 20.03.2020
848 Clouds 11 1019 76 10000 2.6 60 20:59 20.03.2020
849 Clouds 11 1018 76 10000 2.1 60 20:41 20.03.2020
850 Clouds 12 1018 76 10000 2.1 60 20:20 20.03.2020
851 Clouds 12 1018 82 10000 2.6 70 19:49 20.03.2020
852 Clouds 13 1019 76 10000 2.6 70 19:22 20.03.2020
853 Clouds 13 1019 76 10000 4.1 90 18:59 20.03.2020
854 Clouds 14 1019 76 10000 4.1 90 18:39 20.03.2020
855 Clouds 14 1019 76 10000 4.1 90 18:20 20.03.2020
856 Clouds 15 1019 72 10000 4.1 90 17:56 20.03.2020
857 Clouds 15 1019 72 10000 4.1 90 17:38 20.03.2020
858 Clouds 15 1019 72 10000 5.1 80 17:19 20.03.2020
859 Clouds 15 1019 72 10000 5.1 80 17:19 20.03.2020
860 Clouds 15 1019 72 10000 5.1 100 16:43 20.03.2020
861 Clouds 16 1019 72 10000 5.7 90 16:21 20.03.2020
862 Clouds 16 1019 72 10000 5.7 90 15:58 20.03.2020
863 Clouds 16 1019 72 10000 5.7 90 15:39 20.03.2020
864 Clouds 16 1019 72 10000 6.2 100 15:20 20.03.2020
865 Clouds 16 1020 67 10000 6.2 80 14:42 20.03.2020
866 Clouds 16 1020 72 10000 5.7 70 14:21 20.03.2020
867 Clouds 16 1020 72 10000 5.7 70 13:55 20.03.2020
868 Clouds 16 1020 67 10000 6.2 80 13:36 20.03.2020
869 Clouds 15 1020 72 10000 6.2 70 13:18 20.03.2020
870 Clouds 15 1021 72 10000 6.2 70 12:39 20.03.2020
871 Clouds 15 1021 72 10000 6.2 70 12:20 20.03.2020
872 Clouds 14 1021 71 10000 4.6 60 11:42 20.03.2020
873 Clouds 14 1021 71 10000 4.6 60 11:22 20.03.2020
874 Clouds 14 1021 71 10000 3.6 50 10:59 20.03.2020
875 Clouds 13 1021 71 10000 2.6 330 10:41 20.03.2020
876 Clouds 13 1021 71 10000 2.6 330 10:20 20.03.2020
877 Clouds 12 1021 71 10000 3.1 320 09:47 20.03.2020
878 Clouds 11 1021 81 10000 4.6 330 09:22 20.03.2020
879 Clouds 10 1021 81 10000 4.6 330 08:59 20.03.2020
880 Clouds 10 1020 81 10000 4.6 320 08:40 20.03.2020
881 Clouds 9 1020 87 10000 5.7 320 08:20 20.03.2020
882 Clouds 9 1020 87 10000 5.7 320 07:48 20.03.2020
883 Clouds 8 1020 87 10000 5.7 320 07:26 20.03.2020
884 Clouds 8 1020 87 10000 4.6 320 06:51 20.03.2020
885 Clouds 8 1020 87 10000 5.1 320 06:32 20.03.2020
886 Clouds 8 1020 81 10000 4.6 320 04:51 20.03.2020
887 Clouds 9 1021 87 10000 3.6 330 03:21 20.03.2020
888 Clouds 9 1021 87 10000 2.6 330 01:57 20.03.2020
889 Clouds 9 1022 87 10000 2.1 320 00:51 20.03.2020
890 Clouds 9 1022 87 10000 2.1 320 00:29 20.03.2020
891 Clouds 9 1022 81 10000 2.1 60 23:47 19.03.2020
892 Clouds 9 1022 81 10000 2.1 60 23:28 19.03.2020
893 Clouds 10 1022 81 10000 2.1 50 22:56 19.03.2020
894 Clouds 10 1022 81 10000 2.1 50 22:56 19.03.2020
895 Clouds 10 1022 76 10000 2.1 80 22:38 19.03.2020
896 Clouds 10 1022 81 10000 1.5 60 22:19 19.03.2020
897 Clouds 11 1022 81 10000 2.6 60 21:42 19.03.2020
898 Clouds 11 1022 76 10000 1.5 70 21:20 19.03.2020
899 Clouds 11 1022 76 10000 1.5 70 20:59 19.03.2020
900 Clouds 11 1022 76 10000 1.5 60 20:41 19.03.2020
901 Clouds 12 1022 76 10000 2.6 70 20:22 19.03.2020
902 Clouds 12 1022 76 10000 2.6 70 19:55 19.03.2020
903 Clouds 12 1022 76 10000 2.1 90 19:37 19.03.2020
904 Clouds 13 1022 76 10000 2.1 90 19:19 19.03.2020
905 Clouds 13 1022 82 10000 2.6 90 18:54 19.03.2020
906 Clouds 13 1022 71 10000 2.6 110 18:36 19.03.2020
907 Clouds 14 1022 76 10000 2.6 120 18:18 19.03.2020
908 Clouds 14 1022 71 10000 3.1 100 17:41 19.03.2020
909 Clouds 15 1022 71 10000 2.6 130 17:19 19.03.2020
910 Clouds 15 1022 76 10000 3.1 120 16:44 19.03.2020
911 Clouds 15 1023 76 10000 2.6 110 16:24 19.03.2020
912 Clouds 16 1023 72 10000 3.6 90 15:46 19.03.2020
913 Clouds 16 1023 72 10000 3.6 90 15:27 19.03.2020
914 Clouds 16 1023 72 10000 3.1 90 14:58 19.03.2020
915 Clouds 16 1023 72 10000 3.1 110 14:40 19.03.2020
916 Clouds 16 1024 72 10000 3.1 130 14:19 19.03.2020
917 Clouds 16 1024 72 10000 3.1 110 13:40 19.03.2020
918 Clouds 16 1024 72 10000 3.1 110 13:40 19.03.2020
919 Clouds 16 1024 72 10000 3.1 120 13:19 19.03.2020
920 Clouds 16 1024 72 10000 3.1 120 12:56 19.03.2020
921 Clouds 16 1024 71 10000 3.6 110 12:38 19.03.2020
922 Clouds 15 1025 71 9000 3.1 100 12:19 19.03.2020
923 Clouds 15 1025 72 9000 2.6 100 11:42 19.03.2020
924 Clouds 15 1025 72 9000 2.6 100 11:23 19.03.2020
925 Clouds 14 1025 76 9000 1.59 142 10:57 19.03.2020
926 Clouds 14 1025 76 9000 1 0 10:37 19.03.2020
927 Clouds 14 1025 76 9000 1 0 10:18 19.03.2020
928 Clouds 13 1025 76 9000 2.6 320 09:44 19.03.2020
929 Clouds 12 1024 87 9000 3.1 330 09:26 19.03.2020
930 Clouds 11 1024 87 9000 4.1 330 08:57 19.03.2020
931 Clouds 11 1024 87 9000 4.1 320 08:38 19.03.2020
932 Clouds 9 1024 87 9000 4.1 320 08:18 19.03.2020
933 Clouds 8 1024 87 9000 3.6 330 07:43 19.03.2020
934 Clouds 8 1024 87 9000 3.6 330 07:22 19.03.2020
935 Clouds 8 1024 93 10000 3.6 330 06:32 19.03.2020
936 Clouds 8 1024 87 10000 3.6 320 05:46 19.03.2020
937 Clouds 8 1024 87 10000 3.6 330 04:51 19.03.2020
938 Clouds 8 1024 87 10000 3.6 320 04:24 19.03.2020
939 Clouds 9 1025 81 10000 2.1 320 02:34 19.03.2020
940 Clouds 10 1025 81 10000 2.1 330 00:57 19.03.2020
941 Clouds 10 1026 93 10000 1.5 300 00:21 19.03.2020
942 Clouds 10 1026 93 10000 0.5 270 23:46 18.03.2020
943 Clouds 10 1026 93 10000 0.5 270 23:26 18.03.2020
944 Clouds 11 1026 93 10000 1 270 22:44 18.03.2020
945 Clouds 11 1026 93 10000 1 270 22:24 18.03.2020
946 Clouds 11 1026 93 9000 1 250 21:59 18.03.2020
947 Clouds 11 1026 93 9000 0.63 161 21:41 18.03.2020
948 Clouds 11 1026 93 9000 0.63 161 21:21 18.03.2020
949 Clouds 12 1026 87 10000 0.5 120 20:57 18.03.2020
950 Clouds 12 1026 87 10000 1.5 100 20:39 18.03.2020
951 Clouds 13 1025 93 10000 2.1 120 20:20 18.03.2020
952 Clouds 13 1025 93 10000 2.1 120 19:55 18.03.2020
953 Clear 13 1025 87 10000 1.5 120 19:36 18.03.2020
954 Clear 14 1025 82 10000 1 120 19:18 18.03.2020
955 Clear 15 1025 82 10000 1 0 18:41 18.03.2020
956 Clear 15 1025 77 10000 1.5 100 18:20 18.03.2020
957 Clouds 16 1025 82 10000 2.6 120 17:57 18.03.2020
958 Clouds 16 1025 82 10000 2.6 120 17:39 18.03.2020
959 Clouds 16 1025 51 10000 1.5 130 17:21 18.03.2020
960 Clouds 16 1025 51 10000 1.5 130 16:54 18.03.2020
961 Clouds 17 1026 77 10000 2.6 110 16:36 18.03.2020
962 Clouds 17 1026 63 10000 3.1 80 16:18 18.03.2020
963 Clouds 17 1026 63 10000 3.1 70 15:44 18.03.2020
964 Clear 17 1027 67 10000 3.1 90 15:20 18.03.2020
965 Clear 16 1027 67 10000 3.1 100 14:45 18.03.2020
966 Clear 17 1027 67 10000 3.1 100 14:22 18.03.2020
967 Clear 16 1027 77 10000 3.6 90 13:56 18.03.2020
968 Clear 16 1028 72 10000 3.6 100 13:36 18.03.2020
969 Clouds 16 1028 67 10000 3.6 80 13:18 18.03.2020
970 Clouds 16 1028 67 10000 3.6 70 12:41 18.03.2020
971 Clear 15 1028 62 10000 4.1 70 12:19 18.03.2020
972 Clear 15 1028 71 10000 4.6 60 11:39 18.03.2020
973 Clear 14 1028 76 10000 4.6 50 11:21 18.03.2020
974 Clear 15 1028 76 10000 4.6 50 10:58 18.03.2020
975 Clear 14 1028 76 10000 1.5 340 10:39 18.03.2020
976 Clear 13 1028 76 10000 1.5 340 10:20 18.03.2020
977 Clear 13 1028 81 10000 2.6 330 09:44 18.03.2020
978 Clear 12 1028 81 10000 2.6 330 09:26 18.03.2020
979 Clear 11 1028 87 10000 2.6 330 08:58 18.03.2020
980 Clear 11 1028 87 10000 2.1 320 08:39 18.03.2020
981 Clouds 10 1028 87 10000 2.1 320 08:21 18.03.2020
982 Clouds 10 1028 87 10000 2.1 330 07:49 18.03.2020
983 Clouds 10 1028 87 10000 1.5 320 07:30 18.03.2020
984 Clouds 10 1028 87 10000 1.5 310 06:45 18.03.2020
985 Clouds 11 1028 87 10000 1.5 310 06:24 18.03.2020
986 Clouds 11 1028 87 10000 1.5 330 05:35 18.03.2020
987 Clouds 11 1028 87 10000 2.1 330 04:27 18.03.2020
988 Clouds 11 1029 87 10000 2.1 330 02:51 18.03.2020
989 Clouds 11 1029 87 10000 1.5 40 02:23 18.03.2020
990 Clouds 11 1029 87 10000 2.1 50 01:29 18.03.2020
991 Clouds 12 1029 93 10000 3.1 50 00:26 18.03.2020
992 Clouds 12 1029 93 10000 3.1 50 23:59 17.03.2020
993 Clouds 12 1029 93 10000 3.6 60 23:40 17.03.2020
994 Clouds 13 1029 87 10000 2.6 30 23:19 17.03.2020
995 Clouds 13 1029 87 10000 2.6 50 22:42 17.03.2020
996 Clouds 13 1029 87 10000 2.1 40 22:23 17.03.2020
997 Clouds 13 1029 82 10000 3.6 60 21:42 17.03.2020
998 Clouds 13 1029 82 10000 3.6 60 21:22 17.03.2020
999 Clouds 14 1029 82 10000 3.6 50 20:56 17.03.2020
1000 Clouds 14 1028 77 10000 3.6 50 20:37 17.03.2020
1001 Clouds 14 1028 77 10000 3.6 50 20:19 17.03.2020
1002 Clouds 14 1028 77 10000 3.6 50 19:41 17.03.2020
1003 Clouds 14 1028 77 10000 4.1 50 19:18 17.03.2020
1004 Clouds 15 1028 77 10000 4.1 50 18:57 17.03.2020
1005 Clouds 15 1028 77 10000 5.1 60 18:39 17.03.2020
1006 -273 0 0 0 0 0 18:20 17.03.2020
1007 Clouds 15 1028 67 10000 6.2 70 17:55 17.03.2020
1008 Clouds 16 1028 63 10000 6.7 60 17:36 17.03.2020
1009 Clouds 16 1028 63 10000 7.7 60 17:18 17.03.2020
1010 Clouds 16 1027 67 10000 8.7 60 16:41 17.03.2020
1011 Clouds 16 1027 67 10000 8.7 60 16:19 17.03.2020
1012 Clouds 16 1028 72 10000 8.7 60 15:44 17.03.2020
1013 Clouds 16 1028 72 10000 8.7 60 15:22 17.03.2020
1014 Clouds 16 1028 72 10000 9.8 60 14:44 17.03.2020
1015 Clouds 16 1028 72 10000 9.8 60 14:25 17.03.2020
1016 Clouds 16 1028 72 10000 8.7 60 13:58 17.03.2020
1017 Clouds 16 1028 72 10000 7.7 70 13:39 17.03.2020
1018 Clouds 16 1028 72 10000 7.7 70 13:21 17.03.2020
1019 Clouds 15 1028 77 10000 8.7 50 12:44 17.03.2020
1020 Clouds 15 1028 77 10000 8.7 50 12:24 17.03.2020
1021 Clouds 15 1028 77 10000 7.2 60 11:48 17.03.2020
1022 Clouds 15 1028 77 10000 7.2 60 11:29 17.03.2020
1023 Drizzle 15 1027 77 10000 7.2 60 10:59 17.03.2020
1024 Drizzle 15 1027 77 10000 7.2 60 10:58 17.03.2020
1025 Drizzle 15 1027 77 10000 8.2 50 10:40 17.03.2020
1026 Drizzle 14 1027 77 10000 8.2 50 10:22 17.03.2020
1027 Clouds 14 1027 77 10000 8.2 40 09:59 17.03.2020
1028 Clouds 14 1026 77 10000 8.7 50 09:41 17.03.2020
1029 Clouds 14 1026 77 10000 8.7 50 09:20 17.03.2020
1030 Clouds 14 1026 77 10000 8.2 50 08:50 17.03.2020
1031 Clouds 13 1025 77 10000 9.3 50 08:23 17.03.2020
1032 Clouds 13 1025 77 10000 9.3 50 07:58 17.03.2020
1033 Clouds 13 1025 82 10000 8.2 50 07:39 17.03.2020
1034 Clouds 13 1025 82 10000 9.8 50 07:19 17.03.2020
1035 Clouds 13 1025 82 10000 8.7 60 06:40 17.03.2020
1036 Clouds 13 1024 82 10000 8.7 50 06:19 17.03.2020
1037 Drizzle 13 1023 82 10000 9.8 60 04:40 17.03.2020
1038 Clouds 13 1024 82 10000 9.3 50 03:19 17.03.2020
1039 Clouds 13 1023 82 10000 6.7 70 01:49 17.03.2020
1040 Clouds 13 1023 82 10000 6.7 70 01:28 17.03.2020
1041 Clouds 13 1023 82 10000 10.8 50 00:50 17.03.2020
1042 Drizzle 13 1023 93 7000 10.3 50 23:51 16.03.2020
1043 Drizzle 13 1023 87 5000 9.3 60 23:33 16.03.2020
1044 Drizzle 12 1022 87 6000 11.3 50 22:45 16.03.2020
1045 Drizzle 12 1022 87 6000 11.3 50 22:26 16.03.2020
1046 Drizzle 13 1021 87 5000 9.8 60 21:59 16.03.2020
1047 Clouds 13 1021 87 7000 10.3 70 21:41 16.03.2020
1048 Clouds 13 1021 87 7000 10.3 70 21:23 16.03.2020
1049 Drizzle 12 1020 93 4000 10.8 60 20:58 16.03.2020
1050 Rain 12 1020 93 2500 10.3 50 20:38 16.03.2020
1051 Rain 12 1019 93 2500 9.8 60 20:20 16.03.2020
1052 Drizzle 12 1019 93 3000 10.3 50 19:42 16.03.2020
1053 Drizzle 12 1019 93 3000 10.3 50 19:23 16.03.2020
1054 Clouds 12 1018 87 6000 9.8 60 18:57 16.03.2020
1055 Drizzle 12 1018 87 6000 10.3 50 18:37 16.03.2020
1056 Rain 12 1018 93 6000 10.3 50 18:18 16.03.2020
1057 Rain 12 1018 93 5000 8.7 60 17:43 16.03.2020
1058 Rain 12 1018 93 5000 8.7 60 17:24 16.03.2020
1059 Rain 12 1017 93 5000 8.2 70 16:47 16.03.2020
1060 Rain 12 1017 93 5000 8.2 70 16:29 16.03.2020
1061 Rain 12 1017 93 3500 7.2 70 15:57 16.03.2020
1062 Rain 12 1017 93 3000 7.2 80 15:39 16.03.2020
1063 Rain 12 1017 93 3000 7.2 80 15:19 16.03.2020
1064 Rain 12 1017 93 3500 3.6 80 14:43 16.03.2020
1065 Rain 13 1017 93 3500 3.6 80 14:19 16.03.2020
1066 Rain 13 1016 93 6000 9.3 80 13:42 16.03.2020
1067 Rain 13 1016 93 6000 9.3 80 13:24 16.03.2020
1068 Rain 13 1016 93 4000 9.3 80 12:55 16.03.2020
1069 Rain 13 1016 87 4000 4.1 70 12:36 16.03.2020
1070 Rain 13 1016 93 8000 8.7 70 12:18 16.03.2020
1071 Clouds 13 1016 87 10000 9.8 60 11:41 16.03.2020
1072 Drizzle 13 1016 87 10000 9.8 60 11:19 16.03.2020
1073 Clouds 13 1015 87 10000 9.8 60 10:43 16.03.2020
1074 Clouds 13 1016 82 10000 10.3 60 10:24 16.03.2020
1075 Clouds 13 1015 82 10000 9.3 60 09:46 16.03.2020
1076 Clouds 13 1015 82 10000 9.3 60 09:28 16.03.2020
1077 Clouds 13 1015 82 10000 8.7 60 08:58 16.03.2020
1078 Clouds 12 1015 82 10000 8.7 50 08:26 16.03.2020
1079 Clouds 12 1015 87 10000 8.2 60 07:56 16.03.2020
1080 Clouds 12 1015 87 10000 6.7 60 07:38 16.03.2020
1081 Clouds 12 1014 76 10000 7.7 60 07:18 16.03.2020
1082 Clouds 12 1014 76 10000 6.7 70 06:27 16.03.2020
1083 Clouds 12 1014 82 10000 5.7 70 05:54 16.03.2020
1084 Clouds 13 1015 87 10000 4.1 90 03:31 16.03.2020
1085 Clouds 13 1016 82 10000 3.1 110 01:29 16.03.2020
1086 Clouds 13 1017 82 10000 3.1 110 00:43 16.03.2020
1087 Clouds 13 1017 87 10000 3.1 110 23:49 15.03.2020
1088 Clouds 13 1017 87 10000 2.6 110 23:22 15.03.2020
1089 Clouds 13 1017 87 10000 3.1 110 22:58 15.03.2020
1090 Clouds 13 1017 87 10000 2.1 110 22:38 15.03.2020
1091 Clouds 13 1017 87 10000 2.1 110 22:20 15.03.2020
1092 Clouds 13 1016 87 10000 2.6 110 21:39 15.03.2020
1093 Clouds 13 1016 87 10000 2.6 110 21:20 15.03.2020
1094 Clouds 13 1016 87 10000 2.1 110 20:44 15.03.2020
1095 Clouds 13 1016 87 10000 2.1 110 20:22 15.03.2020
1096 Clouds 13 1016 82 10000 2.1 130 19:59 15.03.2020
1097 Clouds 13 1016 82 10000 2.1 130 19:59 15.03.2020
1098 Clouds 13 1016 82 10000 2.1 130 19:41 15.03.2020
1099 Clouds 13 1016 82 10000 2.1 130 19:23 15.03.2020
1100 Clouds 14 1016 82 10000 3.1 140 18:59 15.03.2020
1101 Clouds 14 1016 77 10000 3.6 150 18:39 15.03.2020
1102 Clouds 14 1016 77 10000 4.1 170 18:21 15.03.2020
1103 Clouds 15 1017 82 10000 4.1 170 17:54 15.03.2020
1104 Clouds 15 1017 82 10000 4.1 170 17:36 15.03.2020
1105 Clouds 15 1017 77 10000 4.6 180 17:18 15.03.2020
1106 Clouds 16 1017 82 10000 4.6 190 16:42 15.03.2020
1107 Clouds 16 1017 82 10000 4.6 190 16:24 15.03.2020
1108 Clouds 16 1017 77 10000 4.6 200 15:57 15.03.2020
1109 Clouds 16 1017 82 10000 4.6 200 15:38 15.03.2020
1110 Clouds 16 1017 82 10000 4.6 200 15:19 15.03.2020
1111 Clouds 17 1018 82 10000 4.1 200 14:46 15.03.2020
1112 Clouds 16 1018 77 10000 4.1 190 14:24 15.03.2020
1113 Clouds 16 1018 77 10000 4.1 190 13:57 15.03.2020
1114 Clouds 16 1019 72 10000 4.6 190 13:38 15.03.2020
1115 Clouds 16 1019 72 10000 4.1 190 13:20 15.03.2020
1116 Clouds 16 1019 72 10000 4.1 190 12:44 15.03.2020
1117 Clouds 16 1019 72 10000 4.1 190 12:25 15.03.2020
1118 Clouds 16 1019 77 10000 2.6 210 11:56 15.03.2020
1119 Clouds 15 1019 77 10000 2.1 230 11:38 15.03.2020
1120 Clouds 15 1019 77 10000 2.1 230 11:20 15.03.2020
1121 Clouds 14 1020 72 10000 1 0 10:55 15.03.2020
1122 Clouds 14 1020 76 10000 2.6 310 10:36 15.03.2020
1123 Clouds 13 1020 81 10000 3.1 320 10:18 15.03.2020
1124 Clouds 12 1020 81 10000 3.1 330 09:39 15.03.2020
1125 Clouds 11 1020 81 10000 3.1 330 09:20 15.03.2020
1126 Clouds 10 1019 87 9000 3.6 320 08:42 15.03.2020
1127 Clouds 10 1019 87 9000 3.6 320 08:20 15.03.2020
1128 Clouds 9 1019 87 9000 3.6 320 07:51 15.03.2020
1129 Clouds 9 1019 87 9000 3.6 320 07:29 15.03.2020
1130 Clouds 9 1019 87 9000 4.6 330 06:49 15.03.2020
1131 Clouds 10 1019 87 10000 4.1 320 05:50 15.03.2020
1132 Clouds 10 1019 87 10000 4.1 330 05:18 15.03.2020
1133 Clouds 9 1020 81 10000 3.1 330 04:41 15.03.2020
1134 Clouds 9 1020 81 10000 3.1 330 04:41 15.03.2020
1135 Clouds 10 1020 81 10000 3.6 320 04:23 15.03.2020
1136 Clouds 9 1020 81 10000 3.1 320 03:38 15.03.2020
1137 Clouds 10 1021 81 10000 2.1 310 02:37 15.03.2020
1138 Clear 10 1021 81 10000 2.1 320 01:34 15.03.2020
1139 Clear 10 1021 76 10000 2.1 310 00:45 15.03.2020
1140 Clear 11 1021 76 10000 2.1 310 00:22 15.03.2020
1141 Clear 11 1021 76 10000 1 310 23:55 14.03.2020
1142 Clouds 11 1021 76 10000 0.5 20 23:36 14.03.2020
1143 Clouds 11 1021 76 10000 0.5 20 23:18 14.03.2020
1144 Clouds 11 1020 81 10000 2.1 270 22:41 14.03.2020
1145 Clouds 11 1020 81 10000 2.1 270 22:23 14.03.2020
1146 Clouds 12 1020 87 10000 2.1 220 21:56 14.03.2020
1147 Clouds 12 1020 76 10000 2.1 220 21:36 14.03.2020
1148 Clouds 12 1020 76 10000 2.6 230 21:18 14.03.2020
1149 Clouds 13 1020 76 10000 2.6 230 20:58 14.03.2020
1150 Clouds 13 1020 76 10000 2.1 210 20:40 14.03.2020
1151 Clouds 13 1020 76 10000 2.1 210 20:19 14.03.2020
1152 Clouds 14 1020 76 10000 2.1 200 19:43 14.03.2020
1153 Clouds 14 1020 76 10000 2.1 200 19:25 14.03.2020
1154 Clouds 14 1020 72 10000 2.6 190 18:43 14.03.2020
1155 Clouds 15 1020 72 10000 2.6 190 18:24 14.03.2020
1156 Clouds 15 1019 72 10000 3.6 200 17:58 14.03.2020
1157 Clouds 16 1019 72 10000 4.1 190 17:38 14.03.2020
1158 Clouds 16 1019 72 10000 4.1 190 17:38 14.03.2020
1159 Clouds 16 1019 72 10000 3.6 180 17:20 14.03.2020
1160 Clouds 16 1019 72 10000 3.6 180 17:20 14.03.2020
1161 Clouds 16 1019 77 10000 3.6 170 16:41 14.03.2020
1162 Clouds 16 1019 77 10000 3.6 170 16:23 14.03.2020
1163 Clouds 16 1019 72 10000 3.6 180 15:58 14.03.2020
1164 Clouds 16 1019 72 10000 3.6 170 15:27 14.03.2020
1165 Clouds 16 1019 72 10000 3.6 170 14:58 14.03.2020
1166 Clouds 16 1020 77 10000 3.1 140 14:37 14.03.2020
1167 Clouds 16 1020 72 10000 3.6 120 14:18 14.03.2020
1168 Clouds 16 1020 67 10000 3.6 120 13:42 14.03.2020
1169 Clouds 16 1020 67 10000 3.6 120 13:23 14.03.2020
1170 Clouds 16 1020 68 10000 3.1 100 12:57 14.03.2020
1171 Clouds 16 1020 72 10000 2.6 100 12:38 14.03.2020
1172 Clouds 16 1020 72 10000 2.1 100 12:20 14.03.2020
1173 Clouds 16 1020 63 10000 1.5 340 11:42 14.03.2020
1174 Clouds 16 1020 63 10000 1.5 340 11:24 14.03.2020
1175 Clouds 15 1020 72 10000 3.6 340 10:47 14.03.2020
1176 Clouds 15 1020 72 10000 3.6 340 10:27 14.03.2020
1177 Clouds 14 1020 72 10000 5.7 360 09:59 14.03.2020
1178 Clouds 14 1020 76 10000 4.1 350 09:40 14.03.2020
1179 Clouds 13 1020 76 10000 4.1 350 09:20 14.03.2020
1180 Clouds 13 1019 82 10000 2.6 330 08:46 14.03.2020
1181 Clouds 13 1019 82 10000 2.6 330 08:26 14.03.2020
1182 Clouds 12 1019 87 9000 2.6 320 07:40 14.03.2020
1183 Clouds 12 1019 87 9000 2.1 320 07:21 14.03.2020
1184 Clouds 12 1019 87 9000 2.1 320 06:55 14.03.2020
1185 Clouds 12 1018 82 9000 2.6 310 06:34 14.03.2020
1186 Clouds 12 1018 82 10000 1.5 260 04:55 14.03.2020
1187 Clouds 11 1019 87 10000 3.1 300 03:37 14.03.2020
1188 Clouds 11 1019 93 10000 0.5 0 02:53 14.03.2020
1189 Clouds 11 1019 87 10000 2.6 240 01:46 14.03.2020
1190 Clouds 12 1019 87 10000 4.1 240 00:34 14.03.2020
1191 Clouds 12 1019 87 10000 4.6 250 23:42 13.03.2020
1192 Clouds 12 1019 87 10000 4.6 250 23:23 13.03.2020
1193 Clouds 13 1019 87 10000 5.7 230 22:45 13.03.2020
1194 Clouds 13 1019 87 10000 5.7 230 22:22 13.03.2020
1195 Clouds 14 1018 87 10000 6.7 220 21:41 13.03.2020
1196 Clouds 14 1018 87 10000 6.7 220 21:19 13.03.2020
1197 Clouds 14 1018 87 10000 6.7 220 20:43 13.03.2020
1198 Clouds 14 1018 87 10000 7.7 220 20:23 13.03.2020
1199 Clouds 15 1018 87 10000 7.7 220 19:59 13.03.2020
1200 Clouds 15 1017 87 10000 7.7 220 19:40 13.03.2020
1201 Clouds 15 1017 87 10000 7.7 220 19:22 13.03.2020
1202 Clouds 15 1017 82 10000 8.7 220 18:44 13.03.2020
1203 Clouds 16 1017 82 10000 8.7 220 18:23 13.03.2020
1204 Clouds 17 1018 77 10000 7.7 210 17:43 13.03.2020
1205 Clouds 18 1018 77 10000 7.7 210 17:22 13.03.2020
1206 Clouds 18 1018 77 10000 8.7 210 16:59 13.03.2020
1207 Clouds 18 1018 77 10000 8.2 210 16:39 13.03.2020
1208 Clouds 19 1018 77 10000 8.2 210 16:21 13.03.2020
1209 Clouds 19 1018 72 10000 7.7 220 15:46 13.03.2020
1210 Clouds 19 1018 72 10000 7.7 220 15:23 13.03.2020
1211 Clouds 19 1018 67 10000 7.2 220 14:59 13.03.2020
1212 Clouds 19 1019 77 10000 7.2 220 14:40 13.03.2020
1213 Clouds 19 1019 77 10000 7.2 220 14:22 13.03.2020
1214 Clouds 19 1019 72 10000 7.7 220 13:55 13.03.2020
1215 Clouds 18 1020 77 10000 6.7 220 13:36 13.03.2020
1216 Clouds 18 1020 77 10000 6.7 210 13:18 13.03.2020
1217 Clouds 18 1020 77 10000 6.7 210 12:39 13.03.2020
1218 Clouds 17 1020 77 10000 6.7 210 12:21 13.03.2020
1219 Clouds 17 1021 77 7000 4.6 220 11:57 13.03.2020
1220 Clouds 17 1021 77 7000 4.6 220 11:37 13.03.2020
1221 Clouds 16 1021 82 6000 3.1 200 11:19 13.03.2020
1222 Clouds 16 1021 82 6000 2.6 220 10:47 13.03.2020
1223 Clouds 15 1021 82 6000 2.6 220 10:26 13.03.2020
1224 Mist 14 1021 93 3100 2.1 240 09:56 13.03.2020
1225 Mist 14 1021 93 3100 2.1 240 09:56 13.03.2020
1226 Mist 14 1020 93 2700 2.1 260 09:38 13.03.2020
1227 Mist 13 1020 93 1500 2.6 260 09:19 13.03.2020
1228 Mist 12 1020 93 1500 2.6 270 08:42 13.03.2020
1229 Mist 12 1020 93 1500 2.6 270 08:22 13.03.2020
1230 Clouds 11 1019 100 7000 0.5 0 07:47 13.03.2020
1231 Clouds 11 1019 100 7000 0.5 0 07:27 13.03.2020
1232 Fog 11 1019 93 7000 1.4 276 06:46 13.03.2020
1233 Clouds 11 1019 93 7000 1 0 06:24 13.03.2020
1234 Fog 11 1019 100 7000 0.5 0 05:46 13.03.2020
1235 Fog 11 1019 93 7000 1 110 05:19 13.03.2020
1236 Mist 11 1019 93 5000 1 0 04:35 13.03.2020
1237 Mist 12 1019 93 4000 1.5 40 02:58 13.03.2020
1238 Clouds 12 1020 93 6000 2.6 70 01:43 13.03.2020
1239 Clouds 12 1020 93 6000 4.1 60 01:18 13.03.2020
1240 Clouds 13 1020 93 6000 3.1 70 00:46 13.03.2020
1241 Clouds 13 1020 93 8000 2.6 60 00:20 13.03.2020
1242 Clouds 13 1020 87 8000 4.1 60 23:47 12.03.2020
1243 Clouds 13 1020 87 8000 4.1 60 23:26 12.03.2020
1244 Clouds 13 1020 93 8000 4.6 50 22:55 12.03.2020
1245 Clouds 13 1020 93 8000 4.1 50 22:37 12.03.2020
1246 Clouds 13 1019 93 8000 3.1 50 22:19 12.03.2020
1247 Clouds 13 1019 93 8000 1.5 80 21:42 12.03.2020
1248 Clouds 13 1019 93 8000 1.5 80 21:24 12.03.2020
1249 Clouds 13 1019 93 10000 1 0 20:55 12.03.2020
1250 Clouds 14 1019 93 9000 1 0 20:37 12.03.2020
1251 Clouds 14 1019 93 9000 1 0 20:18 12.03.2020
1252 Clouds 14 1018 93 9000 1.5 190 19:39 12.03.2020
1253 Clouds 16 1018 100 10000 2.6 200 19:19 12.03.2020
1254 Clouds 17 1018 93 9000 2.1 190 18:43 12.03.2020
1255 Clouds 17 1017 77 10000 2.6 110 18:23 12.03.2020
1256 Clouds 18 1018 93 8000 3.1 200 17:56 12.03.2020
1257 Mist 18 1018 93 5000 3.1 200 17:37 12.03.2020
1258 Mist 19 1018 93 1100 3.1 210 17:18 12.03.2020
1259 Mist 20 1018 93 1100 3.1 210 16:54 12.03.2020
1260 Mist 20 1018 93 1100 3.6 200 16:36 12.03.2020
1261 Clouds 21 1018 60 10000 3.1 100 16:18 12.03.2020
1262 Mist 20 1019 93 2500 4.1 210 15:41 12.03.2020
1263 Clouds 21 1019 53 10000 2.6 120 15:22 12.03.2020
1264 Clouds 22 1019 49 10000 2.6 100 14:39 12.03.2020
1265 Clouds 22 1020 56 10000 2.6 110 14:19 12.03.2020
1266 Clouds 21 1020 56 10000 2.1 110 13:41 12.03.2020
1267 Clouds 21 1020 56 10000 2.1 110 13:22 12.03.2020
1268 Fog 20 1021 82 10000 3.6 200 12:55 12.03.2020
1269 Clouds 21 1020 49 10000 2.1 110 12:55 12.03.2020
1270 Clouds 20 1021 56 10000 2.1 110 12:37 12.03.2020
1271 Clouds 20 1021 56 10000 2.1 110 12:37 12.03.2020
1272 Clouds 19 1021 55 10000 1 0 12:18 12.03.2020
1273 Clouds 19 1021 55 10000 1 0 11:56 12.03.2020
1274 Clouds 19 1021 55 10000 1 0 11:56 12.03.2020
1275 Clouds 19 1021 55 10000 0.5 10 11:37 12.03.2020
1276 Clouds 18 1021 77 10000 2.6 210 11:19 12.03.2020
1277 Clouds 17 1021 77 10000 2.6 210 10:56 12.03.2020
1278 Clouds 17 1021 67 10000 1.5 260 10:38 12.03.2020
1279 Clouds 16 1021 71 10000 2.1 300 10:19 12.03.2020
1280 Clouds 15 1021 71 10000 2.6 320 09:43 12.03.2020
1281 Clouds 15 1021 71 10000 2.6 320 09:25 12.03.2020
1282 Clouds 13 1021 81 10000 3.6 310 08:41 12.03.2020
1283 Clouds 12 1021 81 10000 3.6 310 08:19 12.03.2020
1284 Clouds 12 1021 87 10000 2.6 310 07:53 12.03.2020
1285 Clouds 12 1020 81 10000 2.1 310 07:23 12.03.2020
1286 Clouds 12 1020 81 10000 3.1 290 06:44 12.03.2020
1287 Clouds 12 1020 81 10000 4.1 310 05:40 12.03.2020
1288 Clouds 12 1020 76 10000 3.6 320 04:27 12.03.2020
1289 Clouds 12 1022 81 10000 3.6 310 02:36 12.03.2020
1290 Clouds 12 1022 93 10000 3.6 310 01:30 12.03.2020
1291 Clouds 12 1022 93 10000 2.1 310 00:43 12.03.2020
1292 Clouds 12 1022 93 10000 2.1 310 00:24 12.03.2020
1293 Clouds 12 1022 93 9000 0.5 0 23:42 11.03.2020
1294 Clouds 12 1022 93 10000 3.1 220 23:23 11.03.2020
1295 Clouds 12 1022 93 9000 2.1 210 22:45 11.03.2020
1296 Clouds 12 1022 93 9000 2.1 210 22:27 11.03.2020
1297 Clouds 13 1022 87 10000 1 0 21:59 11.03.2020
1298 Clouds 13 1022 93 10000 1 180 21:41 11.03.2020
1299 Clouds 13 1022 93 10000 1 180 21:22 11.03.2020
1300 Clouds 13 1022 87 10000 1 200 20:58 11.03.2020
1301 Clouds 13 1022 93 10000 1.5 210 20:39 11.03.2020
1302 Clouds 14 1022 87 10000 1 0 20:19 11.03.2020
1303 Clear 14 1022 87 10000 2.1 180 19:44 11.03.2020
1304 Clear 15 1022 87 10000 2.1 180 19:25 11.03.2020
1305 Clear 16 1022 87 10000 1 0 18:58 11.03.2020
1306 Clear 17 1022 82 10000 1.5 190 18:40 11.03.2020
1307 Clear 17 1022 82 10000 1.5 190 18:40 11.03.2020
1308 Clear 17 1022 82 10000 1.5 170 18:21 11.03.2020
1309 Clear 18 1022 82 10000 1.5 170 17:57 11.03.2020
1310 Clear 18 1022 82 10000 1.5 170 17:57 11.03.2020
1311 Clear 18 1022 82 10000 2.1 170 17:39 11.03.2020
1312 Clear 19 1022 77 10000 2.1 150 17:20 11.03.2020
1313 Clear 19 1022 82 10000 2.6 160 16:46 11.03.2020
1314 Clear 19 1022 82 10000 2.6 160 16:23 11.03.2020
1315 Clear 19 1022 77 10000 3.1 170 15:46 11.03.2020
1316 Clear 19 1022 77 10000 3.1 170 15:25 11.03.2020
1317 Clear 19 1023 72 10000 2.6 150 14:59 11.03.2020
1318 Clear 19 1023 77 10000 3.1 130 14:41 11.03.2020
1319 Clear 19 1023 77 10000 3.1 150 14:22 11.03.2020
1320 Clear 18 1024 72 10000 3.6 120 13:45 11.03.2020
1321 Clear 18 1024 72 10000 3.6 120 13:27 11.03.2020
1322 Clear 17 1024 82 10000 3.6 90 12:58 11.03.2020
1323 Clear 18 1024 77 10000 3.1 100 12:40 11.03.2020
1324 Clear 17 1024 67 10000 3.6 80 12:19 11.03.2020
1325 Clear 17 1024 67 10000 3.6 80 11:55 11.03.2020
1326 Clear 17 1024 72 10000 3.6 80 11:36 11.03.2020
1327 Clear 15 1024 72 10000 3.1 70 11:18 11.03.2020
1328 Clear 15 1024 71 10000 4.1 60 10:42 11.03.2020
1329 Clear 14 1024 66 10000 2.6 330 10:18 11.03.2020
1330 Clear 13 1024 76 10000 3.6 330 09:43 11.03.2020
1331 Clear 13 1024 76 10000 3.6 330 09:25 11.03.2020
1332 Clear 11 1023 81 10000 2.6 320 08:49 11.03.2020
1333 Clear 10 1023 81 10000 2.6 320 08:31 11.03.2020
1334 Clear 10 1023 76 10000 3.1 330 07:59 11.03.2020
1335 Clouds 9 1022 76 10000 4.1 330 07:38 11.03.2020
1336 Clouds 10 1022 76 10000 4.1 330 07:18 11.03.2020
1337 Clear 10 1022 81 10000 4.6 320 06:37 11.03.2020
1338 Clear 9 1022 81 10000 4.1 330 05:35 11.03.2020
1339 Clear 10 1022 81 10000 3.6 320 04:29 11.03.2020
1340 Clouds 10 1023 87 10000 2.6 310 02:20 11.03.2020
1341 Clouds 10 1023 87 10000 2.1 300 01:27 11.03.2020
1342 Clear 11 1023 81 10000 2.6 310 00:46 11.03.2020
1343 Clear 11 1024 81 10000 1.5 270 23:58 10.03.2020
1344 Clear 11 1024 87 10000 2.6 260 23:39 10.03.2020
1345 Clouds 10 1024 82 10000 4.1 220 23:20 10.03.2020
1346 Clouds 11 1024 82 10000 4.1 220 22:39 10.03.2020
1347 Clouds 11 1024 87 10000 3.6 240 22:20 10.03.2020
1348 Clouds 11 1024 87 10000 3.6 240 21:57 10.03.2020
1349 Clouds 11 1024 87 10000 3.6 240 21:57 10.03.2020
1350 Clouds 11 1023 81 10000 4.1 240 21:38 10.03.2020
1351 Clouds 11 1023 81 10000 4.1 240 21:38 10.03.2020
1352 Clouds 12 1023 82 10000 4.1 220 21:20 10.03.2020
1353 Clouds 12 1023 82 10000 4.1 220 20:58 10.03.2020
1354 Clouds 12 1023 82 10000 4.6 230 20:40 10.03.2020
1355 Clouds 12 1023 82 10000 3.6 220 20:18 10.03.2020
1356 Clouds 12 1023 82 10000 3.6 220 19:56 10.03.2020
1357 Clouds 12 1023 82 10000 5.1 240 19:37 10.03.2020
1358 Clouds 13 1023 82 10000 5.1 230 19:19 10.03.2020
1359 Clouds 14 1023 71 10000 5.7 230 18:44 10.03.2020
1360 Clouds 14 1023 71 10000 5.7 230 18:25 10.03.2020
1361 Clouds 14 1023 67 10000 6.2 230 17:57 10.03.2020
1362 Clouds 14 1023 67 10000 6.2 230 17:39 10.03.2020
1363 Clouds 14 1023 67 10000 6.2 230 17:39 10.03.2020
1364 -273 0 0 0 0 0 17:21 10.03.2020
1365 Clouds 15 1023 67 10000 7.7 230 16:39 10.03.2020
1366 Clouds 15 1023 71 10000 8.7 230 16:19 10.03.2020
1367 Clouds 15 1023 71 10000 8.7 230 15:56 10.03.2020
1368 Clouds 15 1023 71 10000 8.7 230 15:56 10.03.2020
1369 Clouds 15 1023 62 10000 9.8 230 15:37 10.03.2020
1370 Clouds 15 1023 54 10000 7.7 220 15:19 10.03.2020
1371 Clouds 15 1024 62 10000 7.2 210 14:41 10.03.2020
1372 Clouds 15 1024 62 10000 7.2 210 14:20 10.03.2020
1373 Clouds 15 1024 58 10000 5.1 200 13:59 10.03.2020
1374 Clouds 16 1024 54 10000 5.7 210 13:41 10.03.2020
1375 Clouds 16 1024 54 10000 5.7 210 13:22 10.03.2020
1376 Clouds 15 1025 58 10000 3.6 200 12:42 10.03.2020
1377 Clouds 15 1025 58 10000 3.6 200 12:21 10.03.2020
1378 Clouds 15 1025 47 10000 3.6 190 11:58 10.03.2020
1379 Clouds 14 1025 51 10000 1 280 11:40 10.03.2020
1380 Clouds 14 1025 54 10000 3.6 330 11:22 10.03.2020
1381 Clouds 12 1025 58 10000 4.6 320 10:43 10.03.2020
1382 Clouds 12 1025 58 10000 4.6 330 10:23 10.03.2020
1383 Clouds 11 1025 58 10000 4.6 330 09:59 10.03.2020
1384 Clouds 11 1024 57 10000 5.1 310 09:41 10.03.2020
1385 Clouds 10 1024 57 10000 5.1 310 09:19 10.03.2020
1386 Clouds 10 1024 57 10000 5.1 310 09:19 10.03.2020
1387 Clouds 9 1024 61 10000 4.6 320 08:51 10.03.2020
1388 Clouds 9 1024 70 10000 1 0 08:32 10.03.2020
1389 Clouds 7 1023 57 10000 5.7 320 07:51 10.03.2020
1390 Clouds 7 1023 57 10000 5.7 320 07:32 10.03.2020
1391 Clouds 8 1023 61 10000 5.1 320 06:48 10.03.2020
1392 Clouds 7 1023 61 10000 5.1 320 06:30 10.03.2020
1393 Clouds 8 1023 61 10000 5.1 330 05:42 10.03.2020
1394 Clouds 9 1022 66 10000 5.1 330 04:53 10.03.2020
1395 Clouds 9 1022 66 10000 5.1 330 04:24 10.03.2020
1396 Clouds 9 1023 76 10000 3.6 320 02:44 10.03.2020
1397 Clouds 10 1022 71 10000 3.6 180 01:31 10.03.2020
1398 Clouds 10 1022 71 10000 3.6 170 00:50 10.03.2020
1399 Clouds 10 1022 67 10000 3.1 150 00:27 10.03.2020
1400 Clouds 10 1022 71 10000 3.6 150 23:41 09.03.2020
1401 Clouds 11 1021 71 10000 4.1 140 23:22 09.03.2020
1402 Clouds 11 1021 71 10000 4.1 140 22:56 09.03.2020
1403 Clouds 11 1021 71 10000 3.6 130 22:37 09.03.2020
1404 Clouds 11 1021 71 10000 4.6 120 22:18 09.03.2020
1405 Clouds 11 1021 71 10000 4.6 100 21:42 09.03.2020
1406 Clouds 11 1020 76 10000 4.6 90 21:22 09.03.2020
1407 Clouds 12 1020 76 10000 4.6 90 20:58 09.03.2020
1408 Clouds 12 1020 76 10000 4.6 90 20:39 09.03.2020
1409 Clouds 12 1020 76 10000 4.6 90 20:20 09.03.2020
1410 Clouds 12 1019 82 10000 8.2 90 19:45 09.03.2020
1411 Clouds 12 1019 82 10000 8.2 90 19:45 09.03.2020
1412 Clouds 12 1019 82 10000 8.2 90 19:26 09.03.2020
1413 Clouds 12 1018 82 10000 8.2 80 18:59 09.03.2020
1414 Clouds 13 1018 76 10000 8.7 80 18:40 09.03.2020
1415 Clouds 13 1018 76 10000 8.7 80 18:20 09.03.2020
1416 Clouds 14 1018 76 10000 8.7 80 17:58 09.03.2020
1417 Clouds 14 1017 67 10000 7.2 80 17:38 09.03.2020
1418 Clouds 15 1017 59 10000 8.2 50 17:20 09.03.2020
1419 Clouds 15 1017 59 10000 8.2 50 16:59 09.03.2020
1420 Rain 15 1018 88 0 4.13 152 16:41 09.03.2020
1421 Clouds 15 1017 34 10000 3.6 160 16:22 09.03.2020
1422 Clouds 16 1017 34 10000 3.6 160 15:58 09.03.2020
1423 Clouds 17 1017 34 10000 3.6 160 15:39 09.03.2020
1424 Clouds 16 1017 36 10000 4.1 160 15:21 09.03.2020
1425 Clouds 16 1017 36 10000 4.1 160 15:21 09.03.2020
1426 Clouds 16 1018 51 10000 4.1 170 14:57 09.03.2020
1427 Clouds 16 1018 51 10000 5.1 150 14:38 09.03.2020
1428 Clouds 16 1018 51 10000 5.1 150 14:19 09.03.2020
1429 Clouds 16 1019 51 10000 5.1 160 13:58 09.03.2020
1430 Clouds 16 1019 51 10000 5.7 150 13:38 09.03.2020
1431 Clouds 15 1019 51 10000 5.7 150 13:19 09.03.2020
1432 Clouds 15 1020 51 10000 2.6 310 12:43 09.03.2020
1433 Clouds 15 1020 51 10000 2.6 310 12:23 09.03.2020
1434 Clouds 15 1020 42 10000 4.1 360 11:58 09.03.2020
1435 Clouds 14 1020 54 10000 3.6 240 11:38 09.03.2020
1436 Clouds 14 1020 54 10000 3.6 240 11:20 09.03.2020
1437 Clouds 13 1020 51 10000 4.6 330 10:55 09.03.2020
1438 Clouds 13 1020 51 10000 4.6 330 10:37 09.03.2020
1439 Clouds 13 1020 58 10000 5.1 330 10:18 09.03.2020
1440 Clouds 11 1020 76 9000 1 0 09:42 09.03.2020
1441 Clouds 11 1020 76 9000 1 0 09:23 09.03.2020
1442 Clouds 10 1020 71 10000 4.1 330 08:45 09.03.2020
1443 Clouds 10 1019 71 10000 2.1 330 08:27 09.03.2020
1444 Clouds 9 1019 76 10000 5.1 320 07:44 09.03.2020
1445 Clouds 9 1019 71 10000 4.6 310 07:22 09.03.2020
1446 Clouds 9 1019 81 10000 3.6 340 06:59 09.03.2020
1447 Clouds 9 1019 81 10000 3.6 340 06:38 09.03.2020
1448 Clouds 9 1019 81 10000 4.1 310 06:20 09.03.2020
1449 Clouds 9 1018 87 10000 3.6 340 05:41 09.03.2020
1450 Clouds 9 1018 87 10000 2.6 330 04:48 09.03.2020
1451 Clouds 9 1019 81 10000 3.6 320 04:23 09.03.2020
1452 Clouds 9 1019 81 10000 2.1 330 03:46 09.03.2020
1453 Clouds 10 1019 76 10000 3.1 340 02:37 09.03.2020
1454 Clouds 10 1020 76 10000 1.5 320 00:42 09.03.2020
1455 Clouds 10 1020 87 10000 2.1 230 00:24 09.03.2020
1456 Clouds 11 1020 93 10000 2.6 230 23:55 08.03.2020
1457 Clouds 11 1020 93 10000 2.1 220 23:29 08.03.2020
1458 Clouds 11 1020 87 10000 2.6 220 22:59 08.03.2020
1459 Clouds 11 1020 87 10000 3.1 240 22:40 08.03.2020
1460 Clouds 12 1020 87 10000 3.1 240 22:21 08.03.2020
1461 Clouds 12 1020 82 10000 3.6 240 21:57 08.03.2020
1462 Clouds 12 1020 82 10000 3.1 260 21:39 08.03.2020
1463 Clouds 13 1020 82 10000 3.1 260 21:19 08.03.2020
1464 Clouds 13 1020 76 10000 3.1 240 20:56 08.03.2020
1465 Clouds 13 1020 82 10000 3.1 240 20:37 08.03.2020
1466 Clouds 13 1020 82 10000 3.1 240 20:19 08.03.2020
1467 Clouds 14 1021 71 10000 5.1 230 19:38 08.03.2020
1468 Clouds 14 1020 71 10000 7.2 230 19:19 08.03.2020
1469 Clouds 14 1020 71 10000 7.2 230 18:43 08.03.2020
1470 Clouds 15 1020 71 10000 6.2 230 18:24 08.03.2020
1471 Clouds 15 1020 71 10000 6.2 230 18:24 08.03.2020
1472 Clouds 15 1020 72 10000 5.7 220 17:58 08.03.2020
1473 Clouds 15 1020 72 10000 5.7 220 17:39 08.03.2020
1474 Clouds 15 1021 67 10000 6.7 210 17:20 08.03.2020
1475 Clouds 16 1021 67 10000 6.7 210 16:55 08.03.2020
1476 Clouds 16 1020 67 10000 6.7 200 16:36 08.03.2020
1477 Clouds 16 1020 67 10000 6.7 200 16:18 08.03.2020
1478 Clouds 17 1021 51 10000 6.2 210 15:41 08.03.2020
1479 Clouds 17 1021 51 10000 6.2 210 15:21 08.03.2020
1480 Clouds 17 1021 51 10000 5.7 210 14:56 08.03.2020
1481 Clouds 17 1021 58 10000 6.2 200 14:37 08.03.2020
1482 Clear 17 1021 58 10000 6.2 200 14:19 08.03.2020
1483 Clear 17 1022 54 10000 4.6 200 13:41 08.03.2020
1484 Clear 16 1022 54 10000 4.6 200 13:20 08.03.2020
1485 Clear 16 1023 54 10000 4.1 200 12:43 08.03.2020
1486 Clear 16 1023 54 10000 1.5 260 12:25 08.03.2020
1487 Clear 15 1023 54 10000 0.5 280 11:58 08.03.2020
1488 Clear 15 1023 54 10000 0.5 280 11:40 08.03.2020
1489 Clouds 13 1023 51 10000 3.1 320 11:21 08.03.2020
1490 Clouds 13 1024 62 10000 3.6 320 10:42 08.03.2020
1491 Clouds 12 1024 62 10000 3.6 320 10:23 08.03.2020
1492 Clouds 12 1023 62 10000 5.7 320 09:58 08.03.2020
1493 Clouds 11 1023 71 10000 4.6 320 09:37 08.03.2020
1494 Clouds 11 1023 71 10000 4.6 320 09:18 08.03.2020
1495 Clouds 9 1023 81 10000 5.1 320 08:41 08.03.2020
1496 Clouds 8 1022 81 10000 4.6 320 08:20 08.03.2020
1497 Clouds 7 1022 81 10000 4.6 320 07:45 08.03.2020
1498 Clouds 7 1022 87 10000 5.1 320 07:25 08.03.2020
1499 Clouds 8 1022 81 10000 4.6 320 06:43 08.03.2020
1500 Clouds 8 1022 81 10000 3.6 340 06:23 08.03.2020
1501 Clouds 8 1022 81 10000 4.1 330 05:41 08.03.2020
1502 Clouds 9 1023 76 10000 3.6 320 03:52 08.03.2020
1503 Clouds 9 1023 76 10000 3.6 320 03:52 08.03.2020
1504 Clouds 9 1023 71 10000 2.6 350 02:38 08.03.2020
1505 Clouds 10 1024 76 10000 2.1 360 01:34 08.03.2020
1506 Clouds 10 1023 71 10000 1.5 100 00:58 08.03.2020
1507 Clouds 10 1023 71 10000 2.6 110 00:28 08.03.2020
1508 Clouds 11 1023 76 10000 3.6 120 23:48 07.03.2020
1509 Clouds 11 1023 76 10000 3.6 120 23:26 07.03.2020
1510 Clouds 11 1023 76 10000 3.6 120 22:56 07.03.2020
1511 Clouds 11 1022 76 10000 4.1 110 22:37 07.03.2020
1512 Clouds 11 1022 76 10000 4.1 110 22:19 07.03.2020
1513 Clouds 11 1022 76 10000 3.6 110 21:43 07.03.2020
1514 Clouds 12 1022 76 10000 3.6 110 21:20 07.03.2020
1515 Clouds 12 1021 71 10000 3.1 100 20:41 07.03.2020
1516 Clear 12 1021 71 10000 3.1 80 20:21 07.03.2020
1517 Clear 13 1020 71 10000 2.1 100 19:42 07.03.2020
1518 Clear 13 1020 67 10000 3.6 210 19:23 07.03.2020
1519 Clear 13 1019 71 10000 4.1 210 18:59 07.03.2020
1520 Clear 13 1019 67 10000 5.7 210 18:39 07.03.2020
1521 Clear 14 1019 67 10000 5.7 210 18:20 07.03.2020
1522 Clear 15 1018 62 10000 6.2 200 17:42 07.03.2020
1523 Clear 16 1018 51 10000 6.7 210 17:20 07.03.2020
1524 Clear 16 1018 62 10000 6.7 200 16:56 07.03.2020
1525 Clear 16 1018 48 10000 6.7 210 16:38 07.03.2020
1526 Clear 16 1018 48 10000 6.7 210 16:20 07.03.2020
1527 Clear 16 1018 54 10000 7.7 210 15:55 07.03.2020
1528 Clear 16 1018 25 10000 1.5 250 15:36 07.03.2020
1529 Clear 16 1018 25 10000 1.5 250 15:18 07.03.2020
1530 Clear 16 1018 27 10000 1.5 190 14:42 07.03.2020
1531 Clouds 16 1019 36 10000 2.6 290 14:23 07.03.2020
1532 Clouds 15 1019 26 10000 6.7 200 13:43 07.03.2020
1533 Clouds 15 1019 41 10000 7.2 210 13:22 07.03.2020
1534 Clouds 14 1019 47 10000 6.7 220 12:59 07.03.2020
1535 Clouds 14 1019 47 10000 6.7 220 12:39 07.03.2020
1536 Clouds 14 1019 44 10000 2.6 270 12:19 07.03.2020
1537 Clouds 13 1019 26 10000 3.6 270 11:55 07.03.2020
1538 Clear 13 1019 47 10000 5.1 240 11:36 07.03.2020
1539 Clouds 12 1019 33 10000 4.1 320 11:18 07.03.2020
1540 Clear 12 1019 30 10000 5.7 310 10:39 07.03.2020
1541 Clear 11 1019 37 10000 4.1 310 10:19 07.03.2020
1542 Clear 10 1019 40 10000 3.6 310 09:41 07.03.2020
1543 Clear 9 1019 46 10000 5.1 310 09:20 07.03.2020
1544 Clear 8 1018 49 10000 5.7 320 08:59 07.03.2020
1545 Clear 7 1018 52 10000 4.1 310 08:41 07.03.2020
1546 Clear 6 1018 52 10000 4.1 310 08:20 07.03.2020
1547 Clouds 6 1017 56 10000 5.1 310 07:47 07.03.2020
1548 Clouds 6 1017 52 10000 3.6 310 07:22 07.03.2020
1549 Clouds 6 1016 48 10000 2.1 250 06:52 07.03.2020
1550 Clouds 6 1016 48 10000 2.1 250 06:28 07.03.2020
1551 Clouds 6 1016 48 10000 2.1 250 05:45 07.03.2020
1552 Clouds 7 1016 52 10000 1.5 300 04:25 07.03.2020
1553 Clouds 7 1015 49 10000 5.1 320 02:46 07.03.2020
1554 Clouds 7 1015 49 10000 4.1 320 02:18 07.03.2020
1555 Clouds 8 1015 45 10000 4.6 300 01:19 07.03.2020
1556 Clouds 8 1015 43 10000 6.2 310 00:37 07.03.2020
1557 Clouds 8 1015 43 10000 6.2 310 00:18 07.03.2020
1558 Clouds 8 1014 43 10000 5.1 290 23:41 06.03.2020
1559 Clouds 9 1014 43 10000 5.1 290 23:23 06.03.2020
1560 Clouds 9 1013 43 10000 6.7 310 22:46 06.03.2020
1561 Clouds 9 1013 40 10000 5.7 300 22:20 06.03.2020
1562 Clouds 9 1012 43 10000 8.2 310 21:50 06.03.2020
1563 Clouds 9 1011 43 10000 6.2 310 21:21 06.03.2020
1564 Clouds 9 1011 43 10000 6.7 320 20:56 06.03.2020
1565 Clouds 10 1011 40 10000 10.3 310 20:36 06.03.2020
1566 Clouds 10 1011 40 10000 10.3 310 20:18 06.03.2020
1567 Clouds 11 1010 37 10000 10.8 300 19:42 06.03.2020
1568 Clouds 11 1010 37 10000 10.8 300 19:23 06.03.2020
1569 Clouds 12 1008 33 10000 8.7 290 18:42 06.03.2020
1570 Clouds 13 1008 31 10000 8.2 290 18:21 06.03.2020
1571 Clouds 13 1007 38 10000 6.7 310 17:57 06.03.2020
1572 Clouds 13 1007 38 10000 6.7 310 17:39 06.03.2020
1573 Clouds 14 1007 33 10000 11.3 270 17:21 06.03.2020
1574 Clouds 13 1007 33 10000 11.3 270 16:56 06.03.2020
1575 Clouds 13 1007 33 10000 13.4 320 16:37 06.03.2020
1576 Clouds 13 1007 33 10000 13.4 320 16:19 06.03.2020
1577 Clouds 13 1006 38 10000 10.8 340 15:42 06.03.2020
1578 Rain 14 1007 66 10000 11.8 280 15:23 06.03.2020
1579 Rain 15 1006 36 10000 9.8 270 14:42 06.03.2020
1580 Clouds 15 1006 33 10000 8.2 300 14:24 06.03.2020
1581 Clouds 15 1007 38 10000 8.7 280 13:59 06.03.2020
1582 Clouds 15 1007 38 10000 8.7 280 13:40 06.03.2020
1583 Clouds 14 1007 38 10000 9.3 290 13:20 06.03.2020
1584 Clouds 14 1007 38 10000 10.3 280 12:55 06.03.2020
1585 Clouds 14 1007 33 10000 9.8 280 12:36 06.03.2020
1586 Clouds 14 1007 33 10000 9.8 280 12:18 06.03.2020
1587 Clouds 14 1007 33 10000 9.8 280 12:18 06.03.2020
1588 Clouds 13 1008 32 10000 9.8 280 11:43 06.03.2020
1589 Clouds 13 1008 38 10000 5.7 320 11:21 06.03.2020
1590 Clouds 13 1008 38 10000 5.7 320 11:21 06.03.2020
1591 Clouds 12 1008 41 10000 4.1 320 10:58 06.03.2020
1592 Clouds 12 1008 41 10000 5.1 340 10:37 06.03.2020
1593 Clouds 11 1008 41 10000 5.1 340 10:18 06.03.2020
1594 Clouds 11 1008 41 10000 5.1 340 10:18 06.03.2020
1595 Clouds 10 1008 53 10000 5.1 320 09:42 06.03.2020
1596 Clouds 10 1008 53 10000 5.1 320 09:24 06.03.2020
1597 Clouds 9 1009 61 10000 4.1 300 08:57 06.03.2020
1598 Clouds 9 1009 61 10000 4.1 300 08:38 06.03.2020
1599 Clouds 8 1008 61 10000 6.2 300 08:20 06.03.2020
1600 Clouds 7 1008 57 10000 7.2 280 07:47 06.03.2020
1601 Clouds 7 1008 61 10000 6.2 290 07:25 06.03.2020
1602 Clouds 7 1008 57 10000 5.1 330 06:47 06.03.2020
1603 Clouds 7 1008 57 10000 3.1 350 06:28 06.03.2020
1604 Clouds 8 1008 57 10000 4.1 320 05:39 06.03.2020
1605 Clouds 8 1008 57 10000 4.1 320 05:20 06.03.2020
1606 Clouds 8 1008 57 10000 4.6 320 04:39 06.03.2020
1607 Clouds 10 1008 43 10000 1.5 320 01:45 06.03.2020
1608 Clouds 11 1007 43 10000 3.1 340 01:26 06.03.2020
1609 Clouds 11 1007 47 10000 2.6 290 00:57 06.03.2020
1610 Clouds 11 1007 47 10000 4.1 290 00:31 06.03.2020
1611 Clouds 11 1007 44 10000 7.2 310 23:44 05.03.2020
1612 Clouds 12 1006 44 10000 7.7 300 23:25 05.03.2020
1613 Clouds 12 1006 41 10000 8.2 290 22:56 05.03.2020
1614 Clouds 13 1006 38 10000 9.8 270 22:37 05.03.2020
1615 Clouds 13 1006 38 10000 9.8 270 22:18 05.03.2020
1616 Clouds 14 1006 38 10000 8.2 290 21:56 05.03.2020
1617 Clouds 14 1006 38 10000 8.2 290 21:56 05.03.2020
1618 Clouds 14 1006 38 10000 8.2 290 21:37 05.03.2020
1619 Clouds 14 1006 41 10000 4.6 290 21:19 05.03.2020
1620 Clouds 15 1005 36 10000 6.7 280 20:54 05.03.2020
1621 Clouds 15 1004 36 10000 6.2 290 20:36 05.03.2020
1622 Clouds 15 1004 36 10000 6.2 290 20:18 05.03.2020
1623 Clouds 16 1004 39 10000 7.2 270 19:40 05.03.2020
1624 Clouds 16 1004 36 10000 7.7 290 19:22 05.03.2020
1625 Clouds 16 1003 34 10000 9.8 260 19:00 05.03.2020
1626 Clouds 17 1003 34 10000 9.8 260 18:38 05.03.2020
1627 Clouds 17 1003 37 10000 12.3 280 18:19 05.03.2020
1628 Clouds 18 1003 45 10000 8.2 260 17:58 05.03.2020
1629 Clouds 18 1003 52 10000 7.7 260 17:40 05.03.2020
1630 Clouds 18 1003 52 10000 7.7 260 17:21 05.03.2020
1631 Rain 18 1003 59 10000 7.2 260 16:42 05.03.2020
1632 Rain 18 1002 59 10000 11.3 230 16:24 05.03.2020
1633 Clouds 18 1002 52 10000 9.3 230 15:59 05.03.2020
1634 Clouds 20 1002 52 10000 9.3 230 15:40 05.03.2020
1635 Clouds 20 1002 59 10000 10.3 230 15:21 05.03.2020
1636 Clouds 20 1003 52 10000 8.7 220 14:55 05.03.2020
1637 Clouds 20 1003 55 10000 8.7 220 14:36 05.03.2020
1638 Clouds 19 1003 55 10000 8.7 220 14:18 05.03.2020
1639 Clouds 19 1004 63 10000 10.8 230 13:43 05.03.2020
1640 Clouds 19 1004 63 10000 10.8 230 13:21 05.03.2020
1641 Clouds 19 1005 63 10000 9.3 230 12:57 05.03.2020
1642 Clouds 18 1005 67 10000 9.8 220 12:38 05.03.2020
1643 Clouds 18 1005 67 10000 9.8 220 12:19 05.03.2020
1644 Clouds 18 1006 67 10000 8.7 220 11:56 05.03.2020
1645 Clouds 18 1006 67 10000 8.7 220 11:37 05.03.2020
1646 Clouds 17 1006 67 10000 9.8 230 11:18 05.03.2020
1647 Clouds 17 1006 72 10000 7.2 230 10:56 05.03.2020
1648 Clouds 16 1006 72 10000 7.2 230 10:38 05.03.2020
1649 Clouds 16 1007 72 10000 7.2 230 10:38 05.03.2020
1650 Clouds 16 1007 72 10000 7.2 230 10:20 05.03.2020
1651 Clouds 15 1008 77 10000 1.5 270 09:44 05.03.2020
1652 Clouds 13 1008 81 10000 2.1 280 09:26 05.03.2020
1653 Clouds 11 1008 87 10000 2.1 290 08:44 05.03.2020
1654 Clouds 10 1008 93 10000 2.6 290 08:25 05.03.2020
1655 Clouds 10 1009 93 10000 1.5 300 07:48 05.03.2020
1656 Clouds 10 1009 87 10000 1.5 310 07:22 05.03.2020
1657 Clouds 10 1009 93 10000 1.5 310 06:49 05.03.2020
1658 Clouds 10 1010 87 9000 2.1 300 06:22 05.03.2020
1659 Clouds 10 1010 87 7000 3.6 320 05:57 05.03.2020
1660 Clouds 10 1010 87 6000 4.1 320 05:25 05.03.2020
1661 Clouds 10 1011 93 10000 2.6 320 04:22 05.03.2020
1662 Clouds 10 1012 87 10000 3.1 320 03:56 05.03.2020
1663 Clouds 10 1013 87 10000 2.6 320 02:21 05.03.2020
1664 Clouds 10 1014 93 10000 2.1 330 01:22 05.03.2020
1665 Clouds 10 1015 87 10000 1.5 320 00:26 05.03.2020
1666 Clouds 11 1015 87 10000 0.5 0 23:43 04.03.2020
1667 Clouds 11 1015 87 10000 0.5 0 23:24 04.03.2020
1668 Clouds 11 1015 87 10000 1.5 30 22:59 04.03.2020
1669 Clouds 11 1016 87 10000 2.1 20 22:39 04.03.2020
1670 Clouds 11 1016 87 10000 2.1 20 22:19 04.03.2020
1671 Clouds 11 1016 87 10000 2.6 40 21:58 04.03.2020
1672 Clouds 11 1015 87 10000 3.6 50 21:40 04.03.2020
1673 Clouds 12 1015 87 10000 3.6 50 21:20 04.03.2020
1674 Clouds 12 1015 87 10000 3.6 40 20:56 04.03.2020
1675 Clouds 12 1016 82 10000 3.6 40 20:37 04.03.2020
1676 Clouds 12 1016 82 10000 3.6 40 20:19 04.03.2020
1677 Clouds 13 1015 82 10000 4.6 50 19:42 04.03.2020
1678 Clouds 13 1015 82 10000 4.6 50 19:23 04.03.2020
1679 Clouds 14 1015 82 10000 4.6 50 18:57 04.03.2020
1680 Clouds 14 1015 82 10000 4.6 50 18:37 04.03.2020
1681 Clouds 14 1015 76 10000 3.6 50 18:18 04.03.2020
1682 Clouds 14 1014 82 10000 3.1 70 17:55 04.03.2020
1683 Clouds 14 1015 77 10000 3.6 80 17:37 04.03.2020
1684 Clouds 15 1015 77 10000 3.6 80 17:19 04.03.2020
1685 Clouds 15 1015 77 10000 2.6 90 16:44 04.03.2020
1686 Clouds 15 1015 77 10000 2.6 90 16:25 04.03.2020
1687 Clouds 15 1015 77 10000 2.6 90 15:59 04.03.2020
1688 Clouds 15 1015 72 10000 3.1 90 15:41 04.03.2020
1689 Clouds 15 1015 72 10000 3.1 90 15:21 04.03.2020
1690 Clouds 15 1015 67 10000 3.1 100 14:55 04.03.2020
1691 Clouds 15 1016 67 10000 3.1 90 14:37 04.03.2020
1692 Clouds 16 1016 67 10000 3.1 90 14:18 04.03.2020
1693 Clouds 15 1016 58 10000 2.6 100 13:56 04.03.2020
1694 Clouds 15 1016 58 10000 2.6 100 13:37 04.03.2020
1695 Clouds 15 1016 54 10000 0.5 80 13:19 04.03.2020
1696 Clouds 15 1017 54 10000 2.6 110 12:44 04.03.2020
1697 Clouds 15 1017 51 10000 3.1 100 12:25 04.03.2020
1698 Clouds 15 1017 59 10000 3.1 130 11:56 04.03.2020
1699 Clouds 15 1017 59 10000 3.1 130 11:37 04.03.2020
1700 Clouds 14 1017 44 10000 1 290 11:19 04.03.2020
1701 Clouds 14 1017 44 10000 1 290 11:19 04.03.2020
1702 Clouds 13 1017 54 10000 2.1 360 10:47 04.03.2020
1703 Clouds 12 1017 58 10000 1.5 340 10:26 04.03.2020
1704 Clouds 12 1016 62 10000 2.1 340 09:58 04.03.2020
1705 Clouds 11 1016 62 10000 2.1 350 09:40 04.03.2020
1706 Clouds 11 1016 62 10000 2.1 350 09:20 04.03.2020
1707 Clouds 10 1016 57 10000 2.1 360 08:43 04.03.2020
1708 Clouds 8 1016 61 10000 1.5 360 08:25 04.03.2020
1709 Clouds 8 1015 61 10000 1 0 07:52 04.03.2020
1710 Clouds 8 1015 61 10000 1 0 07:33 04.03.2020
1711 Clouds 8 1015 61 10000 0.5 0 06:54 04.03.2020
1712 Clouds 8 1015 61 10000 0.5 0 06:54 04.03.2020
1713 Clouds 8 1015 57 10000 0.5 0 06:27 04.03.2020
1714 Clouds 9 1014 53 10000 1 0 05:59 04.03.2020
1715 Clouds 9 1014 53 10000 1 0 05:41 04.03.2020
1716 Clouds 9 1013 61 10000 2.1 360 04:19 04.03.2020
1717 Clouds 10 1013 53 10000 2.6 340 03:38 04.03.2020
1718 Clouds 10 1013 50 10000 3.1 360 02:59 04.03.2020
1719 Clear 11 1013 50 10000 3.1 10 02:32 04.03.2020
1720 Clear 11 1013 53 10000 4.1 350 01:58 04.03.2020
1721 Clear 11 1012 50 10000 4.6 320 01:38 04.03.2020
1722 Clear 11 1012 47 10000 4.1 320 00:42 04.03.2020
1723 Clear 11 1012 44 10000 2.6 320 00:24 04.03.2020
1724 Clear 12 1011 41 10000 3.6 320 23:45 03.03.2020
1725 Clear 12 1010 36 10000 8.2 320 23:27 03.03.2020
1726 Clear 13 1010 38 10000 6.7 310 22:57 03.03.2020
1727 Clear 13 1009 38 10000 6.2 320 22:39 03.03.2020
1728 Clear 13 1009 38 10000 6.2 320 22:19 03.03.2020
1729 Clouds 13 1008 41 10000 6.7 310 21:56 03.03.2020
1730 Clouds 13 1007 41 10000 6.7 300 21:36 03.03.2020
1731 Clouds 13 1007 41 10000 6.7 300 21:18 03.03.2020
1732 Clouds 13 1006 42 10000 8.2 290 20:40 03.03.2020
1733 Clouds 14 1005 48 10000 8.2 300 20:20 03.03.2020
1734 Clouds 14 1005 48 10000 8.2 300 20:20 03.03.2020
1735 Clouds 14 1004 48 10000 7.7 300 19:59 03.03.2020
1736 Clouds 14 1004 48 10000 7.7 300 19:37 03.03.2020
1737 Clouds 14 1004 48 10000 10.8 290 19:19 03.03.2020
1738 Clouds 13 1004 48 10000 10.8 290 19:19 03.03.2020
1739 Clouds 14 1003 45 10000 12.3 290 18:58 03.03.2020
1740 Clouds 14 1003 67 10000 8.7 240 18:40 03.03.2020
1741 Clouds 14 1003 67 10000 8.7 240 18:21 03.03.2020
1742 Clouds 14 1003 67 10000 10.3 220 17:57 03.03.2020
1743 Clouds 14 1004 67 10000 9.8 220 17:39 03.03.2020
1744 Clouds 14 1004 67 10000 9.8 220 17:21 03.03.2020
1745 Clouds 14 1004 58 10000 9.8 220 16:57 03.03.2020
1746 Clouds 14 1004 58 10000 9.8 220 16:37 03.03.2020
1747 Clouds 14 1004 62 10000 8.7 230 16:18 03.03.2020
1748 Clouds 14 1005 58 10000 12.3 230 15:44 03.03.2020
1749 Clouds 14 1005 58 10000 12.3 230 15:22 03.03.2020
1750 Clouds 14 1006 62 10000 11.8 230 14:57 03.03.2020
1751 Clouds 13 1007 58 10000 8.7 230 14:37 03.03.2020
1752 Clouds 13 1007 58 10000 8.7 230 14:19 03.03.2020
1753 Clouds 13 1008 54 10000 10.3 240 13:56 03.03.2020
1754 Clouds 12 1009 54 10000 10.8 230 13:38 03.03.2020
1755 Clouds 12 1009 54 10000 10.8 230 13:18 03.03.2020
1756 Clouds 12 1010 50 10000 8.2 230 12:43 03.03.2020
1757 Clouds 13 1010 50 10000 9.8 250 12:24 03.03.2020
1758 Clouds 12 1011 47 10000 8.7 250 11:55 03.03.2020
1759 Clouds 12 1011 50 10000 8.7 240 11:37 03.03.2020
1760 Clouds 11 1011 50 10000 8.7 240 11:18 03.03.2020
1761 Clouds 11 1012 46 10000 3.1 250 10:55 03.03.2020
1762 Clouds 10 1012 48 10000 2.1 300 10:37 03.03.2020
1763 Clouds 9 1012 48 10000 2.1 300 10:18 03.03.2020
1764 Clouds 9 1013 53 10000 2.1 290 09:42 03.03.2020
1765 Clouds 9 1013 48 10000 3.6 300 09:21 03.03.2020
1766 Clouds 8 1013 48 10000 4.6 290 08:42 03.03.2020
1767 Clouds 7 1013 54 10000 3.1 260 08:24 03.03.2020
1768 Clouds 7 1013 54 10000 4.1 300 07:58 03.03.2020
1769 Clouds 7 1013 54 10000 4.1 300 07:39 03.03.2020
1770 Clouds 7 1013 54 10000 4.1 310 07:19 03.03.2020
1771 Clouds 7 1013 54 10000 4.6 300 06:40 03.03.2020
1772 Clouds 8 1013 54 10000 3.6 340 06:21 03.03.2020
1773 Clouds 8 1013 54 10000 6.2 290 05:46 03.03.2020
1774 Clear 7 1011 51 10000 5.7 280 04:56 03.03.2020
1775 Clear 8 1012 49 10000 6.2 300 03:26 03.03.2020
1776 Clear 8 1011 49 10000 7.2 310 01:39 03.03.2020
1777 Clear 8 1010 46 10000 10.3 310 00:47 03.03.2020
1778 Clear 9 1010 46 10000 9.3 310 00:26 03.03.2020
1779 Clear 9 1010 46 10000 9.8 310 23:51 02.03.2020
1780 Clear 9 1010 43 10000 9.3 310 23:23 02.03.2020
1781 Clear 9 1009 43 10000 10.3 310 22:58 02.03.2020
1782 Clear 9 1009 43 10000 10.3 310 22:58 02.03.2020
1783 Clear 10 1008 40 10000 9.3 310 22:39 02.03.2020
1784 Clear 10 1008 40 10000 9.3 310 22:20 02.03.2020
1785 Clear 10 1007 40 10000 11.3 310 21:58 02.03.2020
1786 Clear 10 1006 40 10000 10.3 310 21:39 02.03.2020
1787 Clear 11 1006 40 10000 10.3 310 21:21 02.03.2020
1788 Clear 11 1005 40 10000 7.2 330 20:58 02.03.2020
1789 Clear 11 1005 40 10000 7.2 330 20:38 02.03.2020
1790 Clouds 11 1005 35 10000 5.7 320 20:20 02.03.2020
1791 Clouds 12 1004 37 10000 9.3 300 19:55 02.03.2020
1792 Clouds 12 1004 37 10000 9.3 300 19:37 02.03.2020
1793 Clouds 13 1003 35 10000 10.3 280 19:18 02.03.2020
1794 Clouds 14 1001 30 10000 12.3 290 18:44 02.03.2020
1795 Clouds 14 1001 30 10000 12.3 290 18:20 02.03.2020
1796 Clouds 15 1000 38 10000 10.8 270 17:59 02.03.2020
1797 Clouds 15 1000 38 10000 10.8 270 17:40 02.03.2020
1798 Clouds 15 1000 25 10000 15.4 290 17:21 02.03.2020
1799 Clouds 15 1000 25 10000 15.4 290 17:21 02.03.2020
1800 Clouds 15 999 29 10000 13.9 290 16:56 02.03.2020
1801 Clouds 16 999 29 10000 13.9 290 16:37 02.03.2020
1802 Clouds 16 998 25 10000 12.3 280 16:19 02.03.2020
1803 Clouds 16 998 25 10000 15.4 270 15:44 02.03.2020
1804 Clouds 16 997 31 10000 10.8 280 15:20 02.03.2020
1805 Clouds 16 997 36 10000 12.3 290 14:56 02.03.2020
1806 Clouds 16 996 34 10000 12.3 290 14:36 02.03.2020
1807 Clouds 16 996 51 10000 8.7 270 14:18 02.03.2020
1808 Clouds 16 996 51 10000 8.7 270 13:40 02.03.2020
1809 Clouds 16 996 39 10000 14.4 300 13:19 02.03.2020
1810 Clouds 15 994 39 10000 15.9 270 12:54 02.03.2020
1811 Clouds 16 994 42 10000 17.5 270 12:36 02.03.2020
1812 Rain 16 994 45 10000 15.4 270 12:18 02.03.2020
1813 Rain 15 994 59 10000 8.2 260 11:38 02.03.2020
1814 Clouds 15 994 59 10000 8.2 260 11:19 02.03.2020
1815 Clouds 15 995 67 10000 8.7 240 10:55 02.03.2020
1816 Rain 15 995 67 10000 11.3 240 10:36 02.03.2020
1817 Rain 14 995 67 10000 10.3 260 10:18 02.03.2020
1818 Rain 14 995 67 10000 10.3 260 09:45 02.03.2020
1819 Rain 14 996 82 4000 14.4 250 09:26 02.03.2020
1820 Rain 15 993 77 8000 12.3 230 08:47 02.03.2020
1821 Rain 15 994 77 8000 10.3 240 08:22 02.03.2020
1822 Clouds 14 994 77 9000 10.3 240 07:44 02.03.2020
1823 Clouds 15 995 77 9000 9.8 230 07:20 02.03.2020
1824 Clouds 15 995 77 10000 9.3 230 06:50 02.03.2020
1825 Drizzle 14 997 82 10000 7.7 230 05:58 02.03.2020
1826 Rain 13 998 87 9000 8.2 230 04:56 02.03.2020
1827 Clouds 14 1001 77 10000 7.2 230 03:25 02.03.2020
1828 Clouds 14 1002 72 10000 5.7 200 02:53 02.03.2020
1829 Clouds 14 1003 82 10000 6.2 220 01:55 02.03.2020
1830 Clouds 14 1004 87 10000 5.1 220 01:33 02.03.2020
1831 Clouds 13 1005 87 10000 3.6 230 00:48 02.03.2020
1832 Clouds 14 1006 87 10000 3.6 210 00:22 02.03.2020
1833 Clouds 14 1006 82 10000 4.1 220 23:41 01.03.2020
1834 Clouds 14 1007 76 10000 3.6 240 23:21 01.03.2020
1835 Clouds 13 1007 82 10000 4.1 220 22:44 01.03.2020
1836 Clouds 14 1008 77 10000 5.7 230 22:21 01.03.2020
1837 Clouds 14 1008 77 10000 6.7 230 21:58 01.03.2020
1838 Clouds 14 1008 77 10000 6.7 230 21:39 01.03.2020
1839 Clouds 15 1008 67 10000 6.2 240 21:20 01.03.2020
1840 Clouds 15 1008 72 10000 6.7 240 20:45 01.03.2020
1841 Clouds 15 1009 77 10000 7.2 230 20:26 01.03.2020
1842 Clouds 15 1008 67 10000 6.2 230 19:59 01.03.2020
1843 Clouds 15 1008 67 10000 6.2 230 19:41 01.03.2020
1844 Clouds 16 1008 67 10000 5.7 220 19:21 01.03.2020
1845 Clouds 16 1008 67 10000 8.2 230 18:56 01.03.2020
1846 Clouds 17 1008 72 10000 8.7 220 18:38 01.03.2020
1847 Clouds 18 1008 72 10000 8.7 220 18:18 01.03.2020
1848 Clouds 18 1008 63 10000 10.3 230 17:55 01.03.2020
1849 Clouds 18 1008 63 10000 10.3 230 17:36 01.03.2020
1850 Clouds 19 1008 59 10000 10.8 240 17:18 01.03.2020
1851 Clouds 19 1008 63 10000 10.3 240 16:40 01.03.2020
1852 Clouds 19 1008 63 10000 10.3 240 16:40 01.03.2020
1853 Clouds 19 1008 63 10000 10.3 240 16:40 01.03.2020
1854 Clouds 18 1008 63 10000 9.8 240 16:20 01.03.2020
1855 Clouds 18 1008 59 10000 10.8 230 15:59 01.03.2020
1856 Clouds 19 1008 55 10000 11.8 240 15:40 01.03.2020
1857 Clouds 19 1008 55 10000 11.8 240 15:40 01.03.2020
1858 Clouds 19 1008 55 10000 11.8 240 15:22 01.03.2020
1859 Clouds 19 1008 52 10000 10.8 220 14:58 01.03.2020
1860 Clouds 19 1008 45 10000 11.3 220 14:39 01.03.2020
1861 Clouds 18 1008 45 10000 11.3 220 14:21 01.03.2020
1862 Clouds 19 1009 40 10000 10.3 240 13:59 01.03.2020
1863 Clouds 19 1009 40 10000 10.3 240 13:59 01.03.2020
1864 Clouds 18 1009 40 10000 10.3 240 13:41 01.03.2020
1865 Clouds 18 1009 48 10000 11.3 220 13:20 01.03.2020
1866 Clouds 18 1009 39 10000 6.7 250 12:56 01.03.2020
1867 Clouds 18 1009 39 10000 6.7 250 12:38 01.03.2020
1868 Clouds 18 1009 45 10000 7.2 270 12:19 01.03.2020
1869 Clouds 17 1009 45 10000 8.7 240 11:40 01.03.2020
1870 Clouds 16 1009 45 10000 8.7 240 11:20 01.03.2020
1871 Clouds 16 1009 45 10000 8.2 230 10:56 01.03.2020
1872 Clouds 15 1010 45 10000 7.2 250 10:37 01.03.2020
1873 Clouds 15 1010 45 10000 7.2 250 10:37 01.03.2020
1874 Clouds 15 1010 45 10000 7.2 250 10:19 01.03.2020
1875 Clouds 15 1010 44 10000 7.7 260 09:46 01.03.2020
1876 Clouds 14 1010 47 10000 7.7 260 09:26 01.03.2020
1877 Clouds 13 1010 54 10000 6.2 240 08:52 01.03.2020
1878 Clouds 12 1009 50 10000 4.1 250 08:29 01.03.2020
1879 Clouds 12 1009 62 10000 0.5 0 07:59 01.03.2020
1880 Clouds 13 1009 62 10000 0.5 0 07:40 01.03.2020
1881 Clouds 13 1010 76 10000 1.5 360 07:22 01.03.2020
1882 Clouds 13 1010 87 10000 3.1 10 06:47 01.03.2020
1883 Clouds 13 1009 87 10000 3.1 30 06:28 01.03.2020
1884 Clouds 13 1010 87 9000 1.5 60 03:54 01.03.2020
1885 Clouds 14 1010 82 10000 4.6 50 02:23 01.03.2020
1886 Clouds 14 1010 87 10000 3.1 80 01:48 01.03.2020
1887 Clouds 14 1010 87 10000 0.5 0 01:20 01.03.2020
1888 Clouds 14 1009 87 10000 1 0 00:42 01.03.2020
1889 Clouds 14 1009 87 10000 1 0 00:21 01.03.2020
1890 Clouds 14 1009 93 10000 2.51 229 23:46 29.02.2020
1891 Clouds 14 1009 93 9000 1.5 200 23:28 29.02.2020
1892 Clouds 15 1009 93 9000 2.1 210 22:42 29.02.2020
1893 Clouds 15 1009 87 10000 3.1 180 22:23 29.02.2020
1894 Clouds 15 1009 87 10000 0.5 0 21:42 29.02.2020
1895 Clouds 15 1009 87 10000 2.6 270 21:23 29.02.2020
1896 Clouds 15 1009 87 9000 3.1 230 20:43 29.02.2020
1897 Clouds 15 1009 87 9000 1.5 330 20:22 29.02.2020
1898 Clouds 16 1008 87 10000 3.6 210 19:57 29.02.2020
1899 Clouds 16 1008 87 10000 4.1 220 19:38 29.02.2020
1900 Clouds 16 1008 87 10000 4.1 220 19:19 29.02.2020
1901 Clouds 16 1008 77 10000 3.1 270 18:43 29.02.2020
1902 Clouds 17 1008 77 10000 4.1 240 18:25 29.02.2020
1903 Clouds 17 1008 77 10000 6.2 230 17:58 29.02.2020
1904 Clouds 17 1008 77 10000 6.2 230 17:40 29.02.2020
1905 Clouds 17 1008 77 10000 6.7 230 17:21 29.02.2020
1906 Clouds 17 1008 77 10000 8.2 230 16:45 29.02.2020
1907 Clouds 17 1008 82 10000 8.2 230 16:22 29.02.2020
1908 Clouds 17 1008 82 10000 8.2 230 16:22 29.02.2020
1909 Clouds 17 1008 82 10000 9.8 230 15:59 29.02.2020
1910 Clouds 17 1008 82 10000 8.7 230 15:41 29.02.2020
1911 Clouds 18 1008 82 10000 8.7 230 15:23 29.02.2020
1912 Clouds 18 1009 77 10000 9.8 230 14:42 29.02.2020
1913 Clouds 17 1009 77 10000 9.8 230 14:24 29.02.2020
1914 Clouds 17 1009 77 10000 10.8 220 13:57 29.02.2020
1915 Clouds 18 1009 77 10000 10.8 220 13:38 29.02.2020
1916 Clouds 18 1010 77 10000 8.7 220 13:20 29.02.2020
1917 Clouds 17 1010 77 10000 8.2 220 12:42 29.02.2020
1918 Clouds 17 1011 77 10000 8.7 220 12:22 29.02.2020
1919 Clouds 17 1011 77 10000 6.7 230 11:56 29.02.2020
1920 Clouds 16 1011 77 10000 5.7 230 11:38 29.02.2020
1921 Clouds 15 1011 77 10000 5.7 230 11:20 29.02.2020
1922 Clouds 14 1011 82 10000 5.1 230 10:46 29.02.2020
1923 Clouds 14 1012 87 10000 3.6 240 10:28 29.02.2020
1924 Clouds 13 1012 87 10000 4.1 240 09:48 29.02.2020
1925 Clouds 13 1012 87 10000 5.1 230 09:25 29.02.2020
1926 Clouds 12 1012 93 10000 5.7 230 08:42 29.02.2020
1927 Clouds 11 1012 93 10000 5.7 230 08:23 29.02.2020
1928 Clouds 11 1012 87 10000 5.7 230 07:58 29.02.2020
1929 Clouds 11 1012 87 10000 5.7 230 07:40 29.02.2020
1930 Clouds 10 1013 93 10000 4.6 240 07:18 29.02.2020
1931 Clouds 10 1013 93 10000 3.1 240 06:44 29.02.2020
1932 Clouds 11 1013 93 10000 0.72 237 06:23 29.02.2020
1933 Clouds 10 1013 87 10000 1 300 05:46 29.02.2020
1934 Clouds 10 1014 87 10000 2.1 310 04:46 29.02.2020
1935 Clouds 10 1015 87 10000 1 0 03:40 29.02.2020
1936 Clouds 10 1016 81 10000 1 0 03:22 29.02.2020
1937 Clouds 10 1017 81 10000 1.5 290 02:37 29.02.2020
1938 Clouds 11 1018 81 10000 2.6 330 01:23 29.02.2020
1939 Clouds 11 1018 81 10000 2.1 330 00:37 29.02.2020
1940 Clouds 11 1019 87 10000 2.1 320 23:56 28.02.2020
1941 Clouds 11 1019 82 10000 1.5 330 23:36 28.02.2020
1942 Clouds 11 1019 82 10000 1.5 330 23:18 28.02.2020
1943 Clouds 11 1019 87 10000 1.5 320 22:41 28.02.2020
1944 Clouds 11 1019 87 10000 1.5 340 22:18 28.02.2020
1945 Clouds 12 1019 82 10000 1 0 21:41 28.02.2020
1946 -273 0 0 0 0 0 21:21 28.02.2020
1947 Clouds 12 1020 82 10000 0.5 0 20:41 28.02.2020
1948 Clouds 12 1020 82 10000 0.5 0 20:23 28.02.2020
1949 Clouds 12 1021 82 10000 1 0 19:59 28.02.2020
1950 Clouds 12 1020 82 10000 1 230 19:40 28.02.2020
1951 Clouds 13 1020 82 10000 1 230 19:21 28.02.2020
1952 Clouds 13 1021 76 10000 2.1 200 18:58 28.02.2020
1953 Clouds 13 1021 76 10000 2.1 200 18:39 28.02.2020
1954 Clouds 13 1021 76 10000 2.1 200 18:21 28.02.2020
1955 Clouds 13 1020 76 10000 2.6 180 17:41 28.02.2020
1956 Clouds 13 1020 76 10000 2.6 180 17:23 28.02.2020
1957 Clouds 14 1021 76 10000 3.1 160 16:55 28.02.2020
1958 Clouds 14 1021 76 10000 3.1 180 16:36 28.02.2020
1959 Clouds 14 1021 76 10000 3.1 180 16:18 28.02.2020
1960 Clouds 14 1022 76 10000 3.6 190 15:42 28.02.2020
1961 Clouds 14 1022 76 10000 3.6 190 15:20 28.02.2020
1962 Clouds 14 1022 76 10000 4.1 170 14:58 28.02.2020
1963 Clouds 14 1022 82 10000 4.1 170 14:39 28.02.2020
1964 Clouds 15 1022 82 10000 4.1 170 14:19 28.02.2020
1965 Clouds 15 1022 77 10000 4.1 180 13:57 28.02.2020
1966 Clouds 15 1022 77 10000 4.1 180 13:39 28.02.2020
1967 Clouds 15 1023 82 10000 4.6 190 13:19 28.02.2020
1968 Clouds 15 1023 77 10000 5.1 200 12:43 28.02.2020
1969 Clouds 15 1023 77 10000 5.1 200 12:24 28.02.2020
1970 Clouds 15 1022 77 10000 4.6 200 11:43 28.02.2020
1971 Clouds 15 1022 77 10000 4.6 180 11:24 28.02.2020
1972 Clouds 15 1022 77 10000 3.6 190 10:59 28.02.2020
1973 Clouds 15 1022 77 10000 3.6 190 10:41 28.02.2020
1974 Clouds 14 1022 72 10000 1.5 260 10:22 28.02.2020
1975 Clouds 13 1022 71 10000 2.1 300 09:47 28.02.2020
1976 Clouds 12 1022 76 10000 2.6 320 09:21 28.02.2020
1977 Clouds 12 1021 71 10000 3.1 320 08:57 28.02.2020
1978 Clouds 12 1021 71 10000 3.1 320 08:57 28.02.2020
1979 Clouds 11 1021 71 10000 2.1 300 08:37 28.02.2020
1980 Clouds 10 1021 71 10000 2.1 300 08:19 28.02.2020
1981 Clouds 9 1020 71 10000 3.1 310 07:40 28.02.2020
1982 Clouds 10 1020 71 10000 3.1 290 07:21 28.02.2020
1983 Clouds 10 1020 71 10000 3.1 330 06:45 28.02.2020
1984 Clouds 10 1019 66 10000 3.1 310 06:24 28.02.2020
1985 Clouds 11 1018 66 10000 3.1 320 04:45 28.02.2020
1986 Clouds 11 1018 58 10000 4.1 10 04:18 28.02.2020
1987 Clouds 11 1017 58 10000 3.6 320 02:46 28.02.2020
1988 Clouds 12 1017 54 10000 8.2 310 02:27 28.02.2020
1989 Clouds 13 1016 51 10000 3.6 80 01:23 28.02.2020
1990 Clouds 14 1015 45 10000 6.2 310 00:28 28.02.2020
1991 Clouds 14 1015 48 10000 7.7 300 23:42 27.02.2020
1992 Clouds 15 1015 45 10000 7.2 310 23:21 27.02.2020
1993 Clouds 15 1015 48 10000 7.2 300 22:46 27.02.2020
1994 Clouds 15 1015 45 10000 8.2 300 22:26 27.02.2020
1995 Clouds 15 1014 42 10000 7.7 310 21:59 27.02.2020
1996 Clouds 15 1014 42 10000 6.7 300 21:39 27.02.2020
1997 Clouds 15 1014 42 10000 6.7 300 21:19 27.02.2020
1998 Clouds 16 1014 42 10000 3.6 270 20:57 27.02.2020
1999 Clouds 16 1014 39 10000 5.7 260 20:39 27.02.2020
2000 Clouds 16 1014 39 10000 5.7 260 20:20 27.02.2020
2001 Clouds 16 1014 39 10000 5.7 260 20:20 27.02.2020
2002 Clouds 16 1014 39 10000 5.7 260 20:20 27.02.2020
2003 Clouds 16 1014 39 10000 5.7 270 19:56 27.02.2020
2004 Clouds 16 1014 36 10000 6.2 260 19:37 27.02.2020
2005 Clouds 16 1014 36 10000 6.2 260 19:18 27.02.2020
2006 Clouds 17 1013 34 10000 8.7 260 18:40 27.02.2020
2007 Clouds 17 1013 34 10000 8.7 260 18:22 27.02.2020
2008 Clouds 17 1013 37 10000 7.2 270 17:58 27.02.2020
2009 Clouds 17 1013 37 10000 7.2 270 17:40 27.02.2020
2010 Clouds 18 1014 55 10000 9.8 220 17:19 27.02.2020
2011 Clouds 18 1013 67 10000 9.3 220 16:57 27.02.2020
2012 Clouds 18 1013 67 10000 9.3 220 16:38 27.02.2020
2013 Clouds 18 1014 63 10000 7.7 210 16:18 27.02.2020
2014 Clouds 18 1014 55 10000 8.7 220 15:56 27.02.2020
2015 Clouds 18 1014 55 10000 9.3 220 15:37 27.02.2020
2016 Clouds 18 1014 55 10000 9.3 220 15:18 27.02.2020
2017 Clouds 17 1015 51 10000 9.3 220 14:42 27.02.2020
2018 Clouds 16 1015 51 10000 9.3 220 14:23 27.02.2020
2019 Clouds 16 1015 55 10000 8.7 220 13:58 27.02.2020
2020 Clouds 16 1016 48 10000 9.3 220 13:40 27.02.2020
2021 Clouds 15 1016 48 10000 9.3 220 13:20 27.02.2020
2022 Clouds 15 1016 48 10000 2.1 240 12:46 27.02.2020
2023 Clouds 15 1017 51 10000 3.6 240 12:25 27.02.2020
2024 Clouds 13 1017 54 10000 2.6 280 11:59 27.02.2020
2025 Clouds 13 1017 50 10000 2.1 310 11:39 27.02.2020
2026 Clouds 12 1017 50 10000 2.1 310 11:21 27.02.2020
2027 Rain 11 1017 54 10000 3.6 270 10:43 27.02.2020
2028 Rain 10 1018 62 10000 3.1 260 10:22 27.02.2020
2029 Rain 10 1017 58 10000 2.6 260 09:48 27.02.2020
2030 Clouds 10 1017 62 10000 5.1 290 09:29 27.02.2020
2031 Clouds 9 1017 61 10000 5.1 320 08:57 27.02.2020
2032 Clouds 9 1017 61 10000 5.1 320 08:39 27.02.2020
2033 Clouds 8 1017 66 10000 6.2 320 08:19 27.02.2020
2034 Clouds 8 1017 61 10000 6.2 310 07:43 27.02.2020
2035 Clouds 8 1017 66 10000 5.1 320 07:25 27.02.2020
2036 Clouds 8 1017 76 10000 4.1 310 06:42 27.02.2020
2037 Clouds 9 1017 93 10000 4.1 300 05:34 27.02.2020
2038 Clouds 9 1018 76 10000 5.1 130 03:35 27.02.2020
2039 Clouds 10 1018 76 10000 5.1 130 02:20 27.02.2020
2040 Clouds 10 1019 71 10000 6.2 110 00:44 27.02.2020
2041 Clouds 10 1019 76 10000 8.7 100 00:25 27.02.2020
2042 Clouds 11 1018 76 10000 7.2 110 23:39 26.02.2020
2043 Clouds 11 1018 81 10000 3.6 60 23:19 26.02.2020
2044 Clouds 11 1018 76 10000 2.6 360 22:57 26.02.2020
2045 Clouds 11 1018 66 10000 4.1 50 22:38 26.02.2020
2046 Clouds 11 1018 66 10000 4.1 50 22:19 26.02.2020
2047 Clouds 12 1017 66 10000 3.6 30 21:55 26.02.2020
2048 Clouds 11 1017 71 10000 5.1 20 21:36 26.02.2020
2049 Clouds 12 1017 71 10000 5.1 20 21:18 26.02.2020
2050 Clouds 12 1017 66 10000 6.2 40 20:54 26.02.2020
2051 Clouds 12 1017 62 10000 5.1 30 20:36 26.02.2020
2052 Clouds 12 1017 62 10000 5.1 30 20:18 26.02.2020
2053 Clouds 12 1016 38 10000 5.7 330 19:44 26.02.2020
2054 Clouds 13 1015 38 10000 4.1 320 19:20 26.02.2020
2055 Clouds 13 1014 36 10000 5.7 290 18:57 26.02.2020
2056 Clouds 14 1014 33 10000 8.2 280 18:39 26.02.2020
2057 Clouds 15 1014 33 10000 8.2 280 18:20 26.02.2020
2058 Clouds 16 1013 31 10000 7.2 280 17:42 26.02.2020
2059 Clouds 16 1013 31 10000 7.2 280 17:21 26.02.2020
2060 Clouds 17 1013 29 10000 9.3 290 16:57 26.02.2020
2061 Clouds 17 1013 32 10000 7.7 270 16:39 26.02.2020
2062 Clouds 17 1013 32 10000 7.7 270 16:39 26.02.2020
2063 Clouds 17 1013 32 10000 7.7 270 16:21 26.02.2020
2064 Clouds 18 1013 32 10000 8.2 290 15:46 26.02.2020
2065 Clouds 18 1013 31 10000 8.7 280 15:28 26.02.2020
2066 Clouds 17 1014 34 10000 7.2 300 14:57 26.02.2020
2067 Clouds 17 1014 34 10000 7.2 300 14:39 26.02.2020
2068 Clouds 17 1013 42 10000 9.3 280 14:21 26.02.2020
2069 Clouds 16 1014 33 10000 6.7 260 13:42 26.02.2020
2070 Clouds 16 1015 36 10000 4.6 310 13:21 26.02.2020
2071 Clouds 15 1015 38 10000 9.3 300 12:40 26.02.2020
2072 Clouds 14 1014 47 10000 7.7 290 12:22 26.02.2020
2073 Clouds 13 1015 41 10000 9.8 290 11:58 26.02.2020
2074 Clouds 13 1014 41 10000 11.3 310 11:40 26.02.2020
2075 Clouds 13 1014 41 10000 11.3 310 11:21 26.02.2020
2076 Clouds 12 1014 44 10000 2.6 290 10:43 26.02.2020
2077 Clouds 12 1014 44 10000 2.6 290 10:23 26.02.2020
2078 Clouds 12 1014 50 10000 3.6 260 09:57 26.02.2020
2079 Clouds 11 1014 54 10000 5.7 310 09:39 26.02.2020
2080 Clouds 11 1014 54 10000 5.7 310 09:21 26.02.2020
2081 Clouds 10 1014 57 10000 4.1 320 08:39 26.02.2020
2082 Clouds 9 1014 57 10000 4.1 320 08:20 26.02.2020
2083 Clouds 10 1013 57 10000 5.7 310 07:51 26.02.2020
2084 Clouds 9 1013 50 10000 3.6 340 07:30 26.02.2020
2085 Clouds 9 1013 57 10000 2.6 320 06:59 26.02.2020
2086 Clouds 9 1013 57 10000 2.6 320 06:40 26.02.2020
2087 Clouds 9 1013 57 10000 5.7 310 06:21 26.02.2020
2088 Clouds 9 1013 71 10000 6.2 320 05:48 26.02.2020
2089 Clouds 10 1013 76 10000 3.6 290 04:58 26.02.2020
2090 Clouds 10 1013 93 6000 3.1 310 03:20 26.02.2020
2091 Clouds 10 1014 93 6000 3.1 310 01:57 26.02.2020
2092 Clouds 10 1014 100 6000 2.6 320 01:24 26.02.2020
2093 Clouds 10 1014 93 6000 1 330 00:40 26.02.2020
2094 Clouds 10 1014 93 6000 1 330 00:20 26.02.2020
2095 Clouds 10 1014 93 7000 1.5 290 23:42 25.02.2020
2096 Clouds 10 1014 87 7000 1 310 23:22 25.02.2020
2097 Clouds 10 1015 93 7000 0.5 270 22:56 25.02.2020
2098 Clouds 10 1015 93 9000 1.43 128 22:37 25.02.2020
2099 Clouds 10 1015 93 9000 1.43 128 22:18 25.02.2020
2100 Clouds 11 1015 87 10000 0.5 90 21:38 25.02.2020
2101 Clouds 11 1015 87 10000 0.5 90 21:20 25.02.2020
2102 Clouds 12 1015 82 10000 0.5 0 20:57 25.02.2020
2103 Clouds 12 1015 82 10000 0.5 0 20:38 25.02.2020
2104 Clouds 12 1015 82 10000 0.5 0 20:38 25.02.2020
2105 Clouds 12 1015 87 10000 1.5 120 20:19 25.02.2020
2106 Clouds 12 1015 87 10000 2.1 100 19:54 25.02.2020
2107 Clouds 12 1015 87 10000 2.6 90 19:36 25.02.2020
2108 Clouds 12 1015 87 10000 2.6 90 19:18 25.02.2020
2109 Clouds 13 1014 87 10000 3.1 90 18:40 25.02.2020
2110 Clouds 13 1014 87 10000 5.1 80 18:21 25.02.2020
2111 Clouds 14 1014 87 10000 5.7 70 17:56 25.02.2020
2112 Clouds 14 1014 76 10000 6.7 60 17:37 25.02.2020
2113 Clouds 14 1014 76 10000 6.7 60 17:19 25.02.2020
2114 -273 0 0 0 0 0 16:56 25.02.2020
2115 Clouds 14 1014 76 10000 6.7 60 16:38 25.02.2020
2116 Clouds 15 1014 76 10000 6.7 60 16:19 25.02.2020
2117 Clouds 15 1014 76 9000 6.2 60 15:54 25.02.2020
2118 Clouds 15 1015 82 9000 6.7 60 15:36 25.02.2020
2119 Clouds 15 1015 82 9000 6.7 60 15:18 25.02.2020
2120 Clouds 15 1015 82 7000 5.7 70 14:40 25.02.2020
2121 Clouds 15 1015 82 7000 5.7 70 14:19 25.02.2020
2122 Clouds 15 1015 82 7000 5.7 70 14:19 25.02.2020
2123 Clouds 15 1015 82 7000 5.7 70 14:19 25.02.2020
2124 Clouds 15 1015 82 8000 5.1 70 13:59 25.02.2020
2125 Clouds 15 1015 82 8000 5.1 70 13:41 25.02.2020
2126 Clouds 15 1016 67 8000 4.6 80 13:21 25.02.2020
2127 Clouds 15 1016 62 9000 3.6 60 12:59 25.02.2020
2128 Clouds 15 1016 62 9000 3.6 60 12:39 25.02.2020
2129 Clouds 15 1016 67 9000 1.5 40 12:20 25.02.2020
2130 Clouds 15 1016 67 9000 3.1 280 11:56 25.02.2020
2131 Clouds 14 1016 71 9000 1.5 260 11:38 25.02.2020
2132 Clouds 14 1016 71 9000 1.5 260 11:18 25.02.2020
2133 Clouds 14 1016 71 9000 1.5 260 11:18 25.02.2020
2134 Clouds 13 1016 71 9000 2.1 290 10:42 25.02.2020
2135 Clouds 13 1016 71 9000 2.1 290 10:23 25.02.2020
2136 Clouds 13 1016 76 9000 4.6 310 09:57 25.02.2020
2137 Clouds 13 1016 81 9000 5.7 310 09:39 25.02.2020
2138 Clouds 12 1016 81 9000 5.7 310 09:18 25.02.2020
2139 Clouds 11 1016 81 9000 2.1 320 08:42 25.02.2020
2140 Clouds 10 1016 81 9000 3.1 290 08:24 25.02.2020
2141 Clear 9 1016 81 9000 4.6 300 07:49 25.02.2020
2142 Clear 9 1016 81 10000 4.1 300 07:25 25.02.2020
2143 Clouds 9 1016 81 10000 2.6 320 06:56 25.02.2020
2144 Clouds 9 1016 81 10000 3.6 280 06:25 25.02.2020
2145 Clouds 10 1016 81 10000 4.6 280 05:22 25.02.2020
2146 Clear 10 1018 66 10000 1.5 280 02:37 25.02.2020
2147 Clear 11 1019 66 10000 3.1 290 00:58 25.02.2020
2148 Clear 12 1020 66 10000 3.1 290 00:33 25.02.2020
2149 Clear 12 1020 76 10000 3.1 280 23:56 24.02.2020
2150 Clear 12 1020 76 10000 3.1 280 23:37 24.02.2020
2151 Clear 12 1020 76 10000 3.1 280 23:37 24.02.2020
2152 Clear 12 1020 81 10000 4.6 270 23:18 24.02.2020
2153 Clear 12 1020 76 10000 4.6 230 22:37 24.02.2020
2154 Clear 13 1020 76 10000 4.6 230 22:18 24.02.2020
2155 Clear 13 1021 82 10000 4.1 220 21:55 24.02.2020
2156 Clear 13 1021 82 10000 5.1 230 21:37 24.02.2020
2157 Clear 13 1021 82 10000 5.1 230 21:18 24.02.2020
2158 Clear 14 1021 76 10000 5.1 230 20:54 24.02.2020
2159 Clear 14 1021 62 10000 5.7 220 20:36 24.02.2020
2160 Clear 15 1021 62 10000 5.7 220 20:18 24.02.2020
2161 Clear 15 1021 47 10000 6.2 230 19:55 24.02.2020
2162 Clear 15 1021 47 10000 6.2 230 19:36 24.02.2020
2163 Clear 16 1020 48 10000 6.7 230 19:18 24.02.2020
2164 Clear 16 1020 48 10000 6.7 220 18:41 24.02.2020
2165 Clear 17 1020 59 10000 7.2 220 18:22 24.02.2020
2166 Clear 17 1021 72 10000 7.7 220 17:55 24.02.2020
2167 Clear 18 1021 72 10000 7.7 210 17:37 24.02.2020
2168 Clear 19 1021 72 10000 7.7 210 17:18 24.02.2020
2169 Clear 19 1021 63 10000 8.7 210 16:55 24.02.2020
2170 Clear 20 1021 52 10000 7.7 220 16:36 24.02.2020
2171 Clear 20 1021 52 10000 7.7 220 16:18 24.02.2020
2172 Clear 20 1022 59 10000 8.7 220 15:55 24.02.2020
2173 Clear 20 1022 59 10000 8.7 220 15:37 24.02.2020
2174 Clear 20 1022 59 10000 8.2 220 15:19 24.02.2020
2175 Clear 19 1024 77 10000 7.2 220 14:40 24.02.2020
2176 Clear 19 1024 77 10000 7.2 220 14:22 24.02.2020
2177 Clear 19 1024 77 10000 6.7 220 13:58 24.02.2020
2178 Clear 19 1025 72 10000 7.2 220 13:40 24.02.2020
2179 Clear 19 1025 72 10000 7.2 220 13:22 24.02.2020
2180 Clear 19 1025 63 10000 5.1 210 12:58 24.02.2020
2181 Clear 19 1025 49 10000 1 180 12:39 24.02.2020
2182 Clear 18 1026 72 10000 3.6 210 12:21 24.02.2020
2183 Clear 18 1026 72 10000 2.6 220 11:47 24.02.2020
2184 Clear 17 1026 67 10000 2.6 250 11:29 24.02.2020
2185 -273 0 0 0 0 0 10:51 24.02.2020
2186 Clear 14 1027 66 10000 4.6 300 10:31 24.02.2020
2187 Clear 14 1027 71 10000 4.6 310 09:55 24.02.2020
2188 Clear 14 1027 76 10000 5.1 300 09:37 24.02.2020
2189 Clear 13 1027 76 10000 5.1 300 09:18 24.02.2020
2190 Clear 12 1027 81 10000 5.7 310 08:47 24.02.2020
2191 Clear 11 1027 81 10000 5.1 300 08:28 24.02.2020
2192 Clear 9 1026 81 10000 4.6 310 07:48 24.02.2020
2193 Clear 9 1027 81 10000 5.1 310 07:30 24.02.2020
2194 Clear 10 1027 81 10000 6.2 310 06:45 24.02.2020
2195 Clear 10 1027 76 10000 6.2 320 06:21 24.02.2020
2196 Clear 10 1028 87 10000 1.5 290 05:31 24.02.2020
2197 Clear 10 1027 76 10000 6.7 320 04:48 24.02.2020
2198 Clear 10 1029 76 10000 5.1 310 02:56 24.02.2020
2199 Clear 11 1029 71 10000 4.1 310 01:52 24.02.2020
2200 Clear 11 1030 71 10000 3.1 290 01:28 24.02.2020
2201 Clear 11 1030 81 10000 3.1 240 00:37 24.02.2020
2202 Clear 12 1030 81 10000 3.1 240 00:19 24.02.2020
2203 Clear 12 1030 93 9000 3.1 230 23:42 23.02.2020
2204 Clear 12 1030 93 10000 3.6 240 23:22 23.02.2020
2205 Clear 12 1030 93 10000 3.6 250 22:58 23.02.2020
2206 Clear 12 1030 93 10000 3.6 250 22:40 23.02.2020
2207 Clear 12 1030 87 10000 4.1 240 22:20 23.02.2020
2208 Clear 13 1030 87 10000 4.1 240 21:46 23.02.2020
2209 Clear 13 1030 93 10000 5.7 230 21:20 23.02.2020
2210 Clear 14 1030 82 10000 6.2 230 20:57 23.02.2020
2211 Clear 14 1030 87 10000 6.7 230 20:39 23.02.2020
2212 -273 0 0 0 0 0 20:21 23.02.2020
2213 Clear 15 1029 82 10000 5.1 230 19:58 23.02.2020
2214 Clear 15 1029 82 10000 5.1 230 19:40 23.02.2020
2215 Clear 16 1029 76 10000 6.2 230 19:19 23.02.2020
2216 Clear 16 1029 67 10000 6.7 230 18:58 23.02.2020
2217 Clear 17 1029 67 10000 6.7 230 18:37 23.02.2020
2218 Clear 18 1029 59 10000 7.2 230 18:19 23.02.2020
2219 Clear 17 1029 59 10000 7.7 220 17:57 23.02.2020
2220 Clear 18 1029 59 10000 8.2 220 17:39 23.02.2020
2221 Clear 19 1029 59 10000 8.2 220 17:20 23.02.2020
2222 Clear 20 1029 59 10000 7.2 220 16:46 23.02.2020
2223 Clear 20 1029 59 10000 7.2 220 16:28 23.02.2020
2224 Clear 20 1030 63 10000 8.2 230 15:59 23.02.2020
2225 Clear 20 1030 72 10000 7.2 230 15:39 23.02.2020
2226 Clear 20 1030 72 10000 7.2 230 15:21 23.02.2020
2227 Clear 20 1030 59 10000 6.7 220 14:59 23.02.2020
2228 Clear 20 1030 59 10000 6.7 220 14:40 23.02.2020
2229 Clear 19 1031 72 10000 6.7 220 14:22 23.02.2020
2230 Clear 19 1031 72 10000 7.2 220 13:57 23.02.2020
2231 Clear 19 1032 72 8000 6.7 220 13:39 23.02.2020
2232 Clear 19 1032 72 8000 6.7 220 13:20 23.02.2020
2233 Clear 18 1033 63 10000 3.6 230 12:43 23.02.2020
2234 Clear 18 1033 63 10000 3.6 230 12:23 23.02.2020
2235 Clear 17 1033 72 8000 3.6 230 11:58 23.02.2020
2236 Clear 17 1033 72 9000 2.1 280 11:37 23.02.2020
2237 Clear 15 1033 72 9000 2.1 280 11:18 23.02.2020
2238 Clear 15 1033 71 10000 2.6 300 10:55 23.02.2020
2239 Clear 14 1033 76 10000 3.6 310 10:37 23.02.2020
2240 Clear 13 1033 76 10000 3.6 310 10:19 23.02.2020
2241 Clear 13 1033 81 8000 5.7 310 09:40 23.02.2020
2242 Clear 12 1033 81 8000 5.7 310 09:21 23.02.2020
2243 Clear 12 1033 87 9000 5.1 310 08:56 23.02.2020
2244 Clear 11 1033 87 9000 4.6 310 08:38 23.02.2020
2245 Clouds 8 1033 87 9000 4.6 310 08:18 23.02.2020
2246 Clouds 8 1032 87 8000 4.6 320 07:40 23.02.2020
2247 Clouds 8 1032 87 8000 4.1 310 07:40 23.02.2020
2248 Clouds 8 1032 87 8000 4.6 320 07:40 23.02.2020
2249 Clouds 8 1032 87 8000 3.6 320 06:54 23.02.2020
2250 Clouds 9 1032 87 8000 5.7 310 05:54 23.02.2020
2251 Clouds 9 1032 87 6000 3.1 320 04:44 23.02.2020
2252 Clouds 9 1033 87 6000 4.1 310 03:25 23.02.2020
2253 Mist 9 1033 87 4000 3.6 300 02:35 23.02.2020
2254 Mist 9 1034 93 4000 2.6 290 01:25 23.02.2020
2255 Mist 10 1034 93 4000 2.1 290 00:49 23.02.2020
2256 Mist 10 1034 93 4000 2.6 310 00:27 23.02.2020
2257 Mist 10 1034 93 4000 2.6 310 00:27 23.02.2020
2258 Mist 10 1034 87 5000 3.1 320 23:48 22.02.2020
2259 Mist 10 1034 93 5000 2.6 310 23:30 22.02.2020
2260 Mist 10 1034 93 5000 1 0 22:59 22.02.2020
2261 Mist 10 1034 93 5000 1 0 22:40 22.02.2020
2262 Mist 11 1034 87 4000 1 0 22:18 22.02.2020
2263 Mist 11 1034 87 5000 1.5 10 21:41 22.02.2020
2264 Mist 11 1034 87 5000 1.5 10 21:23 22.02.2020
2265 Clear 12 1033 87 6000 0.5 0 20:47 22.02.2020
2266 Clear 12 1033 87 7000 1 0 20:25 22.02.2020
2267 Clouds 12 1033 87 6000 1 70 19:59 22.02.2020
2268 Clouds 12 1033 87 6000 1 70 19:59 22.02.2020
2269 Clouds 13 1033 82 6000 1 90 19:41 22.02.2020
2270 Clouds 13 1033 82 6000 1 90 19:21 22.02.2020
2271 Clouds 14 1032 76 7000 1 120 18:41 22.02.2020
2272 Clouds 14 1032 82 7000 1.5 100 18:22 22.02.2020
2273 Clouds 15 1032 72 8000 1 0 17:58 22.02.2020
2274 Clouds 15 1032 72 7000 1.5 100 17:40 22.02.2020
2275 Clouds 16 1032 72 7000 1.5 100 17:22 22.02.2020
2276 Clouds 16 1032 77 7000 2.6 120 16:58 22.02.2020
2277 Clouds 16 1032 77 7000 2.6 120 16:39 22.02.2020
2278 Clouds 16 1032 77 7000 3.6 90 16:20 22.02.2020
2279 Clouds 17 1032 67 10000 5.7 70 15:45 22.02.2020
2280 Clouds 17 1032 67 10000 5.7 70 15:45 22.02.2020
2281 Clouds 17 1032 72 10000 6.2 70 15:26 22.02.2020
2282 Clouds 17 1032 72 10000 5.1 70 14:56 22.02.2020
2283 Clouds 17 1032 72 10000 4.6 70 14:38 22.02.2020
2284 Clouds 17 1032 72 10000 4.6 70 14:19 22.02.2020
2285 Clouds 16 1033 77 10000 5.1 70 13:41 22.02.2020
2286 Clouds 16 1033 77 10000 5.1 70 13:19 22.02.2020
2287 Clouds 16 1033 72 10000 5.1 70 12:47 22.02.2020
2288 Clouds 15 1033 72 10000 5.7 70 12:24 22.02.2020
2289 Clouds 15 1033 71 10000 2.1 20 11:56 22.02.2020
2290 Clouds 14 1033 71 10000 2.1 330 11:37 22.02.2020
2291 Clouds 14 1033 71 10000 2.1 330 11:18 22.02.2020
2292 Mist 12 1032 93 3500 0.89 20 10:41 22.02.2020
2293 Mist 11 1032 93 3500 0.89 20 10:20 22.02.2020
2294 Clouds 11 1032 71 10000 4.1 320 09:59 22.02.2020
2295 Clouds 11 1031 81 10000 4.1 320 09:39 22.02.2020
2296 Clouds 10 1031 81 10000 4.1 320 09:21 22.02.2020
2297 Clouds 10 1031 93 8000 1 0 08:51 22.02.2020
2298 Clouds 8 1031 81 10000 4.6 330 08:28 22.02.2020
2299 Clouds 8 1030 81 10000 4.1 330 07:52 22.02.2020
2300 Clouds 8 1030 81 10000 5.7 320 07:20 22.02.2020
2301 Clouds 8 1030 81 10000 5.1 330 06:53 22.02.2020
2302 Clouds 8 1029 81 10000 4.6 330 06:34 22.02.2020
2303 Clouds 8 1029 76 10000 3.6 330 04:42 22.02.2020
2304 Clouds 8 1029 76 10000 5.1 330 03:45 22.02.2020
2305 Clouds 9 1029 76 10000 4.1 310 02:33 22.02.2020
2306 Clear 9 1029 76 10000 3.6 300 01:47 22.02.2020
2307 Clear 9 1029 76 10000 3.1 310 01:27 22.02.2020
2308 Clear 10 1029 71 10000 3.6 310 00:46 22.02.2020
2309 Clear 10 1030 66 10000 4.1 310 00:28 22.02.2020
2310 Clear 10 1030 66 10000 2.6 310 23:48 21.02.2020
2311 Clear 10 1029 62 10000 1.5 310 23:24 21.02.2020
2312 Clear 11 1029 54 10000 1.5 310 22:57 21.02.2020
2313 Clear 11 1029 54 10000 1.5 310 22:39 21.02.2020
2314 Clear 11 1029 54 10000 2.1 270 22:20 21.02.2020
2315 Clear 11 1029 58 10000 3.1 260 21:42 21.02.2020
2316 Clear 11 1029 58 10000 3.1 260 21:42 21.02.2020
2317 Clear 12 1029 66 10000 3.6 250 21:24 21.02.2020
2318 Clear 12 1029 62 10000 4.1 250 20:56 21.02.2020
2319 Clear 12 1029 62 10000 4.6 240 20:38 21.02.2020
2320 Clear 13 1029 62 10000 4.6 240 20:19 21.02.2020
2321 Clear 13 1028 58 10000 6.7 240 19:39 21.02.2020
2322 Clear 14 1028 58 10000 6.7 240 19:19 21.02.2020
2323 Clear 14 1028 62 10000 6.7 230 18:40 21.02.2020
2324 Clear 15 1028 58 10000 7.7 230 18:22 21.02.2020
2325 Clear 16 1028 58 10000 7.7 230 17:55 21.02.2020
2326 Clear 16 1028 62 10000 8.7 230 17:36 21.02.2020
2327 Clear 17 1028 62 10000 8.7 230 17:18 21.02.2020
2328 Clear 17 1028 55 10000 8.7 230 16:41 21.02.2020
2329 Clear 17 1028 59 10000 8.2 230 16:21 21.02.2020
2330 Clear 17 1028 59 10000 8.7 220 15:57 21.02.2020
2331 Clear 18 1028 59 10000 8.7 220 15:38 21.02.2020
2332 Clear 18 1028 59 10000 7.7 220 15:18 21.02.2020
2333 Clear 17 1029 59 10000 7.2 220 14:42 21.02.2020
2334 Clear 17 1029 62 10000 7.2 210 14:20 21.02.2020
2335 Clear 17 1030 62 10000 6.7 210 13:45 21.02.2020
2336 Clear 16 1030 51 10000 5.1 210 13:24 21.02.2020
2337 Clear 16 1030 62 10000 5.1 210 12:59 21.02.2020
2338 Clear 16 1030 62 10000 5.1 210 12:40 21.02.2020
2339 Clear 15 1030 71 10000 3.1 220 12:22 21.02.2020
2340 Clear 15 1030 62 10000 4.1 300 11:43 21.02.2020
2341 Clear 14 1030 62 10000 4.1 300 11:23 21.02.2020
2342 Clear 13 1030 66 10000 3.6 320 10:59 21.02.2020
2343 Clear 13 1030 66 10000 3.6 320 10:41 21.02.2020
2344 Clear 11 1030 71 10000 4.6 330 10:19 21.02.2020
2345 Clear 11 1030 70 10000 4.6 320 09:58 21.02.2020
2346 Clear 11 1029 75 10000 4.6 320 09:38 21.02.2020
2347 Clear 11 1029 75 10000 4.6 320 09:38 21.02.2020
2348 Clear 10 1029 75 10000 4.6 320 09:20 21.02.2020
2349 Clear 10 1029 81 10000 4.6 320 08:45 21.02.2020
2350 Clouds 7 1029 81 10000 3.6 310 08:22 21.02.2020
2351 Clouds 7 1029 81 10000 4.6 320 07:59 21.02.2020
2352 Clouds 7 1029 81 10000 4.6 320 07:41 21.02.2020
2353 Clouds 7 1028 81 10000 5.1 320 07:19 21.02.2020
2354 Clouds 8 1028 81 10000 4.6 320 06:53 21.02.2020
2355 Clouds 8 1028 81 10000 5.7 310 06:31 21.02.2020
2356 Clouds 8 1028 81 10000 2.1 270 05:52 21.02.2020
2357 Clouds 8 1028 87 9000 5.1 310 04:39 21.02.2020
2358 Clouds 8 1028 87 9000 4.1 330 04:20 21.02.2020
2359 Clouds 8 1028 81 10000 4.1 320 03:44 21.02.2020
2360 Clouds 8 1028 87 9000 5.1 320 02:58 21.02.2020
2361 Clouds 9 1027 93 9000 4.6 320 01:28 21.02.2020
2362 Clouds 9 1027 87 9000 4.6 320 00:46 21.02.2020
2363 Clouds 9 1027 87 9000 4.6 330 00:24 21.02.2020
2364 Clouds 9 1027 87 9000 4.6 330 00:24 21.02.2020
2365 Clouds 9 1027 87 9000 4.1 320 23:46 20.02.2020
2366 Clouds 9 1026 87 10000 2.1 290 23:26 20.02.2020
2367 Clouds 9 1026 81 10000 2.6 290 23:00 20.02.2020
2368 Clear 9 1026 87 10000 2.6 290 22:39 20.02.2020
2369 Clear 10 1026 87 10000 2.6 290 22:21 20.02.2020
2370 Clear 10 1026 87 10000 2.6 290 22:21 20.02.2020
2371 Clear 10 1026 87 10000 2.6 290 22:21 20.02.2020
2372 Clear 10 1026 87 10000 2.1 280 21:57 20.02.2020
2373 Clear 10 1026 87 10000 2.1 280 21:37 20.02.2020
2374 Clear 10 1026 87 10000 4.1 230 21:19 20.02.2020
2375 Clouds 11 1026 87 10000 4.1 220 20:56 20.02.2020
2376 Clouds 11 1025 87 10000 4.1 230 20:37 20.02.2020
2377 Clouds 12 1025 87 10000 4.1 230 20:19 20.02.2020
2378 Clouds 12 1025 87 10000 4.6 230 19:58 20.02.2020
2379 Clouds 12 1025 87 10000 4.6 230 19:40 20.02.2020
2380 Clouds 12 1025 82 10000 5.7 230 19:22 20.02.2020
2381 Clear 14 1024 82 10000 7.7 230 18:40 20.02.2020
2382 Clear 14 1024 76 10000 7.7 220 18:21 20.02.2020
2383 Clear 15 1024 76 10000 8.2 220 17:56 20.02.2020
2384 Clouds 15 1024 76 10000 8.2 220 17:38 20.02.2020
2385 Clouds 16 1024 76 10000 8.2 220 17:18 20.02.2020
2386 Clouds 16 1024 76 10000 8.2 220 16:56 20.02.2020
2387 Clouds 16 1024 67 10000 8.7 220 16:37 20.02.2020
2388 Clouds 16 1024 67 10000 8.7 220 16:18 20.02.2020
2389 Clouds 16 1024 67 10000 8.7 220 15:42 20.02.2020
2390 Clouds 17 1024 67 10000 8.7 220 15:22 20.02.2020
2391 Clear 16 1023 48 10000 4.6 230 14:57 20.02.2020
2392 Clouds 16 1024 67 10000 8.2 220 14:39 20.02.2020
2393 Clouds 16 1024 67 10000 8.2 220 14:39 20.02.2020
2394 Clouds 16 1024 67 10000 8.2 220 14:21 20.02.2020
2395 Clouds 16 1024 67 10000 8.7 220 13:54 20.02.2020
2396 Clouds 15 1025 67 10000 9.3 230 13:36 20.02.2020
2397 Clouds 15 1025 67 10000 9.3 230 13:18 20.02.2020
2398 Clouds 14 1026 71 10000 5.7 210 12:42 20.02.2020
2399 Clouds 14 1026 71 10000 5.7 210 12:21 20.02.2020
2400 Clouds 14 1026 76 10000 1.5 250 11:58 20.02.2020
2401 Clouds 13 1026 71 10000 2.6 300 11:39 20.02.2020
2402 Clouds 12 1026 71 10000 2.6 300 11:20 20.02.2020
2403 Clouds 11 1026 66 10000 3.1 310 10:55 20.02.2020
2404 Clouds 11 1026 66 10000 3.1 310 10:37 20.02.2020
2405 Clouds 10 1026 70 10000 5.1 320 10:19 20.02.2020
2406 Clouds 9 1026 81 10000 6.2 320 09:38 20.02.2020
2407 Clouds 8 1026 81 10000 6.2 320 09:20 20.02.2020
2408 Clear 8 1026 80 10000 6.7 320 08:42 20.02.2020
2409 Clear 6 1026 80 10000 4.1 320 08:24 20.02.2020
2410 Clear 5 1026 80 10000 5.1 310 07:48 20.02.2020
2411 Clouds 5 1026 81 10000 4.6 320 07:27 20.02.2020
2412 Clouds 5 1026 81 10000 4.1 320 06:58 20.02.2020
2413 Clouds 6 1026 81 10000 4.1 320 06:40 20.02.2020
2414 Clouds 6 1026 81 10000 5.7 320 05:47 20.02.2020
2415 Clouds 6 1026 81 10000 5.1 320 05:25 20.02.2020
2416 Clouds 6 1026 81 10000 4.6 320 04:48 20.02.2020
2417 Clouds 6 1027 75 10000 3.6 320 03:46 20.02.2020
2418 Clouds 6 1027 81 10000 2.6 320 02:47 20.02.2020
2419 Clear 7 1028 81 10000 1.5 330 01:25 20.02.2020
2420 Clear 7 1028 75 10000 1.5 310 00:45 20.02.2020
2421 Clear 7 1028 75 10000 2.6 330 00:24 20.02.2020
2422 Clear 8 1029 76 10000 2.1 300 23:46 19.02.2020
2423 Clear 8 1029 81 10000 2.1 310 23:18 19.02.2020
2424 Clear 8 1029 76 10000 2.1 310 22:42 19.02.2020
2425 Clear 8 1029 76 10000 1 0 22:23 19.02.2020
2426 Clear 8 1029 71 10000 1.05 207 21:58 19.02.2020
2427 Clear 8 1029 71 10000 1.05 207 21:40 19.02.2020
2428 Clear 9 1029 71 10000 2.6 240 21:19 19.02.2020
2429 Clear 9 1029 71 10000 1 230 20:57 19.02.2020
2430 Clear 9 1029 71 10000 2.1 220 20:38 19.02.2020
2431 Clouds 10 1029 71 10000 2.1 220 20:19 19.02.2020
2432 Clouds 10 1029 71 10000 3.1 210 19:57 19.02.2020
2433 Clouds 10 1029 66 10000 2.1 200 19:37 19.02.2020
2434 Clouds 11 1029 66 10000 2.1 200 19:19 19.02.2020
2435 Clouds 12 1029 66 10000 3.1 220 18:57 19.02.2020
2436 Clouds 12 1029 66 10000 3.1 220 18:39 19.02.2020
2437 Clouds 12 1029 66 10000 3.1 210 18:21 19.02.2020
2438 Clouds 13 1029 62 10000 3.6 220 17:44 19.02.2020
2439 Clouds 13 1029 58 10000 4.1 210 17:20 19.02.2020
2440 Clouds 14 1029 58 10000 3.6 200 16:59 19.02.2020
2441 Clouds 14 1029 58 10000 3.6 200 16:41 19.02.2020
2442 Clouds 14 1029 54 10000 4.1 200 16:18 19.02.2020
2443 Clouds 14 1030 54 10000 3.6 170 15:43 19.02.2020
2444 Clouds 14 1030 54 10000 3.6 170 15:25 19.02.2020
2445 Clouds 14 1030 50 10000 3.6 140 14:58 19.02.2020
2446 Clouds 14 1031 38 10000 2.1 130 14:40 19.02.2020
2447 Clouds 14 1031 38 10000 2.1 130 14:21 19.02.2020
2448 Clouds 13 1031 47 10000 1 250 13:42 19.02.2020
2449 Clouds 13 1031 47 10000 1.5 310 13:22 19.02.2020
2450 Clouds 13 1032 54 10000 3.6 320 12:57 19.02.2020
2451 Clouds 13 1032 54 10000 3.6 320 12:37 19.02.2020
2452 Clouds 12 1033 54 10000 5.1 320 12:18 19.02.2020
2453 Clouds 11 1032 57 10000 5.7 320 11:39 19.02.2020
2454 Clouds 10 1032 57 10000 5.7 320 11:20 19.02.2020
2455 Clouds 10 1032 61 10000 6.7 320 10:58 19.02.2020
2456 Clouds 9 1032 66 10000 6.7 330 10:38 19.02.2020
2457 Clouds 9 1032 66 10000 6.7 330 10:20 19.02.2020
2458 Clouds 8 1032 66 10000 6.7 330 09:59 19.02.2020
2459 Clouds 8 1032 66 10000 6.7 330 09:38 19.02.2020
2460 Clouds 8 1031 70 10000 7.2 330 09:19 19.02.2020
2461 Clouds 7 1031 70 10000 6.7 330 08:47 19.02.2020
2462 Clouds 6 1030 70 10000 5.7 320 08:24 19.02.2020
2463 Clouds 6 1030 70 10000 6.7 330 07:47 19.02.2020
2464 Clouds 6 1030 70 10000 5.7 340 07:29 19.02.2020
2465 Clouds 6 1029 75 10000 5.1 330 06:57 19.02.2020
2466 Clouds 6 1030 75 10000 4.1 320 06:34 19.02.2020
2467 Clouds 7 1031 81 10000 4.6 330 04:59 19.02.2020
2468 Clouds 7 1030 81 10000 5.1 330 03:50 19.02.2020
2469 Clouds 7 1031 81 10000 3.6 330 02:35 19.02.2020
2470 Clouds 8 1031 81 10000 3.6 320 01:38 19.02.2020
2471 Clouds 8 1031 81 10000 3.6 320 01:20 19.02.2020
2472 Clouds 8 1031 87 10000 3.1 320 00:39 19.02.2020
2473 Clouds 8 1031 81 10000 3.1 330 23:59 18.02.2020
2474 Clouds 8 1031 81 10000 2.6 330 23:39 18.02.2020
2475 Clouds 9 1031 81 10000 2.6 330 23:19 18.02.2020
2476 Clouds 9 1031 81 10000 2.6 330 23:19 18.02.2020
2477 Clouds 9 1031 81 10000 2.6 330 23:19 18.02.2020
2478 Clouds 9 1031 81 10000 2.6 330 23:19 18.02.2020
2479 Clouds 9 1031 81 10000 2.1 320 22:55 18.02.2020
2480 Clouds 9 1031 81 10000 1.5 340 22:36 18.02.2020
2481 Clouds 9 1031 81 10000 1.5 340 22:18 18.02.2020
2482 Clouds 9 1031 87 10000 2.1 290 21:38 18.02.2020
2483 Clouds 9 1031 76 10000 1.5 30 21:38 18.02.2020
2484 Clouds 9 1031 87 10000 2.1 290 21:38 18.02.2020
2485 Clouds 9 1031 87 10000 2.1 290 21:20 18.02.2020
2486 Clouds 9 1031 71 10000 1 70 21:00 18.02.2020
2487 Clouds 10 1031 71 10000 1 70 20:40 18.02.2020
2488 Clouds 10 1031 71 10000 1 70 20:40 18.02.2020
2489 Clouds 10 1031 66 10000 1.5 60 20:22 18.02.2020
2490 Clouds 10 1031 58 10000 1 0 19:58 18.02.2020
2491 Clouds 10 1030 58 10000 0.5 0 19:40 18.02.2020
2492 Clouds 11 1030 58 10000 0.5 0 19:19 18.02.2020
2493 Clouds 12 1030 62 10000 1 0 18:55 18.02.2020
2494 Clouds 12 1030 62 10000 1.5 150 18:37 18.02.2020
2495 Clouds 12 1030 62 10000 1.5 150 18:18 18.02.2020
2496 Clouds 12 1030 58 10000 2.1 150 17:40 18.02.2020
2497 Clouds 13 1030 62 10000 3.1 190 17:19 18.02.2020
2498 Clouds 13 1030 62 10000 3.1 190 16:40 18.02.2020
2499 Clouds 13 1030 62 10000 3.1 190 16:21 18.02.2020
2500 Clouds 14 1030 58 10000 3.1 160 15:55 18.02.2020
2501 Clouds 14 1030 58 10000 3.6 190 15:37 18.02.2020
2502 Clouds 14 1030 58 10000 3.6 190 15:18 18.02.2020
2503 Clouds 14 1030 58 10000 4.1 190 14:55 18.02.2020
2504 Clouds 14 1030 58 10000 4.1 190 14:37 18.02.2020
2505 Clouds 14 1031 58 10000 4.1 180 14:18 18.02.2020
2506 Clouds 14 1031 54 10000 2.1 330 13:41 18.02.2020
2507 Clouds 14 1031 54 10000 2.1 330 13:21 18.02.2020
2508 Clouds 14 1032 50 10000 2.1 300 12:49 18.02.2020
2509 Clouds 14 1032 54 10000 2.1 330 12:30 18.02.2020
2510 Clouds 13 1032 54 10000 4.1 320 11:59 18.02.2020
2511 Clouds 13 1032 54 10000 4.1 320 11:59 18.02.2020
2512 Clouds 13 1032 54 10000 4.1 320 11:41 18.02.2020
2513 Clouds 12 1032 58 10000 4.6 320 11:23 18.02.2020
2514 Clouds 11 1032 66 10000 4.6 310 10:46 18.02.2020
2515 Clouds 11 1032 66 10000 4.6 310 10:24 18.02.2020
2516 Clouds 11 1032 66 10000 4.6 310 10:24 18.02.2020
2517 Clouds 10 1032 66 10000 3.6 340 09:58 18.02.2020
2518 Clouds 10 1032 66 10000 3.6 340 09:58 18.02.2020
2519 Clouds 10 1032 66 10000 3.6 340 09:58 18.02.2020
2520 Clouds 10 1032 70 10000 3.6 330 09:39 18.02.2020
2521 Clouds 9 1032 70 10000 3.6 330 09:20 18.02.2020
2522 Clouds 8 1031 70 10000 3.1 320 08:59 18.02.2020
2523 Clouds 8 1031 66 10000 3.1 290 08:40 18.02.2020
2524 Clouds 8 1031 66 10000 3.1 290 08:20 18.02.2020
2525 Clouds 8 1031 70 10000 3.1 310 07:55 18.02.2020
2526 Clouds 8 1031 70 10000 3.1 310 07:55 18.02.2020
2527 Clouds 8 1030 71 10000 3.6 330 07:29 18.02.2020
2528 Clouds 9 1030 71 10000 4.6 330 06:55 18.02.2020
2529 Clouds 9 1030 81 10000 4.1 320 06:32 18.02.2020
2530 Clouds 10 1030 76 10000 1.5 300 05:56 18.02.2020
2531 Clouds 10 1030 81 10000 3.6 310 05:27 18.02.2020
2532 Clouds 11 1030 87 9000 5.1 220 03:58 18.02.2020
2533 Rain 12 1030 93 9000 5.7 220 02:58 18.02.2020
2534 Drizzle 13 1030 93 9000 4.1 220 01:58 18.02.2020
2535 Clouds 13 1029 93 9000 2.6 240 00:46 18.02.2020
2536 Clouds 13 1029 93 9000 2.6 240 00:46 18.02.2020
2537 Clouds 13 1029 93 9000 2.1 230 00:20 18.02.2020
2538 Clouds 13 1029 93 7000 2.6 230 23:44 17.02.2020
2539 Clouds 13 1029 93 7000 2.6 220 23:25 17.02.2020
2540 Clouds 13 1029 93 7000 2.1 210 22:59 17.02.2020
2541 Clouds 13 1028 93 7000 1.5 220 22:41 17.02.2020
2542 Clouds 13 1028 93 7000 1.5 220 22:20 17.02.2020
2543 Clouds 13 1028 93 7000 1 210 21:55 17.02.2020
2544 Clouds 14 1028 87 7000 1.79 183 21:37 17.02.2020
2545 Clouds 14 1028 87 7000 1.79 183 21:18 17.02.2020
2546 Mist 14 1027 87 5000 0.5 0 20:40 17.02.2020
2547 Mist 14 1027 87 4000 0.5 90 20:21 17.02.2020
2548 Clouds 14 1026 87 6000 0.5 120 19:57 17.02.2020
2549 Clouds 14 1026 87 6000 1 0 19:38 17.02.2020
2550 Clouds 14 1026 87 6000 1 0 19:19 17.02.2020
2551 Clouds 14 1025 87 6000 1 0 18:37 17.02.2020
2552 Clouds 15 1025 87 6000 2.1 170 18:19 17.02.2020
2553 Clouds 15 1025 87 6000 2.1 170 18:19 17.02.2020
2554 Clouds 15 1024 87 7000 2.6 210 17:57 17.02.2020
2555 Clouds 15 1024 87 7000 3.1 210 17:37 17.02.2020
2556 Clouds 16 1024 87 7000 3.1 210 17:18 17.02.2020
2557 Clouds 16 1024 87 7000 3.1 210 17:18 17.02.2020
2558 Clouds 16 1023 82 8000 5.1 210 16:54 17.02.2020
2559 Clouds 17 1023 82 7000 6.2 210 16:36 17.02.2020
2560 Clouds 17 1023 82 7000 6.2 210 16:18 17.02.2020
2561 Clouds 18 1023 77 6000 7.2 220 15:42 17.02.2020
2562 Clouds 18 1023 77 6000 7.2 220 15:23 17.02.2020
2563 Clouds 18 1023 82 7000 8.7 220 14:46 17.02.2020
2564 Clouds 18 1023 82 7000 8.7 220 14:46 17.02.2020
2565 Clouds 17 1023 77 7000 7.2 210 14:28 17.02.2020
2566 Clouds 17 1023 77 8000 7.7 220 13:59 17.02.2020
2567 Clouds 17 1024 77 7000 8.7 220 13:40 17.02.2020
2568 Clouds 17 1024 77 7000 8.7 220 13:40 17.02.2020
2569 Clouds 17 1024 77 7000 8.7 220 13:20 17.02.2020
2570 Clouds 17 1024 77 7000 7.7 220 12:56 17.02.2020
2571 Clouds 16 1024 77 7000 7.7 220 12:37 17.02.2020
2572 Clouds 15 1024 77 7000 7.7 220 12:19 17.02.2020
2573 Clouds 15 1024 82 9000 6.2 230 11:43 17.02.2020
2574 Clouds 14 1024 82 9000 6.2 230 11:25 17.02.2020
2575 Clouds 13 1024 82 10000 5.7 230 10:57 17.02.2020
2576 Clouds 13 1024 82 10000 5.7 230 10:38 17.02.2020
2577 Clouds 12 1024 82 9000 4.1 250 10:20 17.02.2020
2578 Clouds 12 1024 82 8000 2.6 300 09:56 17.02.2020
2579 Clouds 11 1024 82 7000 5.1 240 09:37 17.02.2020
2580 Clouds 11 1024 82 7000 5.1 240 09:18 17.02.2020
2581 Clouds 10 1024 87 7000 5.1 240 08:42 17.02.2020
2582 Clouds 10 1024 87 7000 4.6 240 08:23 17.02.2020
2583 Clouds 9 1023 87 7000 5.7 230 07:57 17.02.2020
2584 Clouds 9 1023 87 7000 3.6 230 07:28 17.02.2020
2585 Clouds 9 1023 87 7000 4.6 240 06:57 17.02.2020
2586 Clouds 9 1024 87 7000 5.7 240 06:39 17.02.2020
2587 Clouds 10 1024 87 7000 5.7 240 06:19 17.02.2020
2588 Clouds 10 1024 93 7000 6.2 240 05:40 17.02.2020
2589 Clouds 10 1024 87 7000 6.2 230 04:23 17.02.2020
2590 Clouds 10 1024 82 8000 5.7 230 02:49 17.02.2020
2591 Clouds 11 1025 82 8000 5.1 240 01:22 17.02.2020
2592 Clouds 12 1025 76 9000 6.2 250 00:39 17.02.2020
2593 Clouds 12 1025 76 9000 6.2 240 00:19 17.02.2020
2594 Clouds 12 1026 76 9000 6.2 250 23:48 16.02.2020
2595 Clouds 12 1026 76 9000 6.2 240 23:27 16.02.2020
2596 Clouds 12 1026 76 10000 6.7 250 22:56 16.02.2020
2597 Clouds 12 1026 76 10000 5.7 250 22:38 16.02.2020
2598 Clouds 12 1026 76 10000 5.7 250 22:18 16.02.2020
2599 Clouds 13 1026 76 10000 5.7 250 21:43 16.02.2020
2600 Clouds 13 1025 76 10000 7.2 240 21:24 16.02.2020
2601 Clouds 13 1025 76 10000 8.2 230 20:59 16.02.2020
2602 Clouds 13 1025 76 10000 8.2 230 20:40 16.02.2020
2603 Clouds 13 1025 76 10000 7.7 220 20:22 16.02.2020
2604 Clouds 13 1025 76 10000 6.7 230 19:59 16.02.2020
2605 Clouds 13 1025 76 10000 6.7 230 19:40 16.02.2020
2606 Clouds 13 1025 82 10000 6.2 220 19:19 16.02.2020
2607 Clouds 13 1024 82 10000 6.2 220 18:59 16.02.2020
2608 Clouds 14 1024 82 10000 6.2 220 18:41 16.02.2020
2609 Clouds 14 1024 82 10000 6.2 220 18:23 16.02.2020
2610 Clouds 14 1024 82 10000 6.2 220 18:23 16.02.2020
2611 Clouds 15 1024 82 9000 6.2 220 17:44 16.02.2020
2612 Clouds 16 1024 82 9000 6.2 220 17:21 16.02.2020
2613 Clouds 16 1025 82 10000 7.7 220 16:57 16.02.2020
2614 Clouds 16 1025 82 10000 7.7 220 16:39 16.02.2020
2615 Clouds 16 1025 82 10000 7.7 220 16:21 16.02.2020
2616 Clouds 16 1025 82 10000 7.7 220 15:56 16.02.2020
2617 Clouds 16 1025 82 10000 7.7 220 15:37 16.02.2020
2618 Clouds 16 1025 82 10000 7.7 220 15:18 16.02.2020
2619 Clouds 16 1025 87 9000 7.2 220 14:39 16.02.2020
2620 Clouds 16 1026 82 9000 7.2 230 14:21 16.02.2020
2621 Clouds 15 1026 87 10000 6.2 230 13:46 16.02.2020
2622 Clouds 15 1026 82 10000 6.2 230 13:24 16.02.2020
2623 Clouds 15 1027 87 10000 7.2 230 12:56 16.02.2020
2624 Clouds 15 1027 82 10000 6.7 230 12:38 16.02.2020
2625 Clouds 15 1027 82 10000 6.7 230 12:19 16.02.2020
2626 Clouds 14 1027 82 10000 6.7 230 11:39 16.02.2020
2627 Clouds 13 1027 82 10000 7.2 240 11:18 16.02.2020
2628 Clouds 13 1027 82 10000 7.7 230 10:56 16.02.2020
2629 Clouds 13 1027 82 10000 7.2 230 10:38 16.02.2020
2630 Clouds 12 1027 82 10000 7.2 230 10:20 16.02.2020
2631 Clouds 13 1027 82 10000 6.7 240 09:57 16.02.2020
2632 Clouds 13 1027 82 9000 5.7 240 09:37 16.02.2020
2633 Clouds 12 1027 82 9000 5.7 240 09:19 16.02.2020
2634 Clouds 12 1026 87 9000 7.2 250 08:46 16.02.2020
2635 Clouds 10 1026 87 9000 7.2 250 08:21 16.02.2020
2636 Clouds 10 1026 87 9000 6.7 240 07:55 16.02.2020
2637 Clouds 10 1026 87 9000 6.7 240 07:34 16.02.2020
2638 Clouds 10 1026 87 9000 6.7 240 06:35 16.02.2020
2639 Clouds 10 1026 87 9000 6.2 240 04:57 16.02.2020
2640 Clouds 11 1027 87 7000 5.1 240 03:58 16.02.2020
2641 Clouds 11 1027 87 9000 5.1 240 02:35 16.02.2020
2642 Clouds 11 1027 87 10000 6.2 230 01:45 16.02.2020
2643 Clouds 11 1027 87 9000 6.2 230 01:26 16.02.2020
2644 Clouds 11 1027 87 8000 5.7 220 00:59 16.02.2020
2645 Clouds 12 1027 87 8000 5.7 220 00:40 16.02.2020
2646 Clouds 11 1027 87 8000 4.6 240 00:19 16.02.2020
2647 Clouds 11 1027 87 9000 3.6 270 23:42 15.02.2020
2648 Clouds 12 1027 87 10000 4.6 240 23:23 15.02.2020
2649 Clouds 12 1027 87 10000 4.1 240 22:56 15.02.2020
2650 Clouds 12 1027 87 10000 3.1 240 22:38 15.02.2020
2651 Clouds 12 1027 87 10000 3.1 240 22:18 15.02.2020
2652 Clouds 12 1027 87 10000 5.1 220 21:43 15.02.2020
2653 Clouds 12 1027 87 10000 5.1 230 21:23 15.02.2020
2654 Clouds 12 1027 87 10000 4.6 230 20:55 15.02.2020
2655 Clouds 12 1027 87 10000 4.6 230 20:36 15.02.2020
2656 Clouds 12 1026 87 10000 6.2 230 20:18 15.02.2020
2657 Clouds 13 1026 87 10000 5.7 230 19:40 15.02.2020
2658 Clouds 13 1026 87 10000 5.7 230 19:21 15.02.2020
2659 Clouds 13 1026 87 10000 5.1 230 18:40 15.02.2020
2660 Clouds 14 1025 87 10000 5.1 210 18:20 15.02.2020
2661 Clouds 14 1025 82 10000 5.7 220 17:55 15.02.2020
2662 Clouds 14 1025 82 10000 6.2 210 17:37 15.02.2020
2663 Clouds 16 1025 82 10000 6.2 210 17:18 15.02.2020
2664 Clouds 16 1026 87 10000 7.7 210 16:40 15.02.2020
2665 Clouds 16 1026 87 10000 7.7 210 16:20 15.02.2020
2666 Clouds 16 1025 77 10000 8.2 210 15:49 15.02.2020
2667 Clouds 16 1025 77 10000 7.7 210 15:31 15.02.2020
2668 Clouds 16 1025 82 10000 7.2 200 14:57 15.02.2020
2669 Clouds 16 1025 82 10000 6.7 190 14:39 15.02.2020
2670 Clouds 16 1025 82 10000 6.7 190 14:18 15.02.2020
2671 Clouds 16 1026 77 10000 4.6 220 13:42 15.02.2020
2672 Clouds 16 1026 77 10000 4.6 220 13:22 15.02.2020
2673 Clouds 15 1027 76 10000 4.1 210 12:57 15.02.2020
2674 Clouds 15 1027 76 10000 4.1 210 12:38 15.02.2020
2675 Clouds 15 1027 76 9000 3.6 220 12:19 15.02.2020
2676 Clouds 14 1027 76 8000 2.1 280 11:45 15.02.2020
2677 Clouds 13 1027 76 8000 2.1 280 11:26 15.02.2020
2678 Clouds 11 1026 87 7000 2.6 300 10:47 15.02.2020
2679 Clouds 11 1026 87 6000 3.1 310 10:29 15.02.2020
2680 Clouds 11 1026 93 6000 3.1 320 09:56 15.02.2020
2681 Clouds 11 1026 93 6000 3.1 310 09:37 15.02.2020
2682 Clouds 9 1026 93 6000 3.1 310 09:19 15.02.2020
2683 Clouds 9 1025 87 6000 2.6 320 08:41 15.02.2020
2684 Clouds 9 1025 87 6000 2.6 320 08:23 15.02.2020
2685 Clouds 9 1025 93 6000 3.1 340 07:45 15.02.2020
2686 Clouds 9 1025 93 6000 3.6 340 07:27 15.02.2020
2687 Clouds 9 1025 87 6000 3.1 320 06:47 15.02.2020
2688 Clouds 9 1025 87 6000 2.1 330 06:28 15.02.2020
2689 Clouds 9 1025 93 6000 0.5 0 05:31 15.02.2020
2690 Clouds 10 1025 93 6000 1 0 04:45 15.02.2020
2691 Clouds 10 1025 93 6000 2.6 310 03:23 15.02.2020
2692 Clouds 10 1025 93 6000 2.1 320 02:42 15.02.2020
2693 Clouds 10 1025 93 6000 2.1 320 02:42 15.02.2020
2694 Clouds 10 1026 93 6000 1 310 02:19 15.02.2020
2695 Clouds 10 1026 100 6000 1 340 01:38 15.02.2020
2696 Clouds 11 1026 93 6000 1.5 280 00:38 15.02.2020
2697 Clouds 11 1026 100 6000 0.17 175 00:18 15.02.2020
2698 Clouds 11 1026 100 6000 0.5 0 23:39 14.02.2020
2699 Clouds 11 1026 100 6000 0.5 0 23:19 14.02.2020
2700 Clouds 12 1026 93 7000 0.5 220 22:43 14.02.2020
2701 Clouds 12 1025 93 7000 1 0 22:23 14.02.2020
2702 Clouds 11 1025 93 8000 0.5 0 21:51 14.02.2020
2703 Clouds 11 1025 93 8000 0.5 0 21:51 14.02.2020
2704 Clouds 12 1025 93 10000 1 0 21:33 14.02.2020
2705 Clouds 12 1025 87 10000 0.62 168 20:59 14.02.2020
2706 Clouds 12 1025 87 10000 0.62 168 20:40 14.02.2020
2707 Clouds 12 1025 87 10000 1.3 166 20:19 14.02.2020
2708 Clouds 12 1025 87 10000 1.3 166 20:19 14.02.2020
2709 Clouds 13 1025 82 10000 0.5 0 19:43 14.02.2020
2710 Clouds 13 1025 87 10000 1.3 166 19:25 14.02.2020
2711 Clouds 13 1025 82 10000 1 0 18:59 14.02.2020
2712 Clouds 13 1024 82 10000 1 150 18:41 14.02.2020
2713 Clouds 13 1024 82 10000 1 150 18:22 14.02.2020
2714 Clouds 13 1024 82 10000 2.1 140 17:59 14.02.2020
2715 Clouds 14 1024 82 10000 2.1 140 17:39 14.02.2020
2716 Clouds 14 1024 82 10000 2.6 140 17:18 14.02.2020
2717 Clouds 15 1024 82 10000 2.6 150 16:42 14.02.2020
2718 Clouds 15 1024 82 10000 3.1 140 16:42 14.02.2020
2719 Clouds 15 1024 82 10000 2.6 150 16:23 14.02.2020
2720 Clouds 15 1024 82 10000 3.1 120 15:57 14.02.2020
2721 Clouds 15 1025 76 10000 3.1 120 15:39 14.02.2020
2722 Clouds 15 1025 76 10000 3.1 120 15:20 14.02.2020
2723 Clouds 15 1025 77 9000 3.1 120 14:59 14.02.2020
2724 Clouds 15 1025 77 9000 3.1 120 14:41 14.02.2020
2725 Clouds 14 1025 82 9000 3.6 110 14:22 14.02.2020
2726 Clouds 15 1025 77 8000 3.6 120 13:56 14.02.2020
2727 Clouds 14 1026 77 8000 1.5 90 13:38 14.02.2020
2728 Clouds 14 1026 77 8000 1.5 90 13:19 14.02.2020
2729 Clouds 14 1026 82 8000 3.1 340 12:56 14.02.2020
2730 Clouds 14 1026 82 8000 3.1 340 12:38 14.02.2020
2731 Clouds 13 1026 76 8000 4.1 310 12:20 14.02.2020
2732 Clouds 13 1026 82 7000 4.1 330 11:55 14.02.2020
2733 Clouds 13 1026 82 7000 3.6 330 11:37 14.02.2020
2734 Clouds 12 1026 82 7000 3.6 330 11:19 14.02.2020
2735 Clouds 11 1026 81 7000 4.1 320 10:41 14.02.2020
2736 Clouds 11 1026 81 7000 4.1 320 10:22 14.02.2020
2737 Clouds 11 1026 81 7000 4.1 320 10:22 14.02.2020
2738 Clouds 11 1025 87 7000 4.1 330 09:55 14.02.2020
2739 Clouds 11 1025 87 7000 3.6 320 09:36 14.02.2020
2740 Clouds 11 1025 87 7000 3.6 320 09:18 14.02.2020
2741 Clouds 10 1024 87 9000 2.6 340 08:40 14.02.2020
2742 Clouds 9 1024 87 9000 2.6 340 08:21 14.02.2020
2743 Clouds 9 1024 87 9000 2.6 340 08:21 14.02.2020
2744 Clouds 9 1024 87 9000 2.1 330 07:50 14.02.2020
2745 Clouds 9 1023 93 9000 1.5 350 07:30 14.02.2020
2746 Clouds 9 1023 87 9000 2.1 350 06:41 14.02.2020
2747 Clouds 9 1023 87 9000 3.6 350 06:41 14.02.2020
2748 Clouds 9 1023 87 9000 3.6 350 06:21 14.02.2020
2749 Clouds 9 1023 87 9000 3.6 350 06:21 14.02.2020
2750 Clouds 10 1022 87 9000 2.1 340 05:38 14.02.2020
2751 Clouds 10 1022 93 9000 4.6 330 03:50 14.02.2020
2752 Clouds 10 1022 93 9000 4.1 320 02:58 14.02.2020
2753 Clear 10 1022 93 9000 1.5 330 02:18 14.02.2020
2754 Clouds 11 1022 93 9000 2.6 310 00:59 14.02.2020
2755 Mist 11 1022 93 5000 1.5 290 00:32 14.02.2020
2756 Mist 11 1022 100 5000 1.5 320 23:59 13.02.2020
2757 Mist 11 1021 100 5000 2.6 270 23:41 13.02.2020
2758 Mist 12 1021 100 5000 2.6 270 23:19 13.02.2020
2759 Clear 12 1021 100 7000 4.1 220 22:40 13.02.2020
2760 Clear 12 1021 100 8000 4.1 210 22:19 13.02.2020
2761 Clouds 12 1021 100 8000 4.1 230 21:58 13.02.2020
2762 Clouds 13 1021 100 8000 4.1 230 21:40 13.02.2020
2763 Clouds 13 1021 93 8000 5.7 220 21:20 13.02.2020
2764 Clouds 13 1021 100 8000 5.1 240 20:43 13.02.2020
2765 Clear 14 1021 93 10000 4.6 240 20:23 13.02.2020
2766 Clear 14 1020 87 10000 7.7 230 19:58 13.02.2020
2767 Clear 14 1020 87 10000 7.7 230 19:39 13.02.2020
2768 Clear 14 1020 87 10000 7.7 230 19:21 13.02.2020
2769 Clear 15 1020 87 10000 7.2 230 18:59 13.02.2020
2770 Clear 15 1020 87 10000 7.2 230 18:41 13.02.2020
2771 Clear 15 1019 87 10000 8.7 230 18:22 13.02.2020
2772 Clear 16 1019 87 10000 9.8 220 17:57 13.02.2020
2773 Clear 16 1019 87 10000 9.8 220 17:37 13.02.2020
2774 Clouds 16 1019 87 10000 11.3 230 17:19 13.02.2020
2775 Clouds 16 1019 87 10000 11.3 230 16:55 13.02.2020
2776 Clouds 16 1019 77 10000 10.8 220 16:36 13.02.2020
2777 Clouds 16 1019 87 10000 11.3 230 16:36 13.02.2020
2778 Clouds 17 1019 77 10000 10.8 220 16:18 13.02.2020
2779 Clouds 17 1019 77 10000 9.8 220 15:54 13.02.2020
2780 Clouds 17 1019 77 10000 10.3 230 15:36 13.02.2020
2781 Clouds 17 1019 77 10000 10.3 230 15:18 13.02.2020
2782 Clouds 17 1019 82 10000 10.3 220 14:54 13.02.2020
2783 Clouds 17 1019 82 10000 10.3 220 14:36 13.02.2020
2784 Clouds 17 1020 77 10000 9.8 230 14:18 13.02.2020
2785 Clouds 17 1021 82 10000 8.2 220 13:41 13.02.2020
2786 Clouds 17 1021 82 10000 8.2 220 13:18 13.02.2020
2787 Clouds 16 1021 77 10000 8.7 230 12:48 13.02.2020
2788 Clouds 16 1022 77 10000 8.2 220 12:30 13.02.2020
2789 Clouds 15 1022 82 10000 8.7 230 11:59 13.02.2020
2790 Clouds 15 1022 82 10000 7.7 220 11:41 13.02.2020
2791 Clouds 14 1022 82 10000 7.7 220 11:19 13.02.2020
2792 Clouds 13 1021 82 10000 2.1 230 10:44 13.02.2020
2793 Clouds 13 1021 82 10000 2.1 310 10:26 13.02.2020
2794 Clouds 12 1021 87 10000 1.5 310 09:50 13.02.2020
2795 Clouds 11 1021 87 10000 3.1 280 09:26 13.02.2020
2796 Clouds 10 1021 87 10000 3.1 250 08:52 13.02.2020
2797 Clouds 10 1021 87 10000 3.1 250 08:21 13.02.2020
2798 Clouds 10 1020 93 10000 1 0 07:57 13.02.2020
2799 Clouds 9 1020 100 10000 2.1 280 07:38 13.02.2020
2800 Clouds 10 1020 100 10000 2.1 280 07:20 13.02.2020
2801 Clouds 10 1020 93 10000 1.5 300 06:44 13.02.2020
2802 Clouds 10 1021 93 10000 1.5 310 06:18 13.02.2020
2803 Clouds 10 1021 93 10000 2.1 290 05:30 13.02.2020
2804 Clouds 10 1022 93 10000 3.1 320 04:25 13.02.2020
2805 Clouds 10 1022 93 10000 2.6 320 03:47 13.02.2020
2806 Clouds 10 1022 93 10000 2.6 340 03:18 13.02.2020
2807 Clouds 10 1022 93 10000 2.1 320 02:48 13.02.2020
2808 Clouds 10 1023 93 9000 2.1 330 02:19 13.02.2020
2809 Clouds 10 1023 93 10000 2.1 330 01:32 13.02.2020
2810 Clouds 10 1024 93 10000 1.5 320 00:33 13.02.2020
2811 Clouds 10 1024 93 10000 1.5 330 23:59 12.02.2020
2812 Clouds 10 1024 93 10000 1.5 10 23:38 12.02.2020
2813 Clouds 10 1024 93 10000 1.5 10 23:20 12.02.2020
2814 Clouds 10 1024 93 10000 1.5 10 22:45 12.02.2020
2815 Clouds 10 1025 93 10000 1.5 20 22:25 12.02.2020
2816 Clouds 10 1025 93 10000 1 0 21:58 12.02.2020
2817 Clouds 10 1025 93 10000 1 0 21:40 12.02.2020
2818 Clouds 10 1025 81 10000 1 0 21:19 12.02.2020
2819 Clouds 11 1025 81 9000 1 70 20:56 12.02.2020
2820 Clouds 10 1025 93 9000 1 80 20:37 12.02.2020
2821 Clouds 11 1025 93 9000 1 80 20:19 12.02.2020
2822 Clouds 11 1025 93 9000 2.1 90 19:45 12.02.2020
2823 Drizzle 11 1025 87 5000 2.6 90 19:24 12.02.2020
2824 Clouds 11 1025 81 9000 3.6 80 18:56 12.02.2020
2825 Clouds 11 1024 81 9000 3.6 90 18:37 12.02.2020
2826 Clouds 11 1024 81 9000 3.6 90 18:18 12.02.2020
2827 Clouds 11 1024 81 9000 4.1 90 17:43 12.02.2020
2828 Clouds 11 1024 81 10000 4.1 90 17:21 12.02.2020
2829 Clouds 11 1025 81 10000 4.1 80 16:59 12.02.2020
2830 Clouds 11 1025 81 10000 4.1 80 16:39 12.02.2020
2831 Clouds 11 1025 81 10000 4.1 80 16:19 12.02.2020
2832 Clouds 11 1025 81 9000 5.1 70 15:43 12.02.2020
2833 Clouds 11 1025 81 9000 5.1 70 15:23 12.02.2020
2834 Drizzle 12 1025 87 9000 3.6 60 14:57 12.02.2020
2835 Drizzle 12 1025 87 9000 3.6 60 14:57 12.02.2020
2836 Drizzle 12 1025 87 9000 3.6 60 14:39 12.02.2020
2837 Drizzle 12 1026 87 10000 4.6 70 14:20 12.02.2020
2838 Clouds 12 1026 81 10000 5.7 70 13:57 12.02.2020
2839 Clouds 12 1026 82 10000 5.7 70 13:39 12.02.2020
2840 Clouds 12 1026 82 10000 5.7 70 13:20 12.02.2020
2841 Clouds 12 1026 82 10000 5.1 80 12:57 12.02.2020
2842 Clouds 12 1027 82 10000 5.1 70 12:38 12.02.2020
2843 Clouds 12 1027 82 10000 5.1 70 12:18 12.02.2020
2844 Clouds 12 1027 82 10000 5.1 70 11:57 12.02.2020
2845 Clouds 11 1027 82 10000 5.1 70 11:39 12.02.2020
2846 Clouds 12 1026 82 10000 5.7 80 11:20 12.02.2020
2847 Clouds 12 1026 82 10000 6.2 80 10:55 12.02.2020
2848 Clouds 11 1026 82 10000 6.2 80 10:36 12.02.2020
2849 Clouds 11 1026 87 10000 6.2 80 10:18 12.02.2020
2850 Drizzle 11 1026 93 7000 6.2 80 09:42 12.02.2020
2851 Drizzle 11 1026 93 7000 6.2 80 09:42 12.02.2020
2852 Drizzle 11 1026 93 7000 6.2 80 09:42 12.02.2020
2853 Drizzle 11 1026 93 7000 6.2 80 09:42 12.02.2020
2854 Drizzle 11 1026 93 7000 6.2 80 09:23 12.02.2020
2855 Clouds 11 1025 87 7000 6.2 90 08:58 12.02.2020
2856 Clouds 11 1025 87 7000 6.2 90 08:58 12.02.2020
2857 Clouds 11 1025 87 7000 6.2 90 08:58 12.02.2020
2858 Clouds 11 1025 87 7000 6.2 90 08:38 12.02.2020
2859 Clouds 11 1025 93 8000 6.2 90 08:20 12.02.2020
2860 Clouds 11 1025 87 7000 1 0 07:44 12.02.2020
2861 Clouds 11 1024 93 7000 0.5 0 07:24 12.02.2020
2862 Clouds 11 1024 93 7000 2.6 320 06:57 12.02.2020
2863 Clouds 11 1024 93 7000 2.1 340 06:24 12.02.2020
2864 Clouds 11 1024 87 6000 2.1 320 05:44 12.02.2020
2865 Clouds 12 1023 87 6000 2.1 60 04:59 12.02.2020
2866 Clouds 12 1023 93 6000 1 0 04:40 12.02.2020
2867 Clouds 12 1024 87 7000 2.1 30 03:42 12.02.2020
2868 Clouds 12 1024 87 6000 1 0 03:23 12.02.2020
2869 Clouds 12 1024 87 8000 1 40 02:31 12.02.2020
2870 Clouds 12 1024 87 8000 1 0 01:59 12.02.2020
2871 Clouds 12 1024 87 7000 2.1 340 00:58 12.02.2020
2872 Clouds 12 1024 87 7000 2.1 340 00:58 12.02.2020
2873 Clouds 13 1024 93 8000 0.5 0 00:39 12.02.2020
2874 Clouds 13 1024 93 8000 0.5 0 00:21 12.02.2020
2875 Clouds 13 1024 93 9000 2.6 40 23:42 11.02.2020
2876 Clouds 13 1024 87 9000 2.1 40 23:24 11.02.2020
2877 Clouds 13 1024 87 8000 1.5 10 22:56 11.02.2020
2878 Clouds 13 1024 87 8000 1.5 10 22:38 11.02.2020
2879 Clouds 13 1024 87 8000 2.1 50 22:19 11.02.2020
2880 Clouds 13 1024 87 8000 3.1 40 21:56 11.02.2020
2881 Clouds 13 1024 87 8000 3.1 40 21:37 11.02.2020
2882 Clouds 13 1024 87 8000 3.1 40 21:18 11.02.2020
2883 Clouds 13 1024 87 8000 3.1 40 21:18 11.02.2020
2884 Clouds 13 1024 93 7000 3.6 60 20:56 11.02.2020
2885 Clouds 13 1024 93 7000 3.6 60 20:38 11.02.2020
2886 Clouds 13 1024 93 7000 3.6 60 20:38 11.02.2020
2887 Clouds 13 1023 87 8000 2.1 60 20:18 11.02.2020
2888 Clouds 13 1023 87 8000 2.1 60 20:18 11.02.2020
2889 Clouds 13 1023 87 8000 3.1 70 19:54 11.02.2020
2890 Clouds 13 1023 87 9000 3.1 50 19:36 11.02.2020
2891 Clouds 14 1023 87 9000 3.1 50 19:18 11.02.2020
2892 Clouds 14 1022 87 9000 2.6 60 18:42 11.02.2020
2893 Clouds 14 1022 87 9000 2.6 60 18:24 11.02.2020
2894 Clouds 14 1022 82 9000 3.1 70 17:55 11.02.2020
2895 Clouds 15 1022 87 9000 3.6 70 17:37 11.02.2020
2896 Clouds 15 1022 87 9000 3.6 70 17:18 11.02.2020
2897 Clouds 15 1022 87 9000 3.6 70 17:18 11.02.2020
2898 Clouds 15 1022 87 9000 4.1 90 16:57 11.02.2020
2899 Clouds 15 1022 87 9000 4.1 90 16:57 11.02.2020
2900 Clouds 16 1022 77 10000 5.1 80 16:38 11.02.2020
2901 Clouds 16 1022 77 10000 5.1 80 16:19 11.02.2020
2902 Clouds 16 1022 82 9000 5.1 80 15:45 11.02.2020
2903 Clouds 16 1022 77 9000 5.1 80 15:26 11.02.2020
2904 Clouds 17 1023 77 9000 4.6 60 14:58 11.02.2020
2905 Clouds 16 1023 77 9000 5.1 70 14:39 11.02.2020
2906 Clouds 16 1023 77 9000 5.1 70 14:19 11.02.2020
2907 Clouds 16 1024 72 10000 4.6 80 13:42 11.02.2020
2908 Clouds 16 1024 72 10000 4.6 80 13:22 11.02.2020
2909 Clouds 16 1024 72 10000 3.1 80 12:59 11.02.2020
2910 Clouds 16 1024 72 10000 3.1 80 12:41 11.02.2020
2911 Clouds 16 1024 72 10000 3.1 80 12:21 11.02.2020
2912 Clouds 15 1024 72 10000 2.6 110 11:56 11.02.2020
2913 Clouds 15 1024 63 10000 2.1 350 11:38 11.02.2020
2914 Clouds 14 1024 63 10000 2.1 350 11:19 11.02.2020
2915 Clouds 14 1024 67 10000 0.5 270 10:40 11.02.2020
2916 Clouds 13 1024 71 10000 1 0 10:21 11.02.2020
2917 Clouds 13 1024 87 10000 1 0 09:57 11.02.2020
2918 Clouds 13 1024 87 10000 1 0 09:39 11.02.2020
2919 Clouds 13 1023 76 10000 4.1 330 09:21 11.02.2020
2920 Clouds 12 1023 76 10000 4.6 330 08:49 11.02.2020
2921 Clouds 12 1023 76 10000 3.6 330 08:25 11.02.2020
2922 Clouds 12 1022 81 10000 3.1 330 07:51 11.02.2020
2923 Clouds 12 1022 76 10000 2.1 330 07:32 11.02.2020
2924 Clouds 12 1022 81 10000 1.5 350 06:57 11.02.2020
2925 Clouds 11 1023 81 10000 0.5 340 06:38 11.02.2020
2926 Clouds 12 1023 81 10000 0.5 340 06:20 11.02.2020
2927 Clouds 12 1023 81 10000 0.5 340 06:20 11.02.2020
2928 Clouds 12 1023 81 10000 1.5 10 05:39 11.02.2020
2929 Clouds 12 1023 87 10000 1 0 05:19 11.02.2020
2930 Clouds 12 1023 87 10000 2.1 310 03:27 11.02.2020
2931 Clouds 12 1024 81 10000 2.6 310 02:34 11.02.2020
2932 Clouds 12 1025 93 10000 2.6 320 01:52 11.02.2020
2933 Clouds 12 1025 93 10000 2.1 300 01:30 11.02.2020
2934 Clear 12 1025 93 10000 1 0 00:23 11.02.2020
2935 Clear 12 1025 93 10000 2.6 250 23:45 10.02.2020
2936 Clear 12 1025 87 10000 3.6 260 23:26 10.02.2020
2937 Clear 13 1025 82 10000 3.6 240 22:57 10.02.2020
2938 Clear 13 1025 82 10000 2.1 250 22:37 10.02.2020
2939 Clear 13 1025 82 10000 2.1 250 22:19 10.02.2020
2940 Clear 14 1025 82 10000 3.1 240 21:40 10.02.2020
2941 Clear 14 1025 82 10000 2.1 220 21:22 10.02.2020
2942 Clear 14 1025 76 10000 4.6 230 20:56 10.02.2020
2943 Clear 15 1025 77 10000 6.2 220 20:38 10.02.2020
2944 Clear 15 1025 77 10000 6.2 220 20:19 10.02.2020
2945 Clear 15 1025 77 10000 7.2 220 19:57 10.02.2020
2946 Clear 15 1025 77 10000 7.2 220 19:57 10.02.2020
2947 Clear 16 1025 77 10000 7.2 220 19:37 10.02.2020
2948 Clear 16 1025 77 10000 7.7 220 19:18 10.02.2020
2949 Clear 16 1024 77 10000 7.7 220 18:58 10.02.2020
2950 Clear 16 1024 77 10000 7.7 220 18:38 10.02.2020
2951 Clear 18 1024 72 10000 7.7 220 18:20 10.02.2020
2952 Clear 18 1024 72 10000 7.7 220 18:20 10.02.2020
2953 Clear 18 1024 72 10000 7.7 220 17:55 10.02.2020
2954 Clear 18 1024 77 10000 8.2 220 17:37 10.02.2020
2955 Clear 19 1024 77 10000 8.2 220 17:18 10.02.2020
2956 Clear 19 1024 77 10000 8.7 230 16:56 10.02.2020
2957 Clouds 19 1024 72 10000 7.7 240 16:38 10.02.2020
2958 Clouds 19 1024 72 10000 7.7 240 16:18 10.02.2020
2959 Clouds 19 1024 72 10000 9.8 230 15:42 10.02.2020
2960 Clouds 20 1024 72 10000 8.2 230 15:22 10.02.2020
2961 Clouds 20 1025 56 10000 7.7 210 14:59 10.02.2020
2962 Clouds 19 1026 68 10000 6.2 250 14:41 10.02.2020
2963 Clouds 19 1026 68 10000 6.2 250 14:19 10.02.2020
2964 Clouds 19 1026 56 10000 3.1 220 13:56 10.02.2020
2965 Clouds 19 1026 56 10000 3.1 220 13:56 10.02.2020
2966 Clouds 19 1027 63 10000 5.7 220 13:38 10.02.2020
2967 Clouds 18 1027 63 10000 5.7 220 13:18 10.02.2020
2968 Clouds 18 1027 63 10000 5.7 220 13:18 10.02.2020
2969 Clouds 18 1027 55 10000 6.2 250 12:44 10.02.2020
2970 Clouds 18 1027 59 10000 3.1 280 12:25 10.02.2020
2971 Clouds 17 1027 63 10000 3.6 310 11:55 10.02.2020
2972 Clouds 17 1027 63 10000 3.6 310 11:37 10.02.2020
2973 Clouds 15 1027 59 10000 2.6 230 11:19 10.02.2020
2974 Clouds 15 1027 59 10000 2.6 230 10:46 10.02.2020
2975 Clouds 14 1027 67 10000 3.1 310 10:26 10.02.2020
2976 Clouds 13 1027 71 10000 3.1 290 09:45 10.02.2020
2977 Clouds 13 1027 81 10000 2.1 300 09:26 10.02.2020
2978 Clouds 12 1027 81 10000 2.6 300 08:56 10.02.2020
2979 Clouds 12 1027 81 10000 2.6 300 08:37 10.02.2020
2980 Clouds 11 1026 82 10000 2.6 280 08:18 10.02.2020
2981 Clouds 12 1026 87 10000 2.1 330 07:47 10.02.2020
2982 Clouds 12 1026 76 10000 3.1 280 07:26 10.02.2020
2983 Clouds 12 1026 76 10000 7.7 230 06:19 10.02.2020
2984 Clouds 11 1026 87 10000 5.7 230 04:27 10.02.2020
2985 Clouds 11 1027 93 6000 5.7 240 03:34 10.02.2020
2986 Clouds 12 1027 93 7000 6.7 230 02:54 10.02.2020
2987 Clouds 12 1027 93 7000 6.7 230 02:54 10.02.2020
2988 Clouds 12 1028 93 8000 7.7 230 01:55 10.02.2020
2989 Clouds 12 1028 87 10000 7.7 230 00:49 10.02.2020
2990 Clouds 11 1029 87 10000 8.7 240 00:31 10.02.2020
2991 Clouds 12 1028 87 10000 9.3 240 23:56 09.02.2020
2992 Clouds 12 1028 87 10000 8.2 240 23:38 09.02.2020
2993 Clouds 12 1028 87 10000 8.2 240 23:19 09.02.2020
2994 Clouds 12 1028 87 10000 8.2 240 22:39 09.02.2020
2995 Clouds 12 1028 87 10000 8.2 240 22:21 09.02.2020
2996 Clouds 12 1028 87 10000 9.3 230 21:43 09.02.2020
2997 Clouds 12 1028 87 10000 8.7 230 21:24 09.02.2020
2998 Clouds 12 1028 82 10000 7.7 230 20:56 09.02.2020
2999 Clouds 12 1028 82 10000 7.7 230 20:38 09.02.2020
3000 Clouds 12 1028 82 10000 8.7 240 20:18 09.02.2020
3001 Clouds 13 1028 82 10000 6.2 240 19:39 09.02.2020
3002 Clouds 13 1028 82 10000 7.7 230 19:21 09.02.2020
3003 Clouds 13 1028 82 10000 7.2 230 18:57 09.02.2020
3004 Clouds 13 1028 87 10000 7.7 240 18:38 09.02.2020
3005 Clouds 13 1028 87 10000 7.7 240 18:20 09.02.2020
3006 Clouds 14 1028 76 10000 8.7 230 17:42 09.02.2020
3007 Clouds 14 1028 76 10000 8.7 230 17:23 09.02.2020
3008 Clouds 15 1028 82 10000 8.7 230 16:56 09.02.2020
3009 Clouds 15 1028 82 10000 8.7 220 16:38 09.02.2020
3010 Clouds 15 1028 82 10000 8.7 220 16:18 09.02.2020
3011 Clouds 15 1028 82 10000 8.7 220 15:56 09.02.2020
3012 Clouds 15 1028 82 10000 8.7 220 15:38 09.02.2020
3013 Clouds 16 1028 82 10000 9.3 220 15:19 09.02.2020
3014 Clouds 15 1028 77 10000 8.7 220 14:42 09.02.2020
3015 Clouds 15 1028 76 10000 9.3 220 14:23 09.02.2020
3016 Clouds 15 1029 76 10000 8.7 210 13:47 09.02.2020
3017 Clouds 15 1029 71 10000 7.2 220 13:29 09.02.2020
3018 Clouds 15 1030 71 10000 6.2 210 12:58 09.02.2020
3019 Clouds 14 1030 82 10000 4.1 230 12:40 09.02.2020
3020 Clouds 14 1030 82 10000 4.1 230 12:20 09.02.2020
3021 Clouds 13 1030 82 10000 2.1 290 11:56 09.02.2020
3022 Clouds 13 1030 76 10000 2.6 310 11:36 09.02.2020
3023 Clouds 12 1030 76 10000 2.6 310 11:18 09.02.2020
3024 Clear 11 1030 81 10000 3.1 320 10:42 09.02.2020
3025 Clear 10 1030 76 10000 4.6 320 10:23 09.02.2020
3026 Clear 10 1030 81 10000 5.7 320 09:56 09.02.2020
3027 Clear 9 1029 87 10000 5.1 320 09:37 09.02.2020
3028 Clear 9 1029 87 10000 5.1 320 09:18 09.02.2020
3029 Clouds 7 1029 87 10000 4.6 320 08:39 09.02.2020
3030 Clouds 6 1028 87 10000 5.1 320 08:20 09.02.2020
3031 Clouds 7 1028 87 10000 6.7 320 07:51 09.02.2020
3032 Clouds 7 1028 87 10000 4.1 320 06:59 09.02.2020
3033 Clouds 7 1028 87 10000 3.6 330 06:36 09.02.2020
3034 Clouds 7 1027 87 10000 4.6 330 05:52 09.02.2020
3035 Clouds 7 1027 87 10000 4.6 330 05:52 09.02.2020
3036 Clouds 7 1027 87 10000 4.6 330 05:32 09.02.2020
3037 Clouds 7 1027 87 10000 3.6 320 04:43 09.02.2020
3038 Clouds 8 1027 93 9000 5.1 320 02:50 09.02.2020
3039 Clouds 8 1027 93 9000 2.6 340 02:32 09.02.2020
3040 Clouds 9 1027 93 10000 3.1 310 01:38 09.02.2020
3041 Clouds 9 1027 93 10000 1 310 00:56 09.02.2020
3042 Clouds 9 1027 87 10000 1.5 340 00:29 09.02.2020
3043 Clouds 9 1027 93 10000 3.1 320 23:50 08.02.2020
3044 Clouds 9 1027 87 10000 3.1 320 23:25 08.02.2020
3045 Clouds 9 1027 93 10000 2.1 310 22:58 08.02.2020
3046 Clouds 10 1027 87 10000 1 310 22:40 08.02.2020
3047 Clouds 10 1027 87 10000 1 310 22:20 08.02.2020
3048 Clouds 10 1027 87 10000 2.1 250 21:46 08.02.2020
3049 Clouds 10 1026 87 10000 1.5 240 21:27 08.02.2020
3050 Clouds 11 1026 81 10000 1 0 20:59 08.02.2020
3051 Clouds 11 1026 81 10000 1.5 250 20:40 08.02.2020
3052 Clouds 11 1026 81 10000 1.5 250 20:20 08.02.2020
3053 Clouds 11 1025 81 10000 2.1 220 19:58 08.02.2020
3054 Clouds 11 1025 81 10000 1.5 220 19:38 08.02.2020
3055 Clouds 12 1025 81 10000 1.5 220 19:20 08.02.2020
3056 Clouds 12 1025 81 10000 2.6 220 18:57 08.02.2020
3057 Clouds 12 1025 81 10000 2.6 220 18:38 08.02.2020
3058 Clouds 12 1024 76 10000 3.6 210 18:19 08.02.2020
3059 Clouds 12 1024 76 10000 3.1 200 17:41 08.02.2020
3060 Clouds 13 1024 76 10000 2.6 180 17:19 08.02.2020
3061 Clouds 13 1024 76 10000 3.1 190 16:42 08.02.2020
3062 Clouds 13 1024 76 10000 3.1 190 16:23 08.02.2020
3063 Clouds 13 1024 76 10000 3.1 200 15:59 08.02.2020
3064 Clouds 13 1024 76 10000 3.1 200 15:40 08.02.2020
3065 Clouds 13 1024 76 10000 3.1 200 15:18 08.02.2020
3066 Clouds 13 1024 71 10000 2.6 220 14:45 08.02.2020
3067 Clouds 13 1024 71 10000 2.1 220 14:24 08.02.2020
3068 Clouds 13 1025 71 10000 2.1 210 13:59 08.02.2020
3069 Clouds 13 1025 71 10000 1.5 160 13:40 08.02.2020
3070 Clouds 13 1025 71 10000 1.5 160 13:22 08.02.2020
3071 Clouds 13 1025 66 10000 2.1 140 12:49 08.02.2020
3072 Clouds 13 1025 67 10000 1 0 12:23 08.02.2020
3073 Clouds 13 1025 67 10000 1 0 12:23 08.02.2020
3074 Clouds 12 1025 71 10000 1 20 11:58 08.02.2020
3075 Clouds 13 1025 71 10000 1 20 11:40 08.02.2020
3076 Clouds 11 1026 76 10000 1 0 11:20 08.02.2020
3077 Clouds 10 1025 76 10000 2.1 330 10:42 08.02.2020
3078 Clouds 10 1025 81 10000 2.6 300 10:22 08.02.2020
3079 Clouds 10 1025 81 10000 2.6 300 10:22 08.02.2020
3080 Clouds 10 1025 81 10000 2.6 300 10:22 08.02.2020
3081 Clouds 10 1025 81 10000 2.6 300 10:22 08.02.2020
3082 Clouds 10 1025 81 10000 2.6 300 10:22 08.02.2020
3083 Clouds 9 1025 81 10000 3.1 340 09:53 08.02.2020
3084 Clouds 9 1025 93 10000 2.1 330 09:29 08.02.2020
3085 Clouds 8 1025 87 10000 2.1 350 08:56 08.02.2020
3086 Clouds 8 1025 87 10000 2.1 350 08:38 08.02.2020
3087 Clouds 8 1024 87 10000 4.6 320 08:20 08.02.2020
3088 Clouds 8 1024 93 10000 4.1 320 07:45 08.02.2020
3089 Clouds 8 1024 93 10000 2.6 320 07:23 08.02.2020
3090 Clouds 8 1024 93 10000 1.5 350 06:30 08.02.2020
3091 Clouds 8 1024 93 10000 1.5 350 06:30 08.02.2020
3092 Clouds 8 1024 93 10000 1.5 320 05:48 08.02.2020
3093 Clouds 8 1024 93 10000 3.1 310 05:30 08.02.2020
3094 Clouds 9 1024 93 10000 2.1 310 04:49 08.02.2020
3095 Clouds 9 1024 93 10000 3.1 320 03:52 08.02.2020
3096 Clouds 9 1024 93 10000 1 320 02:52 08.02.2020
3097 Clouds 10 1024 87 10000 1 310 01:55 08.02.2020
3098 Clouds 10 1024 87 10000 3.1 310 01:26 08.02.2020
3099 Clouds 10 1024 87 10000 1.5 320 00:44 08.02.2020
3100 Clouds 10 1024 87 10000 2.1 310 00:22 08.02.2020
3101 Clouds 10 1025 87 10000 2.6 310 23:55 07.02.2020
3102 Clouds 10 1025 87 10000 2.6 310 23:37 07.02.2020
3103 Clouds 10 1024 87 10000 2.1 300 23:18 07.02.2020
3104 Clouds 10 1024 81 10000 0.5 0 22:40 07.02.2020
3105 Clouds 10 1024 81 10000 0.5 0 22:19 07.02.2020
3106 Clouds 10 1024 81 10000 0.5 0 21:44 07.02.2020
3107 Clouds 11 1024 76 10000 2.1 210 21:23 07.02.2020
3108 Clouds 11 1024 76 10000 2.6 200 20:58 07.02.2020
3109 Clouds 11 1024 76 10000 2.6 200 20:38 07.02.2020
3110 Clouds 11 1024 71 10000 2.1 210 20:18 07.02.2020
3111 Clouds 11 1024 71 10000 2.1 200 19:42 07.02.2020
3112 Clouds 11 1024 66 10000 2.6 200 19:22 07.02.2020
3113 Clouds 12 1024 66 10000 2.1 200 18:58 07.02.2020
3114 Clouds 12 1024 66 10000 2.1 200 18:40 07.02.2020
3115 Clouds 12 1023 71 10000 2.6 200 18:21 07.02.2020
3116 Clouds 12 1023 71 10000 3.1 190 17:43 07.02.2020
3117 Clouds 13 1023 67 10000 3.6 200 17:22 07.02.2020
3118 Clouds 13 1023 67 10000 3.6 200 16:57 07.02.2020
3119 Clouds 13 1023 62 10000 4.1 210 16:39 07.02.2020
3120 Clouds 13 1023 62 10000 4.1 210 16:20 07.02.2020
3121 Clouds 13 1023 71 10000 3.1 190 15:48 07.02.2020
3122 Clouds 13 1024 71 10000 3.1 170 15:27 07.02.2020
3123 Clouds 13 1024 71 10000 2.6 160 14:46 07.02.2020
3124 Clouds 13 1024 71 10000 2.1 140 14:27 07.02.2020
3125 Clouds 13 1025 71 10000 2.1 170 13:59 07.02.2020
3126 Clouds 12 1025 71 10000 2.1 170 13:40 07.02.2020
3127 Clouds 12 1025 71 10000 2.6 190 13:21 07.02.2020
3128 Clouds 12 1025 62 10000 0.5 200 12:57 07.02.2020
3129 Clouds 12 1025 62 10000 0.5 200 12:39 07.02.2020
3130 Clouds 12 1026 71 10000 2.1 320 12:21 07.02.2020
3131 Clouds 11 1026 71 10000 2.6 320 11:42 07.02.2020
3132 Clouds 10 1026 76 10000 3.1 320 11:22 07.02.2020
3133 Clouds 9 1026 76 10000 3.6 320 10:42 07.02.2020
3134 Clouds 9 1026 81 10000 4.1 320 10:24 07.02.2020
3135 Clouds 9 1026 81 10000 4.1 320 10:24 07.02.2020
3136 Clouds 8 1026 81 10000 4.1 330 09:58 07.02.2020
3137 Clouds 8 1026 81 10000 4.1 330 09:39 07.02.2020
3138 Clouds 8 1025 87 10000 4.6 320 09:21 07.02.2020
3139 Clouds 7 1025 87 10000 4.6 330 08:43 07.02.2020
3140 Clouds 7 1025 93 10000 4.6 320 08:21 07.02.2020
3141 Clouds 7 1025 87 10000 4.1 330 07:49 07.02.2020
3142 Clouds 7 1025 93 10000 4.1 320 07:30 07.02.2020
3143 Clouds 6 1025 93 10000 3.6 320 06:47 07.02.2020
3144 Clouds 6 1025 87 10000 3.6 320 06:26 07.02.2020
3145 Clouds 6 1025 87 10000 3.6 320 05:57 07.02.2020
3146 Clouds 6 1025 87 10000 3.6 320 05:36 07.02.2020
3147 Clouds 7 1026 93 10000 2.6 320 03:33 07.02.2020
3148 Clouds 7 1026 87 10000 2.6 310 01:51 07.02.2020
3149 Clouds 7 1027 87 10000 1.5 330 00:51 07.02.2020
3150 Clouds 7 1027 87 10000 1 310 00:25 07.02.2020
3151 Clouds 7 1026 87 10000 2.1 310 23:38 06.02.2020
3152 Clouds 8 1027 87 10000 2.1 310 23:19 06.02.2020
3153 Clouds 8 1027 81 10000 2.1 310 22:46 06.02.2020
3154 Clouds 9 1027 81 10000 1.5 310 22:26 06.02.2020
3155 Clouds 8 1027 81 10000 2.1 250 21:57 06.02.2020
3156 Clouds 9 1026 76 10000 3.6 220 21:36 06.02.2020
3157 Clouds 9 1026 76 10000 3.6 220 21:18 06.02.2020
3158 Clouds 9 1026 71 10000 3.1 210 20:55 06.02.2020
3159 Clouds 10 1026 71 10000 3.1 210 20:36 06.02.2020
3160 Clouds 10 1026 71 10000 3.1 210 20:18 06.02.2020
3161 Clouds 10 1026 76 10000 4.1 220 19:55 06.02.2020
3162 Clouds 10 1026 76 10000 3.6 210 19:37 06.02.2020
3163 Clouds 11 1026 76 10000 3.6 210 19:18 06.02.2020
3164 Clouds 12 1026 81 10000 3.1 220 18:42 06.02.2020
3165 Clouds 12 1026 81 10000 3.1 220 18:24 06.02.2020
3166 Clouds 13 1026 76 10000 5.1 220 17:57 06.02.2020
3167 Clouds 13 1026 76 10000 5.1 220 17:57 06.02.2020
3168 Clouds 13 1026 76 10000 5.7 210 17:39 06.02.2020
3169 Clouds 14 1026 76 10000 5.7 210 17:20 06.02.2020
3170 Clouds 14 1026 71 10000 6.2 210 16:42 06.02.2020
3171 Clear 14 1026 67 10000 6.7 230 16:24 06.02.2020
3172 Clear 14 1026 67 10000 6.7 220 15:44 06.02.2020
3173 Clear 14 1026 67 10000 6.7 220 15:24 06.02.2020
3174 Clear 15 1026 67 10000 6.7 220 14:58 06.02.2020
3175 Clear 14 1026 67 10000 6.7 220 14:58 06.02.2020
3176 Clear 14 1027 67 10000 6.7 210 14:40 06.02.2020
3177 Clear 14 1027 67 10000 6.7 210 14:22 06.02.2020
3178 Clear 14 1027 62 10000 6.2 220 13:43 06.02.2020
3179 Clear 14 1028 62 10000 6.2 220 13:25 06.02.2020
3180 Clouds 14 1028 67 10000 4.6 190 12:45 06.02.2020
3181 Clouds 13 1028 66 10000 3.1 210 12:20 06.02.2020
3182 Clouds 13 1028 66 10000 1.5 310 11:59 06.02.2020
3183 Clouds 13 1028 66 10000 1.5 310 11:40 06.02.2020
3184 Clouds 11 1028 66 10000 3.6 320 11:21 06.02.2020
3185 Clouds 10 1028 66 10000 4.1 320 10:58 06.02.2020
3186 Clouds 9 1028 70 10000 4.6 320 10:40 06.02.2020
3187 Clouds 9 1028 70 10000 4.6 320 10:21 06.02.2020
3188 Clouds 9 1028 75 10000 5.7 310 09:57 06.02.2020
3189 Clouds 8 1028 80 10000 4.1 330 09:38 06.02.2020
3190 Clouds 7 1028 80 10000 4.1 330 09:19 06.02.2020
3191 Clouds 6 1028 80 10000 5.1 330 08:43 06.02.2020
3192 Clouds 5 1028 80 10000 5.1 320 08:23 06.02.2020
3193 Clear 5 1028 80 10000 5.1 330 07:54 06.02.2020
3194 Clear 5 1028 80 10000 5.1 330 07:29 06.02.2020
3195 Clear 5 1028 80 10000 4.1 330 06:47 06.02.2020
3196 Clear 5 1028 80 10000 3.6 330 06:18 06.02.2020
3197 Clear 6 1028 75 10000 4.1 320 05:24 06.02.2020
3198 Clear 6 1028 81 10000 4.6 330 03:47 06.02.2020
3199 Clear 6 1028 70 10000 4.1 320 02:58 06.02.2020
3200 Clear 7 1028 70 10000 4.1 320 01:45 06.02.2020
3201 Clear 7 1028 70 10000 3.6 330 01:24 06.02.2020
3202 Clear 7 1027 66 10000 4.6 330 00:28 06.02.2020
3203 Clear 8 1027 66 10000 3.6 330 23:56 05.02.2020
3204 Clear 8 1027 66 10000 3.6 330 23:38 05.02.2020
3205 Clear 8 1027 66 10000 4.1 330 23:19 05.02.2020
3206 Clear 8 1027 57 10000 2.1 290 22:41 05.02.2020
3207 Clear 8 1027 57 10000 2.1 290 22:41 05.02.2020
3208 Clear 9 1027 57 10000 2.1 290 22:23 05.02.2020
3209 Clear 9 1027 66 10000 2.6 310 21:57 05.02.2020
3210 Clear 9 1027 70 10000 2.1 290 21:39 05.02.2020
3211 Clear 9 1027 70 10000 2.1 290 21:39 05.02.2020
3212 Clear 9 1027 70 10000 2.1 290 21:20 05.02.2020
3213 Clear 10 1026 76 10000 3.6 250 20:39 05.02.2020
3214 Clear 10 1026 76 10000 3.6 250 20:39 05.02.2020
3215 Clear 10 1026 76 10000 3.6 250 20:21 05.02.2020
3216 Clear 10 1026 76 10000 3.6 240 19:59 05.02.2020
3217 Clear 11 1026 76 10000 5.1 240 19:40 05.02.2020
3218 Clear 11 1026 76 10000 5.1 240 19:19 05.02.2020
3219 Clear 12 1026 66 10000 3.6 230 18:57 05.02.2020
3220 Clear 12 1026 66 10000 4.6 220 18:39 05.02.2020
3221 Clear 13 1026 66 10000 4.6 220 18:19 05.02.2020
3222 Clear 13 1026 66 10000 4.6 220 18:19 05.02.2020
3223 Clear 14 1027 62 10000 5.1 230 17:40 05.02.2020
3224 Clear 14 1027 62 10000 5.1 230 17:20 05.02.2020
3225 Clear 14 1027 62 10000 5.1 210 16:58 05.02.2020
3226 Clear 15 1027 58 10000 5.1 210 16:40 05.02.2020
3227 Clear 15 1027 58 10000 5.1 210 16:40 05.02.2020
3228 Clear 14 1027 58 10000 5.1 210 16:22 05.02.2020
3229 Clear 15 1027 54 10000 5.1 200 15:47 05.02.2020
3230 Clear 15 1027 50 10000 4.6 200 15:20 05.02.2020
3231 Clear 15 1028 50 10000 4.1 210 14:59 05.02.2020
3232 Clear 15 1028 47 10000 3.1 200 14:41 05.02.2020
3233 Clear 15 1028 47 10000 3.1 200 14:22 05.02.2020
3234 Clear 14 1029 50 10000 4.1 210 13:44 05.02.2020
3235 Clouds 13 1029 58 10000 2.1 260 13:24 05.02.2020
3236 Clouds 13 1030 54 10000 2.1 330 12:59 05.02.2020
3237 Clouds 13 1030 54 10000 2.1 330 12:39 05.02.2020
3238 Clouds 12 1030 50 10000 4.1 340 12:21 05.02.2020
3239 Clouds 12 1030 54 10000 5.7 330 11:41 05.02.2020
3240 Clouds 10 1030 57 10000 5.1 330 11:23 05.02.2020
3241 Clouds 10 1030 61 10000 6.7 330 10:59 05.02.2020
3242 Clouds 10 1030 61 10000 6.7 330 10:39 05.02.2020
3243 Clouds 8 1030 66 10000 5.7 330 10:19 05.02.2020
3244 Clouds 8 1030 70 10000 6.2 320 09:43 05.02.2020
3245 Clouds 7 1030 70 10000 5.1 330 09:22 05.02.2020
3246 Clouds 6 1030 70 10000 5.7 330 08:57 05.02.2020
3247 Clouds 6 1029 70 10000 5.7 330 08:39 05.02.2020
3248 Clouds 6 1029 70 10000 5.7 330 08:21 05.02.2020
3249 Clouds 6 1029 65 10000 6.2 330 07:43 05.02.2020
3250 Clouds 6 1029 65 10000 6.2 330 07:19 05.02.2020
3251 Clouds 7 1029 65 10000 5.1 330 06:42 05.02.2020
3252 Clouds 7 1029 65 10000 4.6 340 06:21 05.02.2020
3253 Clouds 7 1029 65 10000 4.6 350 05:47 05.02.2020
3254 Clouds 7 1029 61 10000 4.6 340 05:18 05.02.2020
3255 Clouds 8 1028 61 10000 4.6 340 04:27 05.02.2020
3256 Clouds 9 1028 61 10000 4.1 330 02:59 05.02.2020
3257 Clouds 9 1028 62 10000 3.1 330 02:22 05.02.2020
3258 Clouds 10 1028 81 10000 3.6 300 01:34 05.02.2020
3259 Clouds 10 1027 87 10000 3.1 290 00:25 05.02.2020
3260 Clouds 11 1027 87 10000 2.6 290 23:42 04.02.2020
3261 Clouds 11 1026 87 10000 2.6 270 23:23 04.02.2020
3262 Clouds 12 1026 87 10000 0.5 0 22:58 04.02.2020
3263 Clouds 12 1026 87 10000 0.5 0 22:40 04.02.2020
3264 Clouds 12 1025 87 10000 1.5 300 22:21 04.02.2020
3265 Clouds 12 1025 93 10000 2.1 280 21:57 04.02.2020
3266 Clouds 12 1025 87 10000 3.1 270 21:38 04.02.2020
3267 Clouds 12 1025 87 10000 3.1 270 21:19 04.02.2020
3268 Clouds 12 1024 87 10000 1 0 20:55 04.02.2020
3269 Clouds 13 1024 93 10000 1 0 20:37 04.02.2020
3270 Clouds 13 1024 93 10000 1 0 20:18 04.02.2020
3271 Clouds 13 1023 87 10000 2.1 190 19:43 04.02.2020
3272 Clouds 14 1023 82 10000 1 0 19:25 04.02.2020
3273 Clouds 14 1022 82 10000 0.5 0 18:59 04.02.2020
3274 Clouds 14 1022 82 10000 0.5 0 18:40 04.02.2020
3275 Clouds 14 1022 82 10000 1.5 100 18:21 04.02.2020
3276 Clouds 14 1022 82 10000 3.6 100 17:58 04.02.2020
3277 Clouds 14 1021 82 10000 3.1 110 17:40 04.02.2020
3278 Clouds 16 1021 82 10000 3.1 110 17:19 04.02.2020
3279 Clouds 17 1020 77 10000 3.6 100 16:39 04.02.2020
3280 Clouds 17 1020 77 10000 3.6 100 16:20 04.02.2020
3281 Clouds 18 1020 77 10000 4.6 110 15:57 04.02.2020
3282 Clouds 19 1020 72 10000 5.1 110 15:39 04.02.2020
3283 Clouds 19 1020 72 10000 5.1 110 15:20 04.02.2020
3284 Clouds 19 1020 68 10000 5.1 100 14:55 04.02.2020
3285 Clear 19 1020 55 10000 5.7 70 14:37 04.02.2020
3286 Clouds 19 1020 55 10000 5.7 70 14:18 04.02.2020
3287 Clouds 19 1021 49 10000 4.1 10 13:41 04.02.2020
3288 Clouds 19 1021 49 10000 4.1 10 13:22 04.02.2020
3289 Clouds 19 1021 52 10000 3.6 10 12:57 04.02.2020
3290 Clouds 18 1021 52 10000 5.7 360 12:37 04.02.2020
3291 Clouds 18 1021 52 10000 5.7 360 12:19 04.02.2020
3292 Clouds 18 1021 55 10000 6.7 350 11:55 04.02.2020
3293 Clouds 17 1021 55 10000 6.7 350 11:36 04.02.2020
3294 Clouds 15 1021 59 10000 6.7 360 11:18 04.02.2020
3295 Clouds 15 1021 63 10000 5.1 350 10:44 04.02.2020
3296 Clouds 14 1021 71 10000 4.6 350 10:25 04.02.2020
3297 Clouds 13 1021 71 10000 4.1 330 09:56 04.02.2020
3298 Clouds 13 1021 67 10000 5.1 320 09:37 04.02.2020
3299 Clouds 13 1021 67 10000 5.1 320 09:19 04.02.2020
3300 Clouds 13 1021 71 10000 6.2 320 08:44 04.02.2020
3301 Clouds 12 1021 76 10000 6.7 310 08:26 04.02.2020
3302 Clouds 13 1020 63 10000 5.1 310 07:50 04.02.2020
3303 Clouds 12 1021 76 10000 4.1 280 07:24 04.02.2020
3304 Clouds 12 1021 76 10000 5.1 320 06:48 04.02.2020
3305 Clouds 12 1021 76 10000 2.6 300 06:30 04.02.2020
3306 Clouds 13 1022 76 10000 1.5 280 05:33 04.02.2020
3307 Clouds 13 1022 76 10000 3.6 300 04:27 04.02.2020
3308 Clouds 13 1022 76 10000 2.1 220 03:43 04.02.2020
3309 Clouds 13 1022 76 10000 2.1 220 03:25 04.02.2020
3310 Clouds 13 1023 71 10000 2.6 290 02:34 04.02.2020
3311 Clouds 13 1023 82 10000 1 0 01:57 04.02.2020
3312 Clouds 13 1024 82 10000 0.5 0 01:36 04.02.2020
3313 Clouds 13 1024 82 10000 0.5 270 00:52 04.02.2020
3314 Clouds 13 1024 82 10000 1.5 340 00:22 04.02.2020
3315 Clouds 13 1024 76 10000 0.5 130 23:45 03.02.2020
3316 Clouds 14 1025 82 10000 1.5 220 23:26 03.02.2020
3317 Clouds 14 1025 77 10000 2.6 210 22:54 03.02.2020
3318 Clouds 14 1025 72 10000 4.6 190 22:36 03.02.2020
3319 Clouds 14 1025 72 10000 4.6 190 22:18 03.02.2020
3320 Clouds 15 1025 72 10000 7.2 210 21:41 03.02.2020
3321 Clouds 15 1025 67 10000 7.2 220 21:19 03.02.2020
3322 Clouds 15 1025 67 10000 7.2 220 21:19 03.02.2020
3323 Clouds 15 1025 67 10000 9.3 230 20:42 03.02.2020
3324 Clear 16 1025 67 10000 9.3 230 20:20 03.02.2020
3325 Clear 16 1025 67 10000 8.2 240 19:59 03.02.2020
3326 Clear 16 1025 67 10000 1.5 230 19:41 03.02.2020
3327 Clear 16 1025 67 10000 1.5 230 19:22 03.02.2020
3328 Clear 16 1025 72 10000 4.6 210 18:57 03.02.2020
3329 Clear 18 1025 72 10000 2.6 220 18:38 03.02.2020
3330 Clear 18 1025 72 10000 2.6 220 18:20 03.02.2020
3331 Clear 18 1025 72 10000 2.6 220 18:20 03.02.2020
3332 Clear 18 1025 63 10000 2.6 210 17:56 03.02.2020
3333 Clear 18 1025 63 10000 3.1 220 17:38 03.02.2020
3334 Clouds 20 1025 63 10000 3.1 220 17:19 03.02.2020
3335 Clouds 21 1025 63 10000 3.1 230 16:40 03.02.2020
3336 Clouds 21 1025 63 10000 3.1 230 16:21 03.02.2020
3337 Clouds 21 1025 68 10000 2.6 210 15:56 03.02.2020
3338 Clouds 21 1025 68 10000 2.6 210 15:38 03.02.2020
3339 Clouds 21 1026 49 10000 1.5 160 15:19 03.02.2020
3340 Clouds 21 1026 68 10000 4.1 190 14:56 03.02.2020
3341 Clouds 21 1026 63 10000 2.1 220 14:37 03.02.2020
3342 Clouds 21 1026 63 10000 2.1 220 14:19 03.02.2020
3343 Clouds 20 1027 60 10000 3.6 310 13:41 03.02.2020
3344 Clouds 20 1027 60 10000 3.6 310 13:21 03.02.2020
3345 Clouds 20 1027 60 10000 4.6 310 12:57 03.02.2020
3346 Clouds 19 1028 63 10000 4.6 320 12:38 03.02.2020
3347 Clouds 18 1028 63 10000 4.6 320 12:20 03.02.2020
3348 Clouds 18 1028 67 10000 5.1 320 11:40 03.02.2020
3349 Clouds 16 1028 72 10000 6.2 320 11:20 03.02.2020
3350 Clouds 16 1027 72 10000 6.2 320 10:58 03.02.2020
3351 Clouds 15 1027 77 10000 7.2 310 10:40 03.02.2020
3352 Clouds 15 1027 77 10000 7.2 310 10:40 03.02.2020
3353 Clouds 14 1027 77 10000 7.2 310 10:21 03.02.2020
3354 Clouds 14 1027 82 10000 6.2 320 09:44 03.02.2020
3355 Clouds 14 1027 82 10000 6.7 320 09:21 03.02.2020
3356 Clouds 14 1027 87 10000 5.7 320 08:42 03.02.2020
3357 Clouds 13 1027 87 10000 5.7 320 08:23 03.02.2020
3358 Clouds 13 1026 87 10000 5.1 310 07:59 03.02.2020
3359 Clouds 13 1026 87 10000 5.1 310 07:40 03.02.2020
3360 Clouds 13 1026 93 10000 4.6 300 07:21 03.02.2020
3361 Clouds 13 1026 87 10000 4.1 310 06:49 03.02.2020
3362 Clouds 13 1026 82 10000 3.1 300 06:27 03.02.2020
3363 Clouds 13 1026 87 10000 2.1 300 05:37 03.02.2020
3364 Clouds 13 1026 87 10000 5.1 320 05:18 03.02.2020
3365 Clouds 14 1026 93 10000 2.6 250 03:19 03.02.2020
3366 Clouds 14 1026 87 10000 4.1 220 02:34 03.02.2020
3367 Clouds 14 1026 87 10000 2.6 210 01:42 03.02.2020
3368 Clouds 14 1026 87 10000 2.1 220 00:47 03.02.2020
3369 Clouds 14 1026 87 10000 2.1 220 00:24 03.02.2020
3370 Clouds 14 1026 82 10000 0.5 0 23:39 02.02.2020
3371 Clouds 14 1027 82 10000 2.1 250 23:21 02.02.2020
3372 Clouds 15 1026 82 10000 2.1 300 22:57 02.02.2020
3373 Clouds 15 1026 82 10000 2.1 300 22:57 02.02.2020
3374 Clouds 15 1026 82 10000 2.1 300 22:57 02.02.2020
3375 Clouds 14 1027 82 10000 2.1 250 22:38 02.02.2020
3376 Clouds 15 1027 82 10000 2.1 250 22:19 02.02.2020
3377 Clouds 14 1027 77 10000 2.6 240 21:55 02.02.2020
3378 Clouds 15 1027 77 10000 2.6 240 21:37 02.02.2020
3379 Clouds 15 1027 77 10000 3.1 250 21:19 02.02.2020
3380 Clouds 15 1027 77 10000 3.6 250 20:55 02.02.2020
3381 Clouds 15 1026 82 10000 5.7 240 20:37 02.02.2020
3382 Clouds 16 1026 82 10000 5.7 240 20:19 02.02.2020
3383 Clouds 16 1026 77 10000 5.1 240 19:55 02.02.2020
3384 Clouds 16 1026 72 10000 3.1 240 19:37 02.02.2020
3385 Clouds 16 1026 72 10000 3.1 240 19:18 02.02.2020
3386 Clouds 18 1025 63 10000 4.6 250 18:39 02.02.2020
3387 Clouds 18 1025 63 10000 4.6 250 18:21 02.02.2020
3388 Clouds 18 1025 63 10000 4.6 250 18:21 02.02.2020
3389 Clouds 18 1025 63 10000 5.1 250 17:58 02.02.2020
3390 Clouds 20 1025 63 10000 6.2 240 17:38 02.02.2020
3391 Clear 20 1025 63 10000 6.2 240 17:19 02.02.2020
3392 Clear 20 1025 60 10000 5.7 240 16:58 02.02.2020
3393 Clear 20 1025 60 10000 6.2 240 16:39 02.02.2020
3394 Clear 20 1025 60 10000 6.2 240 16:19 02.02.2020
3395 Clear 20 1025 56 10000 6.7 240 15:59 02.02.2020
3396 Clear 21 1025 60 10000 5.7 240 15:39 02.02.2020
3397 Clear 20 1025 60 10000 5.7 240 15:20 02.02.2020
3398 Clear 21 1025 68 10000 4.1 230 14:58 02.02.2020
3399 Clear 20 1025 68 10000 4.1 230 14:40 02.02.2020
3400 Clouds 19 1026 72 10000 4.6 230 14:18 02.02.2020
3401 Clouds 20 1026 68 10000 3.1 220 13:55 02.02.2020
3402 Clouds 19 1026 63 10000 2.6 270 13:37 02.02.2020
3403 Clouds 19 1026 63 10000 2.6 270 13:18 02.02.2020
3404 Clouds 18 1026 68 10000 1.5 270 12:44 02.02.2020
3405 Clouds 17 1026 68 10000 2.6 310 12:22 02.02.2020
3406 Clouds 17 1027 67 10000 3.6 290 11:58 02.02.2020
3407 Clouds 17 1027 67 10000 3.6 290 11:39 02.02.2020
3408 Clouds 15 1027 77 10000 3.6 300 11:19 02.02.2020
3409 Clouds 15 1027 76 10000 5.1 310 10:56 02.02.2020
3410 Clouds 14 1026 82 10000 4.6 320 10:36 02.02.2020
3411 Clouds 13 1026 82 10000 4.6 320 10:18 02.02.2020
3412 Clouds 13 1026 82 10000 4.6 320 10:18 02.02.2020
3413 Clouds 13 1026 87 10000 4.6 320 09:55 02.02.2020
3414 Clouds 12 1026 87 10000 3.6 300 09:36 02.02.2020
3415 Clouds 12 1026 87 10000 3.6 300 09:18 02.02.2020
3416 Clouds 11 1026 87 10000 2.6 300 08:41 02.02.2020
3417 Clouds 11 1025 93 10000 3.6 320 08:22 02.02.2020
3418 Clouds 10 1025 93 10000 3.6 320 07:46 02.02.2020
3419 Clouds 11 1025 93 10000 2.6 310 07:28 02.02.2020
3420 Clouds 10 1024 93 10000 3.6 320 06:43 02.02.2020
3421 Clouds 10 1024 93 10000 3.6 320 06:25 02.02.2020
3422 Clouds 10 1024 87 10000 3.6 310 05:47 02.02.2020
3423 Clouds 11 1024 87 10000 4.1 310 04:42 02.02.2020
3424 Clouds 11 1024 93 10000 4.1 330 03:25 02.02.2020
3425 Clouds 11 1025 87 10000 4.6 330 02:31 02.02.2020
3426 Clouds 12 1025 87 10000 3.1 310 01:54 02.02.2020
3427 Clouds 12 1025 87 10000 4.1 320 01:23 02.02.2020
3428 Clouds 12 1025 93 10000 4.1 320 00:44 02.02.2020
3429 Clouds 12 1025 93 10000 4.1 320 00:22 02.02.2020
3430 Clouds 12 1025 93 10000 2.6 320 23:47 01.02.2020
3431 Clouds 12 1025 93 10000 2.1 320 23:22 01.02.2020
3432 Clouds 12 1025 87 10000 1 0 22:54 01.02.2020
3433 Clouds 12 1025 87 10000 0.55 48 22:36 01.02.2020
3434 Clouds 12 1025 87 10000 0.55 48 22:18 01.02.2020
3435 Clouds 13 1024 87 10000 1.5 90 21:39 01.02.2020
3436 Clouds 13 1024 87 10000 1.5 90 21:18 01.02.2020
3437 Clouds 13 1024 87 10000 1.5 40 20:41 01.02.2020
3438 Clouds 13 1023 87 10000 1.5 80 20:20 01.02.2020
3439 Clouds 14 1023 87 10000 2.6 80 19:57 01.02.2020
3440 Clouds 14 1023 87 10000 2.6 80 19:39 01.02.2020
3441 Clouds 14 1023 87 10000 2.6 80 19:20 01.02.2020
3442 Clouds 14 1022 82 10000 2.1 80 18:58 01.02.2020
3443 Clouds 15 1022 82 10000 2.1 80 18:40 01.02.2020
3444 Clouds 16 1022 82 10000 3.6 80 18:21 01.02.2020
3445 Clouds 16 1022 72 10000 2.6 80 17:58 01.02.2020
3446 Clouds 16 1022 72 10000 2.6 80 17:39 01.02.2020
3447 Clear 17 1021 72 10000 2.1 140 17:19 01.02.2020
3448 Clear 18 1021 68 10000 2.6 240 16:43 01.02.2020
3449 Clear 19 1021 68 10000 2.6 200 16:25 01.02.2020
3450 Clear 19 1021 68 10000 3.6 200 15:59 01.02.2020
3451 Clear 19 1021 68 10000 3.6 200 15:40 01.02.2020
3452 Clear 19 1020 68 10000 2.1 320 15:22 01.02.2020
3453 Clear 19 1020 56 10000 3.6 320 14:54 01.02.2020
3454 Clouds 19 1020 63 10000 2.1 320 14:36 01.02.2020
3455 Clouds 18 1020 63 10000 2.1 320 14:18 01.02.2020
3456 Clouds 18 1021 63 10000 1.5 240 13:42 01.02.2020
3457 Clouds 18 1020 59 10000 1 0 13:18 01.02.2020
3458 Clouds 18 1020 59 10000 1 0 13:18 01.02.2020
3459 Clouds 17 1020 63 10000 1.5 310 12:43 01.02.2020
3460 Clouds 17 1020 67 10000 2.1 270 12:24 01.02.2020
3461 Clouds 16 1020 72 10000 2.1 310 11:55 01.02.2020
3462 Clouds 15 1020 72 10000 1.5 290 11:37 01.02.2020
3463 Clouds 13 1020 72 10000 1.5 290 11:18 01.02.2020
3464 Clouds 13 1020 76 10000 1.5 210 10:54 01.02.2020
3465 Clouds 13 1020 76 10000 1.5 210 10:36 01.02.2020
3466 Drizzle 12 1019 81 10000 1.5 300 10:18 01.02.2020
3467 Clouds 12 1019 87 10000 2.6 280 09:41 01.02.2020
3468 Clouds 12 1019 87 10000 2.6 280 09:22 01.02.2020
3469 Clouds 12 1018 87 10000 3.1 300 08:58 01.02.2020
3470 Clouds 11 1018 81 10000 2.6 300 08:27 01.02.2020
3471 Clouds 10 1018 87 10000 2.1 310 07:46 01.02.2020
3472 Clouds 10 1018 87 10000 1.5 310 07:24 01.02.2020
3473 Clouds 10 1019 87 10000 2.1 330 06:44 01.02.2020
3474 Clouds 10 1019 93 10000 1.5 310 05:54 01.02.2020
3475 Clouds 10 1019 87 10000 2.6 310 04:58 01.02.2020
3476 Clouds 10 1020 87 10000 1.5 290 03:26 01.02.2020
3477 Clouds 10 1020 87 10000 2.1 310 02:59 01.02.2020
3478 Clouds 11 1020 87 10000 2.1 310 02:40 01.02.2020
3479 Clouds 11 1020 81 10000 2.1 300 02:20 01.02.2020
3480 Clouds 10 1020 87 10000 1 0 01:47 01.02.2020
3481 Clouds 11 1020 87 10000 2.1 320 01:27 01.02.2020
3482 Clouds 11 1021 93 10000 2.1 290 00:24 01.02.2020
3483 Clouds 11 1021 93 10000 1 310 23:42 31.01.2020
3484 Clouds 11 1021 93 7000 1.5 280 23:19 31.01.2020
3485 Clouds 11 1021 93 7000 1.5 280 23:19 31.01.2020
3486 Clouds 12 1021 93 10000 1.5 270 22:58 31.01.2020
3487 Clouds 12 1021 93 10000 1.5 270 22:40 31.01.2020
3488 Clouds 12 1021 93 9000 1 0 22:21 31.01.2020
3489 Clouds 12 1021 93 10000 1.5 220 21:55 31.01.2020
3490 Clouds 12 1021 93 8000 2.6 240 21:37 31.01.2020
3491 Clouds 13 1021 93 8000 2.6 240 21:19 31.01.2020
3492 Clouds 13 1021 93 10000 1.5 260 20:55 31.01.2020
3493 Clouds 13 1021 93 10000 1.5 260 20:37 31.01.2020
3494 Clouds 13 1021 87 10000 3.1 240 20:18 31.01.2020
3495 Clouds 14 1020 87 10000 3.1 220 19:55 31.01.2020
3496 Clouds 14 1020 82 10000 3.6 220 19:36 31.01.2020
3497 Clouds 14 1020 82 10000 3.6 220 19:18 31.01.2020
3498 Clear 15 1020 87 10000 3.6 220 18:39 31.01.2020
3499 Clear 16 1020 87 10000 3.6 220 18:21 31.01.2020
3500 Clear 17 1020 77 10000 3.6 220 17:46 31.01.2020
3501 Clear 17 1020 77 10000 3.6 220 17:46 31.01.2020
3502 Clouds 18 1020 72 10000 4.6 220 17:28 31.01.2020
3503 Clouds 18 1020 67 10000 4.6 230 16:58 31.01.2020
3504 Clouds 18 1020 67 10000 4.6 230 16:39 31.01.2020
3505 Clouds 18 1020 67 10000 4.1 220 16:19 31.01.2020
3506 Clouds 18 1020 72 10000 4.6 220 15:58 31.01.2020
3507 Clouds 18 1020 72 10000 4.6 220 15:58 31.01.2020
3508 Clouds 18 1020 72 10000 4.6 220 15:40 31.01.2020
3509 Clouds 18 1020 67 10000 4.1 210 15:20 31.01.2020
3510 Clouds 18 1020 67 10000 4.1 210 14:44 31.01.2020
3511 Clouds 18 1020 67 10000 3.1 220 14:25 31.01.2020
3512 Clouds 18 1021 59 10000 2.6 250 13:57 31.01.2020
3513 Clouds 18 1021 63 10000 2.6 250 13:38 31.01.2020
3514 Clouds 18 1021 63 10000 2.6 250 13:20 31.01.2020
3515 Clouds 17 1022 67 10000 3.1 260 12:45 31.01.2020
3516 Clouds 17 1022 59 10000 3.1 320 12:24 31.01.2020
3517 Clouds 16 1022 63 10000 4.6 310 11:55 31.01.2020
3518 Clouds 16 1022 67 10000 3.6 320 11:37 31.01.2020
3519 Clouds 15 1022 67 10000 3.6 320 11:19 31.01.2020
3520 Clouds 13 1022 67 10000 3.6 310 10:44 31.01.2020
3521 Clouds 12 1022 71 10000 3.6 320 10:23 31.01.2020
3522 Clouds 12 1021 76 10000 3.1 330 09:59 31.01.2020
3523 Clouds 11 1021 81 10000 5.1 330 09:41 31.01.2020
3524 Clouds 11 1021 81 10000 5.1 330 09:21 31.01.2020
3525 Clouds 10 1021 76 10000 3.6 340 08:56 31.01.2020
3526 Clouds 10 1021 76 10000 5.1 340 08:38 31.01.2020
3527 Clouds 10 1021 76 10000 5.1 340 08:19 31.01.2020
3528 Clouds 10 1020 76 10000 5.1 340 07:46 31.01.2020
3529 Clouds 10 1020 76 10000 4.6 340 07:18 31.01.2020
3530 Clouds 10 1020 76 10000 4.6 340 06:31 31.01.2020
3531 Clouds 10 1020 81 10000 2.6 350 05:54 31.01.2020
3532 Clouds 10 1020 81 10000 2.6 350 05:54 31.01.2020
3533 Clouds 10 1019 81 10000 2.6 350 05:19 31.01.2020
3534 Clouds 10 1020 87 10000 5.1 320 03:52 31.01.2020
3535 Clouds 10 1020 81 10000 3.1 320 01:54 31.01.2020
3536 Clouds 10 1020 81 10000 0.5 0 01:29 31.01.2020
3537 Clouds 11 1020 87 10000 1 0 00:38 31.01.2020
3538 Clouds 11 1020 87 10000 1 0 00:20 31.01.2020
3539 Clouds 11 1020 81 10000 2.1 320 23:40 30.01.2020
3540 Clouds 11 1020 81 10000 2.1 320 23:40 30.01.2020
3541 Clouds 11 1020 81 10000 2.1 320 23:40 30.01.2020
3542 Clear 11 1020 81 10000 1.5 360 23:21 30.01.2020
3543 Clear 11 1020 71 10000 1.14 348 22:38 30.01.2020
3544 Clear 11 1020 71 10000 1.14 348 22:20 30.01.2020
3545 Clouds 11 1020 76 10000 2.1 280 21:58 30.01.2020
3546 Clouds 12 1020 76 10000 2.1 280 21:40 30.01.2020
3547 Clouds 12 1020 72 10000 2.1 360 21:18 30.01.2020
3548 Clouds 12 1019 76 10000 1.14 348 20:56 30.01.2020
3549 Clouds 12 1019 72 10000 2.1 360 20:38 30.01.2020
3550 Clouds 13 1019 72 10000 2.1 360 20:19 30.01.2020
3551 Clouds 13 1019 72 10000 0.5 360 19:44 30.01.2020
3552 Clouds 13 1019 72 10000 0.5 360 19:44 30.01.2020
3553 Clouds 14 1019 76 10000 1.5 360 19:19 30.01.2020
3554 Clouds 14 1019 72 10000 1 360 18:58 30.01.2020
3555 Clouds 15 1019 82 10000 1.31 299 18:37 30.01.2020
3556 Clouds 15 1019 82 10000 1.31 299 18:18 30.01.2020
3557 Clouds 15 1018 82 10000 2.1 360 17:41 30.01.2020
3558 Clouds 16 1018 72 10000 3.6 360 17:19 30.01.2020
3559 Clouds 16 1018 63 10000 2.1 360 16:59 30.01.2020
3560 Clouds 17 1018 63 10000 2.1 360 16:40 30.01.2020
3561 Clouds 17 1018 63 10000 3.1 360 16:21 30.01.2020
3562 Clouds 17 1018 72 10000 3.1 360 15:45 30.01.2020
3563 Clouds 18 1019 63 10000 3.6 360 15:21 30.01.2020
3564 Clouds 18 1019 67 10000 3.1 360 14:58 30.01.2020
3565 Clouds 18 1019 67 10000 2.1 360 14:40 30.01.2020
3566 Clouds 17 1019 67 10000 2.1 360 14:21 30.01.2020
3567 Clouds 17 1020 72 10000 2.1 350 13:42 30.01.2020
3568 Clouds 16 1020 77 10000 1 360 13:24 30.01.2020
3569 Clouds 16 1021 72 10000 1.5 360 12:57 30.01.2020
3570 Clouds 15 1021 72 10000 2.6 360 12:38 30.01.2020
3571 Clouds 15 1021 72 10000 2.6 360 12:19 30.01.2020
3572 Clouds 13 1021 81 10000 4.1 360 11:41 30.01.2020
3573 Clouds 13 1021 81 10000 4.1 360 11:41 30.01.2020
3574 Clouds 12 1021 81 10000 4.1 360 11:22 30.01.2020
3575 Clouds 12 1021 81 10000 4.6 360 10:59 30.01.2020
3576 Clouds 11 1021 81 10000 5.7 360 10:40 30.01.2020
3577 Clouds 11 1021 81 10000 5.7 360 10:20 30.01.2020
3578 Clouds 11 1021 81 10000 5.1 360 09:45 30.01.2020
3579 Clouds 10 1021 81 10000 5.1 360 09:26 30.01.2020
3580 Clouds 10 1020 87 10000 4.1 360 08:43 30.01.2020
3581 Clouds 9 1020 87 10000 4.6 360 08:22 30.01.2020
3582 Clouds 9 1020 87 10000 4.6 360 07:59 30.01.2020
3583 Clouds 9 1020 87 10000 4.6 360 07:41 30.01.2020
3584 Clouds 9 1020 87 10000 4.1 310 07:19 30.01.2020
3585 Clouds 8 1020 87 10000 4.1 310 06:45 30.01.2020
3586 Clouds 9 1020 93 10000 3.1 320 06:26 30.01.2020
3587 Clouds 8 1020 93 10000 3.1 320 06:26 30.01.2020
3588 Clouds 8 1020 93 10000 2.6 300 05:43 30.01.2020
3589 Clouds 9 1020 93 10000 2.1 340 05:19 30.01.2020
3590 Clouds 9 1020 93 9000 4.6 360 03:48 30.01.2020
3591 Clouds 9 1020 93 10000 3.1 360 03:26 30.01.2020
3592 Clouds 9 1021 93 10000 3.1 320 01:41 30.01.2020
3593 Clouds 9 1021 93 10000 2.6 330 00:38 30.01.2020
3594 Clouds 9 1022 93 10000 1 0 00:19 30.01.2020
3595 Clouds 10 1022 87 10000 2.1 340 23:45 29.01.2020
3596 Clouds 10 1022 93 10000 2.1 330 23:21 29.01.2020
3597 Clouds 10 1022 87 10000 0.5 300 22:56 29.01.2020
3598 Clouds 10 1022 93 10000 1 360 22:38 29.01.2020
3599 Clouds 10 1022 93 10000 1 360 22:19 29.01.2020
3600 Clouds 10 1022 93 10000 0.23 53 21:57 29.01.2020
3601 Clouds 10 1022 93 10000 0.23 53 21:38 29.01.2020
3602 Clouds 10 1022 93 10000 0.23 53 21:18 29.01.2020
3603 Clouds 11 1022 93 10000 0.23 53 20:57 29.01.2020
3604 Clouds 11 1022 93 10000 2.1 360 20:37 29.01.2020
3605 Clouds 11 1022 93 10000 2.1 360 20:19 29.01.2020
3606 Clouds 12 1021 87 10000 1 360 19:55 29.01.2020
3607 Clouds 12 1021 82 10000 1.5 360 19:36 29.01.2020
3608 Clouds 12 1021 82 10000 1.5 360 19:18 29.01.2020
3609 Clouds 13 1020 82 10000 1.5 360 18:42 29.01.2020
3610 Clouds 13 1020 82 10000 1.5 360 18:19 29.01.2020
3611 Clouds 14 1020 67 10000 1.5 170 17:55 29.01.2020
3612 Clouds 14 1020 67 10000 2.1 200 17:37 29.01.2020
3613 Clouds 15 1020 67 10000 2.1 200 17:19 29.01.2020
3614 Clouds 15 1020 67 10000 3.1 200 16:41 29.01.2020
3615 Clouds 15 1020 72 10000 2.1 170 16:22 29.01.2020
3616 Clouds 15 1020 72 10000 2.1 150 15:41 29.01.2020
3617 Clouds 15 1020 72 10000 2.1 150 15:41 29.01.2020
3618 Clouds 15 1020 72 10000 2.1 150 15:22 29.01.2020
3619 Clouds 15 1020 72 10000 2.1 150 14:59 29.01.2020
3620 Clouds 15 1020 72 10000 2.1 150 14:41 29.01.2020
3621 Clouds 14 1021 72 10000 1.5 120 14:20 29.01.2020
3622 Clouds 14 1021 71 10000 0.96 145 13:41 29.01.2020
3623 -273 0 0 0 0 0 13:23 29.01.2020
3624 Clouds 13 1022 71 10000 0.5 0 12:59 29.01.2020
3625 Clouds 13 1022 71 10000 0.5 0 12:39 29.01.2020
3626 Clouds 13 1022 71 10000 1.5 340 12:21 29.01.2020
3627 Clouds 12 1022 71 10000 1.5 330 11:58 29.01.2020
3628 Clouds 12 1022 71 10000 1.5 330 11:40 29.01.2020
3629 Clouds 11 1022 71 10000 2.6 330 11:20 29.01.2020
3630 Clouds 10 1022 76 10000 2.6 330 10:46 29.01.2020
3631 Clouds 9 1021 76 10000 3.1 330 10:22 29.01.2020
3632 Clouds 9 1021 87 10000 2.6 330 09:57 29.01.2020
3633 Clouds 9 1021 87 10000 2.6 330 09:39 29.01.2020
3634 Clouds 8 1021 87 10000 2.6 330 09:18 29.01.2020
3635 Clouds 8 1021 87 10000 2.6 340 08:42 29.01.2020
3636 Clouds 8 1021 87 10000 2.6 340 08:42 29.01.2020
3637 Clouds 8 1021 87 10000 1.5 330 08:22 29.01.2020
3638 Clouds 8 1020 87 10000 2.1 340 07:45 29.01.2020
3639 Clouds 8 1020 87 10000 2.1 330 07:26 29.01.2020
3640 Clouds 8 1020 81 10000 2.6 340 06:56 29.01.2020
3641 Clouds 8 1020 81 10000 2.6 340 06:56 29.01.2020
3642 Clouds 8 1020 81 10000 2.1 340 06:37 29.01.2020
3643 Clouds 8 1020 81 10000 2.1 340 06:19 29.01.2020
3644 Clouds 8 1019 87 10000 2.1 60 05:50 29.01.2020
3645 Clouds 8 1019 81 10000 2.1 320 05:31 29.01.2020
3646 Clouds 8 1019 76 10000 0.5 0 04:38 29.01.2020
3647 Clouds 9 1019 81 10000 1.5 330 03:59 29.01.2020
3648 Clouds 9 1019 81 10000 2.6 340 02:34 29.01.2020
3649 Clouds 10 1019 81 10000 1.08 348 01:18 29.01.2020
3650 Clouds 10 1019 81 10000 1.08 348 00:38 29.01.2020
3651 Clouds 10 1019 76 10000 2.1 340 00:20 29.01.2020
3652 Clouds 10 1019 71 10000 2.6 320 23:39 28.01.2020
3653 Clouds 10 1019 71 10000 2.6 320 23:19 28.01.2020
3654 Clouds 11 1019 66 10000 2.6 310 22:49 28.01.2020
3655 Clouds 11 1019 71 10000 2.6 320 22:27 28.01.2020
3656 Clouds 11 1019 76 10000 1.5 330 21:57 28.01.2020
3657 Clouds 11 1018 62 10000 1.59 318 21:38 28.01.2020
3658 Clouds 11 1018 62 10000 1.59 318 21:19 28.01.2020
3659 Clouds 11 1018 62 10000 1.59 318 21:19 28.01.2020
3660 Clouds 11 1018 82 10000 4.1 270 20:46 28.01.2020
3661 Clouds 12 1018 71 10000 3.1 290 20:26 28.01.2020
3662 Clouds 13 1018 67 10000 6.2 260 19:55 28.01.2020
3663 Clouds 13 1017 62 10000 7.2 270 19:37 28.01.2020
3664 Clouds 13 1017 62 10000 7.2 270 19:19 28.01.2020
3665 Clouds 14 1017 67 10000 6.7 260 18:42 28.01.2020
3666 Clouds 14 1017 67 10000 6.7 260 18:23 28.01.2020
3667 Clouds 15 1017 67 10000 6.2 260 17:59 28.01.2020
3668 Clouds 15 1017 67 10000 6.2 260 17:40 28.01.2020
3669 Clouds 15 1017 63 10000 6.7 250 17:21 28.01.2020
3670 Clouds 16 1017 67 10000 7.7 250 16:59 28.01.2020
3671 Clouds 16 1017 67 10000 7.7 250 16:41 28.01.2020
3672 Clouds 16 1017 59 10000 7.7 250 16:22 28.01.2020
3673 Clouds 16 1016 55 10000 8.7 260 15:55 28.01.2020
3674 Clouds 16 1016 59 10000 8.7 250 15:37 28.01.2020
3675 Clouds 16 1016 59 10000 8.7 250 15:18 28.01.2020
3676 Clouds 16 1017 63 10000 8.7 260 14:43 28.01.2020
3677 Clouds 16 1017 63 10000 7.7 260 14:19 28.01.2020
3678 Clouds 16 1017 59 10000 2.6 340 13:42 28.01.2020
3679 Clouds 15 1017 59 10000 2.6 340 13:24 28.01.2020
3680 Clouds 15 1018 59 10000 1.5 100 12:45 28.01.2020
3681 Clouds 15 1018 55 10000 2.1 80 12:25 28.01.2020
3682 Clouds 14 1018 59 10000 1 0 11:59 28.01.2020
3683 Clouds 14 1018 62 10000 1 0 11:41 28.01.2020
3684 Clouds 13 1018 62 10000 1 0 11:22 28.01.2020
3685 Clouds 13 1017 62 10000 5.1 240 10:55 28.01.2020
3686 Clouds 12 1017 62 10000 2.6 40 10:36 28.01.2020
3687 Clouds 12 1017 62 10000 2.6 40 10:18 28.01.2020
3688 Clouds 11 1017 66 10000 2.1 290 09:41 28.01.2020
3689 Clouds 10 1017 76 10000 5.1 260 09:20 28.01.2020
3690 Clouds 10 1017 71 10000 5.1 250 08:46 28.01.2020
3691 Clouds 10 1017 66 10000 6.2 260 08:26 28.01.2020
3692 Clouds 10 1017 71 10000 5.7 260 07:56 28.01.2020
3693 Clouds 10 1016 66 10000 6.7 260 07:34 28.01.2020
3694 Clouds 10 1017 66 10000 5.7 260 06:48 28.01.2020
3695 Clouds 10 1017 66 10000 7.7 270 06:25 28.01.2020
3696 Clouds 10 1016 66 10000 7.2 270 05:40 28.01.2020
3697 Clouds 10 1016 66 10000 2.1 280 05:21 28.01.2020
3698 Clouds 10 1017 66 10000 2.1 330 03:49 28.01.2020
3699 Clouds 10 1017 62 10000 1.5 80 02:46 28.01.2020
3700 Clouds 10 1017 58 10000 5.7 280 02:25 28.01.2020
3701 Clouds 9 1017 62 10000 3.39 264 01:55 28.01.2020
3702 Clouds 9 1018 66 10000 3.39 264 01:22 28.01.2020
3703 Clouds 9 1018 66 10000 3.1 300 00:45 28.01.2020
3704 Clouds 9 1018 62 10000 2.6 270 00:22 28.01.2020
3705 Clouds 9 1018 71 10000 1 240 23:44 27.01.2020
3706 Clouds 9 1018 71 10000 2.1 250 23:20 27.01.2020
3707 Clouds 10 1018 66 10000 1.5 260 22:45 27.01.2020
3708 Clouds 10 1018 66 10000 5.7 250 22:20 27.01.2020
3709 Clouds 10 1018 66 10000 5.7 250 22:20 27.01.2020
3710 Clouds 10 1018 66 10000 5.7 250 22:20 27.01.2020
3711 Clouds 9 1018 62 10000 1.5 210 21:58 27.01.2020
3712 Clouds 9 1018 62 10000 1.5 210 21:39 27.01.2020
3713 Clouds 10 1018 58 10000 4.6 190 21:19 27.01.2020
3714 Clouds 10 1018 58 10000 4.6 190 21:19 27.01.2020
3715 Clouds 10 1018 66 10000 2.1 210 20:57 27.01.2020
3716 Clouds 10 1018 62 10000 1 0 20:38 27.01.2020
3717 Clouds 10 1018 62 10000 1 0 20:20 27.01.2020
3718 Clouds 10 1018 62 10000 1.5 230 19:57 27.01.2020
3719 Clouds 10 1018 58 10000 2.6 270 19:38 27.01.2020
3720 Clouds 11 1018 58 10000 2.6 270 19:20 27.01.2020
3721 Clouds 11 1018 76 10000 6.7 230 18:40 27.01.2020
3722 Clouds 11 1018 76 10000 6.7 230 18:40 27.01.2020
3723 Clouds 11 1018 76 10000 6.7 230 18:21 27.01.2020
3724 Clouds 12 1018 76 10000 8.7 240 17:58 27.01.2020
3725 Clouds 12 1018 71 10000 7.2 240 17:39 27.01.2020
3726 Clouds 12 1018 71 10000 7.2 240 17:19 27.01.2020
3727 Clouds 13 1018 71 10000 7.2 240 16:56 27.01.2020
3728 Clouds 13 1018 71 10000 8.2 220 16:37 27.01.2020
3729 Clouds 13 1018 71 10000 8.2 220 16:19 27.01.2020
3730 Clouds 13 1018 67 10000 7.7 220 15:41 27.01.2020
3731 Clouds 13 1019 62 10000 7.7 230 15:20 27.01.2020
3732 Clouds 14 1019 62 10000 7.2 230 14:59 27.01.2020
3733 Clouds 14 1019 62 10000 7.2 230 14:40 27.01.2020
3734 Clouds 14 1020 58 10000 8.7 230 14:21 27.01.2020
3735 Clouds 14 1020 58 10000 9.8 240 13:46 27.01.2020
3736 Clouds 13 1020 58 10000 8.2 230 13:24 27.01.2020
3737 Clouds 13 1021 47 10000 7.2 250 12:58 27.01.2020
3738 Clouds 13 1021 44 10000 8.2 270 12:39 27.01.2020
3739 Clouds 13 1021 44 10000 8.2 270 12:21 27.01.2020
3740 Clouds 12 1022 50 10000 7.2 270 11:43 27.01.2020
3741 Clouds 12 1022 50 10000 7.2 270 11:43 27.01.2020
3742 Clouds 10 1022 54 10000 2.6 300 11:22 27.01.2020
3743 Clouds 10 1022 66 10000 2.1 280 10:56 27.01.2020
3744 Clouds 9 1022 66 10000 2.1 280 10:38 27.01.2020
3745 Clouds 9 1021 76 10000 2.1 310 10:20 27.01.2020
3746 Clouds 8 1021 81 10000 2.6 290 09:39 27.01.2020
3747 Clouds 7 1021 81 10000 2.6 290 09:19 27.01.2020
3748 Clouds 7 1021 87 10000 4.1 300 08:56 27.01.2020
3749 Clouds 7 1021 87 10000 4.1 300 08:38 27.01.2020
3750 Clouds 6 1021 87 10000 3.6 310 08:18 27.01.2020
3751 Clouds 6 1021 93 10000 1 0 07:46 27.01.2020
3752 Clouds 7 1021 87 10000 2.6 310 07:26 27.01.2020
3753 Clouds 6 1021 87 10000 3.6 300 06:38 27.01.2020
3754 Clouds 6 1022 87 10000 3.6 320 05:43 27.01.2020
3755 Clouds 7 1022 93 10000 1.96 309 04:37 27.01.2020
3756 Clouds 8 1022 87 10000 1.96 309 03:35 27.01.2020
3757 Clouds 8 1023 93 10000 1.73 299 01:55 27.01.2020
3758 Clouds 9 1023 87 10000 1.8 301 01:27 27.01.2020
3759 Clouds 9 1023 87 10000 1.8 301 00:41 27.01.2020
3760 Clouds 9 1023 87 10000 1.8 301 00:21 27.01.2020
3761 Clouds 10 1023 81 10000 1.8 301 23:43 26.01.2020
3762 Clouds 10 1023 81 10000 0.5 0 23:22 26.01.2020
3763 Clouds 10 1023 81 10000 1.01 320 22:59 26.01.2020
3764 Clouds 10 1023 76 10000 1.5 260 22:38 26.01.2020
3765 Clouds 10 1023 76 10000 1.5 260 22:20 26.01.2020
3766 Clouds 10 1023 81 10000 1 300 21:58 26.01.2020
3767 Clouds 10 1023 81 10000 1 300 21:58 26.01.2020
3768 Clouds 10 1022 81 10000 1.01 320 21:39 26.01.2020
3769 Clouds 11 1022 81 10000 1.01 320 21:21 26.01.2020
3770 Clouds 11 1022 81 10000 1.01 320 21:21 26.01.2020
3771 Clouds 11 1022 81 10000 2.1 40 20:58 26.01.2020
3772 Clouds 10 1022 81 10000 2.1 40 20:38 26.01.2020
3773 Clouds 11 1022 71 10000 2.6 320 20:38 26.01.2020
3774 Clouds 11 1022 71 10000 2.6 320 20:19 26.01.2020
3775 Clouds 11 1022 66 10000 2.6 320 19:58 26.01.2020
3776 Clouds 11 1022 66 10000 2.6 320 19:38 26.01.2020
3777 Clouds 11 1022 71 10000 2.6 350 19:20 26.01.2020
3778 Clouds 12 1021 82 10000 3.1 80 18:56 26.01.2020
3779 Clouds 12 1021 82 10000 3.6 60 18:38 26.01.2020
3780 Clouds 12 1021 82 10000 3.6 60 18:20 26.01.2020
3781 Clouds 12 1020 76 10000 3.6 50 17:55 26.01.2020
3782 Clouds 12 1020 76 10000 4.6 40 17:37 26.01.2020
3783 Clouds 12 1020 76 10000 4.6 40 17:18 26.01.2020
3784 Clouds 13 1020 76 10000 5.7 40 16:56 26.01.2020
3785 Clouds 13 1019 62 10000 4.1 330 16:38 26.01.2020
3786 Clouds 13 1019 62 10000 4.1 330 16:18 26.01.2020
3787 Clouds 13 1019 63 10000 2.1 270 15:43 26.01.2020
3788 Clear 13 1019 68 0 1.79 66 15:21 26.01.2020
3789 Clear 13 1019 79 0 2.68 64 14:57 26.01.2020
3790 Clear 14 1019 76 0 1.34 237 14:38 26.01.2020
3791 Clouds 13 1019 79 0 3.13 73 14:19 26.01.2020
3792 Clouds 14 1020 62 0 2.21 309 13:39 26.01.2020
3793 Clouds 13 1020 69 0 2.68 267 13:19 26.01.2020
3794 Clouds 14 1019 68 0 0.89 261 12:56 26.01.2020
3795 Clouds 14 1020 67 0 2.5 307 12:36 26.01.2020
3796 Clouds 13 1020 73 0 2.24 238 12:18 26.01.2020
3797 Clouds 12 1020 73 0 3.58 321 11:56 26.01.2020
3798 Clouds 12 1019 81 10000 4.1 320 11:36 26.01.2020
3799 Clouds 11 1019 81 10000 4.1 320 11:18 26.01.2020
3800 Clouds 10 1019 81 10000 4.1 320 10:55 26.01.2020
3801 Clouds 10 1019 81 10000 4.1 320 10:37 26.01.2020
3802 Clouds 9 1019 81 10000 4.1 320 10:18 26.01.2020
3803 Clouds 8 1019 87 10000 4.6 320 09:41 26.01.2020
3804 Clouds 8 1019 87 10000 5.1 320 09:23 26.01.2020
3805 Clouds 8 1018 87 10000 5.1 320 08:57 26.01.2020
3806 Clouds 8 1018 87 10000 5.1 320 08:57 26.01.2020
3807 Clouds 8 1018 87 10000 5.1 320 08:39 26.01.2020
3808 Clouds 7 1018 87 10000 4.6 330 08:20 26.01.2020
3809 Clouds 8 1018 87 10000 5.1 330 07:47 26.01.2020
3810 Clouds 8 1018 87 10000 5.1 340 07:25 26.01.2020
3811 Clouds 8 1017 87 10000 4.6 330 06:38 26.01.2020
3812 Clouds 8 1017 87 10000 4.6 330 06:18 26.01.2020
3813 Clouds 9 1017 87 10000 4.1 330 05:26 26.01.2020
3814 Clouds 9 1018 93 10000 4.6 330 03:23 26.01.2020
3815 Clouds 9 1018 93 10000 4.6 330 02:24 26.01.2020
3816 Clouds 9 1018 87 10000 3.1 320 01:40 26.01.2020
3817 Clouds 9 1018 87 9000 2.6 330 01:21 26.01.2020
3818 Clouds 10 1018 87 9000 2.6 330 00:41 26.01.2020
3819 Clouds 10 1018 87 9000 3.1 330 00:20 26.01.2020
3820 Clouds 10 1019 91 0 2.06 345 23:39 25.01.2020
3821 Clouds 10 1019 91 0 1.86 356 23:20 25.01.2020
3822 Clouds 10 1020 31 0 1.86 356 22:56 25.01.2020
3823 Clouds 10 1019 91 0 1.86 356 22:36 25.01.2020
3824 Clouds 11 1019 31 0 1.86 356 22:18 25.01.2020
3825 Clouds 11 1020 91 0 1.86 356 21:41 25.01.2020
3826 Clouds 10 1019 78 0 1.86 356 21:23 25.01.2020
3827 Clouds 10 1019 78 0 1.86 356 20:56 25.01.2020
3828 Clouds 10 1019 78 0 1.86 356 20:38 25.01.2020
3829 Clouds 11 1018 74 0 0.94 94 20:19 25.01.2020
3830 Clouds 12 1019 88 0 0.94 94 19:43 25.01.2020
3831 Clouds 11 1039 61 0 1.2 88 19:20 25.01.2020
3832 Clouds 11 1019 89 0 0.94 94 18:57 25.01.2020
3833 Clouds 12 1019 88 0 0.94 94 18:39 25.01.2020
3834 Clouds 12 1019 88 0 0.94 94 18:20 25.01.2020
3835 Clouds 12 1018 87 0 3.13 78 17:42 25.01.2020
3836 Clouds 12 1019 87 0 0.94 94 17:23 25.01.2020
3837 Clouds 12 1039 61 0 1.6 101 16:58 25.01.2020
3838 Rain 13 1039 61 0 1.44 103 16:40 25.01.2020
3839 Rain 13 1019 84 0 1.34 148 16:21 25.01.2020
3840 Rain 13 1019 82 0 1.44 103 15:55 25.01.2020
3841 Rain 13 1020 80 0 0.45 136 15:37 25.01.2020
3842 Rain 13 1019 81 0 2.24 74 15:18 25.01.2020
3843 Rain 13 1019 78 0 2.24 53 14:41 25.01.2020
3844 Clouds 13 1039 61 0 1.42 79 14:19 25.01.2020
3845 Clouds 12 1021 78 0 0.45 55 13:43 25.01.2020
3846 Clouds 12 1020 76 0 0.45 49 13:24 25.01.2020
3847 Clouds 11 1022 76 10000 3.1 330 12:46 25.01.2020
3848 Clouds 11 1022 76 10000 3.1 330 12:28 25.01.2020
3849 Clouds 11 1022 76 10000 3.1 330 11:54 25.01.2020
3850 Clouds 10 1022 81 10000 3.6 340 11:36 25.01.2020
3851 Clouds 10 1022 81 10000 3.6 340 11:18 25.01.2020
3852 Clouds 9 1021 81 10000 3.6 340 10:40 25.01.2020
3853 Clouds 9 1021 81 10000 3.6 340 10:21 25.01.2020
3854 Clouds 8 1021 81 10000 4.1 320 09:57 25.01.2020
3855 Clouds 8 1021 81 10000 4.1 320 09:37 25.01.2020
3856 Clouds 8 1021 87 10000 3.6 330 09:18 25.01.2020
3857 Clouds 8 1021 81 10000 4.1 330 08:42 25.01.2020
3858 Clouds 8 1021 81 10000 4.1 330 08:42 25.01.2020
3859 Clouds 8 1020 81 10000 4.1 330 07:53 25.01.2020
3860 Clouds 7 1020 81 10000 5.1 330 07:21 25.01.2020
3861 Clouds 8 1020 87 10000 3.6 340 06:31 25.01.2020
3862 Clouds 8 1020 87 10000 3.6 330 05:51 25.01.2020
3863 Clouds 8 1021 87 10000 4.1 330 05:32 25.01.2020
3864 Clouds 8 1021 93 10000 3.6 330 03:56 25.01.2020
3865 Clouds 8 1021 93 10000 3.1 330 03:37 25.01.2020
3866 Clouds 8 1021 93 10000 3.6 330 02:36 25.01.2020
3867 Clouds 8 1021 87 10000 3.1 330 01:56 25.01.2020
3868 Clouds 8 1022 87 10000 2.6 330 01:21 25.01.2020
3869 Clouds 8 1022 87 10000 2.6 330 00:37 25.01.2020
3870 Clouds 8 1022 87 10000 2.6 330 00:18 25.01.2020
3871 Clouds 8 1022 81 10000 1.5 320 23:41 24.01.2020
3872 Clouds 8 1022 81 10000 1.5 320 23:41 24.01.2020
3873 Clouds 8 1022 81 10000 1.5 320 23:41 24.01.2020
3874 Clouds 8 1022 81 10000 2.6 340 23:23 24.01.2020
3875 Clouds 8 1022 76 10000 3.1 320 22:46 24.01.2020
3876 Clouds 9 1022 76 10000 3.1 320 22:46 24.01.2020
3877 Clouds 8 1022 81 10000 3.1 320 22:28 24.01.2020
3878 Clouds 9 1022 76 10000 2.1 320 21:58 24.01.2020
3879 Clouds 9 1022 76 10000 2.1 320 21:40 24.01.2020
3880 Clouds 9 1021 81 10000 2.1 290 21:19 24.01.2020
3881 Clouds 9 1021 81 10000 2.6 250 20:43 24.01.2020
3882 Clear 10 1021 87 10000 2.6 280 20:22 24.01.2020
3883 Clear 10 1021 87 10000 3.6 240 19:58 24.01.2020
3884 Clear 10 1021 87 10000 3.6 240 19:40 24.01.2020
3885 Clear 11 1020 81 10000 2.1 260 19:22 24.01.2020
3886 Clear 11 1020 81 10000 2.1 260 19:22 24.01.2020
3887 Clear 11 1020 81 10000 4.1 230 18:56 24.01.2020
3888 Clear 11 1020 81 10000 5.1 240 18:37 24.01.2020
3889 Clear 12 1020 81 10000 5.1 240 18:19 24.01.2020
3890 Clear 13 1020 62 10000 1.5 260 17:42 24.01.2020
3891 Clear 14 1020 76 10000 5.7 230 17:21 24.01.2020
3892 Clear 14 1020 76 10000 5.7 230 17:21 24.01.2020
3893 Clear 14 1020 71 10000 6.7 230 16:55 24.01.2020
3894 Clear 14 1020 71 10000 5.7 230 16:36 24.01.2020
3895 Clear 15 1020 71 10000 5.7 230 16:18 24.01.2020
3896 Clear 15 1020 71 8000 4.6 240 15:40 24.01.2020
3897 Clear 15 1020 71 8000 4.6 240 15:20 24.01.2020
3898 Clear 15 1020 67 8000 3.6 240 14:42 24.01.2020
3899 Clear 14 1021 67 8000 3.1 220 14:23 24.01.2020
3900 Clear 14 1021 62 8000 1.5 260 13:58 24.01.2020
3901 Clear 14 1021 67 9000 1.5 290 13:40 24.01.2020
3902 Clear 13 1021 67 9000 1.5 290 13:21 24.01.2020
3903 Clear 13 1022 66 10000 2.6 300 12:42 24.01.2020
3904 Clear 13 1022 71 10000 3.1 320 12:20 24.01.2020
3905 Clear 12 1022 76 10000 4.6 310 11:44 24.01.2020
3906 Clear 10 1022 76 10000 4.6 310 11:19 24.01.2020
3907 Clear 9 1022 81 10000 5.1 320 10:56 24.01.2020
3908 Clear 8 1022 87 10000 5.7 320 10:38 24.01.2020
3909 Clear 8 1022 87 10000 5.7 320 10:18 24.01.2020
3910 Clear 7 1022 87 10000 5.7 330 09:41 24.01.2020
3911 Clear 7 1022 87 10000 5.7 320 09:23 24.01.2020
3912 Clear 6 1022 87 10000 5.1 320 08:41 24.01.2020
3913 Clear 6 1022 87 10000 5.1 320 08:20 24.01.2020
3914 Clear 6 1022 87 10000 4.6 320 07:58 24.01.2020
3915 Clear 6 1022 93 10000 6.2 320 07:37 24.01.2020
3916 Clear 6 1021 93 10000 6.7 330 06:53 24.01.2020
3917 Clear 6 1021 93 10000 5.7 320 06:33 24.01.2020
3918 Clouds 6 1021 87 10000 5.7 320 05:59 24.01.2020
3919 Clouds 6 1022 87 10000 5.1 320 05:18 24.01.2020
3920 Clouds 7 1023 87 10000 5.7 340 02:54 24.01.2020
3921 Clear 7 1023 87 10000 5.1 340 02:27 24.01.2020
3922 Clear 7 1023 87 10000 5.7 330 01:53 24.01.2020
3923 Clear 7 1023 87 10000 5.1 330 01:33 24.01.2020
3924 Clouds 8 1023 87 10000 5.1 330 00:31 24.01.2020
3925 Clouds 8 1023 87 10000 4.6 330 23:58 23.01.2020
3926 Clouds 8 1023 87 10000 4.6 330 23:40 23.01.2020
3927 Clouds 8 1023 87 10000 4.6 330 23:20 23.01.2020
3928 Clear 8 1023 87 10000 3.6 320 22:39 23.01.2020
3929 Clear 8 1023 87 10000 3.6 320 22:20 23.01.2020
3930 Clear 8 1023 87 10000 2.1 320 21:58 23.01.2020
3931 Clear 8 1023 87 10000 2.1 320 21:58 23.01.2020
3932 Clear 8 1023 87 10000 2.1 320 21:40 23.01.2020
3933 Clear 9 1023 87 10000 2.1 320 21:21 23.01.2020
3934 Clear 9 1023 87 10000 2.1 300 20:59 23.01.2020
3935 Clear 9 1023 87 10000 2.1 300 20:39 23.01.2020
3936 Clear 9 1023 87 10000 2.1 300 20:39 23.01.2020
3937 Clouds 9 1022 87 10000 1.25 139 20:21 23.01.2020
3938 Clouds 10 1022 87 10000 1.5 270 19:57 23.01.2020
3939 Clouds 10 1022 87 10000 1.5 270 19:38 23.01.2020
3940 Clouds 10 1022 87 10000 1.5 270 19:38 23.01.2020
3941 Clouds 10 1022 87 10000 1.5 250 19:20 23.01.2020
3942 Clouds 10 1022 81 10000 2.1 250 18:56 23.01.2020
3943 Clouds 11 1022 81 10000 2.1 250 18:56 23.01.2020
3944 Clouds 11 1022 76 10000 2.6 230 18:37 23.01.2020
3945 Clouds 11 1022 76 10000 2.6 230 18:19 23.01.2020
3946 Clouds 12 1021 81 10000 3.1 220 17:43 23.01.2020
3947 Clouds 13 1021 76 10000 3.1 210 17:21 23.01.2020
3948 Clouds 13 1021 67 10000 3.6 220 16:58 23.01.2020
3949 Clouds 13 1021 62 10000 4.6 220 16:38 23.01.2020
3950 Clouds 13 1021 62 10000 4.6 220 16:19 23.01.2020
3951 Clouds 14 1021 67 10000 4.6 210 15:57 23.01.2020
3952 Clouds 14 1021 67 10000 3.6 220 15:38 23.01.2020
3953 Clouds 14 1021 67 10000 3.6 220 15:38 23.01.2020
3954 Clouds 14 1021 67 10000 3.6 220 15:19 23.01.2020
3955 Clouds 14 1021 71 10000 3.6 220 14:57 23.01.2020
3956 Clouds 13 1021 71 10000 3.1 220 14:39 23.01.2020
3957 Clouds 13 1021 71 10000 3.1 220 14:21 23.01.2020
3958 Clouds 13 1021 82 10000 4.1 220 13:46 23.01.2020
3959 Clouds 13 1022 82 10000 4.6 220 13:21 23.01.2020
3960 Clouds 13 1022 76 10000 4.1 220 12:57 23.01.2020
3961 Clouds 13 1022 76 10000 4.1 220 12:57 23.01.2020
3962 Clouds 13 1022 87 10000 4.1 210 12:39 23.01.2020
3963 Clouds 13 1022 87 10000 4.1 210 12:20 23.01.2020
3964 Clouds 12 1021 82 10000 1 0 11:45 23.01.2020
3965 Clouds 11 1021 87 10000 2.1 290 11:25 23.01.2020
3966 Clouds 11 1021 100 7000 1 0 10:59 23.01.2020
3967 Clouds 11 1021 100 7000 1 0 10:41 23.01.2020
3968 Drizzle 11 1021 87 10000 3.1 220 10:19 23.01.2020
3969 Drizzle 11 1021 87 10000 3.1 220 10:19 23.01.2020
3970 Rain 10 1020 93 9000 2.6 230 09:41 23.01.2020
3971 Clouds 10 1020 87 10000 3.6 180 09:22 23.01.2020
3972 Clouds 10 1020 82 10000 2.1 140 08:57 23.01.2020
3973 Clouds 10 1019 93 10000 2.1 90 08:38 23.01.2020
3974 Clouds 10 1019 93 10000 2.1 90 08:19 23.01.2020
3975 Rain 10 1019 93 10000 1 90 07:42 23.01.2020
3976 Rain 10 1018 93 0 2.1 70 07:21 23.01.2020
3977 Rain 10 1018 93 0 2.1 70 07:21 23.01.2020
3978 Rain 11 1018 87 4000 2.1 150 06:44 23.01.2020
3979 Rain 11 1018 93 7000 1.5 130 06:19 23.01.2020
3980 Thunderstorm 13 1017 82 5000 6.2 130 04:25 23.01.2020
3981 Thunderstorm 13 1017 93 5000 10.8 80 03:48 23.01.2020
3982 Drizzle 13 1018 93 5000 8.7 70 01:58 23.01.2020
3983 Drizzle 13 1020 93 5000 8.7 70 00:47 23.01.2020
3984 Rain 13 1020 93 4000 9.8 80 00:26 23.01.2020
3985 Rain 13 1020 93 4000 9.8 80 23:47 22.01.2020
3986 Rain 13 1020 93 4000 8.7 70 23:28 22.01.2020
3987 Drizzle 13 1020 93 5000 9.3 80 22:55 22.01.2020
3988 Rain 13 1019 93 5000 8.7 70 22:37 22.01.2020
3989 Rain 13 1019 93 5000 8.7 70 22:19 22.01.2020
3990 Mist 13 1020 93 5000 9.8 70 21:38 22.01.2020
3991 Mist 13 1019 93 5000 10.3 70 21:20 22.01.2020
3992 Mist 13 1019 93 5000 10.3 80 20:56 22.01.2020
3993 Mist 13 1019 93 5000 10.3 80 20:36 22.01.2020
3994 Mist 13 1019 93 5000 10.3 80 20:36 22.01.2020
3995 Mist 13 1019 93 5000 10.3 80 20:18 22.01.2020
3996 Mist 13 1019 93 5000 9.8 80 19:55 22.01.2020
3997 Mist 13 1019 93 5000 9.3 80 19:36 22.01.2020
3998 Mist 13 1019 93 5000 9.3 80 19:18 22.01.2020
3999 Mist 13 1019 93 5000 9.8 80 18:55 22.01.2020
4000 Mist 13 1018 93 5000 9.3 80 18:36 22.01.2020
4001 Mist 13 1018 93 5000 9.3 80 18:18 22.01.2020
4002 Mist 13 1018 93 5000 9.3 80 18:18 22.01.2020
4003 Mist 13 1019 93 5000 10.3 70 17:40 22.01.2020
4004 Mist 13 1019 93 5000 10.3 70 17:21 22.01.2020
4005 Mist 13 1019 93 5000 9.8 80 16:58 22.01.2020
4006 Mist 13 1019 93 5000 9.8 80 16:39 22.01.2020
4007 Rain 13 1019 93 5000 10.3 80 16:20 22.01.2020
4008 Drizzle 13 1019 93 4000 8.7 80 15:55 22.01.2020
4009 Rain 13 1019 93 5000 8.2 70 15:37 22.01.2020
4010 Rain 13 1019 93 5000 8.2 70 15:18 22.01.2020
4011 Mist 13 1020 87 5000 7.7 80 14:39 22.01.2020
4012 Mist 13 1020 87 5000 7.7 80 14:20 22.01.2020
4013 Mist 13 1020 87 5000 7.7 80 14:20 22.01.2020
4014 Mist 13 1020 93 4000 7.7 80 13:58 22.01.2020
4015 Mist 13 1021 93 4000 6.7 80 13:37 22.01.2020
4016 Mist 13 1021 93 4000 6.7 80 13:19 22.01.2020
4017 Mist 13 1021 93 4000 8.2 80 12:57 22.01.2020
4018 Rain 13 1022 93 4000 5.7 90 12:39 22.01.2020
4019 Rain 13 1022 93 4000 5.7 90 12:19 22.01.2020
4020 Rain 13 1022 93 4000 7.2 90 11:57 22.01.2020
4021 Rain 13 1022 93 4000 7.2 90 11:39 22.01.2020
4022 Rain 12 1022 93 4000 6.7 100 11:19 22.01.2020
4023 Rain 12 1022 93 4000 6.7 100 11:19 22.01.2020
4024 Rain 12 1022 87 7000 3.6 360 10:54 22.01.2020
4025 Clouds 11 1021 87 10000 4.1 330 10:36 22.01.2020
4026 Clouds 11 1021 87 10000 4.1 330 10:18 22.01.2020
4027 Rain 10 1022 93 7000 0.5 190 09:41 22.01.2020
4028 Clouds 10 1021 81 10000 5.1 330 09:23 22.01.2020
4029 Clouds 10 1021 81 10000 5.7 330 08:56 22.01.2020
4030 Clouds 10 1021 81 10000 5.7 330 08:37 22.01.2020
4031 Clouds 10 1021 81 10000 4.6 340 08:19 22.01.2020
4032 Clouds 10 1021 81 10000 4.6 340 08:19 22.01.2020
4033 Clouds 10 1021 81 10000 3.6 340 07:44 22.01.2020
4034 Clouds 9 1021 87 10000 3.1 340 07:26 22.01.2020
4035 Rain 10 1021 87 10000 3.6 350 06:37 22.01.2020
4036 Rain 9 1021 87 10000 4.6 360 06:18 22.01.2020
4037 Rain 10 1021 87 10000 4.1 10 04:27 22.01.2020
4038 Rain 10 1021 87 10000 4.1 360 03:29 22.01.2020
4039 Rain 10 1021 93 10000 6.2 20 02:49 22.01.2020
4040 Rain 10 1023 93 8000 5.1 40 01:30 22.01.2020
4041 Thunderstorm 10 1023 93 2000 8.7 60 00:40 22.01.2020
4042 Rain 10 1022 87 8000 5.1 10 00:19 22.01.2020
4043 Thunderstorm 10 1021 81 9000 7.2 50 23:37 21.01.2020
4044 Thunderstorm 10 1021 81 9000 7.2 50 23:37 21.01.2020
4045 Thunderstorm 10 1022 81 3500 13.4 80 23:19 21.01.2020
4046 Thunderstorm 11 1022 100 2500 12.9 70 22:42 21.01.2020
4047 Thunderstorm 11 1022 100 1900 18 80 22:24 21.01.2020
4048 Thunderstorm 11 1021 100 1500 18 60 21:59 21.01.2020
4049 Thunderstorm 11 1021 100 1500 18 60 21:59 21.01.2020
4050 Thunderstorm 11 1021 100 1500 18 60 21:40 21.01.2020
4051 Rain 11 1021 100 1500 19 60 21:21 21.01.2020
4052 Rain 11 1021 100 1500 18.5 60 20:59 21.01.2020
4053 Rain 11 1021 100 2300 18.5 60 20:39 21.01.2020
4054 Rain 11 1021 100 2300 18.5 60 20:20 21.01.2020
4055 Rain 11 1021 87 4000 19.5 60 19:58 21.01.2020
4056 Rain 11 1021 87 4000 19.5 60 19:58 21.01.2020
4057 Rain 11 1021 93 2000 18 60 19:40 21.01.2020
4058 Rain 11 1021 93 2000 18 60 19:21 21.01.2020
4059 Rain 11 1021 100 3500 18 60 18:57 21.01.2020
4060 Rain 11 1022 100 2500 20.1 60 18:39 21.01.2020
4061 Rain 11 1022 100 2500 20.1 60 18:21 21.01.2020
4062 Rain 11 1022 87 2500 17 60 17:57 21.01.2020
4063 Rain 11 1022 100 1300 19 60 17:38 21.01.2020
4064 Rain 11 1022 100 1300 19 60 17:18 21.01.2020
4065 Rain 11 1022 93 1500 18 60 16:38 21.01.2020
4066 Rain 11 1022 87 2300 18.5 60 16:19 21.01.2020
4067 Rain 11 1022 87 2500 19 60 15:59 21.01.2020
4068 Rain 11 1022 87 2500 18 60 15:39 21.01.2020
4069 Rain 11 1022 87 2500 18 60 15:19 21.01.2020
4070 Rain 11 1023 87 4500 17.5 60 14:40 21.01.2020
4071 Rain 11 1023 87 4500 17.5 60 14:22 21.01.2020
4072 Rain 11 1023 87 3700 17.5 60 13:55 21.01.2020
4073 Rain 11 1023 87 3700 17.5 60 13:37 21.01.2020
4074 Rain 11 1023 87 4000 18.5 60 13:18 21.01.2020
4075 Rain 11 1023 93 2300 15.9 70 12:42 21.01.2020
4076 Rain 11 1024 93 2000 16.5 60 12:24 21.01.2020
4077 Rain 10 1024 93 2000 18 60 11:56 21.01.2020
4078 Rain 10 1024 93 2000 18 60 11:38 21.01.2020
4079 Rain 10 1024 100 1500 18 60 11:19 21.01.2020
4080 Rain 10 1023 100 1500 17 60 10:43 21.01.2020
4081 Rain 10 1023 100 1500 18 60 10:23 21.01.2020
4082 Rain 10 1023 100 1500 18.5 60 09:56 21.01.2020
4083 Rain 9 1023 100 2000 19 60 09:38 21.01.2020
4084 Rain 9 1023 100 2000 19 60 09:19 21.01.2020
4085 Rain 9 1023 100 3000 15.4 50 08:41 21.01.2020
4086 Rain 9 1023 100 3000 15.4 50 08:22 21.01.2020
4087 Rain 9 1023 100 4000 17 50 07:43 21.01.2020
4088 Rain 8 1023 100 4000 15.9 50 07:24 21.01.2020
4089 Rain 8 1023 100 4000 13.9 50 06:57 21.01.2020
4090 Rain 8 1023 100 6000 13.9 40 06:38 21.01.2020
4091 Rain 8 1023 93 5000 17.5 50 05:55 21.01.2020
4092 Drizzle 8 1024 87 8000 14.4 50 05:32 21.01.2020
4093 Rain 7 1024 93 6000 11.8 40 04:38 21.01.2020
4094 Rain 7 1025 87 10000 13.4 40 02:27 21.01.2020
4095 Rain 7 1025 87 8000 11.8 40 01:36 21.01.2020
4096 Rain 8 1026 81 9000 13.4 40 00:51 21.01.2020
4097 Rain 8 1026 87 9000 14.4 40 00:28 21.01.2020
4098 Rain 8 1026 76 9000 13.9 40 23:56 20.01.2020
4099 Rain 8 1026 76 10000 13.9 40 23:36 20.01.2020
4100 Rain 8 1026 76 10000 13.9 40 23:18 20.01.2020
4101 Rain 8 1026 87 10000 13.4 40 22:54 20.01.2020
4102 Rain 8 1026 81 8000 15.4 40 22:36 20.01.2020
4103 Rain 8 1026 81 8000 15.4 40 22:18 20.01.2020
4104 Rain 8 1027 87 7000 14.9 40 21:54 20.01.2020
4105 Rain 8 1026 76 8000 15.4 50 21:36 20.01.2020
4106 Rain 8 1026 76 8000 15.4 50 21:18 20.01.2020
4107 Rain 8 1026 81 8000 16.5 50 20:42 20.01.2020
4108 Rain 7 1026 81 8000 16.5 50 20:20 20.01.2020
4109 Rain 8 1026 81 8000 16.5 50 19:59 20.01.2020
4110 Rain 8 1026 81 8000 16.5 50 19:40 20.01.2020
4111 Rain 8 1026 81 8000 16.5 50 19:19 20.01.2020
4112 Rain 8 1026 75 8000 15.4 50 18:56 20.01.2020
4113 Rain 8 1026 75 8000 15.4 50 18:38 20.01.2020
4114 Rain 8 1026 75 10000 15.4 40 18:19 20.01.2020
4115 Rain 8 1026 75 10000 15.4 40 18:19 20.01.2020
4116 Rain 8 1025 70 10000 17 50 17:39 20.01.2020
4117 Rain 8 1025 70 10000 17 50 17:19 20.01.2020
4118 Clouds 8 1025 66 10000 17 50 16:47 20.01.2020
4119 Clouds 8 1025 66 10000 17 50 16:26 20.01.2020
4120 Clouds 9 1025 57 10000 18.5 50 15:59 20.01.2020
4121 Clouds 9 1025 57 10000 18.5 50 15:41 20.01.2020
4122 Clouds 9 1025 57 10000 18.5 50 15:22 20.01.2020
4123 Clouds 9 1025 57 10000 16.5 50 14:59 20.01.2020
4124 Clouds 9 1025 61 10000 17.5 50 14:40 20.01.2020
4125 Clouds 9 1025 61 10000 17.5 50 14:21 20.01.2020
4126 Clouds 9 1025 57 10000 17.5 50 13:57 20.01.2020
4127 Clouds 9 1025 57 10000 16.5 50 13:38 20.01.2020
4128 Clouds 9 1025 57 10000 16.5 50 13:20 20.01.2020
4129 Clouds 9 1025 57 10000 16.5 50 12:42 20.01.2020
4130 Clouds 9 1026 50 10000 16.5 50 12:23 20.01.2020
4131 Clouds 9 1026 53 10000 15.9 50 11:56 20.01.2020
4132 Clouds 9 1025 53 10000 16.5 50 11:37 20.01.2020
4133 Clouds 9 1025 53 10000 16.5 50 11:18 20.01.2020
4134 Clouds 9 1025 62 10000 15.4 50 10:46 20.01.2020
4135 Clouds 9 1025 62 10000 15.4 50 10:21 20.01.2020
4136 Clouds 9 1024 46 10000 13.9 40 09:42 20.01.2020
4137 Clouds 9 1024 46 10000 13.9 40 09:24 20.01.2020
4138 Clouds 9 1024 46 10000 10.8 40 08:56 20.01.2020
4139 Clouds 9 1023 43 10000 13.9 40 08:35 20.01.2020
4140 Clouds 9 1023 43 10000 14.9 40 07:59 20.01.2020
4141 Clouds 9 1023 43 10000 14.9 40 07:41 20.01.2020
4142 Clouds 9 1023 39 10000 11.8 40 07:21 20.01.2020
4143 Clouds 9 1022 34 10000 11.8 40 06:44 20.01.2020
4144 Clouds 9 1022 34 10000 11.8 40 06:22 20.01.2020
4145 Clouds 10 1022 32 10000 12.3 40 05:38 20.01.2020
4146 Clouds 10 1023 32 10000 12.3 40 05:19 20.01.2020
4147 Clouds 10 1023 32 10000 11.8 40 04:24 20.01.2020
4148 Clouds 10 1023 29 10000 10.8 40 01:59 20.01.2020
4149 Clouds 10 1023 29 10000 10.8 40 01:40 20.01.2020
4150 Clouds 10 1023 27 10000 10.8 40 01:20 20.01.2020
4151 Clouds 10 1023 25 10000 10.3 30 00:43 20.01.2020
4152 Clouds 10 1023 23 10000 11.3 30 00:21 20.01.2020
4153 Clouds 10 1023 31 10000 2.1 30 23:38 19.01.2020
4154 Clouds 10 1023 31 10000 2.1 30 23:19 19.01.2020
4155 Clouds 10 1023 23 10000 12.3 40 22:56 19.01.2020
4156 Clouds 10 1022 25 10000 12.9 40 22:37 19.01.2020
4157 Clouds 10 1022 25 10000 12.9 40 22:19 19.01.2020
4158 Clouds 10 1022 27 10000 10.8 40 21:56 19.01.2020
4159 Clouds 10 1022 27 10000 10.8 40 21:38 19.01.2020
4160 Clouds 10 1022 27 10000 10.8 40 21:19 19.01.2020
4161 Clouds 10 1022 27 10000 11.8 40 20:57 19.01.2020
4162 Clouds 10 1022 25 10000 12.3 40 20:38 19.01.2020
4163 Clouds 10 1022 25 10000 12.3 40 20:20 19.01.2020
4164 Clouds 10 1022 25 10000 10.8 40 19:55 19.01.2020
4165 Clouds 10 1021 23 10000 13.4 40 19:37 19.01.2020
4166 Clouds 10 1022 25 10000 10.8 40 19:37 19.01.2020
4167 Clouds 10 1021 23 10000 13.4 40 19:19 19.01.2020
4168 Clouds 10 1021 23 10000 13.4 40 19:19 19.01.2020
4169 Clouds 10 1021 23 10000 11.8 40 18:55 19.01.2020
4170 Clouds 10 1021 23 10000 13.9 40 18:37 19.01.2020
4171 Clouds 10 1021 23 10000 13.9 40 18:37 19.01.2020
4172 Clouds 10 1021 23 10000 13.9 40 18:19 19.01.2020
4173 Clouds 10 1021 23 10000 15.9 40 17:57 19.01.2020
4174 Clouds 10 1021 23 10000 13.9 50 17:39 19.01.2020
4175 Clouds 11 1021 23 10000 13.9 50 17:20 19.01.2020
4176 Clouds 11 1020 27 10000 12.9 60 16:57 19.01.2020
4177 Clouds 11 1020 27 10000 10.8 50 16:38 19.01.2020
4178 Clouds 11 1020 27 10000 10.8 50 16:19 19.01.2020
4179 Clouds 11 1020 27 10000 11.3 50 15:57 19.01.2020
4180 Clouds 11 1020 32 10000 11.3 50 15:37 19.01.2020
4181 Clouds 11 1020 32 10000 11.3 50 15:19 19.01.2020
4182 Clouds 11 1020 34 10000 12.3 50 14:57 19.01.2020
4183 Clouds 11 1020 34 10000 12.9 50 14:38 19.01.2020
4184 Clouds 11 1020 34 10000 12.9 50 14:18 19.01.2020
4185 Clouds 11 1020 34 10000 12.9 60 13:55 19.01.2020
4186 Clouds 11 1020 34 10000 11.8 60 13:37 19.01.2020
4187 Clouds 11 1020 34 10000 11.8 60 13:18 19.01.2020
4188 Clouds 11 1020 37 10000 12.3 60 12:42 19.01.2020
4189 Clouds 10 1020 37 10000 13.4 50 12:23 19.01.2020
4190 Clouds 10 1020 43 10000 13.4 60 11:58 19.01.2020
4191 Clouds 10 1020 43 10000 13.4 60 11:39 19.01.2020
4192 Clouds 9 1020 52 10000 11.8 60 11:20 19.01.2020
4193 Clouds 9 1020 53 10000 10.3 60 10:55 19.01.2020
4194 Clouds 9 1019 57 10000 11.8 60 10:37 19.01.2020
4195 Clouds 8 1019 57 10000 11.8 60 10:18 19.01.2020
4196 Clouds 8 1019 57 10000 11.8 60 10:18 19.01.2020
4197 Clouds 8 1019 66 10000 8.7 60 09:44 19.01.2020
4198 Rain 8 1019 70 10000 8.7 60 09:25 19.01.2020
4199 Rain 8 1019 70 10000 8.7 60 08:58 19.01.2020
4200 Rain 8 1019 70 10000 8.7 60 08:39 19.01.2020
4201 Rain 8 1019 76 10000 9.8 50 08:20 19.01.2020
4202 Clouds 8 1018 76 10000 9.8 60 07:42 19.01.2020
4203 Rain 8 1018 81 10000 9.3 60 07:21 19.01.2020
4204 Drizzle 8 1018 87 10000 9.8 60 06:50 19.01.2020
4205 Rain 8 1019 93 8000 7.7 50 05:41 19.01.2020
4206 Clouds 9 1019 81 10000 4.1 40 02:44 19.01.2020
4207 Clouds 9 1019 81 10000 3.6 30 02:21 19.01.2020
4208 Clouds 9 1020 81 10000 2.1 360 01:25 19.01.2020
4209 Clouds 9 1020 81 10000 2.6 350 00:46 19.01.2020
4210 Clouds 10 1020 81 10000 2.1 350 00:28 19.01.2020
4211 Clouds 9 1021 76 10000 1.5 320 23:56 18.01.2020
4212 Clouds 10 1021 76 10000 1.5 320 23:38 18.01.2020
4213 Clouds 9 1021 81 10000 0.5 0 23:19 18.01.2020
4214 Clouds 10 1021 81 10000 1.5 350 22:55 18.01.2020
4215 Clouds 9 1021 76 10000 0.97 342 22:37 18.01.2020
4216 Clouds 9 1021 76 10000 0.97 342 22:37 18.01.2020
4217 Clouds 9 1021 76 10000 0.97 342 22:19 18.01.2020
4218 Clouds 9 1022 76 10000 1 0 21:57 18.01.2020
4219 Clouds 9 1022 76 10000 0.97 342 21:37 18.01.2020
4220 Clouds 9 1022 76 10000 0.97 342 21:19 18.01.2020
4221 Clouds 10 1022 71 10000 2.6 230 20:43 18.01.2020
4222 Clouds 10 1022 71 10000 2.6 230 20:21 18.01.2020
4223 Clouds 10 1022 76 10000 1.5 230 19:58 18.01.2020
4224 Clouds 10 1022 76 10000 1.5 230 19:40 18.01.2020
4225 Clouds 10 1022 76 10000 4.1 260 19:22 18.01.2020
4226 Clouds 10 1022 66 10000 4.6 240 18:42 18.01.2020
4227 Clouds 11 1023 66 10000 5.1 230 18:22 18.01.2020
4228 Clouds 12 1023 71 10000 5.7 230 17:55 18.01.2020
4229 Clouds 12 1023 71 10000 5.7 230 17:37 18.01.2020
4230 Clouds 12 1023 66 10000 6.7 230 17:19 18.01.2020
4231 Clear 13 1023 62 10000 7.2 220 16:55 18.01.2020
4232 Clear 13 1024 58 10000 6.7 230 16:36 18.01.2020
4233 Clear 13 1024 58 10000 6.7 230 16:18 18.01.2020
4234 Clear 14 1024 58 10000 7.7 230 15:41 18.01.2020
4235 Clear 14 1025 54 10000 6.7 230 15:23 18.01.2020
4236 Clear 14 1025 50 10000 4.6 210 14:55 18.01.2020
4237 Clear 13 1026 47 10000 3.6 210 14:37 18.01.2020
4238 Clouds 13 1026 47 10000 3.6 210 14:18 18.01.2020
4239 Clouds 13 1027 37 10000 1 0 13:43 18.01.2020
4240 Clouds 13 1027 47 10000 0.5 310 13:24 18.01.2020
4241 Clouds 12 1028 50 10000 2.1 320 12:57 18.01.2020
4242 Clouds 12 1028 50 10000 2.1 320 12:38 18.01.2020
4243 Clouds 11 1029 53 10000 3.6 330 12:19 18.01.2020
4244 Clouds 10 1030 61 10000 4.1 330 11:44 18.01.2020
4245 Clouds 10 1030 61 10000 4.1 330 11:21 18.01.2020
4246 Clouds 9 1030 61 10000 5.1 320 10:56 18.01.2020
4247 Clouds 8 1030 61 10000 4.1 320 10:38 18.01.2020
4248 Clouds 7 1030 61 10000 4.1 320 10:19 18.01.2020
4249 Clouds 7 1030 61 10000 6.7 330 09:42 18.01.2020
4250 Clouds 7 1030 61 10000 6.7 330 09:24 18.01.2020
4251 Clouds 7 1030 61 10000 5.7 330 08:55 18.01.2020
4252 Clouds 7 1029 61 10000 6.7 340 08:37 18.01.2020
4253 Clouds 6 1029 61 10000 6.7 340 08:18 18.01.2020
4254 Clouds 7 1029 61 10000 6.7 340 08:18 18.01.2020
4255 Clouds 7 1029 61 10000 6.7 320 07:43 18.01.2020
4256 Clouds 6 1030 65 10000 7.7 320 07:25 18.01.2020
4257 Clouds 7 1029 61 10000 6.7 330 06:46 18.01.2020
4258 Clouds 7 1029 65 10000 5.7 320 05:58 18.01.2020
4259 Clouds 7 1030 65 10000 3.6 320 04:35 18.01.2020
4260 Clouds 7 1030 61 10000 3.6 340 02:53 18.01.2020
4261 Clouds 8 1030 57 10000 4.1 330 01:51 18.01.2020
4262 Clouds 8 1030 65 10000 4.1 330 01:20 18.01.2020
4263 Clouds 8 1030 57 10000 1.5 310 00:36 18.01.2020
4264 Clouds 8 1030 57 10000 1.5 310 00:18 18.01.2020
4265 Clouds 9 1030 46 10000 2.1 330 23:40 17.01.2020
4266 Clouds 9 1029 50 10000 3.6 330 23:19 17.01.2020
4267 Clouds 10 1029 50 10000 2.1 100 22:44 17.01.2020
4268 Clouds 11 1028 71 10000 5.7 320 22:21 17.01.2020
4269 Clouds 11 1029 71 10000 2.6 70 21:58 17.01.2020
4270 Clouds 11 1029 71 10000 2.6 70 21:40 17.01.2020
4271 Clouds 11 1028 71 10000 5.1 290 21:22 17.01.2020
4272 Clouds 12 1027 71 10000 5.1 300 20:57 17.01.2020
4273 Clouds 12 1028 35 10000 3.6 270 20:38 17.01.2020
4274 Clear 12 1028 35 10000 3.6 270 20:20 17.01.2020
4275 Clear 12 1027 35 10000 0.5 60 19:55 17.01.2020
4276 Clear 13 1027 46 10000 2.6 240 19:37 17.01.2020
4277 Clear 13 1027 46 10000 2.6 240 19:18 17.01.2020
4278 Clouds 14 1026 38 10000 4.6 260 18:47 17.01.2020
4279 Clouds 14 1026 47 10000 4.1 240 18:28 17.01.2020
4280 Clouds 14 1025 44 10000 6.7 250 17:58 17.01.2020
4281 Clouds 15 1025 42 10000 7.2 270 17:39 17.01.2020
4282 Clouds 15 1025 42 10000 7.2 270 17:20 17.01.2020
4283 Clouds 15 1024 45 10000 6.7 300 16:43 17.01.2020
4284 Clouds 15 1024 45 10000 6.7 300 16:21 17.01.2020
4285 Clouds 16 1024 45 10000 7.2 270 15:55 17.01.2020
4286 Clouds 16 1024 42 10000 6.2 270 15:37 17.01.2020
4287 Clouds 16 1024 42 10000 6.2 270 15:19 17.01.2020
4288 Clouds 16 1024 51 10000 7.2 240 14:43 17.01.2020
4289 Clouds 16 1024 51 10000 7.2 240 14:23 17.01.2020
4290 Clouds 15 1024 51 10000 6.7 250 13:42 17.01.2020
4291 Clouds 15 1025 51 10000 5.7 260 13:23 17.01.2020
4292 Clouds 16 1025 63 10000 7.2 260 12:47 17.01.2020
4293 Clouds 15 1025 55 10000 1 260 12:23 17.01.2020
4294 Clouds 14 1026 62 10000 1.5 0 11:43 17.01.2020
4295 Clouds 13 1025 76 10000 3.1 250 11:20 17.01.2020
4296 Clouds 12 1026 76 10000 3.1 240 10:57 17.01.2020
4297 Clouds 11 1025 87 10000 4.1 230 10:39 17.01.2020
4298 Clouds 10 1025 87 10000 4.1 230 10:20 17.01.2020
4299 Clouds 10 1025 87 9000 2.1 250 09:44 17.01.2020
4300 Clouds 9 1025 87 9000 1 250 09:21 17.01.2020
4301 Clouds 9 1025 87 9000 1.5 320 08:58 17.01.2020
4302 Clouds 9 1025 87 8000 2.6 300 08:40 17.01.2020
4303 Clouds 8 1025 87 8000 2.6 300 08:21 17.01.2020
4304 Clouds 7 1025 93 8000 2.6 290 07:48 17.01.2020
4305 Clouds 7 1025 93 7000 2.6 270 07:29 17.01.2020
4306 Clouds 8 1025 93 7000 4.1 250 06:55 17.01.2020
4307 Clouds 7 1025 93 9000 4.6 240 06:35 17.01.2020
4308 Mist 8 1025 100 2600 1.41 281 05:19 17.01.2020
4309 Clouds 9 1026 84 0 1.41 281 03:38 17.01.2020
4310 Mist 8 1026 87 5000 2.6 320 02:39 17.01.2020
4311 Clear 8 1027 99 0 1.23 300 01:45 17.01.2020
4312 Clouds 8 1026 86 0 1.26 298 01:27 17.01.2020
4313 Clouds 8 1027 87 10000 2.1 320 00:40 17.01.2020
4314 Clouds 8 1027 87 10000 2.1 320 00:19 17.01.2020
4315 Clouds 9 1027 87 10000 2.1 320 23:41 16.01.2020
4316 Clouds 9 1027 87 10000 2.1 320 23:22 16.01.2020
4317 Clouds 9 1027 87 10000 1 330 22:42 16.01.2020
4318 Clouds 9 1027 87 10000 1 330 22:22 16.01.2020
4319 Clouds 9 1027 87 8000 1.5 290 21:57 16.01.2020
4320 Clouds 9 1027 93 8000 2.1 270 21:38 16.01.2020
4321 Clouds 10 1027 93 8000 2.1 270 21:19 16.01.2020
4322 Clouds 10 1027 93 7000 2.6 260 20:58 16.01.2020
4323 Clouds 10 1027 93 7000 2.6 260 20:39 16.01.2020
4324 Clouds 10 1027 93 8000 2.6 240 20:19 16.01.2020
4325 Clouds 11 1027 87 8000 2.1 240 19:56 16.01.2020
4326 Clouds 11 1027 87 8000 2.1 240 19:38 16.01.2020
4327 Clouds 11 1027 93 10000 2.6 240 19:19 16.01.2020
4328 Clear 11 1026 87 10000 1.5 220 18:55 16.01.2020
4329 Clear 12 1026 87 10000 2.6 230 18:37 16.01.2020
4330 Clear 13 1026 82 10000 3.6 210 18:18 16.01.2020
4331 Clear 13 1026 82 10000 3.6 210 17:42 16.01.2020
4332 Clear 14 1026 82 10000 4.1 210 17:23 16.01.2020
4333 Clear 14 1026 82 10000 4.6 210 16:57 16.01.2020
4334 Clear 14 1026 82 10000 4.6 210 16:39 16.01.2020
4335 Clear 15 1026 76 10000 4.6 210 16:19 16.01.2020
4336 Clear 15 1026 71 10000 4.6 210 15:44 16.01.2020
4337 Clear 15 1026 71 10000 4.6 220 15:23 16.01.2020
4338 Clear 14 1026 71 10000 4.1 210 14:57 16.01.2020
4339 Clear 14 1026 71 10000 4.1 210 14:57 16.01.2020
4340 Clear 14 1026 71 10000 4.1 210 14:39 16.01.2020
4341 Clouds 14 1027 67 10000 3.6 220 14:20 16.01.2020
4342 Clouds 13 1027 71 10000 3.6 220 13:45 16.01.2020
4343 Clouds 13 1027 62 10000 3.1 220 13:26 16.01.2020
4344 Clouds 13 1028 58 10000 1.5 300 12:47 16.01.2020
4345 Clouds 12 1028 62 10000 2.6 330 12:29 16.01.2020
4346 Clouds 11 1029 61 10000 4.1 320 11:59 16.01.2020
4347 Clouds 11 1029 61 10000 4.1 320 11:41 16.01.2020
4348 Clouds 11 1029 61 10000 4.1 320 11:41 16.01.2020
4349 Clouds 10 1029 66 10000 5.1 330 11:23 16.01.2020
4350 Clouds 9 1029 70 10000 5.7 330 10:55 16.01.2020
4351 Clouds 8 1029 70 10000 5.7 330 10:36 16.01.2020
4352 Clouds 7 1028 75 10000 5.7 330 10:18 16.01.2020
4353 Clouds 7 1028 75 10000 6.2 330 09:42 16.01.2020
4354 Clouds 6 1028 75 10000 6.2 330 09:24 16.01.2020
4355 Clouds 6 1028 75 10000 6.2 330 08:58 16.01.2020
4356 Clouds 6 1028 75 10000 6.2 330 08:39 16.01.2020
4357 Clouds 5 1028 75 10000 6.2 330 08:18 16.01.2020
4358 Clouds 5 1028 75 10000 6.2 330 07:42 16.01.2020
4359 Clouds 5 1028 75 10000 6.2 330 07:23 16.01.2020
4360 Clouds 5 1028 75 10000 6.2 330 06:50 16.01.2020
4361 Clouds 5 1028 80 10000 6.2 330 06:32 16.01.2020
4362 Clouds 5 1028 80 10000 6.2 330 05:49 16.01.2020
4363 Clouds 5 1028 80 10000 5.1 330 04:46 16.01.2020
4364 Clouds 6 1028 75 10000 4.1 330 03:56 16.01.2020
4365 Clouds 6 1027 75 10000 4.6 330 02:47 16.01.2020
4366 Clouds 7 1027 75 10000 4.6 330 01:34 16.01.2020
4367 Clouds 7 1027 75 10000 4.1 330 00:43 16.01.2020
4368 Clouds 6 1027 75 10000 4.1 330 00:43 16.01.2020
4369 Clouds 7 1027 75 10000 4.1 330 00:23 16.01.2020
4370 Clouds 7 1027 75 10000 4.1 330 23:44 15.01.2020
4371 Clouds 7 1027 75 10000 4.1 330 23:44 15.01.2020
4372 Clouds 8 1027 75 10000 4.6 320 23:22 15.01.2020
4373 Clouds 8 1027 75 10000 4.1 320 22:56 15.01.2020
4374 Clouds 8 1027 76 10000 3.1 310 22:38 15.01.2020
4375 Clouds 8 1027 76 10000 3.1 310 22:18 15.01.2020
4376 Clouds 8 1026 76 10000 1 0 21:56 15.01.2020
4377 Clouds 8 1026 76 10000 1 0 21:37 15.01.2020
4378 Clouds 8 1027 76 10000 2.1 320 21:37 15.01.2020
4379 Clouds 8 1027 76 10000 2.1 320 21:18 15.01.2020
4380 Clouds 8 1026 71 10000 2.6 330 20:55 15.01.2020
4381 Clouds 8 1026 71 10000 3.1 280 20:37 15.01.2020
4382 Clouds 9 1026 71 10000 3.1 280 20:18 15.01.2020
4383 Clouds 9 1026 71 10000 3.1 280 19:54 15.01.2020
4384 Clouds 9 1025 76 10000 2.6 290 19:36 15.01.2020
4385 Clouds 9 1025 76 10000 2.6 290 19:18 15.01.2020
4386 Clouds 11 1025 71 10000 4.1 260 18:55 15.01.2020
4387 Clouds 10 1025 71 10000 4.1 260 18:55 15.01.2020
4388 Clouds 11 1025 71 10000 4.1 260 18:55 15.01.2020
4389 Clouds 11 1024 71 10000 4.6 240 18:37 15.01.2020
4390 Clouds 11 1024 71 10000 4.6 240 18:37 15.01.2020
4391 Clouds 11 1024 71 10000 4.6 240 18:19 15.01.2020
4392 Clouds 12 1024 71 10000 6.2 230 17:42 15.01.2020
4393 Clouds 12 1024 62 10000 6.2 240 17:23 15.01.2020
4394 Clouds 13 1024 71 10000 7.2 230 16:59 15.01.2020
4395 Clouds 13 1024 71 10000 7.2 230 16:39 15.01.2020
4396 Clouds 13 1023 58 10000 7.2 240 16:21 15.01.2020
4397 Clouds 13 1023 54 10000 7.7 230 15:44 15.01.2020
4398 Clouds 14 1023 50 10000 7.7 230 15:21 15.01.2020
4399 Clouds 14 1023 47 10000 7.2 220 14:59 15.01.2020
4400 Clouds 14 1023 47 10000 7.2 220 14:41 15.01.2020
4401 Clouds 14 1024 58 10000 4.6 220 14:19 15.01.2020
4402 Clouds 13 1024 66 10000 3.6 230 13:46 15.01.2020
4403 Clouds 12 1024 62 10000 1.5 290 13:26 15.01.2020
4404 Clouds 12 1024 62 10000 2.6 320 12:59 15.01.2020
4405 Clouds 12 1024 62 10000 2.6 320 12:39 15.01.2020
4406 Clouds 11 1025 66 10000 3.1 330 12:19 15.01.2020
4407 Clouds 11 1024 81 10000 1 0 11:56 15.01.2020
4408 Clouds 10 1025 70 10000 4.1 330 11:37 15.01.2020
4409 Clouds 7 1025 70 10000 4.1 330 11:19 15.01.2020
4410 Clouds 7 1025 70 10000 4.1 330 11:19 15.01.2020
4411 Clouds 6 1024 75 10000 5.1 320 10:43 15.01.2020
4412 Clouds 6 1024 75 10000 5.1 320 10:25 15.01.2020
4413 Clouds 6 1024 80 10000 5.7 330 09:44 15.01.2020
4414 Clouds 5 1024 86 10000 5.1 320 09:23 15.01.2020
4415 Clouds 4 1023 86 10000 5.7 320 08:58 15.01.2020
4416 Clouds 4 1023 86 10000 5.7 320 08:39 15.01.2020
4417 Clouds 3 1023 86 10000 5.1 320 08:21 15.01.2020
4418 Clouds 4 1023 80 10000 5.7 320 07:51 15.01.2020
4419 Clouds 4 1023 86 10000 5.7 320 07:31 15.01.2020
4420 Clouds 3 1023 86 10000 5.7 330 06:46 15.01.2020
4421 Clouds 5 1022 80 10000 6.2 320 06:20 15.01.2020
4422 Clouds 4 1022 86 10000 5.1 330 04:44 15.01.2020
4423 Clouds 5 1022 86 10000 4.6 330 02:38 15.01.2020
4424 Clouds 5 1023 87 10000 4.1 330 01:28 15.01.2020
4425 Clouds 6 1023 81 10000 4.1 320 00:47 15.01.2020
4426 Clouds 6 1023 87 10000 3.6 330 00:27 15.01.2020
4427 Clouds 6 1023 87 10000 3.6 320 23:57 14.01.2020
4428 Clouds 6 1023 87 10000 3.6 320 23:38 14.01.2020
4429 Clouds 6 1023 81 10000 3.1 320 23:19 14.01.2020
4430 Clouds 6 1023 81 10000 3.1 320 22:41 14.01.2020
4431 Clouds 7 1023 81 10000 2.6 320 22:20 14.01.2020
4432 Clouds 7 1022 81 10000 2.1 320 21:59 14.01.2020
4433 Clouds 7 1022 76 10000 1.5 300 21:41 14.01.2020
4434 Clouds 7 1022 76 10000 1.5 300 21:23 14.01.2020
4435 Clouds 7 1022 76 10000 3.6 220 20:59 14.01.2020
4436 Clouds 7 1022 76 10000 3.6 220 20:41 14.01.2020
4437 Clear 8 1022 75 10000 2.1 280 20:21 14.01.2020
4438 Clear 8 1022 75 10000 2.1 280 19:56 14.01.2020
4439 Clear 9 1022 76 10000 4.1 220 19:38 14.01.2020
4440 Clear 9 1021 71 10000 5.1 220 19:19 14.01.2020
4441 Clear 10 1021 71 10000 5.1 220 18:56 14.01.2020
4442 Clear 10 1020 58 10000 2.6 180 18:37 14.01.2020
4443 Clear 10 1020 58 10000 2.6 180 18:37 14.01.2020
4444 Clear 11 1020 58 10000 2.6 180 18:19 14.01.2020
4445 Clear 11 1020 58 10000 2.6 180 18:19 14.01.2020
4446 Clear 13 1020 58 10000 2.6 180 17:39 14.01.2020
4447 Clear 13 1021 62 10000 5.7 230 17:19 14.01.2020
4448 Clear 13 1021 54 10000 6.2 230 16:57 14.01.2020
4449 Clear 13 1021 54 10000 6.2 230 16:38 14.01.2020
4450 Clear 13 1021 54 10000 7.2 220 16:20 14.01.2020
4451 Clear 14 1020 54 10000 7.2 220 15:54 14.01.2020
4452 Clear 14 1020 47 10000 6.7 220 15:36 14.01.2020
4453 Clear 14 1020 47 10000 6.7 220 15:18 14.01.2020
4454 Clear 13 1021 47 10000 3.1 230 14:41 14.01.2020
4455 Clouds 12 1021 47 10000 3.1 230 14:20 14.01.2020
4456 Clouds 12 1022 50 10000 2.1 290 13:42 14.01.2020
4457 Clouds 12 1022 50 10000 2.1 290 13:20 14.01.2020
4458 Clouds 12 1022 54 10000 2.6 320 12:59 14.01.2020
4459 Clouds 12 1022 54 10000 2.6 320 12:40 14.01.2020
4460 Clouds 11 1022 53 10000 3.6 310 12:20 14.01.2020
4461 Clouds 10 1022 34 10000 4.6 320 11:42 14.01.2020
4462 Clouds 7 1022 47 10000 4.6 320 11:23 14.01.2020
4463 Clouds 7 1022 47 10000 4.6 320 11:23 14.01.2020
4464 Clouds 7 1022 47 10000 4.6 320 10:58 14.01.2020
4465 Clouds 6 1022 47 10000 4.6 320 10:39 14.01.2020
4466 Clouds 6 1022 47 10000 4.6 320 10:19 14.01.2020
4467 Clouds 5 1022 47 10000 4.6 320 10:19 14.01.2020
4468 Clouds 5 1022 47 10000 4.6 320 09:57 14.01.2020
4469 Clouds 5 1022 47 10000 4.6 320 09:39 14.01.2020
4470 Clouds 4 1021 47 10000 4.1 320 09:20 14.01.2020
4471 Clouds 3 1021 47 10000 4.6 330 08:44 14.01.2020
4472 Clouds 2 1021 49 10000 4.6 320 08:23 14.01.2020
4473 Clouds 2 1021 50 10000 6.2 330 07:53 14.01.2020
4474 Clouds 3 1021 50 10000 6.2 320 07:31 14.01.2020
4475 Clouds 3 1021 50 10000 4.6 320 06:51 14.01.2020
4476 Clouds 3 1021 50 10000 4.1 330 06:23 14.01.2020
4477 Clouds 4 1021 86 10000 2.6 330 05:21 14.01.2020
4478 Clear 3 1021 75 10000 3.1 330 03:51 14.01.2020
4479 Clear 3 1021 75 10000 3.1 330 03:51 14.01.2020
4480 Clear 4 1021 80 10000 4.6 320 02:42 14.01.2020
4481 Clouds 5 1021 86 10000 5.1 320 01:53 14.01.2020
4482 Clouds 4 1022 87 10000 2.1 340 00:49 14.01.2020
4483 Clouds 5 1022 87 10000 3.6 320 00:28 14.01.2020
4484 Clouds 4 1022 87 10000 3.1 330 23:54 13.01.2020
4485 Clouds 5 1022 87 10000 3.1 330 23:36 13.01.2020
4486 Clouds 5 1022 87 10000 2.6 320 23:18 13.01.2020
4487 Clouds 6 1022 87 10000 3.1 310 22:41 13.01.2020
4488 Clouds 6 1022 87 10000 3.1 300 22:21 13.01.2020
4489 Clouds 7 1022 81 10000 4.1 260 21:56 13.01.2020
4490 Clouds 7 1022 76 10000 3.1 260 21:37 13.01.2020
4491 Clouds 7 1022 76 10000 3.1 260 21:18 13.01.2020
4492 Clouds 7 1022 76 10000 1.5 290 20:58 13.01.2020
4493 Clouds 7 1023 81 10000 2.6 290 20:40 13.01.2020
4494 Clouds 8 1023 81 10000 2.6 290 20:22 13.01.2020
4495 Clouds 8 1022 76 10000 4.1 250 19:58 13.01.2020
4496 Clouds 8 1022 81 10000 4.6 240 19:39 13.01.2020
4497 Clouds 8 1022 81 10000 4.6 240 19:19 13.01.2020
4498 Clouds 9 1022 76 10000 4.6 250 18:56 13.01.2020
4499 Clouds 9 1022 81 10000 3.6 250 18:37 13.01.2020
4500 Clouds 9 1022 81 10000 3.6 250 18:18 13.01.2020
4501 Clouds 9 1022 81 10000 3.6 250 18:18 13.01.2020
4502 Clouds 11 1022 76 10000 6.2 240 17:42 13.01.2020
4503 Clouds 11 1022 76 10000 6.2 240 17:24 13.01.2020
4504 Clouds 11 1022 71 10000 6.2 240 16:57 13.01.2020
4505 Clouds 11 1022 71 10000 6.2 240 16:38 13.01.2020
4506 Clouds 12 1023 60 0 1.55 225 16:20 13.01.2020
4507 Clouds 12 1023 67 0 1.55 225 15:44 13.01.2020
4508 Clouds 12 1023 60 0 0.89 346 15:23 13.01.2020
4509 Clouds 12 1023 54 0 0.89 275 14:58 13.01.2020
4510 Clouds 12 1023 54 0 0.89 296 14:38 13.01.2020
4511 Clouds 11 1023 56 0 1.34 266 14:20 13.01.2020
4512 Clouds 11 1024 53 0 1.34 271 13:42 13.01.2020
4513 Clouds 11 1023 53 0 1.34 339 13:24 13.01.2020
4514 Clouds 10 1026 37 10000 3.1 330 12:59 13.01.2020
4515 Clouds 10 1026 37 10000 3.1 330 12:41 13.01.2020
4516 Clouds 9 1026 37 10000 3.1 330 12:23 13.01.2020
4517 Clouds 9 1026 37 10000 3.1 330 11:57 13.01.2020
4518 Clouds 8 1026 37 10000 4.1 320 11:37 13.01.2020
4519 Clouds 8 1026 37 10000 4.1 320 11:37 13.01.2020
4520 Clouds 6 1026 50 10000 4.1 320 11:19 13.01.2020
4521 Clouds 6 1026 50 10000 4.1 320 10:56 13.01.2020
4522 Clouds 6 1026 50 10000 4.1 320 10:37 13.01.2020
4523 Clouds 6 1026 65 10000 4.6 330 10:37 13.01.2020
4524 Clouds 5 1026 65 10000 4.6 330 10:19 13.01.2020
4525 Clouds 4 1025 74 10000 5.1 320 09:43 13.01.2020
4526 Clouds 4 1025 74 10000 5.7 330 09:24 13.01.2020
4527 Clouds 3 1025 74 10000 5.7 330 08:57 13.01.2020
4528 Clouds 3 1025 74 10000 5.7 330 08:37 13.01.2020
4529 Clouds 3 1026 74 10000 5.1 320 08:18 13.01.2020
4530 Clouds 3 1026 74 10000 5.7 330 07:43 13.01.2020
4531 Clouds 4 1025 74 10000 5.7 330 07:24 13.01.2020
4532 Clouds 3 1025 74 10000 5.7 320 06:37 13.01.2020
4533 Clouds 3 1025 74 10000 5.7 320 06:37 13.01.2020
4534 Clouds 3 1026 74 10000 5.7 330 05:37 13.01.2020
4535 Clear 4 1026 51 10000 5.7 330 05:18 13.01.2020
4536 Clear 3 1027 51 10000 5.1 330 03:44 13.01.2020
4537 Clear 3 1027 51 10000 5.1 330 02:51 13.01.2020
4538 Clear 4 1027 54 10000 5.1 320 02:30 13.01.2020
4539 Clear 4 1028 54 10000 4.6 330 01:33 13.01.2020
4540 Clear 4 1028 53 10000 4.6 330 00:48 13.01.2020
4541 Clear 4 1029 70 10000 4.6 330 00:26 13.01.2020
4542 Clear 5 1029 70 10000 4.6 330 23:59 12.01.2020
4543 Clear 5 1029 70 10000 4.1 320 23:40 12.01.2020
4544 Clouds 5 1029 70 10000 4.1 320 23:21 12.01.2020
4545 Clouds 5 1029 80 10000 4.1 320 22:56 12.01.2020
4546 Clouds 5 1029 80 10000 4.1 320 22:37 12.01.2020
4547 Clouds 5 1029 75 10000 3.1 310 22:19 12.01.2020
4548 Clouds 5 1029 81 10000 2.6 320 21:54 12.01.2020
4549 Clouds 6 1029 81 10000 3.1 320 21:36 12.01.2020
4550 Clouds 6 1029 81 10000 3.1 320 21:18 12.01.2020
4551 Clouds 6 1029 87 10000 3.1 320 20:54 12.01.2020
4552 Clouds 6 1029 87 10000 3.1 320 20:36 12.01.2020
4553 Clear 7 1029 81 10000 0.5 0 20:18 12.01.2020
4554 Clear 7 1029 81 10000 2.1 300 19:54 12.01.2020
4555 Clear 8 1029 75 10000 2.1 290 19:36 12.01.2020
4556 Clear 8 1029 75 10000 2.1 290 19:18 12.01.2020
4557 Clear 9 1029 71 10000 2.1 230 18:54 12.01.2020
4558 Clear 9 1028 71 10000 2.6 230 18:36 12.01.2020
4559 Clear 10 1028 71 10000 2.6 230 18:18 12.01.2020
4560 Clear 12 1028 58 10000 2.6 190 17:42 12.01.2020
4561 Clear 12 1028 58 10000 2.6 190 17:20 12.01.2020
4562 Clear 12 1028 54 10000 2.6 210 16:57 12.01.2020
4563 Clear 12 1028 54 10000 2.6 210 16:37 12.01.2020
4564 Clear 12 1028 58 10000 1.5 180 16:19 12.01.2020
4565 Clear 13 1028 54 10000 1.5 150 15:43 12.01.2020
4566 Clear 13 1028 47 10000 0.5 310 15:25 12.01.2020
4567 Clear 12 1029 50 10000 1.5 320 14:59 12.01.2020
4568 Clear 12 1029 50 10000 1.5 320 14:41 12.01.2020
4569 Clear 12 1029 54 10000 2.1 320 14:21 12.01.2020
4570 Clear 12 1029 54 10000 3.1 310 13:55 12.01.2020
4571 Clear 11 1030 57 10000 3.1 310 13:37 12.01.2020
4572 Clear 11 1030 57 10000 3.1 310 13:18 12.01.2020
4573 Clear 10 1030 61 10000 3.6 320 12:43 12.01.2020
4574 Clear 9 1031 61 10000 4.6 330 12:21 12.01.2020
4575 Clear 9 1031 65 10000 5.1 320 11:59 12.01.2020
4576 Clear 10 1031 65 10000 5.1 320 11:40 12.01.2020
4577 Clear 6 1031 65 10000 5.1 330 11:21 12.01.2020
4578 Clear 5 1031 75 10000 6.2 330 10:43 12.01.2020
4579 Clear 4 1030 46 10000 5.7 330 10:23 12.01.2020
4580 Clear 4 1030 46 10000 6.2 330 09:59 12.01.2020
4581 Clear 4 1030 46 10000 6.2 330 09:41 12.01.2020
4582 Clear 4 1030 46 10000 6.2 330 09:21 12.01.2020
4583 Clear 3 1030 48 10000 6.2 320 08:47 12.01.2020
4584 Clear 2 1030 60 10000 6.2 320 08:21 12.01.2020
4585 Clear 2 1030 60 10000 6.2 320 08:21 12.01.2020
4586 Clear 2 1030 60 10000 6.2 320 07:45 12.01.2020
4587 Clear 2 1029 60 10000 7.2 320 07:25 12.01.2020
4588 Clear 3 1029 60 10000 6.7 320 06:50 12.01.2020
4589 Clear 3 1029 60 10000 7.2 320 06:32 12.01.2020
4590 Clear 3 1029 60 10000 6.7 320 05:50 12.01.2020
4591 Clear 3 1029 86 10000 5.7 330 04:53 12.01.2020
4592 Clear 3 1030 86 10000 6.2 330 03:35 12.01.2020
4593 Clear 3 1030 86 10000 6.2 330 02:43 12.01.2020
4594 Clear 3 1030 80 10000 5.7 330 02:24 12.01.2020
4595 Clear 3 1030 80 10000 5.7 330 01:31 12.01.2020
4596 Clear 4 1030 80 10000 5.7 330 00:46 12.01.2020
4597 Clear 4 1030 80 10000 5.7 330 00:22 12.01.2020
4598 Clear 4 1030 80 10000 4.6 330 23:56 11.01.2020
4599 Clear 4 1030 80 10000 4.1 330 23:38 11.01.2020
4600 Clear 4 1030 80 10000 4.1 330 23:18 11.01.2020
4601 Clear 4 1030 80 10000 4.1 330 22:56 11.01.2020
4602 Clear 4 1030 75 10000 4.6 330 22:37 11.01.2020
4603 Clear 5 1030 75 10000 4.6 330 22:19 11.01.2020
4604 Clear 5 1030 75 10000 5.1 320 21:44 11.01.2020
4605 Clear 5 1030 75 10000 3.6 330 21:19 11.01.2020
4606 Clear 5 1030 75 10000 3.6 330 21:19 11.01.2020
4607 Clear 6 1030 75 10000 2.6 320 20:56 11.01.2020
4608 Clear 6 1030 75 10000 2.6 320 20:38 11.01.2020
4609 Clear 6 1030 75 10000 3.1 310 20:19 11.01.2020
4610 Clear 6 1030 75 10000 3.1 310 19:56 11.01.2020
4611 Clear 6 1030 75 10000 3.1 310 19:38 11.01.2020
4612 Clear 7 1030 70 10000 3.6 330 19:20 11.01.2020
4613 Clear 7 1030 66 10000 2.6 320 18:55 11.01.2020
4614 Clear 7 1029 61 10000 1 0 18:36 11.01.2020
4615 Clear 8 1029 61 10000 1 0 18:18 11.01.2020
4616 Clear 8 1029 61 10000 1 0 18:18 11.01.2020
4617 Clear 7 1029 61 10000 1 0 18:18 11.01.2020
4618 Clear 9 1029 61 10000 0.5 0 17:56 11.01.2020
4619 Clear 9 1029 61 10000 0.5 0 17:56 11.01.2020
4620 Clear 9 1029 62 10000 2.1 120 17:37 11.01.2020
4621 Clear 10 1029 62 10000 2.1 120 17:18 11.01.2020
4622 Clear 10 1029 58 10000 2.1 320 16:43 11.01.2020
4623 Clear 11 1029 58 10000 2.1 340 16:24 11.01.2020
4624 Clouds 11 1029 54 10000 2.6 340 15:56 11.01.2020
4625 Clouds 11 1029 54 10000 2.6 340 15:37 11.01.2020
4626 Clouds 11 1029 62 10000 3.1 340 15:19 11.01.2020
4627 Clouds 11 1030 57 10000 4.1 340 14:44 11.01.2020
4628 Clouds 11 1030 62 10000 4.6 320 14:24 11.01.2020
4629 Clouds 10 1030 61 10000 4.6 320 13:56 11.01.2020
4630 Clouds 10 1030 61 10000 4.6 320 13:37 11.01.2020
4631 Clouds 10 1031 61 10000 5.7 320 13:19 11.01.2020
4632 Clear 10 1031 70 10000 7.2 340 12:44 11.01.2020
4633 Clear 9 1031 70 10000 7.2 340 12:26 11.01.2020
4634 Clear 9 1031 70 10000 6.7 340 11:56 11.01.2020
4635 Clear 9 1031 70 10000 6.7 340 11:38 11.01.2020
4636 Clear 6 1031 70 10000 7.2 330 11:18 11.01.2020
4637 Clear 6 1031 75 10000 7.2 330 10:44 11.01.2020
4638 Clear 6 1031 75 10000 7.2 330 10:24 11.01.2020
4639 Clear 5 1030 81 10000 7.7 330 09:43 11.01.2020
4640 Clear 5 1030 86 10000 7.2 330 09:21 11.01.2020
4641 Clear 5 1030 81 10000 6.7 330 08:43 11.01.2020
4642 Clear 4 1030 81 10000 6.2 340 08:24 11.01.2020
4643 Clouds 4 1029 81 10000 6.2 340 07:59 11.01.2020
4644 Clouds 5 1029 81 10000 6.7 340 07:41 11.01.2020
4645 Clouds 5 1029 81 10000 6.7 340 07:22 11.01.2020
4646 Clouds 5 1029 81 10000 6.7 330 06:42 11.01.2020
4647 Clear 5 1029 87 10000 7.2 330 05:22 11.01.2020
4648 Clear 5 1029 87 10000 7.7 340 04:38 11.01.2020
4649 Clear 5 1029 87 10000 7.7 340 04:20 11.01.2020
4650 Clear 6 1028 81 10000 6.2 330 02:46 11.01.2020
4651 Clear 6 1029 87 10000 5.7 320 01:45 11.01.2020
4652 Clear 6 1029 87 10000 5.7 330 01:25 11.01.2020
4653 Clear 6 1029 87 10000 4.6 330 00:52 11.01.2020
4654 Clear 6 1029 87 10000 5.7 340 00:24 11.01.2020
4655 Clear 6 1028 87 10000 5.1 320 23:58 10.01.2020
4656 Clear 6 1028 87 10000 5.7 310 23:38 10.01.2020
4657 Clear 6 1028 87 10000 5.1 320 23:38 10.01.2020
4658 Clear 6 1028 87 10000 5.7 310 23:20 10.01.2020
4659 Clear 6 1028 87 10000 3.6 310 22:41 10.01.2020
4660 Clear 6 1028 87 10000 3.6 310 22:22 10.01.2020
4661 Clear 7 1028 81 10000 2.1 290 21:58 10.01.2020
4662 Clear 7 1028 81 10000 2.1 290 21:40 10.01.2020
4663 Clear 7 1028 81 10000 3.1 320 21:20 10.01.2020
4664 Clear 7 1028 81 10000 4.6 340 20:57 10.01.2020
4665 Clear 7 1027 81 10000 4.6 330 20:38 10.01.2020
4666 Clouds 7 1027 81 10000 4.6 330 20:19 10.01.2020
4667 Clouds 8 1027 81 10000 4.1 330 19:40 10.01.2020
4668 Clouds 8 1027 81 10000 4.1 330 19:21 10.01.2020
4669 Clouds 8 1026 87 10000 4.1 330 18:55 10.01.2020
4670 Clouds 9 1026 81 10000 3.6 330 18:37 10.01.2020
4671 Clouds 9 1026 81 10000 3.6 330 18:18 10.01.2020
4672 Clouds 9 1026 81 10000 2.6 310 17:56 10.01.2020
4673 Clouds 9 1026 81 10000 2.6 310 17:56 10.01.2020
4674 Clouds 10 1026 76 10000 2.6 300 17:37 10.01.2020
4675 Clouds 10 1026 76 10000 2.6 300 17:19 10.01.2020
4676 Clouds 11 1026 76 10000 2.6 330 16:42 10.01.2020
4677 Clouds 11 1026 76 10000 3.6 340 16:21 10.01.2020
4678 Clouds 11 1025 81 10000 3.6 320 15:57 10.01.2020
4679 Clouds 11 1025 81 10000 3.1 0 15:38 10.01.2020
4680 Clouds 11 1025 81 10000 3.1 0 15:20 10.01.2020
4681 Clouds 11 1025 81 10000 3.6 50 14:59 10.01.2020
4682 Clouds 11 1025 81 10000 3.6 50 14:40 10.01.2020
4683 Clouds 10 1025 87 10000 2.1 10 14:19 10.01.2020
4684 Drizzle 10 1025 93 10000 4.1 320 13:57 10.01.2020
4685 Drizzle 10 1025 93 10000 4.1 320 13:38 10.01.2020
4686 Rain 9 1026 93 9000 4.6 330 13:19 10.01.2020
4687 Rain 9 1026 93 9000 4.6 330 12:56 10.01.2020
4688 Rain 9 1026 93 9000 4.6 330 12:38 10.01.2020
4689 Rain 9 1026 93 8000 3.6 330 12:18 10.01.2020
4690 Rain 9 1026 93 5000 3.6 340 11:42 10.01.2020
4691 Rain 8 1026 93 5000 3.6 340 11:22 10.01.2020
4692 Rain 8 1026 100 5000 4.1 320 10:59 10.01.2020
4693 Rain 9 1025 93 5000 3.6 40 10:39 10.01.2020
4694 Rain 8 1025 93 5000 3.6 40 10:21 10.01.2020
4695 Rain 8 1025 93 7000 6.2 70 09:56 10.01.2020
4696 Rain 8 1025 93 5000 4.6 90 09:37 10.01.2020
4697 Rain 8 1025 93 5000 4.6 90 09:19 10.01.2020
4698 Rain 8 1025 93 5000 4.6 90 09:19 10.01.2020
4699 Rain 8 1024 93 5000 3.1 330 08:40 10.01.2020
4700 Rain 8 1024 93 6000 2.1 330 08:22 10.01.2020
4701 Rain 8 1024 93 5000 3.1 330 07:44 10.01.2020
4702 Rain 8 1024 93 5000 4.1 320 07:23 10.01.2020
4703 Rain 8 1023 81 9000 3.6 340 06:45 10.01.2020
4704 Rain 8 1023 81 10000 3.1 330 06:25 10.01.2020
4705 Clouds 9 1023 87 10000 2.6 330 05:46 10.01.2020
4706 Clouds 9 1024 81 10000 2.1 340 03:35 10.01.2020
4707 Clouds 9 1024 87 10000 2.1 330 02:59 10.01.2020
4708 Clouds 9 1024 87 10000 2.1 330 02:38 10.01.2020
4709 Clouds 8 1023 87 10000 1.5 360 01:38 10.01.2020
4710 Clouds 9 1023 93 10000 1.5 340 01:19 10.01.2020
4711 Clouds 9 1024 93 10000 1.24 266 00:39 10.01.2020
4712 Clouds 9 1024 93 10000 1 310 23:58 09.01.2020
4713 Clouds 9 1024 93 10000 1 310 23:38 09.01.2020
4714 Clouds 9 1024 87 10000 2.1 300 23:20 09.01.2020
4715 Clouds 9 1024 87 10000 1.5 330 22:57 09.01.2020
4716 Clouds 9 1024 87 10000 1 0 22:38 09.01.2020
4717 Clouds 9 1024 87 10000 1 0 22:19 09.01.2020
4718 Clouds 9 1024 81 10000 3.6 260 21:57 09.01.2020
4719 Clouds 9 1025 81 10000 1 0 21:37 09.01.2020
4720 Clouds 9 1025 81 10000 1 0 21:37 09.01.2020
4721 Clouds 9 1025 81 10000 1 0 21:37 09.01.2020
4722 Clouds 9 1025 81 10000 1 0 21:37 09.01.2020
4723 Clouds 9 1025 81 10000 1 0 21:19 09.01.2020
4724 Clouds 9 1025 87 10000 2.1 290 20:56 09.01.2020
4725 Clouds 9 1025 76 10000 4.1 250 20:38 09.01.2020
4726 Clouds 10 1025 76 10000 4.1 250 20:19 09.01.2020
4727 Clouds 10 1025 76 10000 4.6 240 20:19 09.01.2020
4728 Clouds 10 1025 76 10000 4.6 240 19:56 09.01.2020
4729 Clouds 10 1025 76 10000 5.1 240 19:37 09.01.2020
4730 Clouds 10 1025 76 10000 5.1 240 19:19 09.01.2020
4731 Clouds 10 1025 76 10000 4.6 230 18:54 09.01.2020
4732 Clouds 10 1024 76 10000 5.1 220 18:36 09.01.2020
4733 Clouds 11 1025 81 10000 5.7 230 18:18 09.01.2020
4734 Clouds 12 1025 81 10000 5.7 230 17:41 09.01.2020
4735 Clouds 12 1025 76 10000 6.2 230 17:18 09.01.2020
4736 Clouds 13 1025 76 10000 6.2 220 16:48 09.01.2020
4737 Clouds 13 1025 76 10000 6.2 220 16:23 09.01.2020
4738 Clouds 14 1025 71 10000 6.2 220 15:57 09.01.2020
4739 Clouds 14 1025 71 10000 5.7 230 15:39 09.01.2020
4740 Clouds 14 1026 71 10000 5.7 220 15:18 09.01.2020
4741 Clouds 13 1026 71 10000 5.7 220 14:42 09.01.2020
4742 Clouds 14 1027 71 10000 5.1 230 14:21 09.01.2020
4743 Clouds 13 1027 71 10000 5.1 230 13:57 09.01.2020
4744 Clouds 13 1027 71 10000 4.6 220 13:39 09.01.2020
4745 Clouds 13 1027 71 10000 4.6 220 13:20 09.01.2020
4746 Clouds 13 1027 76 10000 1 270 12:58 09.01.2020
4747 Clouds 13 1027 76 10000 1 270 12:58 09.01.2020
4748 Clouds 13 1028 76 10000 1.5 310 12:39 09.01.2020
4749 Clouds 12 1028 76 10000 3.1 330 12:19 09.01.2020
4750 Clouds 12 1028 76 10000 3.1 330 11:56 09.01.2020
4751 Clear 11 1029 76 10000 3.6 320 11:37 09.01.2020
4752 Clear 10 1029 76 10000 3.6 320 11:19 09.01.2020
4753 Clear 8 1028 81 10000 4.1 330 10:43 09.01.2020
4754 Clear 8 1028 87 10000 5.1 320 10:22 09.01.2020
4755 Clear 8 1028 87 10000 5.1 320 09:56 09.01.2020
4756 Clear 6 1028 86 10000 4.6 320 09:38 09.01.2020
4757 Clear 7 1028 87 10000 4.6 320 09:18 09.01.2020
4758 Clear 7 1028 87 10000 4.6 320 08:55 09.01.2020
4759 -273 0 0 0 0 0 08:37 09.01.2020
4760 Clear 6 1028 87 10000 4.1 330 08:19 09.01.2020
4761 Clear 6 1028 87 9000 5.1 320 07:42 09.01.2020
4762 Clear 6 1028 87 9000 5.1 320 07:23 09.01.2020
4763 Clouds 6 1028 87 10000 4.1 310 06:38 09.01.2020
4764 Clouds 7 1028 93 10000 4.6 320 06:19 09.01.2020
4765 Clouds 6 1029 87 9000 4.6 320 05:44 09.01.2020
4766 Clear 7 1029 93 9000 4.6 320 04:42 09.01.2020
4767 Clouds 7 1030 93 9000 4.6 330 03:31 09.01.2020
4768 Clouds 7 1030 93 9000 4.6 320 02:52 09.01.2020
4769 Clear 7 1030 93 8000 4.1 330 02:24 09.01.2020
4770 Clouds 7 1030 93 9000 4.1 320 01:38 09.01.2020
4771 Clear 8 1030 93 9000 3.6 320 00:42 09.01.2020
4772 Clear 8 1030 93 9000 3.6 320 00:21 09.01.2020
4773 Clouds 8 1031 93 10000 2.6 320 23:42 08.01.2020
4774 Clouds 8 1031 93 10000 2.6 320 23:24 08.01.2020
4775 Clouds 8 1031 93 10000 3.1 320 22:59 08.01.2020
4776 Clouds 8 1031 93 10000 3.1 320 22:39 08.01.2020
4777 Clouds 8 1031 93 10000 3.1 320 22:20 08.01.2020
4778 Clouds 8 1031 93 10000 3.1 320 22:20 08.01.2020
4779 Clouds 9 1031 87 10000 2.6 320 21:57 08.01.2020
4780 Clouds 9 1031 87 10000 1.5 320 21:38 08.01.2020
4781 Clear 9 1031 87 10000 0.67 288 21:20 08.01.2020
4782 Clear 9 1031 87 10000 0.67 288 20:58 08.01.2020
4783 Clear 9 1031 87 10000 2.6 310 20:38 08.01.2020
4784 Clear 10 1031 87 10000 2.1 320 20:20 08.01.2020
4785 Clear 10 1031 87 10000 2.1 320 19:56 08.01.2020
4786 Clear 10 1031 81 10000 1.5 60 19:37 08.01.2020
4787 Clouds 11 1030 81 10000 1.5 90 19:19 08.01.2020
4788 Clouds 11 1030 81 10000 1.5 90 18:55 08.01.2020
4789 Clouds 11 1030 76 10000 1.5 90 18:37 08.01.2020
4790 Clouds 12 1030 76 10000 1.5 90 18:18 08.01.2020
4791 Clouds 13 1030 76 10000 1.5 90 17:48 08.01.2020
4792 Clouds 14 1030 71 10000 2.1 120 17:24 08.01.2020
4793 Clouds 14 1030 71 10000 2.1 120 16:58 08.01.2020
4794 Clouds 14 1030 67 10000 2.6 130 16:39 08.01.2020
4795 Clouds 14 1030 67 10000 2.6 130 16:19 08.01.2020
4796 Clouds 15 1030 62 10000 3.6 120 15:59 08.01.2020
4797 Clouds 15 1030 62 10000 3.1 90 15:40 08.01.2020
4798 Clouds 15 1030 59 10000 1 130 15:20 08.01.2020
4799 Clouds 15 1030 59 10000 1 130 14:56 08.01.2020
4800 Clouds 15 1030 58 10000 1.5 260 14:38 08.01.2020
4801 Clouds 15 1030 58 10000 1.5 260 14:19 08.01.2020
4802 Clear 14 1031 54 10000 3.1 320 13:39 08.01.2020
4803 Clouds 14 1031 54 10000 3.1 320 13:19 08.01.2020
4804 Clear 13 1031 62 10000 5.1 320 12:42 08.01.2020
4805 Clear 12 1032 66 10000 5.7 320 12:19 08.01.2020
4806 Clear 12 1031 62 10000 5.1 320 12:19 08.01.2020
4807 Clear 12 1032 66 10000 5.7 320 11:55 08.01.2020
4808 Clear 12 1032 66 10000 5.7 320 11:55 08.01.2020
4809 Clear 12 1032 66 10000 5.1 320 11:37 08.01.2020
4810 Clouds 10 1032 66 10000 5.1 320 11:18 08.01.2020
4811 Clouds 9 1031 70 10000 5.7 330 10:54 08.01.2020
4812 Clouds 9 1031 70 10000 6.2 320 10:36 08.01.2020
4813 Clouds 8 1031 75 10000 6.2 330 10:18 08.01.2020
4814 Clouds 7 1031 80 10000 5.7 330 09:41 08.01.2020
4815 Clouds 7 1030 75 10000 5.7 330 09:19 08.01.2020
4816 Clouds 7 1030 75 10000 5.7 330 08:55 08.01.2020
4817 Clouds 6 1030 75 10000 5.1 330 08:36 08.01.2020
4818 Clouds 5 1030 75 10000 5.1 330 08:18 08.01.2020
4819 Clouds 5 1030 80 10000 5.1 330 08:18 08.01.2020
4820 Clouds 5 1029 75 10000 4.6 330 07:47 08.01.2020
4821 Clouds 5 1029 75 10000 4.6 330 07:29 08.01.2020
4822 Clouds 5 1029 80 10000 4.1 330 06:44 08.01.2020
4823 Clouds 5 1028 75 10000 3.6 330 05:59 08.01.2020
4824 Clouds 5 1028 80 10000 5.1 330 05:38 08.01.2020
4825 Clouds 5 1028 80 10000 5.1 330 04:54 08.01.2020
4826 Clouds 5 1028 75 10000 4.6 330 04:24 08.01.2020
4827 Clouds 6 1027 70 10000 3.6 300 02:45 08.01.2020
4828 Clouds 7 1027 70 10000 3.6 300 02:19 08.01.2020
4829 Clouds 7 1027 75 10000 5.7 310 01:42 08.01.2020
4830 Clouds 7 1028 70 10000 5.7 310 00:59 08.01.2020
4831 Clouds 7 1028 70 10000 5.7 320 00:27 08.01.2020
4832 Clouds 7 1028 70 10000 5.1 330 23:55 07.01.2020
4833 Clouds 7 1028 70 10000 5.1 310 23:37 07.01.2020
4834 Clouds 7 1028 70 10000 5.1 310 23:19 07.01.2020
4835 Clouds 7 1028 65 10000 5.7 300 22:40 07.01.2020
4836 Clouds 7 1028 65 10000 5.7 300 22:20 07.01.2020
4837 Clouds 7 1028 65 10000 4.6 300 21:56 07.01.2020
4838 Clouds 7 1028 70 10000 5.1 310 21:38 07.01.2020
4839 Clouds 7 1028 70 10000 5.1 310 21:20 07.01.2020
4840 Clouds 8 1028 66 10000 5.1 320 20:55 07.01.2020
4841 Clouds 8 1029 66 10000 4.6 330 20:36 07.01.2020
4842 Clouds 8 1029 66 10000 4.6 330 20:18 07.01.2020
4843 Clouds 9 1028 81 10000 3.6 310 19:38 07.01.2020
4844 Clouds 9 1028 81 10000 2.1 290 19:20 07.01.2020
4845 Clouds 10 1028 81 10000 2.1 290 18:58 07.01.2020
4846 Clouds 10 1028 76 10000 2.6 270 18:40 07.01.2020
4847 Clouds 10 1028 76 10000 2.6 270 18:19 07.01.2020
4848 Clouds 11 1028 71 10000 2.6 220 17:58 07.01.2020
4849 Clouds 12 1028 71 10000 2.6 220 17:39 07.01.2020
4850 Clear 12 1028 71 10000 2.6 220 17:21 07.01.2020
4851 Clear 13 1028 71 10000 2.6 220 16:56 07.01.2020
4852 Clear 13 1028 66 10000 3.1 210 16:38 07.01.2020
4853 Clear 13 1028 66 10000 3.1 210 16:19 07.01.2020
4854 Clear 14 1028 62 10000 2.1 290 15:58 07.01.2020
4855 Clear 14 1028 67 10000 2.6 240 15:39 07.01.2020
4856 Clear 14 1028 67 10000 2.6 240 15:21 07.01.2020
4857 Clear 13 1028 66 10000 2.6 290 14:54 07.01.2020
4858 Clear 13 1028 66 10000 2.6 290 14:36 07.01.2020
4859 Clouds 13 1029 54 10000 4.1 310 14:18 07.01.2020
4860 Clouds 12 1029 54 10000 4.6 310 13:39 07.01.2020
4861 Clouds 11 1030 57 10000 4.1 320 13:19 07.01.2020
4862 Clouds 11 1030 57 10000 4.6 320 12:41 07.01.2020
4863 Clouds 10 1030 57 10000 4.6 320 12:20 07.01.2020
4864 Clouds 11 1031 61 10000 5.1 330 11:55 07.01.2020
4865 Clouds 11 1031 65 10000 6.2 330 11:36 07.01.2020
4866 Clear 7 1031 65 10000 6.2 330 11:18 07.01.2020
4867 Clear 6 1031 70 10000 7.2 330 10:41 07.01.2020
4868 Clear 6 1030 75 10000 6.2 330 10:23 07.01.2020
4869 Clear 6 1030 75 10000 6.2 330 09:57 07.01.2020
4870 Clear 5 1030 75 10000 6.7 330 09:38 07.01.2020
4871 Clouds 5 1030 80 10000 6.2 330 09:20 07.01.2020
4872 Clouds 5 1030 75 10000 6.2 330 08:42 07.01.2020
4873 Clouds 5 1030 75 10000 6.2 330 08:23 07.01.2020
4874 Clouds 5 1030 75 10000 6.7 330 07:54 07.01.2020
4875 Clouds 5 1030 75 10000 6.7 330 07:28 07.01.2020
4876 Clouds 5 1030 75 10000 6.7 330 07:28 07.01.2020
4877 Clouds 5 1030 75 10000 6.7 330 07:28 07.01.2020
4878 Clouds 5 1030 75 10000 6.7 330 07:28 07.01.2020
4879 Clouds 5 1030 75 10000 6.7 330 06:53 07.01.2020
4880 Clouds 5 1030 75 10000 6.7 330 06:34 07.01.2020
4881 Clouds 5 1030 80 10000 6.2 330 05:55 07.01.2020
4882 Clouds 5 1030 80 10000 6.7 330 04:39 07.01.2020
4883 Clouds 6 1030 81 10000 5.1 320 03:27 07.01.2020
4884 Clouds 6 1030 87 10000 5.7 330 02:22 07.01.2020
4885 Clouds 6 1030 87 10000 4.6 330 01:52 07.01.2020
4886 Clouds 6 1030 87 10000 5.7 330 01:30 07.01.2020
4887 Clouds 6 1030 87 10000 4.6 330 00:37 07.01.2020
4888 Clouds 6 1030 87 10000 4.6 330 00:37 07.01.2020
4889 Clouds 6 1030 87 10000 4.6 330 00:18 07.01.2020
4890 Clouds 6 1030 87 10000 4.6 330 23:39 06.01.2020
4891 Clouds 6 1030 87 10000 4.1 330 23:21 06.01.2020
4892 Clouds 6 1030 87 10000 4.1 330 22:58 06.01.2020
4893 Clouds 7 1030 87 10000 3.6 330 22:39 06.01.2020
4894 Clouds 7 1030 87 10000 3.6 330 22:21 06.01.2020
4895 Clouds 7 1029 87 10000 3.6 320 21:56 06.01.2020
4896 Clouds 7 1029 87 10000 3.1 320 21:38 06.01.2020
4897 Clouds 7 1029 87 10000 3.1 320 21:19 06.01.2020
4898 Clear 8 1029 87 10000 2.1 320 20:56 06.01.2020
4899 Clear 8 1029 87 10000 2.1 330 20:37 06.01.2020
4900 Clear 8 1029 87 10000 2.1 330 20:19 06.01.2020
4901 Clear 8 1029 87 10000 2.1 310 19:55 06.01.2020
4902 Clear 9 1028 81 10000 1.5 270 19:37 06.01.2020
4903 Clear 9 1028 81 10000 1.5 270 19:19 06.01.2020
4904 Clear 10 1028 71 10000 0.93 160 18:45 06.01.2020
4905 Clear 11 1028 71 10000 0.93 160 18:21 06.01.2020
4906 Clear 12 1028 66 10000 0.93 160 17:56 06.01.2020
4907 Clear 12 1028 66 10000 0.93 160 17:37 06.01.2020
4908 Clouds 12 1028 62 10000 1.5 160 17:18 06.01.2020
4909 Clouds 13 1028 62 10000 2.1 140 16:42 06.01.2020
4910 Clouds 13 1028 62 10000 2.1 140 16:42 06.01.2020
4911 Clouds 13 1028 62 10000 2.1 140 16:23 06.01.2020
4912 Clouds 13 1028 62 10000 2.1 130 15:59 06.01.2020
4913 Clouds 14 1027 62 10000 2.1 120 15:38 06.01.2020
4914 Clouds 14 1027 62 10000 2.1 120 15:18 06.01.2020
4915 Clouds 14 1028 58 10000 0.5 240 15:18 06.01.2020
4916 Clouds 13 1028 58 10000 0.5 300 14:56 06.01.2020
4917 Clouds 13 1028 58 10000 0.5 300 14:37 06.01.2020
4918 Clouds 13 1028 62 10000 2.1 310 14:18 06.01.2020
4919 Clouds 12 1029 58 10000 3.1 320 13:41 06.01.2020
4920 Clouds 12 1029 58 10000 3.1 320 13:22 06.01.2020
4921 Clear 12 1029 58 10000 4.1 330 12:59 06.01.2020
4922 Clear 12 1030 76 10000 1 0 12:41 06.01.2020
4923 Clouds 11 1030 61 10000 5.7 330 12:20 06.01.2020
4924 Clouds 11 1030 61 10000 5.7 330 11:55 06.01.2020
4925 Clouds 10 1030 66 10000 6.2 330 11:37 06.01.2020
4926 Clouds 8 1030 70 10000 6.2 330 11:19 06.01.2020
4927 Clouds 7 1030 75 10000 6.2 330 10:42 06.01.2020
4928 Clouds 6 1030 80 10000 5.7 330 10:21 06.01.2020
4929 Clouds 6 1030 80 10000 5.7 330 09:42 06.01.2020
4930 Clouds 5 1030 80 10000 5.7 330 09:24 06.01.2020
4931 Clouds 5 1030 80 10000 5.7 330 09:24 06.01.2020
4932 Clouds 5 1029 80 10000 6.2 330 08:58 06.01.2020
4933 Clouds 5 1029 80 10000 6.2 330 08:58 06.01.2020
4934 Clouds 5 1029 80 10000 6.2 330 08:58 06.01.2020
4935 Clear 5 1029 80 10000 5.7 330 08:39 06.01.2020
4936 Clear 4 1029 80 10000 5.7 330 08:21 06.01.2020
4937 Clear 4 1029 80 10000 5.7 330 08:21 06.01.2020
4938 Clear 4 1029 80 10000 5.7 330 07:46 06.01.2020
4939 Clear 5 1029 80 10000 5.7 330 07:21 06.01.2020
4940 Clear 4 1029 86 10000 5.7 330 06:41 06.01.2020
4941 Clear 4 1029 80 10000 7.7 330 05:51 06.01.2020
4942 Clear 4 1029 80 10000 7.7 330 05:29 06.01.2020
4943 Clear 4 1029 86 10000 6.2 330 04:25 06.01.2020
4944 Clear 5 1029 81 10000 5.7 330 03:53 06.01.2020
4945 Clear 5 1029 81 10000 4.1 330 02:32 06.01.2020
4946 Clear 5 1029 86 10000 5.1 330 01:56 06.01.2020
4947 Clear 6 1029 81 10000 4.6 330 01:32 06.01.2020
4948 Clear 6 1029 87 10000 5.7 330 00:57 06.01.2020
4949 Clear 6 1029 81 10000 5.7 330 00:39 06.01.2020
4950 Clear 6 1029 81 10000 5.7 330 00:18 06.01.2020
4951 Clear 6 1029 75 10000 5.1 330 23:40 05.01.2020
4952 Clear 6 1029 75 10000 5.1 330 23:21 05.01.2020
4953 Clear 6 1029 81 10000 5.1 330 22:54 05.01.2020
4954 Clear 7 1029 81 10000 4.6 330 22:36 05.01.2020
4955 Clear 7 1029 81 10000 4.6 330 22:18 05.01.2020
4956 Clear 7 1029 81 10000 4.1 320 21:41 05.01.2020
4957 Clear 7 1029 81 10000 4.1 320 21:21 05.01.2020
4958 Clear 8 1029 81 10000 3.6 320 20:58 05.01.2020
4959 Clear 8 1029 81 10000 3.1 320 20:39 05.01.2020
4960 Clear 8 1028 81 10000 1.01 73 20:20 05.01.2020
4961 Clear 8 1028 81 10000 1.01 73 19:59 05.01.2020
4962 Clear 8 1028 76 10000 1.01 73 19:40 05.01.2020
4963 Clear 9 1028 76 10000 1.01 73 19:21 05.01.2020
4964 Clear 9 1028 76 10000 1.01 73 18:56 05.01.2020
4965 Clear 10 1028 71 10000 2.1 80 18:38 05.01.2020
4966 Clear 10 1028 66 10000 2.6 90 18:19 05.01.2020
4967 Clear 11 1028 66 10000 2.6 90 17:59 05.01.2020
4968 Clear 12 1027 66 10000 4.1 80 17:39 05.01.2020
4969 Clear 12 1027 67 10000 5.1 60 17:20 05.01.2020
4970 Clear 12 1027 67 10000 5.1 60 16:57 05.01.2020
4971 Clear 13 1027 54 10000 3.1 70 16:39 05.01.2020
4972 Clear 13 1027 54 10000 3.1 70 16:39 05.01.2020
4973 Clear 13 1027 54 10000 3.1 70 16:20 05.01.2020
4974 Clear 13 1027 44 10000 2.6 100 15:40 05.01.2020
4975 Clear 13 1027 44 10000 2.6 100 15:22 05.01.2020
4976 Clear 13 1026 44 10000 3.1 320 14:57 05.01.2020
4977 Clear 13 1026 47 10000 5.1 330 14:39 05.01.2020
4978 Clear 13 1026 47 10000 5.1 330 14:21 05.01.2020
4979 Clear 12 1027 50 10000 6.2 320 13:58 05.01.2020
4980 Clear 12 1027 50 10000 7.2 320 13:38 05.01.2020
4981 Clear 12 1027 50 10000 8.2 320 13:20 05.01.2020
4982 Clear 12 1027 50 10000 8.2 320 12:57 05.01.2020
4983 Clear 12 1028 53 10000 7.2 320 12:38 05.01.2020
4984 Clear 11 1028 53 10000 7.2 320 12:19 05.01.2020
4985 Clear 11 1028 57 10000 7.2 320 11:54 05.01.2020
4986 Clear 10 1028 61 10000 7.2 320 11:36 05.01.2020
4987 Clear 6 1028 65 10000 7.7 310 11:18 05.01.2020
4988 Clear 6 1028 70 10000 7.7 320 10:41 05.01.2020
4989 Clear 6 1028 60 10000 7.7 310 10:20 05.01.2020
4990 Clear 6 1028 60 10000 7.7 310 09:55 05.01.2020
4991 Clear 6 1028 60 10000 8.2 320 09:36 05.01.2020
4992 Clear 5 1028 60 10000 7.2 320 09:18 05.01.2020
4993 Clear 5 1028 75 10000 8.7 320 08:44 05.01.2020
4994 Clouds 4 1028 75 10000 6.7 320 08:21 05.01.2020
4995 Clouds 5 1028 75 10000 7.2 330 07:47 05.01.2020
4996 Clouds 4 1028 75 10000 7.2 330 07:29 05.01.2020
4997 Clouds 5 1028 70 10000 7.7 330 06:55 05.01.2020
4998 Clouds 5 1028 70 10000 7.7 330 05:43 05.01.2020
4999 Clear 5 1028 70 10000 6.7 330 04:56 05.01.2020
5000 Clear 6 1028 70 10000 7.7 330 04:19 05.01.2020
5001 Clouds 6 1029 75 10000 7.7 330 03:38 05.01.2020
5002 Clouds 5 1029 70 10000 8.2 310 02:36 05.01.2020
5003 Clouds 6 1029 70 10000 8.2 310 02:18 05.01.2020
5004 Clouds 5 1029 70 10000 8.2 310 01:20 05.01.2020
5005 Clouds 6 1029 70 10000 8.2 310 00:58 05.01.2020
5006 Clouds 6 1030 70 10000 7.7 310 00:39 05.01.2020
5007 Clouds 6 1030 70 10000 7.7 310 00:20 05.01.2020
5008 Clouds 6 1030 70 10000 6.2 320 23:57 04.01.2020
5009 Clear 6 1030 70 10000 7.2 330 23:38 04.01.2020
5010 Clear 7 1030 70 10000 7.2 330 23:18 04.01.2020
5011 Clear 7 1030 70 10000 5.1 330 22:39 04.01.2020
5012 Clouds 7 1030 61 10000 4.6 320 22:20 04.01.2020
5013 Clouds 7 1030 61 10000 4.6 320 21:56 04.01.2020
5014 Clouds 6 1030 61 10000 6.2 310 21:37 04.01.2020
5015 Clouds 7 1030 61 10000 5.7 320 21:19 04.01.2020
5016 Clouds 7 1030 61 10000 5.7 320 20:55 04.01.2020
5017 Clouds 7 1030 57 10000 5.7 340 20:36 04.01.2020
5018 Clouds 7 1030 57 10000 5.7 340 20:18 04.01.2020
5019 Clouds 7 1030 57 10000 5.1 330 19:41 04.01.2020
5020 Clouds 8 1030 57 10000 5.1 330 19:23 04.01.2020
5021 Clouds 8 1030 57 10000 5.7 330 18:58 04.01.2020
5022 Clouds 8 1030 53 10000 4.1 340 18:39 04.01.2020
5023 Clouds 8 1030 62 10000 2.6 350 18:20 04.01.2020
5024 Clouds 9 1030 62 10000 2.6 350 17:56 04.01.2020
5025 Clouds 10 1029 66 10000 2.6 260 17:38 04.01.2020
5026 Clouds 11 1029 66 10000 2.6 260 17:20 04.01.2020
5027 Clouds 12 1030 62 10000 2.6 250 16:42 04.01.2020
5028 Clouds 12 1030 62 10000 2.6 250 16:24 04.01.2020
5029 Clouds 13 1030 58 10000 2.1 250 15:57 04.01.2020
5030 Clouds 13 1030 66 10000 3.1 230 15:38 04.01.2020
5031 Clouds 13 1030 66 10000 3.1 230 15:19 04.01.2020
5032 Clouds 13 1030 50 10000 4.1 310 14:56 04.01.2020
5033 Clouds 13 1030 50 10000 3.6 320 14:38 04.01.2020
5034 Clear 12 1030 50 10000 3.6 320 14:19 04.01.2020
5035 Clear 12 1030 50 10000 3.6 320 14:19 04.01.2020
5036 Clear 12 1030 50 10000 3.6 320 14:19 04.01.2020
5037 Clear 12 1031 54 10000 4.1 320 13:55 04.01.2020
5038 Clear 12 1032 53 10000 5.1 320 13:36 04.01.2020
5039 Clear 11 1032 53 10000 5.1 320 13:18 04.01.2020
5040 Clear 12 1032 61 10000 5.7 320 12:41 04.01.2020
5041 Clear 11 1032 61 10000 5.7 320 12:20 04.01.2020
5042 Clear 11 1033 61 10000 6.7 320 11:58 04.01.2020
5043 Clear 11 1033 65 10000 6.7 330 11:39 04.01.2020
5044 Clear 11 1033 65 10000 6.7 330 11:39 04.01.2020
5045 Clear 8 1032 70 10000 6.7 320 11:19 04.01.2020
5046 Clear 6 1032 75 10000 6.2 330 10:42 04.01.2020
5047 Clear 5 1032 80 10000 6.2 330 10:23 04.01.2020
5048 Clear 5 1032 80 10000 6.2 330 09:59 04.01.2020
5049 Clear 5 1032 48 10000 7.2 330 09:41 04.01.2020
5050 Clear 4 1032 48 10000 7.2 330 09:21 04.01.2020
5051 Clear 4 1032 48 10000 6.7 320 08:41 04.01.2020
5052 Clear 3 1032 48 10000 6.7 320 08:21 04.01.2020
5053 Clear 4 1032 48 10000 7.7 320 07:44 04.01.2020
5054 Clear 4 1032 48 10000 7.7 320 07:21 04.01.2020
5055 Clear 4 1031 80 10000 7.7 320 06:33 04.01.2020
5056 Clear 5 1031 75 10000 7.2 310 05:39 04.01.2020
5057 Clear 5 1031 70 10000 7.2 330 04:44 04.01.2020
5058 Clear 5 1031 70 10000 7.2 330 04:25 04.01.2020
5059 Clear 5 1031 70 10000 7.7 330 03:19 04.01.2020
5060 Clear 5 1031 75 10000 6.7 320 02:23 04.01.2020
5061 Clouds 5 1031 75 10000 6.7 320 02:23 04.01.2020
5062 Clouds 5 1031 75 10000 6.2 320 01:57 04.01.2020
5063 Clouds 6 1032 75 10000 6.2 310 01:32 04.01.2020
5064 Clouds 6 1032 75 10000 6.7 320 00:50 04.01.2020
5065 Clouds 6 1032 75 10000 5.7 300 00:28 04.01.2020
5066 Clouds 6 1031 70 10000 6.7 320 23:52 03.01.2020
5067 Clouds 6 1031 70 10000 6.7 320 23:27 03.01.2020
5068 Clouds 6 1031 75 10000 5.7 320 22:55 03.01.2020
5069 Clouds 7 1031 75 10000 5.7 320 22:36 03.01.2020
5070 Clouds 7 1031 75 10000 5.7 320 22:18 03.01.2020
5071 Clouds 7 1031 75 10000 5.7 330 21:55 03.01.2020
5072 Clouds 7 1031 75 10000 6.2 320 21:37 03.01.2020
5073 Clouds 7 1031 70 10000 5.7 320 21:18 03.01.2020
5074 Clouds 7 1031 70 10000 4.1 330 20:43 03.01.2020
5075 Clouds 7 1031 70 10000 4.1 330 20:19 03.01.2020
5076 Clouds 7 1031 70 10000 5.1 320 19:59 03.01.2020
5077 Clouds 7 1031 70 10000 4.6 320 19:40 03.01.2020
5078 Clouds 7 1031 70 10000 4.6 320 19:21 03.01.2020
5079 Clouds 8 1030 70 10000 5.1 330 18:46 03.01.2020
5080 Clouds 8 1030 70 10000 5.1 330 18:26 03.01.2020
5081 Clouds 8 1030 70 10000 5.1 330 18:26 03.01.2020
5082 Clouds 8 1030 66 10000 4.6 320 17:57 03.01.2020
5083 Clouds 8 1030 66 10000 5.7 320 17:39 03.01.2020
5084 Clouds 9 1030 66 10000 5.7 320 17:19 03.01.2020
5085 Clouds 9 1030 61 10000 5.1 320 16:43 03.01.2020
5086 Clouds 10 1030 61 10000 5.1 320 16:24 03.01.2020
5087 Clouds 10 1030 61 10000 5.1 320 15:59 03.01.2020
5088 Clouds 10 1030 61 10000 5.7 330 15:41 03.01.2020
5089 Clouds 10 1030 61 10000 5.7 330 15:19 03.01.2020
5090 Clouds 9 1030 61 10000 5.1 320 14:39 03.01.2020
5091 Clouds 9 1030 61 10000 5.1 320 14:20 03.01.2020
5092 Clouds 10 1030 61 10000 5.7 330 13:57 03.01.2020
5093 Clouds 10 1031 66 10000 6.7 330 13:38 03.01.2020
5094 Clouds 9 1031 66 10000 6.7 330 13:20 03.01.2020
5095 Clouds 10 1032 65 10000 6.7 330 12:40 03.01.2020
5096 Clouds 9 1032 65 10000 6.7 330 12:22 03.01.2020
5097 Clouds 9 1032 70 10000 7.2 330 11:49 03.01.2020
5098 Clouds 9 1032 70 10000 7.2 330 11:31 03.01.2020
5099 Clouds 6 1031 75 10000 7.2 330 10:57 03.01.2020
5100 Clouds 5 1031 75 10000 7.2 340 10:38 03.01.2020
5101 Clouds 5 1031 75 10000 7.2 340 10:20 03.01.2020
5102 Clouds 5 1031 80 10000 5.7 340 09:54 03.01.2020
5103 Clouds 5 1031 80 10000 5.7 340 09:36 03.01.2020
5104 Clouds 4 1030 86 10000 6.2 330 09:18 03.01.2020
5105 Clouds 4 1030 86 10000 5.7 330 08:44 03.01.2020
5106 Clouds 4 1030 86 10000 5.7 330 08:21 03.01.2020
5107 Clouds 5 1029 86 10000 5.1 330 07:43 03.01.2020
5108 Clouds 5 1029 86 10000 5.1 330 07:19 03.01.2020
5109 Clouds 5 1029 86 10000 5.1 330 07:19 03.01.2020
5110 Clouds 5 1029 86 10000 3.6 320 06:59 03.01.2020
5111 Clouds 5 1029 86 10000 4.1 320 06:40 03.01.2020
5112 Clouds 5 1029 86 10000 4.1 320 06:22 03.01.2020
5113 Clouds 5 1029 86 10000 4.1 320 06:22 03.01.2020
5114 Clouds 5 1029 87 10000 5.1 320 04:45 03.01.2020
5115 Clouds 5 1030 81 10000 4.6 330 03:38 03.01.2020
5116 Clouds 5 1030 87 10000 3.6 320 02:53 03.01.2020
5117 Clouds 6 1030 81 10000 3.6 320 01:51 03.01.2020
5118 Clouds 6 1031 81 10000 4.1 320 01:31 03.01.2020
5119 Clouds 6 1031 87 10000 3.1 310 00:40 03.01.2020
5120 Clouds 6 1031 87 10000 3.1 310 00:20 03.01.2020
5121 Clouds 6 1031 87 10000 3.1 320 23:39 02.01.2020
5122 Clouds 6 1031 87 10000 3.1 320 23:20 02.01.2020
5123 Clouds 6 1031 87 10000 3.1 320 22:59 02.01.2020
5124 Clouds 6 1031 81 10000 3.6 320 22:41 02.01.2020
5125 Clouds 7 1031 81 10000 3.6 320 22:20 02.01.2020
5126 Clouds 7 1031 81 9000 2.6 320 21:56 02.01.2020
5127 Clouds 7 1031 76 9000 2.6 310 21:38 02.01.2020
5128 Clouds 7 1031 81 9000 1.5 300 21:19 02.01.2020
5129 Clouds 7 1031 81 9000 1.5 300 20:56 02.01.2020
5130 Clouds 7 1031 81 10000 2.6 280 20:37 02.01.2020
5131 Clouds 8 1031 81 10000 2.6 280 20:18 02.01.2020
5132 Clouds 8 1031 81 10000 3.1 260 19:54 02.01.2020
5133 Clouds 8 1031 81 10000 3.1 260 19:36 02.01.2020
5134 Clouds 8 1031 81 10000 3.1 260 19:18 02.01.2020
5135 Clouds 9 1031 76 10000 4.1 240 18:43 02.01.2020
5136 Clouds 9 1031 76 10000 4.1 240 18:25 02.01.2020
5137 Clouds 9 1030 81 10000 4.1 240 17:58 02.01.2020
5138 Clouds 10 1030 76 10000 4.1 240 17:39 02.01.2020
5139 Clear 10 1030 76 10000 4.1 240 17:20 02.01.2020
5140 Clouds 11 1030 71 10000 4.6 240 16:59 02.01.2020
5141 Clouds 12 1030 66 10000 5.1 240 16:41 02.01.2020
5142 Clouds 12 1030 66 10000 6.2 240 16:20 02.01.2020
5143 Clouds 12 1030 66 10000 6.2 240 15:58 02.01.2020
5144 Clouds 12 1030 58 10000 6.2 250 15:40 02.01.2020
5145 Clouds 12 1030 58 10000 6.2 250 15:22 02.01.2020
5146 Clouds 12 1030 58 10000 6.7 260 14:57 02.01.2020
5147 Clouds 12 1030 62 10000 5.7 250 14:36 02.01.2020
5148 Clouds 12 1030 62 10000 5.7 250 14:18 02.01.2020
5149 Clouds 12 1031 66 10000 2.6 300 13:50 02.01.2020
5150 Clouds 11 1032 66 10000 2.6 320 13:31 02.01.2020
5151 Clouds 10 1033 75 10000 4.1 320 12:46 02.01.2020
5152 Clouds 10 1033 75 10000 4.1 320 12:28 02.01.2020
5153 Clouds 9 1033 81 10000 5.7 330 11:59 02.01.2020
5154 Clouds 9 1033 81 10000 5.7 330 11:41 02.01.2020
5155 Clouds 7 1033 81 10000 5.7 330 11:20 02.01.2020
5156 Clouds 6 1033 80 9000 6.7 330 10:45 02.01.2020
5157 Clouds 5 1033 80 9000 6.7 330 10:26 02.01.2020
5158 Clouds 5 1033 80 9000 6.2 330 09:55 02.01.2020
5159 Clouds 4 1032 86 10000 6.7 320 09:34 02.01.2020
5160 Clouds 4 1032 86 10000 6.7 320 08:50 02.01.2020
5161 Clouds 4 1032 86 10000 6.7 330 08:28 02.01.2020
5162 Clouds 4 1032 86 10000 5.7 320 07:57 02.01.2020
5163 Clouds 4 1031 86 10000 5.1 330 07:31 02.01.2020
5164 Clouds 4 1031 86 10000 4.6 320 06:57 02.01.2020
5165 Clouds 4 1031 86 10000 4.6 320 06:57 02.01.2020
5166 Clouds 4 1031 86 10000 5.1 320 06:39 02.01.2020
5167 Clouds 4 1031 86 10000 3.6 320 05:37 02.01.2020
5168 Clouds 4 1031 86 10000 3.1 320 04:34 02.01.2020
5169 Clouds 5 1031 86 10000 4.1 320 03:19 02.01.2020
5170 Clouds 5 1031 81 10000 4.6 320 02:20 02.01.2020
5171 Clouds 5 1031 81 10000 3.6 320 01:47 02.01.2020
5172 Clouds 5 1031 81 10000 3.6 320 01:19 02.01.2020
5173 Clouds 5 1032 81 10000 4.1 320 00:36 02.01.2020
5174 Clouds 6 1032 81 10000 3.6 320 00:18 02.01.2020
5175 Clouds 6 1032 81 10000 3.6 320 23:40 01.01.2020
5176 Clouds 6 1032 81 10000 3.6 320 23:20 01.01.2020
5177 Clouds 6 1032 81 10000 3.6 320 22:38 01.01.2020
5178 Clouds 7 1032 81 10000 3.6 320 22:20 01.01.2020
5179 Clouds 7 1032 87 10000 3.6 320 21:57 01.01.2020
5180 Clouds 7 1032 87 10000 3.1 320 21:39 01.01.2020
5181 Clouds 7 1032 81 10000 2.1 320 21:20 01.01.2020
5182 Clouds 8 1032 81 10000 2.1 320 20:56 01.01.2020
5183 Clouds 8 1032 81 10000 1.5 320 20:38 01.01.2020
5184 Clouds 8 1032 81 10000 1 162 20:19 01.01.2020
5185 Clouds 8 1032 81 10000 1 162 20:19 01.01.2020
5186 Clouds 8 1032 81 10000 1 162 19:55 01.01.2020
5187 Clouds 8 1031 76 10000 1.5 90 19:37 01.01.2020
5188 Clouds 8 1031 81 10000 2.1 30 19:19 01.01.2020
5189 Clouds 9 1031 81 10000 2.1 30 18:56 01.01.2020
5190 Clouds 9 1031 76 10000 1.5 40 18:36 01.01.2020
5191 Clouds 9 1031 71 10000 1 0 18:18 01.01.2020
5192 Clouds 9 1031 71 10000 1 0 17:57 01.01.2020
5193 Clouds 10 1031 71 10000 1 120 17:38 01.01.2020
5194 Clouds 10 1031 71 10000 1 120 17:19 01.01.2020
5195 Clouds 11 1031 71 10000 2.1 150 16:55 01.01.2020
5196 Clouds 11 1031 71 10000 2.1 140 16:36 01.01.2020
5197 Clouds 11 1031 71 10000 2.1 140 16:36 01.01.2020
5198 Clouds 11 1031 71 10000 2.1 140 16:18 01.01.2020
5199 Clouds 12 1031 66 10000 1 0 15:54 01.01.2020
5200 Clouds 12 1031 66 10000 1.5 220 15:36 01.01.2020
5201 Clouds 11 1031 62 10000 2.6 200 15:18 01.01.2020
5202 Clouds 11 1031 66 10000 1 0 14:40 01.01.2020
5203 Clouds 11 1031 66 10000 1 0 14:22 01.01.2020
5204 Clouds 11 1032 66 10000 1.5 320 13:56 01.01.2020
5205 Clouds 11 1032 66 10000 2.6 320 13:37 01.01.2020
5206 Clouds 10 1032 71 10000 4.1 320 13:19 01.01.2020
5207 Clouds 11 1032 71 10000 4.1 320 12:57 01.01.2020
5208 Clear 11 1033 71 10000 4.6 320 12:39 01.01.2020
5209 Clear 11 1033 70 10000 4.6 320 12:19 01.01.2020
5210 Clear 10 1033 70 10000 4.6 320 11:55 01.01.2020
5211 Clear 10 1033 75 10000 3.6 320 11:36 01.01.2020
5212 Clear 7 1033 75 10000 3.6 320 11:18 01.01.2020
5213 Clouds 6 1033 81 10000 4.6 320 10:41 01.01.2020
5214 Clouds 5 1033 81 10000 4.6 320 10:21 01.01.2020
5215 Clear 5 1032 86 10000 4.6 330 09:59 01.01.2020
5216 Clear 5 1032 86 10000 5.1 330 09:38 01.01.2020
5217 Clear 5 1032 86 10000 5.1 330 09:38 01.01.2020
5218 Clouds 5 1032 86 10000 5.1 330 09:19 01.01.2020
5219 Clouds 5 1032 86 10000 5.1 330 08:55 01.01.2020
5220 Clouds 5 1032 86 10000 4.6 330 08:37 01.01.2020
5221 Clouds 5 1032 86 10000 4.6 330 08:37 01.01.2020
5222 Clouds 4 1032 86 10000 4.6 330 08:19 01.01.2020
5223 Clouds 4 1032 86 10000 5.1 330 07:54 01.01.2020
5224 Clouds 5 1031 86 10000 5.7 330 07:36 01.01.2020
5225 Clouds 5 1031 86 10000 5.1 320 06:45 01.01.2020
5226 Clouds 5 1031 86 10000 5.1 320 06:21 01.01.2020
5227 Clouds 5 1031 86 10000 4.6 320 05:22 01.01.2020
5228 Clouds 5 1031 75 10000 4.6 330 03:46 01.01.2020
5229 Clouds 5 1031 75 10000 4.6 330 03:23 01.01.2020
5230 Clouds 5 1031 75 10000 4.6 330 03:23 01.01.2020
5231 Clouds 5 1031 81 10000 5.7 330 02:57 01.01.2020
5232 Clouds 5 1031 81 10000 5.1 340 02:36 01.01.2020
5233 Clouds 6 1031 81 10000 5.1 330 01:59 01.01.2020
5234 Clouds 6 1032 81 10000 5.7 340 01:38 01.01.2020
5235 Clouds 6 1032 81 10000 5.7 340 01:20 01.01.2020
5236 Clouds 6 1032 81 10000 6.2 330 00:44 01.01.2020
5237 Clouds 6 1032 81 10000 6.2 330 00:25 01.01.2020
5238 Clouds 6 1032 81 10000 4.6 320 23:41 31.12.2019
5239 Clouds 6 1032 81 10000 4.6 320 23:21 31.12.2019
5240 Clouds 6 1032 81 10000 5.1 330 22:57 31.12.2019
5241 Clouds 7 1032 81 10000 5.1 330 22:39 31.12.2019
5242 Clouds 7 1032 81 10000 5.1 330 22:20 31.12.2019
5243 Clouds 7 1032 81 10000 4.6 330 21:58 31.12.2019
5244 Clouds 7 1032 81 10000 4.6 330 21:40 31.12.2019
5245 Clouds 7 1032 81 10000 4.6 330 21:21 31.12.2019
5246 Clouds 7 1032 81 10000 4.1 330 20:56 31.12.2019
5247 Clouds 7 1032 76 10000 4.1 330 20:37 31.12.2019
5248 Clouds 8 1032 76 10000 4.1 330 20:19 31.12.2019
5249 Clouds 8 1032 76 10000 4.1 330 19:54 31.12.2019
5250 Clouds 8 1032 71 10000 4.1 330 19:36 31.12.2019
5251 Clouds 9 1032 71 10000 4.1 320 19:18 31.12.2019
5252 Clouds 9 1032 71 10000 4.1 320 18:54 31.12.2019
5253 Clouds 9 1032 71 10000 4.1 330 18:36 31.12.2019
5254 Clear 9 1031 71 10000 2.6 310 18:18 31.12.2019
5255 Clear 9 1031 71 10000 2.6 310 17:54 31.12.2019
5256 Clear 10 1031 66 10000 2.6 320 17:36 31.12.2019
5257 Clear 10 1031 66 10000 2.6 320 17:18 31.12.2019
5258 Clear 11 1031 62 10000 3.6 330 16:54 31.12.2019
5259 Clouds 11 1031 66 10000 2.6 320 16:36 31.12.2019
5260 Clouds 12 1031 66 10000 2.6 320 16:18 31.12.2019
5261 Clouds 12 1031 66 10000 2.6 320 16:18 31.12.2019
5262 Clouds 12 1031 62 10000 3.6 340 15:54 31.12.2019
5263 Clouds 12 1031 62 10000 3.1 300 15:36 31.12.2019
5264 Clouds 12 1031 62 10000 3.1 300 15:36 31.12.2019
5265 Clouds 13 1031 58 10000 2.6 330 15:18 31.12.2019
5266 Clouds 13 1031 58 10000 2.6 330 14:54 31.12.2019
5267 Clear 12 1032 58 10000 3.1 310 14:36 31.12.2019
5268 Clear 12 1032 58 10000 3.1 310 14:18 31.12.2019
5269 Clouds 12 1032 62 10000 3.6 320 13:54 31.12.2019
5270 Clouds 12 1033 66 10000 3.1 320 13:36 31.12.2019
5271 Clouds 12 1033 71 10000 4.1 320 13:18 31.12.2019
5272 Clouds 12 1034 71 10000 4.6 320 12:40 31.12.2019
5273 Clouds 11 1034 71 10000 4.6 320 12:20 31.12.2019
5274 Clouds 11 1034 76 10000 5.7 330 11:57 31.12.2019
5275 Clouds 10 1034 76 10000 6.2 320 11:39 31.12.2019
5276 Clouds 9 1034 76 10000 6.2 320 11:20 31.12.2019
5277 Clouds 8 1034 81 9000 6.7 320 10:58 31.12.2019
5278 Clouds 8 1034 81 9000 6.7 330 10:38 31.12.2019
5279 Clouds 8 1034 81 9000 6.7 330 10:20 31.12.2019
5280 Clouds 8 1033 81 9000 6.2 330 09:59 31.12.2019
5281 Clouds 7 1033 81 9000 6.2 330 09:39 31.12.2019
5282 Clouds 7 1033 81 9000 6.2 330 09:39 31.12.2019
5283 Clouds 7 1033 81 9000 6.2 330 09:39 31.12.2019
5284 Clouds 7 1033 81 9000 6.2 330 09:21 31.12.2019
5285 Clouds 7 1033 81 10000 6.2 330 08:57 31.12.2019
5286 Clouds 7 1032 81 10000 6.7 330 08:39 31.12.2019
5287 Clouds 7 1032 81 10000 5.7 330 08:20 31.12.2019
5288 Clouds 6 1032 81 10000 6.2 330 07:43 31.12.2019
5289 Clouds 6 1032 81 10000 6.2 330 07:22 31.12.2019
5290 Clouds 6 1032 81 10000 6.7 330 06:50 31.12.2019
5291 Clouds 6 1032 81 10000 7.2 330 05:58 31.12.2019
5292 Clouds 7 1032 87 10000 7.7 330 04:30 31.12.2019
5293 Clouds 7 1032 81 10000 7.7 330 03:59 31.12.2019
5294 Clouds 7 1032 81 10000 7.7 330 03:59 31.12.2019
5295 Clouds 7 1032 81 10000 7.2 330 02:56 31.12.2019
5296 Clouds 6 1032 81 10000 6.7 330 02:19 31.12.2019
5297 Clouds 6 1032 81 10000 6.7 330 01:48 31.12.2019
5298 Clouds 6 1032 81 10000 6.2 330 01:28 31.12.2019
5299 Clouds 6 1033 81 10000 6.2 330 00:47 31.12.2019
5300 Clouds 6 1033 81 10000 6.2 330 00:23 31.12.2019
5301 Clouds 6 1033 81 10000 5.7 330 23:57 30.12.2019
5302 Clouds 7 1033 75 10000 5.1 330 23:38 30.12.2019
5303 Clouds 7 1033 75 10000 5.1 330 23:20 30.12.2019
5304 Clear 7 1033 81 10000 5.7 330 22:58 30.12.2019
5305 Clear 7 1032 81 10000 4.6 330 22:39 30.12.2019
5306 Clear 7 1032 76 10000 4.6 330 22:20 30.12.2019
5307 Clear 7 1032 76 10000 4.6 330 21:57 30.12.2019
5308 Clear 8 1032 81 10000 3.6 340 21:38 30.12.2019
5309 Clear 8 1032 87 10000 2.6 330 21:19 30.12.2019
5310 Clear 8 1032 87 10000 2.6 330 20:57 30.12.2019
5311 Clear 8 1032 87 10000 2.1 320 20:39 30.12.2019
5312 Clear 8 1032 87 10000 2.1 310 20:20 30.12.2019
5313 Clear 9 1032 87 10000 2.1 310 19:58 30.12.2019
5314 Clear 9 1032 81 10000 2.6 290 19:38 30.12.2019
5315 Clear 9 1032 76 10000 2.6 240 19:19 30.12.2019
5316 Clear 9 1032 76 10000 2.6 240 18:57 30.12.2019
5317 Clouds 10 1032 76 10000 3.1 220 18:38 30.12.2019
5318 Clouds 10 1032 76 10000 3.1 220 18:20 30.12.2019
5319 Clouds 10 1032 76 10000 3.1 220 18:20 30.12.2019
5320 Clouds 10 1032 76 10000 3.1 220 17:55 30.12.2019
5321 Clouds 11 1032 71 10000 3.1 220 17:37 30.12.2019
5322 Clouds 12 1032 71 10000 3.1 220 17:18 30.12.2019
5323 Clouds 12 1032 71 10000 2.6 220 16:57 30.12.2019
5324 Clouds 13 1032 71 10000 3.1 210 16:37 30.12.2019
5325 Clouds 13 1032 71 10000 3.1 210 16:18 30.12.2019
5326 Clouds 13 1032 66 10000 2.1 210 15:55 30.12.2019
5327 Clouds 13 1032 62 10000 0.5 0 15:37 30.12.2019
5328 Clouds 13 1032 66 10000 2.1 310 15:18 30.12.2019
5329 Clouds 13 1032 58 10000 2.6 310 14:43 30.12.2019
5330 Clouds 13 1032 58 10000 2.6 310 14:20 30.12.2019
5331 Clouds 13 1032 62 10000 3.6 330 13:57 30.12.2019
5332 Clouds 13 1033 62 10000 1.5 320 13:39 30.12.2019
5333 Clouds 13 1033 62 10000 1.5 320 13:21 30.12.2019
5334 Clouds 13 1033 62 10000 1.5 340 12:56 30.12.2019
5335 Clouds 12 1034 66 10000 2.6 330 12:36 30.12.2019
5336 Clouds 12 1034 66 10000 2.6 330 12:18 30.12.2019
5337 Clouds 12 1034 71 10000 3.1 330 11:40 30.12.2019
5338 Clouds 11 1034 76 10000 3.6 320 11:19 30.12.2019
5339 Clouds 10 1034 76 10000 3.6 320 10:57 30.12.2019
5340 Clouds 9 1034 76 10000 4.1 330 10:38 30.12.2019
5341 Clouds 9 1034 76 10000 4.1 330 10:18 30.12.2019
5342 Clouds 9 1033 76 10000 3.6 330 09:41 30.12.2019
5343 Clouds 8 1033 76 10000 3.6 330 09:20 30.12.2019
5344 Clouds 8 1033 76 10000 4.1 320 08:55 30.12.2019
5345 Clouds 8 1033 81 10000 3.6 320 08:36 30.12.2019
5346 Clouds 8 1032 76 10000 4.1 320 08:18 30.12.2019
5347 Clouds 8 1032 76 10000 3.6 320 07:41 30.12.2019
5348 Clouds 8 1032 76 10000 3.6 330 06:58 30.12.2019
5349 Clouds 8 1032 76 10000 3.1 330 06:23 30.12.2019
5350 Clouds 8 1032 76 10000 3.1 330 06:23 30.12.2019
5351 Clouds 9 1032 76 10000 3.1 330 04:23 30.12.2019
5352 Clouds 10 1032 76 10000 3.6 330 03:39 30.12.2019
5353 Clouds 9 1032 76 10000 3.6 330 02:41 30.12.2019
5354 Clouds 10 1032 76 10000 3.6 330 02:20 30.12.2019
5355 Clouds 10 1032 81 10000 3.6 320 01:25 30.12.2019
5356 Clouds 10 1032 81 10000 2.6 330 00:46 30.12.2019
5357 Clouds 10 1032 81 10000 2.6 330 00:26 30.12.2019
5358 Clouds 11 1032 81 10000 3.1 340 23:40 29.12.2019
5359 Clouds 10 1032 81 10000 3.1 340 23:22 29.12.2019
5360 Clouds 10 1032 81 10000 3.1 320 22:57 29.12.2019
5361 Clouds 10 1032 81 10000 3.6 330 22:38 29.12.2019
5362 Clouds 10 1032 87 10000 2.6 310 22:20 29.12.2019
5363 Clouds 10 1032 87 10000 2.6 310 21:54 29.12.2019
5364 Clouds 11 1032 87 10000 1.5 320 21:36 29.12.2019
5365 Clouds 10 1032 87 10000 2.1 320 21:18 29.12.2019
5366 Clouds 10 1031 87 10000 2.1 330 20:40 29.12.2019
5367 Clouds 10 1031 87 10000 2.1 330 20:22 29.12.2019
5368 Clouds 10 1031 87 10000 2.1 340 20:00 29.12.2019
5369 Clouds 10 1031 87 10000 0.5 330 19:40 29.12.2019
5370 Clouds 10 1031 87 10000 0.5 330 19:22 29.12.2019
5371 Clouds 10 1031 81 10000 1.47 150 18:59 29.12.2019
5372 Clouds 10 1031 81 10000 1.47 150 18:59 29.12.2019
5373 Clouds 11 1031 76 10000 1.47 150 18:40 29.12.2019
5374 Clouds 10 1031 76 10000 1 160 18:21 29.12.2019
5375 Clouds 10 1031 76 10000 1 160 17:58 29.12.2019
5376 Clouds 11 1031 76 10000 1 0 17:39 29.12.2019
5377 Clouds 12 1031 76 10000 1 0 17:20 29.12.2019
5378 Clouds 12 1031 71 10000 1 0 16:57 29.12.2019
5379 Clouds 12 1031 71 10000 1.5 150 16:39 29.12.2019
5380 Clouds 12 1031 71 10000 1.5 150 16:39 29.12.2019
5381 Clouds 13 1031 71 10000 1.5 150 16:21 29.12.2019
5382 Clouds 13 1031 71 10000 1.5 150 16:21 29.12.2019
5383 Clouds 13 1031 71 10000 2.1 150 15:59 29.12.2019
5384 Clouds 13 1031 71 10000 2.1 130 15:40 29.12.2019
5385 Clouds 13 1031 67 10000 1.5 120 15:20 29.12.2019
5386 Clouds 13 1031 67 10000 1.5 120 14:59 29.12.2019
5387 Clouds 13 1031 66 10000 1.52 151 14:41 29.12.2019
5388 Clouds 13 1031 66 10000 1.44 265 14:19 29.12.2019
5389 Clouds 13 1031 66 10000 0.5 0 13:59 29.12.2019
5390 Clouds 13 1032 66 10000 1 0 13:40 29.12.2019
5391 Clouds 13 1032 66 10000 1 0 13:22 29.12.2019
5392 Clouds 13 1032 66 10000 1.5 320 12:57 29.12.2019
5393 Clouds 13 1033 71 10000 2.6 320 12:38 29.12.2019
5394 Clouds 13 1033 76 10000 3.6 320 12:20 29.12.2019
5395 Clouds 12 1033 76 10000 3.1 320 11:41 29.12.2019
5396 Clouds 10 1033 76 10000 3.1 320 11:21 29.12.2019
5397 Clouds 10 1033 76 10000 3.1 320 10:57 29.12.2019
5398 Clouds 9 1033 76 10000 3.6 340 10:39 29.12.2019
5399 Clouds 9 1033 81 10000 3.6 330 10:18 29.12.2019
5400 Clouds 9 1033 81 10000 3.6 330 09:46 29.12.2019
5401 Clouds 9 1033 81 10000 3.6 320 09:28 29.12.2019
5402 Clouds 9 1033 81 10000 4.1 330 08:56 29.12.2019
5403 Clouds 9 1033 81 10000 3.6 330 08:38 29.12.2019
5404 Clouds 9 1033 81 10000 3.6 330 08:20 29.12.2019
5405 Clouds 9 1032 81 10000 3.6 330 07:44 29.12.2019
5406 Clouds 9 1032 81 10000 3.6 330 07:25 29.12.2019
5407 Clouds 8 1032 87 10000 4.6 320 06:38 29.12.2019
5408 Clouds 8 1032 87 10000 4.6 320 06:18 29.12.2019
5409 Clouds 8 1032 87 10000 4.1 330 05:44 29.12.2019
5410 Clouds 9 1032 87 10000 4.1 330 04:32 29.12.2019
5411 Clouds 9 1032 93 10000 4.1 330 03:35 29.12.2019
5412 Clouds 9 1032 87 10000 4.6 330 02:27 29.12.2019
5413 Clouds 8 1032 87 10000 4.6 330 01:52 29.12.2019
5414 Clouds 8 1032 93 10000 4.1 330 01:29 29.12.2019
5415 Clouds 9 1032 93 10000 4.1 320 00:45 29.12.2019
5416 Clouds 9 1032 93 10000 4.1 320 00:24 29.12.2019
5417 Clouds 8 1032 93 10000 4.6 330 23:55 28.12.2019
5418 Clouds 9 1032 93 10000 3.1 330 23:37 28.12.2019
5419 Clouds 8 1032 93 10000 2.6 320 23:18 28.12.2019
5420 Clouds 9 1032 93 10000 2.6 330 22:37 28.12.2019
5421 Clouds 9 1032 87 10000 3.1 330 22:18 28.12.2019
5422 Clouds 9 1032 87 10000 3.1 330 21:56 28.12.2019
5423 Clouds 9 1032 87 10000 3.1 330 21:56 28.12.2019
5424 Clouds 9 1031 87 10000 2.1 330 21:37 28.12.2019
5425 Clouds 9 1031 87 10000 2.1 330 21:19 28.12.2019
5426 Clouds 9 1031 87 10000 2.1 320 20:54 28.12.2019
5427 Clouds 10 1031 87 10000 2.1 320 20:36 28.12.2019
5428 Clouds 9 1031 81 10000 2.1 330 20:18 28.12.2019
5429 Clouds 10 1031 87 10000 0.5 0 19:41 28.12.2019
5430 Clouds 10 1031 87 10000 0.5 0 19:23 28.12.2019
5431 Clouds 11 1031 71 10000 1.49 128 18:59 28.12.2019
5432 Clouds 11 1031 66 10000 1.49 128 18:41 28.12.2019
5433 Clouds 11 1031 66 10000 1.49 128 18:20 28.12.2019
5434 Clouds 12 1030 76 10000 1.49 128 17:59 28.12.2019
5435 Clouds 13 1030 67 10000 1.5 130 17:39 28.12.2019
5436 Clouds 13 1030 67 10000 2.1 130 17:21 28.12.2019
5437 Clouds 13 1030 67 10000 2.6 120 16:50 28.12.2019
5438 Clouds 13 1030 67 10000 2.6 120 16:27 28.12.2019
5439 Clouds 14 1030 72 10000 3.1 110 15:58 28.12.2019
5440 Clouds 14 1030 67 10000 2.6 90 15:39 28.12.2019
5441 Clouds 14 1030 71 10000 2.6 100 15:21 28.12.2019
5442 Clouds 14 1030 67 10000 2.6 100 14:47 28.12.2019
5443 Clouds 14 1030 67 10000 2.6 100 14:24 28.12.2019
5444 Clouds 14 1030 62 10000 2.6 100 13:58 28.12.2019
5445 Clouds 14 1030 62 10000 0.85 155 13:39 28.12.2019
5446 Clouds 13 1030 62 10000 0.67 159 13:20 28.12.2019
5447 Clear 13 1030 62 10000 2.1 340 12:55 28.12.2019
5448 Clear 13 1030 62 10000 3.1 330 12:36 28.12.2019
5449 Clear 13 1031 62 10000 4.1 330 12:18 28.12.2019
5450 Clear 12 1031 66 10000 4.1 330 11:40 28.12.2019
5451 Clear 10 1031 66 10000 4.1 330 11:21 28.12.2019
5452 Clear 9 1030 70 10000 5.1 330 10:47 28.12.2019
5453 Clear 8 1030 75 10000 5.1 330 10:23 28.12.2019
5454 Clear 8 1030 81 10000 5.7 320 10:00 28.12.2019
5455 Clear 7 1030 81 10000 5.7 320 10:00 28.12.2019
5456 Clear 7 1030 80 10000 5.7 320 09:41 28.12.2019
5457 Clear 7 1030 80 10000 5.7 320 09:23 28.12.2019
5458 Clear 7 1030 80 10000 5.7 320 09:23 28.12.2019
5459 Clouds 7 1029 80 10000 5.7 320 08:57 28.12.2019
5460 Clouds 6 1029 80 10000 5.7 330 08:38 28.12.2019
5461 Clouds 6 1029 86 10000 4.6 330 08:19 28.12.2019
5462 Clouds 6 1029 86 10000 4.6 330 07:41 28.12.2019
5463 Clouds 6 1029 86 10000 5.1 320 06:55 28.12.2019
5464 Clouds 6 1029 81 10000 6.2 330 05:43 28.12.2019
5465 Clouds 7 1029 81 10000 4.6 320 03:48 28.12.2019
5466 Clouds 7 1028 81 10000 6.2 330 02:50 28.12.2019
5467 Clear 7 1028 87 10000 5.1 330 02:20 28.12.2019
5468 Clear 7 1028 81 10000 5.1 330 01:53 28.12.2019
5469 Clear 7 1028 81 10000 5.1 330 01:22 28.12.2019
5470 Clear 7 1029 81 10000 5.1 330 00:44 28.12.2019
5471 Clear 7 1029 81 10000 5.1 330 00:26 28.12.2019
5472 Clear 7 1028 81 10000 5.1 330 23:57 27.12.2019
5473 Clear 7 1028 75 10000 4.1 330 23:37 27.12.2019
5474 Clear 7 1028 75 10000 4.1 330 23:18 27.12.2019
5475 Clear 7 1028 75 10000 4.6 320 22:55 27.12.2019
5476 Clear 7 1028 75 10000 6.2 320 22:37 27.12.2019
5477 Clear 7 1028 76 10000 5.7 310 22:19 27.12.2019
5478 Clear 8 1028 76 10000 6.2 320 21:41 27.12.2019
5479 Clear 8 1028 76 10000 6.2 320 21:23 27.12.2019
5480 Clear 8 1028 76 10000 5.7 320 20:44 27.12.2019
5481 Clouds 9 1028 76 10000 5.7 320 20:26 27.12.2019
5482 Clouds 9 1027 76 10000 6.2 320 19:58 27.12.2019
5483 Clouds 9 1027 76 10000 6.2 320 19:58 27.12.2019
5484 Clouds 9 1027 76 10000 5.1 330 19:40 27.12.2019
5485 Clouds 9 1027 76 10000 5.1 330 19:19 27.12.2019
5486 Clouds 9 1028 71 10000 4.6 330 18:56 27.12.2019
5487 Clouds 10 1028 71 10000 4.1 330 18:37 27.12.2019
5488 Clouds 10 1027 66 10000 3.6 320 18:18 27.12.2019
5489 Clouds 10 1027 66 10000 3.6 320 17:55 27.12.2019
5490 Clouds 11 1027 66 10000 4.1 330 17:37 27.12.2019
5491 Clouds 12 1027 62 10000 3.6 330 17:18 27.12.2019
5492 Clouds 13 1027 62 10000 4.1 320 16:43 27.12.2019
5493 Clouds 13 1027 62 10000 4.1 320 16:23 27.12.2019
5494 Clouds 13 1027 62 10000 4.1 340 15:58 27.12.2019
5495 Clouds 13 1027 62 10000 4.6 310 15:37 27.12.2019
5496 Clouds 13 1027 62 10000 4.6 310 15:19 27.12.2019
5497 Clouds 13 1027 62 10000 4.6 330 14:56 27.12.2019
5498 Clouds 12 1027 62 10000 5.7 330 14:38 27.12.2019
5499 Clouds 13 1027 62 10000 5.7 330 14:20 27.12.2019
5500 Clouds 12 1027 67 10000 4.1 330 13:47 27.12.2019
5501 Clouds 12 1028 62 10000 5.7 340 13:24 27.12.2019
5502 Clouds 12 1029 62 10000 6.2 320 12:56 27.12.2019
5503 Clouds 12 1029 66 10000 7.2 320 12:38 27.12.2019
5504 Clouds 11 1030 71 10000 6.2 330 12:20 27.12.2019
5505 Clouds 11 1030 71 10000 6.2 330 11:42 27.12.2019
5506 Clouds 10 1030 71 10000 6.7 340 11:22 27.12.2019
5507 Clouds 9 1030 71 10000 6.7 340 10:55 27.12.2019
5508 Clouds 9 1030 76 10000 7.2 340 10:36 27.12.2019
5509 Clouds 9 1030 76 10000 7.2 340 10:18 27.12.2019
5510 Clouds 8 1029 81 10000 6.2 330 09:40 27.12.2019
5511 Clouds 8 1029 81 10000 6.2 330 09:21 27.12.2019
5512 Clouds 7 1029 81 10000 5.1 330 08:55 27.12.2019
5513 Clouds 7 1029 81 10000 6.2 320 08:35 27.12.2019
5514 Clouds 7 1029 81 10000 6.2 330 07:50 27.12.2019
5515 Clouds 7 1028 81 10000 6.7 330 07:31 27.12.2019
5516 Clouds 8 1028 81 10000 6.2 330 06:36 27.12.2019
5517 Clouds 8 1029 81 10000 6.2 330 05:28 27.12.2019
5518 Clouds 9 1029 81 10000 5.7 330 03:26 27.12.2019
5519 Clear 9 1029 76 10000 5.7 320 02:20 27.12.2019
5520 Clear 9 1029 81 10000 5.7 330 01:37 27.12.2019
5521 Clear 10 1028 81 10000 6.2 330 01:18 27.12.2019
5522 Clear 10 1029 81 10000 6.2 340 00:41 27.12.2019
5523 Clear 10 1029 81 10000 6.2 340 00:23 27.12.2019
5524 Clear 10 1029 81 10000 5.7 320 23:41 26.12.2019
5525 Clear 10 1029 81 10000 5.7 320 23:22 26.12.2019
5526 Clear 10 1029 76 10000 5.1 320 22:47 26.12.2019
5527 Clear 10 1029 76 10000 5.1 320 22:23 26.12.2019
5528 Clouds 11 1028 76 10000 4.6 330 21:59 26.12.2019
5529 Clear 11 1028 76 10000 3.6 320 21:39 26.12.2019
5530 Clear 11 1027 76 10000 3.6 330 21:20 26.12.2019
5531 Clear 11 1027 76 10000 3.6 330 20:46 26.12.2019
5532 Clouds 12 1027 76 10000 3.6 330 20:23 26.12.2019
5533 Clouds 12 1027 81 10000 2.6 340 19:59 26.12.2019
5534 Clouds 12 1027 76 10000 3.1 330 19:40 26.12.2019
5535 Clouds 12 1027 76 10000 3.1 330 19:22 26.12.2019
5536 Clouds 12 1027 76 10000 0.22 39 18:58 26.12.2019
5537 Clouds 13 1026 82 10000 1 0 18:39 26.12.2019
5538 Clouds 13 1026 67 10000 0.5 360 18:19 26.12.2019
5539 Clouds 13 1026 67 10000 0.5 360 17:57 26.12.2019
5540 Clouds 14 1026 72 10000 0.22 39 17:38 26.12.2019
5541 Clouds 14 1026 72 10000 1.5 70 17:18 26.12.2019
5542 Clouds 15 1025 72 10000 1.5 60 16:43 26.12.2019
5543 Clouds 16 1025 77 10000 1 0 16:23 26.12.2019
5544 Clouds 16 1025 77 10000 1 0 15:56 26.12.2019
5545 Clouds 16 1025 77 10000 1 0 15:56 26.12.2019
5546 Clouds 16 1025 72 10000 2.1 100 15:38 26.12.2019
5547 Clouds 16 1025 72 10000 2.1 100 15:18 26.12.2019
5548 Clouds 16 1025 82 10000 3.6 80 14:40 26.12.2019
5549 Clouds 16 1025 82 10000 3.6 80 14:22 26.12.2019
5550 Clouds 15 1024 72 10000 3.1 50 13:44 26.12.2019
5551 Clouds 15 1024 72 10000 3.1 50 13:44 26.12.2019
5552 Clouds 15 1024 72 10000 3.1 50 13:22 26.12.2019
5553 Clouds 15 1025 62 10000 3.1 320 12:58 26.12.2019
5554 Clouds 15 1025 62 10000 3.1 320 12:58 26.12.2019
5555 Clouds 15 1025 66 10000 3.1 320 12:39 26.12.2019
5556 Clouds 15 1025 66 10000 3.1 320 12:39 26.12.2019
5557 Clouds 14 1024 66 10000 3.6 330 12:20 26.12.2019
5558 Clouds 14 1024 66 10000 3.6 330 11:57 26.12.2019
5559 Clouds 14 1024 66 10000 4.6 330 11:39 26.12.2019
5560 Clouds 12 1024 66 10000 4.6 330 11:20 26.12.2019
5561 Clouds 12 1024 71 10000 4.6 330 10:49 26.12.2019
5562 Clouds 11 1023 71 10000 5.1 350 10:19 26.12.2019
5563 Clouds 10 1022 71 10000 6.2 330 09:53 26.12.2019
5564 Clouds 10 1022 71 10000 6.2 330 09:32 26.12.2019
5565 Clouds 10 1021 76 10000 6.2 320 08:55 26.12.2019
5566 Clouds 9 1021 76 10000 5.1 330 08:37 26.12.2019
5567 Clouds 9 1021 76 10000 5.7 330 08:18 26.12.2019
5568 Clouds 10 1021 76 10000 5.1 330 07:31 26.12.2019
5569 Clouds 9 1021 81 10000 5.7 320 06:54 26.12.2019
5570 Clouds 10 1020 81 10000 4.6 320 06:33 26.12.2019
5571 Clouds 10 1020 81 10000 6.7 330 05:49 26.12.2019
5572 Clouds 10 1021 76 10000 6.2 330 04:59 26.12.2019
5573 Clouds 10 1021 81 10000 8.2 330 04:32 26.12.2019
5574 Clouds 10 1021 81 10000 7.7 330 03:20 26.12.2019
5575 Clouds 10 1021 81 10000 6.7 320 02:40 26.12.2019
5576 Clouds 10 1021 81 10000 6.7 320 02:20 26.12.2019
5577 Clouds 11 1021 81 10000 5.1 330 01:42 26.12.2019
5578 Clouds 10 1021 81 10000 5.1 330 01:24 26.12.2019
5579 Clouds 11 1022 81 10000 5.7 310 00:42 26.12.2019
5580 Clouds 11 1022 81 10000 5.1 310 00:22 26.12.2019
5581 Clouds 11 1022 81 10000 5.1 310 23:56 25.12.2019
5582 Clouds 11 1022 81 10000 2.1 310 23:36 25.12.2019
5583 Clear 11 1022 81 10000 2.1 310 23:18 25.12.2019
5584 Clear 11 1022 76 10000 3.1 320 22:55 25.12.2019
5585 Clear 11 1022 81 10000 3.1 320 22:36 25.12.2019
5586 Clear 11 1022 81 10000 3.1 290 22:18 25.12.2019
5587 Clear 11 1022 81 10000 2.6 300 21:40 25.12.2019
5588 Clear 12 1022 81 10000 2.6 300 21:22 25.12.2019
5589 Clear 11 1022 87 10000 2.6 290 20:58 25.12.2019
5590 Clear 12 1022 87 10000 2.1 260 20:40 25.12.2019
5591 Clear 12 1022 76 10000 1.5 270 20:18 25.12.2019
5592 Clear 12 1022 76 10000 1.5 270 19:57 25.12.2019
5593 Clear 13 1022 82 10000 1.5 280 19:39 25.12.2019
5594 Clear 13 1022 82 10000 1.5 280 19:21 25.12.2019
5595 Clear 13 1022 82 10000 2.1 230 18:39 25.12.2019
5596 Clear 14 1022 82 10000 2.1 230 18:20 25.12.2019
5597 Clear 15 1022 76 10000 2.1 220 17:57 25.12.2019
5598 Clear 15 1022 82 10000 2.1 200 17:36 25.12.2019
5599 Clear 16 1022 72 10000 4.1 230 17:18 25.12.2019
5600 Clear 17 1022 72 10000 3.1 230 16:39 25.12.2019
5601 Clear 16 1022 72 10000 3.1 230 16:20 25.12.2019
5602 Clear 17 1022 77 10000 3.1 210 15:58 25.12.2019
5603 Clear 17 1022 67 10000 3.1 220 15:40 25.12.2019
5604 Clear 17 1022 67 10000 3.1 220 15:21 25.12.2019
5605 Clear 17 1023 63 10000 3.1 230 14:59 25.12.2019
5606 Clear 17 1023 72 10000 2.6 240 14:40 25.12.2019
5607 Clear 17 1023 72 10000 2.6 240 14:22 25.12.2019
5608 Clear 17 1023 67 10000 4.1 310 13:57 25.12.2019
5609 Clear 16 1024 63 10000 4.1 320 13:39 25.12.2019
5610 Clear 16 1024 63 10000 4.1 320 13:19 25.12.2019
5611 Clear 16 1024 67 10000 4.6 320 12:43 25.12.2019
5612 Clear 15 1024 67 10000 4.6 320 12:21 25.12.2019
5613 Clear 15 1025 71 10000 5.1 320 11:57 25.12.2019
5614 Clear 14 1025 76 10000 5.7 320 11:39 25.12.2019
5615 Clear 12 1025 76 10000 5.7 320 11:19 25.12.2019
5616 Clear 11 1025 81 10000 6.7 330 10:39 25.12.2019
5617 Clear 11 1025 81 10000 6.7 330 10:21 25.12.2019
5618 Clear 10 1025 81 10000 6.2 330 09:51 25.12.2019
5619 Clear 10 1025 81 10000 6.2 330 09:33 25.12.2019
5620 Clear 10 1024 81 10000 5.7 320 08:51 25.12.2019
5621 Clear 10 1024 81 10000 5.7 320 08:51 25.12.2019
5622 Clear 10 1024 81 10000 4.6 330 08:31 25.12.2019
5623 Clear 10 1024 81 10000 6.7 320 07:59 25.12.2019
5624 Clear 9 1024 81 10000 5.7 330 07:37 25.12.2019
5625 Clear 9 1024 81 10000 5.7 330 07:19 25.12.2019
5626 Clear 10 1023 76 10000 7.2 320 06:23 25.12.2019
5627 Clear 10 1023 81 10000 7.2 330 05:43 25.12.2019
5628 Clear 10 1024 81 10000 6.7 330 04:39 25.12.2019
5629 Clear 10 1024 81 10000 6.7 330 04:20 25.12.2019
5630 Clear 10 1024 81 10000 5.1 320 03:43 25.12.2019
5631 Clear 10 1024 81 10000 5.7 320 02:57 25.12.2019
5632 Clear 10 1025 81 10000 4.6 310 02:28 25.12.2019
5633 Clear 11 1025 76 10000 4.6 320 01:36 25.12.2019
5634 Clear 11 1025 76 10000 5.7 310 01:18 25.12.2019
5635 Clear 11 1025 76 10000 4.1 300 00:40 25.12.2019
5636 Clear 10 1025 76 10000 4.1 300 00:22 25.12.2019
5637 Clear 10 1025 76 10000 4.1 300 00:22 25.12.2019
5638 Clear 10 1025 76 10000 4.6 320 23:39 24.12.2019
5639 Clear 11 1025 76 10000 4.6 320 23:20 24.12.2019
5640 Clear 11 1025 76 10000 4.6 320 22:42 24.12.2019
5641 Clear 11 1025 76 10000 4.6 320 22:23 24.12.2019
5642 Clear 11 1025 71 10000 4.1 320 21:59 24.12.2019
5643 Clear 11 1025 76 10000 4.6 290 21:40 24.12.2019
5644 Clear 11 1025 76 10000 4.6 290 21:19 24.12.2019
5645 Clear 11 1025 81 10000 4.1 310 20:42 24.12.2019
5646 Clouds 12 1025 71 10000 4.1 330 20:22 24.12.2019
5647 Clouds 12 1025 71 10000 4.1 330 19:49 24.12.2019
5648 Clouds 13 1025 71 10000 3.1 330 19:22 24.12.2019
5649 Clouds 13 1025 71 10000 3.1 330 18:59 24.12.2019
5650 Clouds 13 1024 67 10000 3.6 300 18:40 24.12.2019
5651 Clouds 14 1024 67 10000 3.6 300 18:18 24.12.2019
5652 Clouds 15 1024 63 10000 1 0 17:44 24.12.2019
5653 Clouds 15 1024 63 10000 1 0 17:22 24.12.2019
5654 Clouds 15 1024 63 10000 2.1 230 16:58 24.12.2019
5655 Clouds 15 1024 63 10000 3.1 230 16:39 24.12.2019
5656 Clouds 15 1024 63 10000 3.1 230 16:39 24.12.2019
5657 Clouds 16 1024 63 10000 3.1 230 16:21 24.12.2019
5658 Clouds 16 1024 63 10000 1.5 220 15:57 24.12.2019
5659 Clouds 16 1024 59 10000 2.6 210 15:37 24.12.2019
5660 Clouds 16 1024 59 10000 2.6 210 15:19 24.12.2019
5661 Clouds 16 1024 55 10000 1.5 290 14:58 24.12.2019
5662 Clouds 16 1025 55 10000 2.6 320 14:39 24.12.2019
5663 Clouds 15 1025 55 10000 2.6 320 14:21 24.12.2019
5664 Clouds 15 1025 55 10000 3.6 310 13:56 24.12.2019
5665 Clouds 15 1025 55 10000 4.1 310 13:38 24.12.2019
5666 Clouds 16 1025 55 10000 4.1 310 13:19 24.12.2019
5667 Clouds 16 1026 58 10000 5.7 310 12:56 24.12.2019
5668 Clouds 15 1026 62 10000 4.1 320 12:37 24.12.2019
5669 Clouds 15 1027 58 10000 5.7 330 12:19 24.12.2019
5670 Clouds 14 1027 58 10000 5.7 330 11:56 24.12.2019
5671 Clouds 13 1027 62 10000 4.6 330 11:37 24.12.2019
5672 Clouds 14 1027 62 10000 4.6 330 11:37 24.12.2019
5673 Clouds 14 1027 62 10000 4.6 330 11:37 24.12.2019
5674 Clouds 12 1027 66 10000 4.6 320 11:19 24.12.2019
5675 Clouds 12 1027 66 10000 4.6 320 10:56 24.12.2019
5676 Clouds 12 1027 66 10000 4.6 320 10:56 24.12.2019
5677 Clouds 11 1026 71 10000 6.2 320 10:38 24.12.2019
5678 Clouds 10 1026 76 10000 4.1 330 10:19 24.12.2019
5679 Clouds 10 1026 76 10000 4.1 330 09:55 24.12.2019
5680 Clouds 9 1025 75 10000 5.1 340 09:37 24.12.2019
5681 Clouds 9 1025 75 10000 5.1 340 09:19 24.12.2019
5682 Clouds 8 1025 81 10000 4.1 330 08:46 24.12.2019
5683 Clouds 7 1025 81 10000 4.1 330 08:24 24.12.2019
5684 Clouds 8 1025 75 10000 4.6 340 07:46 24.12.2019
5685 Clouds 8 1025 75 10000 4.6 340 07:27 24.12.2019
5686 Clouds 8 1025 75 10000 5.1 340 06:59 24.12.2019
5687 Clouds 8 1025 75 10000 6.2 340 06:39 24.12.2019
5688 Clouds 8 1025 75 10000 6.2 340 06:19 24.12.2019
5689 Clouds 8 1024 75 10000 5.1 340 05:49 24.12.2019
5690 Clouds 8 1024 75 10000 5.1 330 05:18 24.12.2019
5691 Clouds 9 1024 70 10000 4.6 330 03:55 24.12.2019
5692 Clouds 9 1024 70 10000 3.6 340 03:33 24.12.2019
5693 Clouds 9 1024 76 10000 4.6 330 02:25 24.12.2019
5694 Clear 9 1024 76 10000 4.1 310 01:53 24.12.2019
5695 Clear 9 1025 76 10000 4.1 330 01:23 24.12.2019
5696 Clear 9 1025 81 10000 3.6 330 00:55 24.12.2019
5697 Clear 9 1025 76 10000 5.1 320 00:37 24.12.2019
5698 Clear 9 1025 76 10000 1.5 320 00:19 24.12.2019
5699 Clouds 9 1025 76 10000 2.6 310 23:41 23.12.2019
5700 Clear 9 1025 71 10000 2.1 320 23:23 23.12.2019
5701 Clear 9 1025 71 10000 2.1 320 22:56 23.12.2019
5702 Clouds 10 1025 71 10000 1.5 300 22:37 23.12.2019
5703 Clouds 10 1025 71 10000 1.5 300 22:19 23.12.2019
5704 Clear 10 1025 66 10000 1.14 350 21:55 23.12.2019
5705 Clear 10 1025 66 10000 2.1 320 21:36 23.12.2019
5706 Clear 11 1025 66 10000 3.1 290 21:18 23.12.2019
5707 Clear 11 1025 66 10000 3.1 290 20:57 23.12.2019
5708 Clear 11 1024 62 10000 2.6 300 20:39 23.12.2019
5709 Clear 11 1024 62 10000 2.6 300 20:39 23.12.2019
5710 Clear 11 1024 62 10000 2.6 300 20:18 23.12.2019
5711 Clear 12 1024 58 10000 3.1 300 19:56 23.12.2019
5712 Clear 11 1024 54 10000 1.5 360 19:38 23.12.2019
5713 Clear 12 1024 54 10000 1.5 360 19:19 23.12.2019
5714 Clear 13 1024 54 10000 1.5 360 18:58 23.12.2019
5715 Clear 13 1023 44 10000 1.5 320 18:39 23.12.2019
5716 Clear 13 1023 44 10000 1.5 320 18:20 23.12.2019
5717 Clear 14 1023 44 10000 1.5 320 17:57 23.12.2019
5718 Clear 15 1023 44 10000 1 310 17:39 23.12.2019
5719 Clear 14 1023 44 10000 1 310 17:19 23.12.2019
5720 Clear 14 1023 44 10000 1 310 17:19 23.12.2019
5721 Clear 15 1022 48 10000 4.6 300 16:55 23.12.2019
5722 Clear 15 1022 45 10000 6.2 300 16:37 23.12.2019
5723 Clear 15 1022 45 10000 6.2 300 16:18 23.12.2019
5724 Clear 15 1022 45 10000 5.1 290 15:55 23.12.2019
5725 Clear 15 1022 42 10000 7.2 290 15:36 23.12.2019
5726 Clear 15 1021 44 10000 5.7 280 15:18 23.12.2019
5727 Clear 15 1021 44 10000 5.7 280 14:55 23.12.2019
5728 Clear 15 1021 44 10000 7.7 280 14:36 23.12.2019
5729 Clear 15 1022 44 10000 7.7 290 14:18 23.12.2019
5730 Clear 15 1022 44 10000 6.2 290 13:41 23.12.2019
5731 Clear 15 1022 44 10000 6.2 290 13:23 23.12.2019
5732 Clear 14 1022 41 10000 4.1 310 12:59 23.12.2019
5733 Clear 14 1023 41 10000 4.1 320 12:40 23.12.2019
5734 Clear 14 1023 41 10000 4.1 320 12:21 23.12.2019
5735 Clear 13 1023 47 10000 4.6 310 11:56 23.12.2019
5736 Clear 13 1023 47 10000 4.6 300 11:38 23.12.2019
5737 Clear 13 1023 47 10000 4.6 300 11:20 23.12.2019
5738 Clear 13 1022 47 10000 6.2 310 11:20 23.12.2019
5739 Clear 12 1022 47 10000 6.2 310 10:55 23.12.2019
5740 Clear 11 1022 50 10000 4.6 330 10:37 23.12.2019
5741 Clear 11 1022 50 10000 3.6 270 10:18 23.12.2019
5742 Clear 11 1022 50 10000 3.6 270 09:54 23.12.2019
5743 Clear 10 1021 54 10000 7.2 310 09:36 23.12.2019
5744 Clear 10 1020 54 10000 9.3 320 09:18 23.12.2019
5745 Clear 10 1020 54 10000 8.7 310 08:41 23.12.2019
5746 Clear 10 1020 54 10000 8.7 310 08:22 23.12.2019
5747 Clouds 10 1020 58 10000 7.2 310 07:56 23.12.2019
5748 Clouds 10 1020 54 10000 7.2 300 07:38 23.12.2019
5749 Clouds 10 1019 54 10000 6.7 320 07:18 23.12.2019
5750 Clouds 10 1019 54 10000 7.7 320 06:39 23.12.2019
5751 Clouds 10 1019 54 10000 7.7 320 06:21 23.12.2019
5752 Clear 11 1018 54 10000 10.3 320 05:45 23.12.2019
5753 Clear 11 1017 54 10000 9.3 320 04:55 23.12.2019
5754 Clear 11 1017 50 10000 9.3 310 03:59 23.12.2019
5755 Clear 12 1016 54 10000 8.7 310 02:48 23.12.2019
5756 Clear 12 1016 54 10000 9.3 300 02:20 23.12.2019
5757 Clear 12 1015 54 10000 4.1 340 01:51 23.12.2019
5758 Clear 12 1015 54 10000 4.1 340 01:51 23.12.2019
5759 Clear 12 1015 54 10000 4.1 340 01:32 23.12.2019
5760 Clear 12 1015 54 10000 4.1 340 01:32 23.12.2019
5761 Clear 12 1015 50 10000 4.1 360 00:54 23.12.2019
5762 Clear 12 1014 62 10000 2.1 30 00:35 23.12.2019
5763 Clear 13 1013 58 10000 3.6 40 23:57 22.12.2019
5764 Clear 13 1013 44 10000 4.6 340 23:39 22.12.2019
5765 Clear 13 1013 44 10000 4.6 340 23:20 22.12.2019
5766 Clear 13 1012 44 10000 5.1 320 22:57 22.12.2019
5767 Clear 14 1011 48 10000 4.1 320 22:38 22.12.2019
5768 Clear 14 1011 48 10000 4.1 320 22:38 22.12.2019
5769 Clear 14 1011 51 10000 5.7 320 22:19 22.12.2019
5770 Clear 14 1011 51 10000 5.7 320 21:56 22.12.2019
5771 Clear 14 1010 48 10000 3.1 0 21:38 22.12.2019
5772 Clear 14 1010 48 10000 3.1 0 21:38 22.12.2019
5773 Clear 14 1010 48 10000 3.1 0 21:38 22.12.2019
5774 Clear 14 1010 48 10000 3.1 0 21:20 22.12.2019
5775 Clear 14 1010 51 10000 2.1 360 20:55 22.12.2019
5776 Clear 14 1009 55 10000 7.2 290 20:37 22.12.2019
5777 Clear 14 1009 55 10000 7.2 290 20:37 22.12.2019
5778 Clear 14 1008 59 10000 6.7 260 20:18 22.12.2019
5779 Clear 14 1008 59 10000 4.6 240 19:40 22.12.2019
5780 Clear 14 1008 59 10000 4.6 240 19:21 22.12.2019
5781 Clouds 14 1009 55 10000 5.7 250 18:58 22.12.2019
5782 Rain 14 1009 51 10000 6.2 260 18:38 22.12.2019
5783 Rain 14 1008 51 10000 4.1 270 18:19 22.12.2019
5784 Clouds 14 1008 51 10000 4.1 270 17:55 22.12.2019
5785 Clear 15 1008 48 10000 6.2 270 17:37 22.12.2019
5786 Clear 16 1007 45 10000 5.1 280 17:18 22.12.2019
5787 Clear 16 1007 45 10000 5.1 280 16:56 22.12.2019
5788 Clear 16 1008 42 10000 9.3 260 16:37 22.12.2019
5789 Clear 17 1008 39 10000 8.2 270 16:19 22.12.2019
5790 Clear 17 1008 39 10000 8.2 270 15:54 22.12.2019
5791 Clear 17 1008 39 10000 7.2 270 15:36 22.12.2019
5792 Clear 17 1009 42 10000 8.2 270 15:18 22.12.2019
5793 Clear 17 1009 39 10000 9.3 270 14:39 22.12.2019
5794 Clear 17 1009 39 10000 9.3 270 14:19 22.12.2019
5795 Clear 17 1008 45 10000 9.3 260 13:56 22.12.2019
5796 Clear 16 1008 39 10000 11.3 290 13:38 22.12.2019
5797 Clear 17 1008 39 10000 11.3 290 13:20 22.12.2019
5798 Clear 16 1008 39 10000 11.3 280 12:57 22.12.2019
5799 Clear 16 1009 39 10000 10.3 290 12:39 22.12.2019
5800 Clear 16 1009 39 10000 10.3 290 12:20 22.12.2019
5801 Clear 16 1009 39 10000 10.3 290 12:20 22.12.2019
5802 Clear 16 1008 39 10000 12.3 280 11:59 22.12.2019
5803 Clear 16 1008 42 10000 13.9 280 11:39 22.12.2019
5804 Clear 16 1008 42 10000 13.9 280 11:20 22.12.2019
5805 Clear 15 1008 44 10000 12.3 270 10:58 22.12.2019
5806 Clear 15 1007 44 10000 11.8 280 10:40 22.12.2019
5807 Clear 15 1007 44 10000 12.3 280 10:20 22.12.2019
5808 Clear 14 1007 44 10000 12.3 280 09:58 22.12.2019
5809 Clouds 14 1005 44 10000 14.9 280 09:40 22.12.2019
5810 Clouds 14 1005 44 10000 14.9 280 09:21 22.12.2019
5811 Clouds 14 1005 47 10000 13.4 280 08:55 22.12.2019
5812 Clear 14 1005 44 10000 15.9 280 08:37 22.12.2019
5813 Clear 14 1004 44 10000 16.5 270 08:18 22.12.2019
5814 Clear 14 1003 44 10000 12.9 280 07:36 22.12.2019
5815 Clouds 14 1002 44 10000 15.4 280 07:18 22.12.2019
5816 Clouds 15 1002 44 10000 12.9 270 06:40 22.12.2019
5817 Clear 15 1001 42 10000 13.9 270 05:53 22.12.2019
5818 Clear 15 1001 44 10000 13.4 280 05:21 22.12.2019
5819 Clouds 15 1001 44 10000 16.5 270 04:28 22.12.2019
5820 Clouds 15 1000 42 10000 15.9 270 03:52 22.12.2019
5821 Clouds 16 1000 42 10000 13.4 270 02:38 22.12.2019
5822 Clouds 16 999 42 10000 11.3 270 01:42 22.12.2019
5823 Clouds 15 999 42 10000 11.3 270 01:22 22.12.2019
5824 Clouds 16 999 36 10000 13.4 270 00:45 22.12.2019
5825 Clouds 16 999 36 10000 13.4 270 00:22 22.12.2019
5826 Clouds 15 998 39 10000 14.9 280 23:56 21.12.2019
5827 Clouds 16 998 39 10000 14.9 280 23:38 21.12.2019
5828 Clouds 16 998 39 10000 14.9 280 23:19 21.12.2019
5829 Clouds 16 996 48 10000 15.9 270 22:41 21.12.2019
5830 Clouds 16 995 59 10000 13.4 270 22:19 21.12.2019
5831 Rain 17 995 59 10000 13.4 270 21:57 21.12.2019
5832 Rain 17 994 82 10000 8.2 240 21:38 21.12.2019
5833 Rain 15 994 82 10000 5.1 250 21:19 21.12.2019
5834 Clouds 14 994 82 10000 5.1 250 20:58 21.12.2019
5835 Clouds 14 995 93 10000 2.1 240 20:39 21.12.2019
5836 Clouds 14 995 93 10000 2.1 240 20:21 21.12.2019
5837 Clouds 14 996 82 10000 2.6 230 19:58 21.12.2019
5838 Clouds 14 996 82 10000 2.6 230 19:40 21.12.2019
5839 Clouds 14 997 87 10000 2.6 200 19:19 21.12.2019
5840 Clouds 14 997 82 10000 2.6 200 18:45 21.12.2019
5841 Clouds 14 997 82 10000 2.6 200 18:24 21.12.2019
5842 Rain 14 997 77 10000 2.1 230 17:57 21.12.2019
5843 Rain 14 997 77 10000 2.1 230 17:57 21.12.2019
5844 Rain 15 997 72 10000 3.6 200 17:39 21.12.2019
5845 Rain 15 997 72 10000 3.6 200 17:21 21.12.2019
5846 Clouds 15 998 77 10000 3.1 210 16:59 21.12.2019
5847 Clouds 15 998 82 10000 4.1 210 16:41 21.12.2019
5848 Clouds 16 999 82 10000 3.6 210 16:19 21.12.2019
5849 Clouds 16 999 82 10000 2.6 220 15:57 21.12.2019
5850 Clouds 16 999 82 10000 2.6 220 15:38 21.12.2019
5851 Clouds 16 999 82 10000 2.6 220 15:19 21.12.2019
5852 Rain 16 1000 82 10000 4.1 220 14:57 21.12.2019
5853 Rain 16 1000 82 10000 3.6 210 14:38 21.12.2019
5854 Rain 16 1001 82 10000 5.1 210 14:18 21.12.2019
5855 Rain 16 1001 82 10000 5.1 210 13:55 21.12.2019
5856 Clouds 17 1001 59 10000 5.1 220 13:37 21.12.2019
5857 Clouds 17 1001 55 10000 5.1 220 13:18 21.12.2019
5858 Clouds 17 1001 55 10000 5.1 220 12:54 21.12.2019
5859 Clouds 17 1002 59 10000 4.1 240 12:36 21.12.2019
5860 Clouds 17 1003 63 10000 4.1 250 12:18 21.12.2019
5861 Clouds 16 1003 59 10000 4.6 240 11:42 21.12.2019
5862 Clear 16 1003 59 10000 4.6 240 11:24 21.12.2019
5863 Clear 15 1003 55 10000 3.1 260 10:56 21.12.2019
5864 Clear 15 1003 59 10000 4.6 250 10:37 21.12.2019
5865 Clear 14 1003 59 10000 4.6 250 10:19 21.12.2019
5866 Clear 14 1003 59 10000 4.6 250 10:19 21.12.2019
5867 Clear 13 1002 62 10000 5.7 230 09:42 21.12.2019
5868 Clear 13 1002 62 10000 5.7 230 09:21 21.12.2019
5869 Clear 12 1002 62 10000 5.7 220 08:57 21.12.2019
5870 Clear 12 1002 62 10000 5.1 220 08:37 21.12.2019
5871 Clouds 12 1002 62 10000 5.1 220 08:19 21.12.2019
5872 Clouds 12 1001 72 9000 4.6 210 07:44 21.12.2019
5873 Clouds 12 1001 72 9000 4.6 210 07:22 21.12.2019
5874 Clouds 13 999 82 10000 2.1 300 06:44 21.12.2019
5875 Clouds 13 999 82 10000 2.1 300 06:25 21.12.2019
5876 Clouds 13 998 87 9000 6.7 210 05:49 21.12.2019
5877 Clouds 13 998 87 9000 3.1 230 04:58 21.12.2019
5878 Rain 13 998 87 8000 5.1 230 03:57 21.12.2019
5879 -273 0 0 0 0 0 02:52 21.12.2019
5880 Clouds 12 997 93 8000 3.1 200 01:59 21.12.2019
5881 Rain 12 997 93 8000 3.1 220 01:28 21.12.2019
5882 Drizzle 12 997 93 8000 3.6 220 00:55 21.12.2019
5883 Rain 13 997 93 10000 4.6 230 00:37 21.12.2019
5884 Rain 13 998 93 9000 2.1 230 00:18 21.12.2019
5885 Rain 13 998 93 10000 2.1 280 23:38 20.12.2019
5886 Rain 12 998 82 10000 2.1 290 23:19 20.12.2019
5887 Rain 12 998 76 10000 3.1 320 22:41 20.12.2019
5888 Rain 12 998 76 10000 3.1 320 22:21 20.12.2019
5889 Rain 13 998 76 10000 1.5 300 21:59 20.12.2019
5890 Clouds 13 999 82 10000 2.6 340 21:40 20.12.2019
5891 Clouds 13 999 82 10000 2.1 330 21:20 20.12.2019
5892 Clouds 13 999 82 10000 2.6 340 21:20 20.12.2019
5893 Clouds 13 999 82 10000 2.6 300 20:41 20.12.2019
5894 Clouds 13 999 82 10000 2.6 300 20:22 20.12.2019
5895 Clouds 13 1000 87 10000 4.6 240 19:59 20.12.2019
5896 Clouds 13 1000 87 10000 4.6 230 19:40 20.12.2019
5897 Clouds 14 1000 87 10000 4.6 230 19:20 20.12.2019
5898 Clouds 14 1000 87 10000 4.6 220 18:56 20.12.2019
5899 Clouds 14 1000 87 10000 3.6 210 18:38 20.12.2019
5900 Clouds 14 1000 87 10000 3.6 210 18:20 20.12.2019
5901 Clouds 15 1000 82 10000 3.6 210 17:54 20.12.2019
5902 Clouds 15 1000 77 10000 2.1 230 17:36 20.12.2019
5903 Clouds 15 1000 77 10000 2.1 230 17:18 20.12.2019
5904 Clouds 16 1001 77 10000 4.6 250 16:40 20.12.2019
5905 Clouds 16 1000 82 10000 6.2 240 16:20 20.12.2019
5906 Clouds 16 1001 82 10000 6.2 220 15:57 20.12.2019
5907 Clouds 16 1000 82 10000 6.2 220 15:39 20.12.2019
5908 Clouds 16 1000 82 10000 6.2 220 15:20 20.12.2019
5909 Clouds 16 1000 82 10000 7.7 220 14:58 20.12.2019
5910 Clouds 17 1000 82 10000 5.1 230 14:39 20.12.2019
5911 Clouds 17 1000 82 10000 5.1 230 14:21 20.12.2019
5912 Clouds 16 1000 82 10000 4.6 230 13:42 20.12.2019
5913 Clouds 16 1001 87 10000 7.2 240 13:21 20.12.2019
5914 Clouds 15 1000 87 10000 5.1 250 12:59 20.12.2019
5915 Clouds 15 1000 93 10000 5.1 220 12:41 20.12.2019
5916 Rain 15 1000 93 10000 5.1 220 12:19 20.12.2019
5917 Rain 14 1000 87 10000 4.6 200 11:59 20.12.2019
5918 Rain 14 1000 87 10000 4.6 200 11:40 20.12.2019
5919 Rain 14 1001 82 10000 4.1 220 11:21 20.12.2019
5920 Rain 14 1001 87 7000 8.7 270 10:59 20.12.2019
5921 Rain 14 1001 87 7000 8.7 270 10:41 20.12.2019
5922 Rain 14 1000 87 9000 9.3 230 10:20 20.12.2019
5923 Drizzle 15 999 87 9000 7.2 260 09:56 20.12.2019
5924 Rain 14 999 87 4000 11.8 230 09:38 20.12.2019
5925 Rain 14 999 87 4000 11.8 230 09:19 20.12.2019
5926 Rain 15 998 87 6000 8.7 230 08:43 20.12.2019
5927 Rain 15 998 82 6000 5.7 230 08:25 20.12.2019
5928 Rain 14 998 87 6000 6.7 240 07:59 20.12.2019
5929 Rain 14 998 87 6000 6.7 240 07:40 20.12.2019
5930 Clouds 14 999 82 7000 7.7 220 07:19 20.12.2019
5931 Rain 14 999 82 7000 8.7 220 06:52 20.12.2019
5932 Rain 14 1000 93 5000 7.2 210 06:32 20.12.2019
5933 Rain 14 1001 87 5000 5.7 210 05:55 20.12.2019
5934 Rain 14 1002 87 4000 5.7 210 05:36 20.12.2019
5935 Rain 14 1003 93 6000 4.6 200 04:33 20.12.2019
5936 Rain 14 1004 93 7000 4.1 200 03:30 20.12.2019
5937 Rain 13 1005 93 6000 4.1 200 02:44 20.12.2019
5938 Rain 13 1007 87 7000 5.7 210 01:52 20.12.2019
5939 Rain 13 1007 87 8000 6.7 210 01:33 20.12.2019
5940 Clouds 13 1008 87 9000 6.2 210 00:44 20.12.2019
5941 Clouds 13 1009 87 9000 5.7 220 00:25 20.12.2019
5942 Clouds 13 1009 87 10000 6.2 210 23:44 19.12.2019
5943 Clouds 12 1010 93 10000 4.6 210 23:26 19.12.2019
5944 Clouds 12 1010 87 10000 2.6 220 22:59 19.12.2019
5945 Clouds 12 1011 87 10000 3.6 210 22:37 19.12.2019
5946 Clouds 12 1011 87 10000 3.6 210 22:19 19.12.2019
5947 Clouds 12 1011 87 10000 2.6 200 21:55 19.12.2019
5948 Clouds 12 1011 87 10000 2.1 210 21:37 19.12.2019
5949 Clouds 12 1011 87 10000 2.1 210 21:18 19.12.2019
5950 Clouds 12 1012 87 10000 2.6 220 20:55 19.12.2019
5951 Clouds 12 1012 82 10000 3.6 200 20:36 19.12.2019
5952 Clouds 12 1012 82 10000 3.6 200 20:18 19.12.2019
5953 Clouds 12 1013 82 10000 3.1 210 19:56 19.12.2019
5954 Clouds 12 1012 87 10000 2.6 220 19:37 19.12.2019
5955 Clouds 12 1012 87 10000 2.6 220 19:19 19.12.2019
5956 Clouds 13 1012 77 10000 3.6 210 18:41 19.12.2019
5957 Clouds 13 1012 77 10000 3.6 210 18:23 19.12.2019
5958 Clouds 13 1013 82 10000 2.1 240 17:58 19.12.2019
5959 Clouds 13 1013 82 10000 3.6 220 17:39 19.12.2019
5960 Clouds 13 1013 82 10000 3.6 220 17:19 19.12.2019
5961 Clouds 14 1013 82 10000 5.1 230 16:59 19.12.2019
5962 Clouds 14 1013 82 10000 5.7 220 16:41 19.12.2019
5963 Clouds 14 1013 82 10000 5.7 220 16:22 19.12.2019
5964 Clouds 14 1014 77 10000 4.1 220 15:59 19.12.2019
5965 Clouds 14 1014 77 10000 4.1 220 15:40 19.12.2019
5966 Clouds 14 1013 72 10000 4.1 190 15:20 19.12.2019
5967 Clouds 14 1014 77 10000 2.6 180 14:59 19.12.2019
5968 Clouds 14 1014 77 10000 1 0 14:41 19.12.2019
5969 Clouds 14 1014 77 10000 1 0 14:41 19.12.2019
5970 Clouds 14 1014 77 10000 1 0 14:19 19.12.2019
5971 Clouds 14 1015 76 10000 1 0 13:57 19.12.2019
5972 Clouds 14 1015 76 10000 1 0 13:38 19.12.2019
5973 Clouds 14 1015 76 10000 1 0 13:19 19.12.2019
5974 Clouds 14 1015 76 10000 2.1 350 12:55 19.12.2019
5975 Clouds 13 1016 81 10000 1 0 12:37 19.12.2019
5976 Clouds 13 1016 81 10000 1 0 12:18 19.12.2019
5977 Clouds 13 1016 76 10000 2.1 330 11:57 19.12.2019
5978 Clouds 12 1016 81 10000 2.6 330 11:39 19.12.2019
5979 Clouds 12 1016 81 10000 2.6 330 11:18 19.12.2019
5980 Clouds 12 1016 81 10000 2.6 330 11:18 19.12.2019
5981 Clouds 11 1017 81 10000 3.6 320 10:55 19.12.2019
5982 Clouds 11 1017 81 10000 3.1 330 10:36 19.12.2019
5983 Clouds 10 1017 81 10000 3.1 330 10:18 19.12.2019
5984 Clouds 10 1017 87 9000 3.6 330 09:39 19.12.2019
5985 Clouds 10 1017 87 9000 3.6 330 09:39 19.12.2019
5986 Clouds 10 1017 87 9000 5.1 320 09:20 19.12.2019
5987 Clouds 9 1016 87 9000 4.1 320 08:58 19.12.2019
5988 Clouds 9 1016 87 9000 3.1 320 08:40 19.12.2019
5989 Clouds 9 1016 87 9000 3.1 320 08:19 19.12.2019
5990 Clouds 9 1016 87 9000 4.1 320 07:57 19.12.2019
5991 Clouds 9 1016 87 9000 4.1 320 07:38 19.12.2019
5992 Clouds 9 1016 87 9000 5.1 320 07:19 19.12.2019
5993 Clouds 10 1016 87 10000 4.1 320 06:49 19.12.2019
5994 Clouds 10 1015 100 8000 1 280 06:29 19.12.2019
5995 Clouds 10 1016 87 9000 4.1 310 05:55 19.12.2019
5996 Clouds 9 1016 87 9000 5.1 320 05:34 19.12.2019
5997 Clouds 10 1016 87 9000 4.6 330 04:51 19.12.2019
5998 Clouds 10 1017 81 9000 6.2 320 02:54 19.12.2019
5999 Clouds 10 1017 81 9000 4.6 320 02:22 19.12.2019
6000 Clouds 11 1017 87 9000 4.1 330 01:22 19.12.2019
6001 Clouds 11 1018 81 9000 3.6 330 00:41 19.12.2019
6002 Clouds 11 1018 81 9000 3.6 330 00:22 19.12.2019
6003 Clouds 11 1018 81 9000 4.1 320 23:57 18.12.2019
6004 Clouds 11 1018 81 9000 3.6 310 23:38 18.12.2019
6005 Clouds 11 1018 81 9000 3.6 310 23:18 18.12.2019
6006 Clouds 11 1018 87 9000 3.6 320 22:55 18.12.2019
6007 Clouds 11 1018 87 9000 3.1 330 22:36 18.12.2019
6008 Clouds 11 1018 87 9000 3.1 330 22:18 18.12.2019
6009 Clouds 11 1017 93 9000 1.5 320 21:56 18.12.2019
6010 Clouds 12 1017 93 9000 1.5 320 21:56 18.12.2019
6011 Clouds 12 1017 87 9000 1.5 350 21:37 18.12.2019
6012 Clouds 12 1017 87 9000 1.5 350 21:19 18.12.2019
6013 Clouds 12 1017 87 8000 1.5 320 20:55 18.12.2019
6014 Clouds 12 1017 93 8000 1 0 20:37 18.12.2019
6015 Clouds 12 1017 93 8000 1 0 20:18 18.12.2019
6016 Clouds 13 1017 93 6000 2.6 60 19:55 18.12.2019
6017 Clouds 13 1017 93 8000 2.1 80 19:37 18.12.2019
6018 Clouds 13 1017 93 8000 2.1 80 19:18 18.12.2019
6019 Clouds 14 1017 87 8000 2.1 60 18:44 18.12.2019
6020 Clouds 14 1017 87 8000 2.1 60 18:25 18.12.2019
6021 Clouds 14 1016 87 8000 2.1 80 17:57 18.12.2019
6022 Clouds 15 1016 82 10000 0.5 0 17:39 18.12.2019
6023 Clouds 15 1016 82 10000 0.5 0 17:19 18.12.2019
6024 Clouds 16 1016 82 10000 2.6 90 16:55 18.12.2019
6025 Clouds 16 1016 72 10000 1.5 70 16:37 18.12.2019
6026 Clouds 16 1016 72 10000 1.5 70 16:18 18.12.2019
6027 Clouds 16 1016 72 10000 1 60 15:55 18.12.2019
6028 Clouds 17 1016 72 9000 1.5 60 15:37 18.12.2019
6029 Clouds 17 1016 72 9000 3.1 90 15:18 18.12.2019
6030 Clouds 17 1016 67 9000 2.1 310 14:40 18.12.2019
6031 Clouds 17 1016 67 9000 3.1 310 14:21 18.12.2019
6032 Clouds 17 1016 67 9000 3.1 310 13:57 18.12.2019
6033 Clouds 17 1016 67 9000 3.1 310 13:57 18.12.2019
6034 Clouds 16 1016 67 9000 3.1 320 13:38 18.12.2019
6035 Clouds 16 1017 72 9000 0.5 20 13:19 18.12.2019
6036 Clouds 16 1017 72 9000 0.5 20 12:57 18.12.2019
6037 Clouds 16 1017 72 10000 5.1 320 12:38 18.12.2019
6038 Clouds 15 1017 71 10000 5.1 310 12:19 18.12.2019
6039 Clouds 15 1017 71 10000 5.1 310 11:55 18.12.2019
6040 Clouds 15 1017 71 10000 5.1 310 11:55 18.12.2019
6041 Clouds 15 1017 76 10000 4.1 320 11:37 18.12.2019
6042 Clouds 14 1017 82 9000 3.1 320 11:19 18.12.2019
6043 Clouds 14 1017 82 9000 3.1 320 10:55 18.12.2019
6044 Clouds 14 1016 82 9000 3.1 330 10:37 18.12.2019
6045 Clouds 14 1016 82 9000 3.1 330 10:19 18.12.2019
6046 Clouds 13 1016 81 10000 3.6 330 09:50 18.12.2019
6047 Clouds 12 1015 81 10000 3.1 320 09:18 18.12.2019
6048 Clouds 12 1015 81 10000 2.1 360 08:41 18.12.2019
6049 Clouds 11 1015 81 10000 2.1 360 08:22 18.12.2019
6050 Clouds 11 1014 87 10000 3.1 330 07:43 18.12.2019
6051 Clouds 11 1014 87 10000 3.1 330 07:23 18.12.2019
6052 Clouds 12 1014 81 10000 2.6 330 06:56 18.12.2019
6053 Clouds 12 1014 81 10000 2.6 330 06:27 18.12.2019
6054 Clouds 12 1013 81 10000 2.1 350 05:54 18.12.2019
6055 Clouds 13 1013 82 10000 3.6 330 04:57 18.12.2019
6056 Clouds 12 1013 82 8000 4.6 330 02:55 18.12.2019
6057 Clouds 13 1012 87 8000 5.1 320 02:36 18.12.2019
6058 Clouds 13 1012 87 8000 5.1 320 02:18 18.12.2019
6059 Clouds 13 1012 87 8000 4.1 330 01:40 18.12.2019
6060 Clouds 13 1012 87 8000 4.1 330 01:21 18.12.2019
6061 Clouds 12 1012 93 7000 4.6 330 00:41 18.12.2019
6062 Clouds 12 1012 93 7000 2.6 330 00:23 18.12.2019
6063 Clouds 12 1012 93 7000 2.6 330 23:57 17.12.2019
6064 Clouds 12 1012 93 7000 2.1 320 23:38 17.12.2019
6065 Clouds 12 1012 93 7000 2.1 320 23:19 17.12.2019
6066 Clouds 13 1012 87 7000 2.6 330 22:56 17.12.2019
6067 Clouds 13 1012 93 7000 2.1 340 22:38 17.12.2019
6068 Clouds 13 1012 93 7000 1 0 22:18 17.12.2019
6069 Clouds 13 1012 93 7000 1 0 21:55 17.12.2019
6070 Clouds 13 1011 87 7000 2.1 350 21:37 17.12.2019
6071 Clouds 13 1011 87 7000 2.1 350 21:37 17.12.2019
6072 Clouds 13 1011 87 6000 1.5 10 21:19 17.12.2019
6073 Clouds 14 1011 87 6000 1.5 10 20:56 17.12.2019
6074 Clouds 14 1011 93 6000 0.5 0 20:38 17.12.2019
6075 Clouds 14 1010 93 6000 2.1 340 20:18 17.12.2019
6076 Clouds 14 1010 93 6000 2.1 340 19:55 17.12.2019
6077 Clouds 14 1010 87 6000 2.6 360 19:37 17.12.2019
6078 Clouds 14 1010 87 6000 2.6 360 19:18 17.12.2019
6079 Clouds 14 1010 93 6000 2.1 30 18:43 17.12.2019
6080 Clouds 14 1010 93 6000 2.1 30 18:43 17.12.2019
6081 Clouds 15 1009 93 6000 2.6 70 18:23 17.12.2019
6082 Clouds 15 1009 93 6000 2.6 70 17:59 17.12.2019
6083 Clouds 15 1009 87 6000 2.1 80 17:41 17.12.2019
6084 Clouds 15 1009 87 6000 2.1 80 17:41 17.12.2019
6085 Clouds 15 1008 87 6000 2.1 100 17:19 17.12.2019
6086 Clouds 16 1008 87 6000 3.1 70 16:56 17.12.2019
6087 Clouds 16 1008 87 6000 3.1 70 16:38 17.12.2019
6088 Clouds 16 1008 87 6000 3.1 70 16:19 17.12.2019
6089 Clouds 16 1008 87 6000 3.6 70 15:58 17.12.2019
6090 Clouds 16 1007 82 6000 4.1 70 15:37 17.12.2019
6091 Clouds 16 1007 77 7000 3.1 100 15:19 17.12.2019
6092 Clouds 16 1007 77 7000 3.1 100 14:55 17.12.2019
6093 Clouds 16 1007 82 8000 3.1 70 14:37 17.12.2019
6094 Clouds 16 1007 82 8000 3.1 70 14:18 17.12.2019
6095 Clouds 16 1007 82 8000 4.1 70 14:18 17.12.2019
6096 Clouds 16 1007 82 8000 3.1 70 14:18 17.12.2019
6097 Clouds 16 1007 82 8000 3.1 70 14:18 17.12.2019
6098 Clouds 16 1007 82 8000 5.1 70 13:56 17.12.2019
6099 Clouds 16 1007 82 8000 5.1 70 13:37 17.12.2019
6100 Clouds 16 1006 82 9000 5.7 70 13:18 17.12.2019
6101 Clouds 16 1006 82 9000 5.7 70 12:55 17.12.2019
6102 Clouds 16 1006 82 9000 6.2 70 12:37 17.12.2019
6103 Clouds 16 1006 82 9000 6.7 60 12:18 17.12.2019
6104 Clouds 16 1006 87 9000 4.6 60 11:54 17.12.2019
6105 Clouds 15 1006 87 9000 4.6 60 11:36 17.12.2019
6106 Clouds 15 1006 87 9000 4.6 50 11:18 17.12.2019
6107 Clouds 15 1006 87 9000 4.6 50 11:18 17.12.2019
6108 Clouds 14 1006 87 9000 4.6 60 10:54 17.12.2019
6109 Clouds 14 1006 87 9000 4.6 60 10:36 17.12.2019
6110 Clouds 13 1005 87 9000 1.5 20 10:18 17.12.2019
6111 Clouds 13 1005 93 10000 6.2 50 09:42 17.12.2019
6112 Clouds 13 1005 93 10000 4.6 40 09:21 17.12.2019
6113 Clouds 13 1005 93 10000 4.6 40 08:58 17.12.2019
6114 Clouds 13 1004 93 10000 1.5 360 08:39 17.12.2019
6115 Clouds 12 1004 87 10000 4.6 40 08:21 17.12.2019
6116 Clouds 12 1004 87 10000 5.1 50 07:56 17.12.2019
6117 Clouds 12 1004 87 10000 5.1 50 07:38 17.12.2019
6118 Clouds 12 1004 87 10000 4.1 40 07:18 17.12.2019
6119 Clouds 12 1004 87 10000 3.1 30 06:36 17.12.2019
6120 Clouds 12 1004 87 10000 2.6 40 06:18 17.12.2019
6121 Clouds 12 1004 87 10000 2.6 20 05:38 17.12.2019
6122 Clouds 12 1004 81 10000 2.6 330 04:46 17.12.2019
6123 Clouds 12 1005 87 10000 3.1 330 02:47 17.12.2019
6124 Clouds 12 1005 82 10000 2.6 360 01:56 17.12.2019
6125 Clouds 12 1005 82 10000 3.1 340 01:20 17.12.2019
6126 Clouds 12 1006 87 10000 3.1 340 00:38 17.12.2019
6127 Clouds 13 1006 87 10000 3.1 340 00:20 17.12.2019
6128 Clouds 13 1005 87 10000 3.1 40 23:42 16.12.2019
6129 Clouds 13 1005 87 10000 3.1 40 23:42 16.12.2019
6130 Clouds 13 1005 87 10000 3.1 40 23:19 16.12.2019
6131 Clouds 12 1006 87 10000 3.1 30 22:58 16.12.2019
6132 Clouds 12 1006 82 10000 2.6 350 22:38 16.12.2019
6133 Clouds 12 1006 82 10000 2.6 350 22:20 16.12.2019
6134 Clouds 12 1006 82 10000 2.6 350 22:20 16.12.2019
6135 Clouds 12 1006 82 10000 2.6 350 21:56 16.12.2019
6136 Clouds 12 1006 82 10000 2.1 340 21:38 16.12.2019
6137 Clouds 12 1006 82 10000 2.1 340 21:20 16.12.2019
6138 Clouds 12 1007 82 10000 2.1 340 20:58 16.12.2019
6139 Clouds 12 1006 87 10000 2.6 350 20:38 16.12.2019
6140 Clouds 12 1006 87 10000 2.6 350 20:19 16.12.2019
6141 Clouds 12 1006 82 10000 2.6 50 19:56 16.12.2019
6142 Clouds 12 1006 82 10000 1 0 19:37 16.12.2019
6143 Clouds 12 1006 82 10000 1 0 19:19 16.12.2019
6144 Clouds 12 1007 82 10000 2.6 30 18:58 16.12.2019
6145 Clouds 12 1007 82 10000 2.6 30 18:58 16.12.2019
6146 Clouds 12 1007 82 10000 3.1 50 18:40 16.12.2019
6147 Clouds 12 1007 82 10000 3.1 50 18:40 16.12.2019
6148 Clouds 13 1007 82 10000 3.1 40 18:20 16.12.2019
6149 Clouds 13 1007 82 10000 3.1 40 17:57 16.12.2019
6150 Clouds 13 1007 82 10000 3.1 40 17:57 16.12.2019
6151 Clouds 13 1007 82 10000 3.1 40 17:57 16.12.2019
6152 Clouds 13 1008 82 10000 2.6 30 17:39 16.12.2019
6153 Clouds 13 1008 82 10000 2.6 30 17:21 16.12.2019
6154 Clouds 13 1008 76 10000 3.1 50 16:57 16.12.2019
6155 Clouds 13 1008 76 10000 2.6 50 16:38 16.12.2019
6156 Clouds 13 1008 76 10000 2.6 50 16:19 16.12.2019
6157 Clouds 13 1008 82 10000 4.1 60 15:58 16.12.2019
6158 Clouds 13 1009 76 10000 4.1 60 15:38 16.12.2019
6159 Clouds 13 1009 71 10000 4.1 60 15:20 16.12.2019
6160 Clouds 13 1009 71 10000 4.1 60 14:57 16.12.2019
6161 Clouds 13 1009 71 10000 2.6 350 14:37 16.12.2019
6162 Clouds 13 1009 71 10000 2.6 350 14:19 16.12.2019
6163 Clouds 13 1009 71 10000 2.6 350 14:19 16.12.2019
6164 Clouds 13 1010 71 10000 2.1 330 13:56 16.12.2019
6165 Clouds 13 1010 71 10000 2.1 330 13:56 16.12.2019
6166 Clouds 13 1010 76 10000 3.1 340 13:37 16.12.2019
6167 Clouds 12 1011 76 10000 3.1 340 13:19 16.12.2019
6168 Clouds 12 1011 76 10000 3.1 340 12:57 16.12.2019
6169 Clouds 12 1011 71 10000 4.1 340 12:39 16.12.2019
6170 Clouds 12 1012 76 10000 3.1 330 12:19 16.12.2019
6171 Clouds 12 1012 76 10000 3.1 330 11:58 16.12.2019
6172 Clouds 12 1012 76 10000 3.1 340 11:40 16.12.2019
6173 Clouds 11 1012 81 10000 4.1 330 11:20 16.12.2019
6174 Clouds 11 1012 81 10000 4.1 330 10:56 16.12.2019
6175 Clouds 10 1012 76 10000 4.1 330 10:38 16.12.2019
6176 Clouds 10 1012 81 10000 4.1 330 10:19 16.12.2019
6177 Clouds 10 1012 81 10000 4.6 330 09:45 16.12.2019
6178 Clouds 10 1012 81 10000 4.6 330 09:27 16.12.2019
6179 Clouds 9 1012 81 10000 4.6 340 08:55 16.12.2019
6180 Clouds 9 1012 76 10000 5.1 330 08:37 16.12.2019
6181 Clouds 9 1012 76 10000 5.1 330 08:18 16.12.2019
6182 Clouds 8 1012 87 10000 4.1 330 07:42 16.12.2019
6183 Clouds 8 1012 87 10000 4.1 330 07:21 16.12.2019
6184 Clouds 8 1012 87 10000 3.6 330 06:45 16.12.2019
6185 Clouds 8 1012 87 10000 3.6 330 06:22 16.12.2019
6186 Clouds 8 1012 87 10000 4.1 340 05:49 16.12.2019
6187 Clouds 8 1012 87 10000 4.1 330 05:30 16.12.2019
6188 Clouds 8 1012 93 10000 4.1 330 04:21 16.12.2019
6189 Clouds 8 1012 87 10000 3.6 330 01:59 16.12.2019
6190 Clouds 9 1012 87 10000 4.1 330 01:40 16.12.2019
6191 Clouds 9 1013 87 10000 3.1 320 00:42 16.12.2019
6192 Clouds 9 1013 87 10000 3.1 320 00:24 16.12.2019
6193 Clouds 9 1013 87 10000 2.6 310 23:58 15.12.2019
6194 Clouds 9 1013 87 10000 2.1 320 23:38 15.12.2019
6195 Clouds 9 1013 87 10000 1.5 310 23:19 15.12.2019
6196 Clouds 10 1013 87 10000 1.5 310 22:55 15.12.2019
6197 Clouds 10 1013 93 10000 1.5 280 22:37 15.12.2019
6198 Clouds 10 1013 93 10000 1.5 280 22:18 15.12.2019
6199 Clouds 10 1013 93 10000 1.5 280 22:18 15.12.2019
6200 Clouds 10 1013 93 10000 2.1 290 21:55 15.12.2019
6201 Clouds 10 1013 93 10000 2.6 280 21:37 15.12.2019
6202 Clouds 10 1013 93 10000 2.6 280 21:19 15.12.2019
6203 Clouds 11 1013 93 10000 4.1 240 20:55 15.12.2019
6204 Clouds 11 1013 93 10000 4.1 240 20:37 15.12.2019
6205 Clouds 11 1013 93 10000 3.6 240 20:18 15.12.2019
6206 Clouds 11 1013 93 10000 3.6 240 19:56 15.12.2019
6207 Clouds 12 1012 87 10000 3.6 250 19:38 15.12.2019
6208 Clear 12 1012 87 10000 4.6 250 19:18 15.12.2019
6209 Clear 12 1012 87 10000 4.6 250 18:55 15.12.2019
6210 Clear 13 1012 82 10000 5.1 230 18:37 15.12.2019
6211 Clear 13 1012 71 10000 5.7 240 18:18 15.12.2019
6212 Clear 14 1012 71 10000 5.7 240 17:56 15.12.2019
6213 Clear 15 1012 67 10000 7.2 240 17:37 15.12.2019
6214 Clear 15 1012 63 10000 7.7 240 17:18 15.12.2019
6215 Clear 16 1012 63 10000 7.7 240 16:54 15.12.2019
6216 Clear 16 1012 63 10000 8.7 240 16:36 15.12.2019
6217 Clear 16 1012 59 10000 7.7 240 16:18 15.12.2019
6218 Clear 17 1012 59 10000 7.7 240 15:54 15.12.2019
6219 Clear 16 1012 63 10000 8.7 230 15:36 15.12.2019
6220 Clear 16 1012 63 10000 8.7 230 15:18 15.12.2019
6221 Clear 17 1012 59 10000 6.7 230 14:54 15.12.2019
6222 Clear 16 1012 59 10000 6.7 230 14:36 15.12.2019
6223 Clear 16 1013 63 10000 5.7 230 14:18 15.12.2019
6224 Clear 16 1013 63 10000 4.1 240 13:54 15.12.2019
6225 Clear 16 1013 63 10000 4.1 240 13:36 15.12.2019
6226 Clear 16 1013 63 10000 2.1 230 13:18 15.12.2019
6227 Clear 16 1013 63 10000 2.1 230 12:55 15.12.2019
6228 Clear 15 1013 59 10000 0.5 0 12:37 15.12.2019
6229 Clear 15 1013 59 10000 0.5 0 12:19 15.12.2019
6230 Clear 15 1014 62 10000 1 310 11:38 15.12.2019
6231 Clear 13 1014 66 10000 2.1 310 11:19 15.12.2019
6232 Clear 12 1014 66 10000 2.1 310 10:56 15.12.2019
6233 Clear 12 1013 66 10000 1 0 10:38 15.12.2019
6234 Clear 12 1013 66 10000 1 0 10:19 15.12.2019
6235 Clouds 12 1013 71 10000 2.6 330 09:58 15.12.2019
6236 Clouds 11 1013 76 10000 2.1 320 09:37 15.12.2019
6237 Clouds 11 1013 76 10000 2.1 300 09:19 15.12.2019
6238 Clouds 10 1013 76 10000 2.1 300 08:55 15.12.2019
6239 Clouds 10 1013 76 10000 1.5 300 08:36 15.12.2019
6240 Clouds 10 1013 76 10000 1.5 300 08:18 15.12.2019
6241 Clear 10 1012 81 10000 2.6 330 07:47 15.12.2019
6242 Clear 10 1012 81 10000 2.6 330 07:28 15.12.2019
6243 Clear 10 1012 81 10000 1 0 06:26 15.12.2019
6244 Clear 11 1012 76 10000 3.1 330 05:42 15.12.2019
6245 Clear 11 1012 76 10000 3.1 330 05:21 15.12.2019
6246 Clear 10 1012 71 10000 2.6 340 04:22 15.12.2019
6247 Clouds 11 1013 66 10000 3.6 250 02:55 15.12.2019
6248 Clouds 11 1013 62 10000 4.6 250 02:32 15.12.2019
6249 Clouds 11 1013 62 10000 4.1 240 01:41 15.12.2019
6250 Clouds 11 1013 62 10000 4.1 240 01:19 15.12.2019
6251 Clouds 11 1014 66 10000 4.1 270 00:51 15.12.2019
6252 Clouds 11 1014 66 10000 4.1 270 00:32 15.12.2019
6253 Clouds 11 1014 76 10000 4.6 240 23:55 14.12.2019
6254 Clouds 11 1014 71 10000 2.1 260 23:37 14.12.2019
6255 Clouds 11 1015 66 10000 1.5 280 23:18 14.12.2019
6256 Clouds 11 1015 66 10000 1.5 280 23:18 14.12.2019
6257 Clouds 11 1015 66 10000 1.5 280 22:56 14.12.2019
6258 Clouds 11 1014 71 10000 2.61 286 22:37 14.12.2019
6259 Clear 12 1014 71 10000 1 320 22:18 14.12.2019
6260 Clear 12 1014 71 10000 1 320 21:55 14.12.2019
6261 Clear 11 1014 71 10000 1.5 290 21:36 14.12.2019
6262 Clear 12 1015 71 10000 2.6 300 21:18 14.12.2019
6263 Clear 12 1015 71 10000 3.6 310 20:42 14.12.2019
6264 Clouds 12 1014 62 10000 3.1 290 20:20 14.12.2019
6265 Clouds 12 1014 62 10000 3.1 290 19:59 14.12.2019
6266 Clouds 13 1014 62 10000 3.6 300 19:39 14.12.2019
6267 Clouds 13 1014 62 10000 3.6 300 19:21 14.12.2019
6268 Clouds 14 1014 58 10000 3.1 310 18:56 14.12.2019
6269 Clouds 14 1014 58 10000 3.1 310 18:38 14.12.2019
6270 Clouds 14 1013 62 10000 3.6 310 18:20 14.12.2019
6271 Clouds 14 1014 59 10000 3.6 320 17:54 14.12.2019
6272 Clouds 15 1014 59 10000 3.6 320 17:36 14.12.2019
6273 Clouds 15 1013 55 10000 5.1 330 17:18 14.12.2019
6274 Clouds 15 1014 55 10000 2.6 340 16:41 14.12.2019
6275 Clouds 16 1014 55 10000 2.6 340 16:19 14.12.2019
6276 Clouds 16 1013 51 10000 5.7 310 15:55 14.12.2019
6277 Clouds 16 1013 48 10000 6.2 310 15:36 14.12.2019
6278 Clouds 16 1013 48 10000 7.2 340 15:18 14.12.2019
6279 Clouds 16 1013 52 10000 6.7 340 14:40 14.12.2019
6280 Clouds 16 1013 52 10000 6.7 340 14:22 14.12.2019
6281 Clouds 16 1013 48 10000 6.7 340 13:59 14.12.2019
6282 Clouds 16 1013 48 10000 6.2 340 13:41 14.12.2019
6283 Clouds 16 1013 48 10000 6.2 340 13:41 14.12.2019
6284 Clouds 16 1013 45 10000 5.7 350 13:19 14.12.2019
6285 Clouds 16 1013 45 10000 5.7 350 12:57 14.12.2019
6286 Clouds 16 1013 45 10000 4.6 340 12:38 14.12.2019
6287 Clouds 17 1013 45 10000 5.7 340 12:20 14.12.2019
6288 Clouds 17 1013 45 10000 5.7 340 12:20 14.12.2019
6289 Clouds 16 1013 42 10000 2.6 310 11:56 14.12.2019
6290 Clouds 16 1013 42 10000 2.6 310 11:38 14.12.2019
6291 Clouds 15 1012 48 10000 4.6 310 11:19 14.12.2019
6292 Clouds 15 1012 48 10000 4.6 310 10:56 14.12.2019
6293 Clouds 15 1011 59 10000 6.2 310 10:38 14.12.2019
6294 Clouds 15 1011 59 10000 6.2 310 10:19 14.12.2019
6295 Clouds 15 1010 55 10000 7.2 330 09:43 14.12.2019
6296 Clouds 14 1010 55 10000 7.2 330 09:23 14.12.2019
6297 Clouds 14 1010 55 10000 6.2 300 08:57 14.12.2019
6298 Clouds 14 1010 55 10000 6.7 270 08:38 14.12.2019
6299 Clouds 14 1010 55 10000 6.7 270 08:38 14.12.2019
6300 Clouds 14 1010 55 10000 9.3 290 08:19 14.12.2019
6301 Clouds 14 1009 55 10000 8.2 310 07:40 14.12.2019
6302 Clouds 14 1007 55 10000 11.3 320 07:21 14.12.2019
6303 Clouds 14 1007 55 10000 11.3 320 06:55 14.12.2019
6304 Clouds 15 1008 51 10000 12.9 320 06:36 14.12.2019
6305 Clouds 15 1007 51 10000 11.8 320 05:52 14.12.2019
6306 Clouds 15 1007 48 10000 11.3 310 04:29 14.12.2019
6307 Clouds 16 1007 48 10000 10.3 290 02:24 14.12.2019
6308 Clear 16 1007 45 10000 4.6 310 01:44 14.12.2019
6309 Clouds 16 1007 45 10000 4.6 310 01:22 14.12.2019
6310 Clouds 16 1006 59 10000 4.1 300 00:43 14.12.2019
6311 Clouds 16 1006 59 10000 4.1 300 00:24 14.12.2019
6312 Clouds 16 1006 63 10000 9.3 250 23:43 13.12.2019
6313 Clouds 16 1006 63 10000 9.3 250 23:22 13.12.2019
6314 Clouds 16 1006 63 10000 6.7 270 22:59 13.12.2019
6315 Clouds 16 1005 59 10000 5.1 280 22:40 13.12.2019
6316 Clouds 16 1005 55 10000 3.1 260 22:19 13.12.2019
6317 Clouds 16 1005 55 10000 3.1 260 21:55 13.12.2019
6318 Clouds 16 1005 55 10000 5.1 300 21:36 13.12.2019
6319 Clouds 16 1004 59 10000 7.7 320 21:18 13.12.2019
6320 Clouds 16 1004 55 10000 9.8 300 20:40 13.12.2019
6321 Clouds 16 1004 55 10000 8.2 300 20:21 13.12.2019
6322 Clouds 16 1004 55 10000 8.2 300 19:58 13.12.2019
6323 Clouds 16 1004 55 10000 8.2 300 19:40 13.12.2019
6324 Clouds 16 1004 52 10000 6.2 300 19:21 13.12.2019
6325 Clouds 17 1003 52 10000 7.2 290 18:58 13.12.2019
6326 Clouds 17 1003 52 10000 7.2 290 18:40 13.12.2019
6327 Clouds 17 1003 52 10000 7.7 300 18:19 13.12.2019
6328 Clouds 18 1002 52 10000 7.2 290 17:42 13.12.2019
6329 Clouds 18 1002 52 10000 7.2 290 17:19 13.12.2019
6330 Clouds 18 1001 52 10000 7.7 290 16:59 13.12.2019
6331 Clouds 18 1001 49 10000 6.7 300 16:39 13.12.2019
6332 Clouds 18 1001 49 10000 6.7 300 16:20 13.12.2019
6333 Clouds 19 1001 49 10000 7.7 300 15:43 13.12.2019
6334 Clouds 19 1000 49 10000 8.7 300 15:23 13.12.2019
6335 Clouds 19 999 49 10000 10.3 300 14:59 13.12.2019
6336 Clouds 19 999 49 10000 10.8 290 14:41 13.12.2019
6337 Clouds 19 999 49 10000 10.8 290 14:20 13.12.2019
6338 Clouds 19 999 49 10000 7.2 300 13:57 13.12.2019
6339 Clouds 19 999 49 10000 7.2 300 13:37 13.12.2019
6340 Clouds 18 999 49 10000 8.7 290 13:19 13.12.2019
6341 Clouds 18 999 52 10000 9.3 290 12:42 13.12.2019
6342 Clouds 18 999 52 10000 6.7 290 12:20 13.12.2019
6343 Clouds 17 999 52 10000 5.1 290 11:57 13.12.2019
6344 Clouds 17 999 52 10000 9.8 290 11:39 13.12.2019
6345 Clouds 17 999 52 10000 9.8 290 11:21 13.12.2019
6346 Clouds 16 999 52 10000 7.7 290 10:42 13.12.2019
6347 Clouds 16 999 52 10000 7.7 290 10:42 13.12.2019
6348 Clouds 16 999 59 10000 7.2 300 10:23 13.12.2019
6349 Clouds 15 998 59 10000 6.7 290 09:56 13.12.2019
6350 Clouds 15 998 59 10000 6.7 290 09:38 13.12.2019
6351 Clouds 15 999 63 10000 6.2 290 09:18 13.12.2019
6352 Clouds 15 999 63 10000 6.2 290 09:18 13.12.2019
6353 Clouds 14 999 59 10000 6.2 300 08:41 13.12.2019
6354 Clouds 15 999 59 10000 6.2 300 08:23 13.12.2019
6355 Clouds 14 998 59 10000 10.8 290 07:45 13.12.2019
6356 Clouds 14 998 63 10000 8.2 290 07:21 13.12.2019
6357 Clouds 14 999 63 10000 1.5 230 06:54 13.12.2019
6358 Clouds 14 1000 67 10000 1 20 06:28 13.12.2019
6359 Clouds 13 1000 71 10000 8.64 301 05:46 13.12.2019
6360 Clouds 13 1000 76 10000 2.6 310 05:26 13.12.2019
6361 Clouds 12 1001 71 10000 2.85 312 04:35 13.12.2019
6362 Clouds 12 1002 71 10000 3.1 350 03:46 13.12.2019
6363 Clouds 12 1002 62 10000 1.5 300 02:34 13.12.2019
6364 Clouds 12 1003 66 10000 4.6 270 01:47 13.12.2019
6365 Clouds 11 1003 66 10000 4.6 250 00:57 13.12.2019
6366 Clouds 11 1004 66 10000 6.7 240 00:37 13.12.2019
6367 Clouds 11 1004 62 10000 6.7 240 23:59 12.12.2019
6368 Clouds 11 1004 62 10000 6.7 240 23:59 12.12.2019
6369 Clouds 11 1004 62 10000 6.7 240 23:39 12.12.2019
6370 Clouds 11 1004 66 10000 7.2 240 23:21 12.12.2019
6371 Clouds 11 1004 66 10000 7.7 250 22:56 12.12.2019
6372 Clouds 11 1004 66 10000 7.7 250 22:56 12.12.2019
6373 Clouds 11 1004 62 10000 7.7 250 22:37 12.12.2019
6374 Clouds 11 1004 62 10000 7.7 250 22:18 12.12.2019
6375 Clouds 11 1005 62 10000 8.7 250 21:55 12.12.2019
6376 Clouds 11 1005 62 10000 8.2 260 21:36 12.12.2019
6377 Clouds 11 1005 62 10000 8.2 260 21:18 12.12.2019
6378 Clouds 11 1005 62 10000 8.2 260 20:56 12.12.2019
6379 Clouds 11 1006 62 10000 8.2 260 20:38 12.12.2019
6380 Clouds 11 1006 62 10000 8.2 260 20:20 12.12.2019
6381 Clouds 11 1007 62 10000 7.7 260 19:43 12.12.2019
6382 Clouds 11 1007 62 10000 8.2 250 19:23 12.12.2019
6383 Clouds 11 1007 58 10000 7.2 260 18:58 12.12.2019
6384 Clouds 11 1007 58 10000 7.2 260 18:40 12.12.2019
6385 Clouds 11 1007 58 10000 7.2 260 18:40 12.12.2019
6386 Clouds 11 1008 54 10000 7.7 260 18:21 12.12.2019
6387 Clouds 11 1008 54 10000 7.7 260 18:21 12.12.2019
6388 Clouds 11 1008 54 10000 7.2 270 17:59 12.12.2019
6389 Clouds 11 1008 54 10000 6.2 270 17:40 12.12.2019
6390 Clouds 12 1008 54 10000 6.2 270 17:21 12.12.2019
6391 Clouds 12 1009 58 10000 6.2 260 16:59 12.12.2019
6392 Clouds 12 1010 54 10000 6.2 270 16:41 12.12.2019
6393 Clouds 12 1010 54 10000 6.2 270 16:21 12.12.2019
6394 Clouds 12 1010 54 10000 6.2 270 16:21 12.12.2019
6395 Clouds 12 1010 54 10000 5.7 260 15:58 12.12.2019
6396 Clouds 12 1010 54 10000 5.7 260 15:40 12.12.2019
6397 Clouds 12 1010 54 10000 5.7 260 15:18 12.12.2019
6398 Clouds 12 1011 58 10000 7.7 240 14:56 12.12.2019
6399 Clouds 12 1011 54 10000 7.2 240 14:36 12.12.2019
6400 Clouds 12 1011 54 10000 7.2 240 14:18 12.12.2019
6401 Clouds 12 1012 47 10000 7.2 280 13:54 12.12.2019
6402 Clouds 12 1012 47 10000 3.1 270 13:36 12.12.2019
6403 Clouds 12 1012 47 10000 3.1 270 13:18 12.12.2019
6404 Clouds 11 1014 58 10000 2.6 310 12:41 12.12.2019
6405 Clouds 11 1014 58 10000 2.6 310 12:41 12.12.2019
6406 Clouds 11 1014 58 10000 2.6 310 12:22 12.12.2019
6407 Clouds 11 1014 62 10000 2.1 330 11:59 12.12.2019
6408 Clouds 10 1015 66 10000 2.6 340 11:39 12.12.2019
6409 Clouds 10 1014 62 10000 2.1 330 11:39 12.12.2019
6410 Clouds 10 1015 66 10000 2.6 340 11:21 12.12.2019
6411 Clouds 9 1015 66 10000 3.6 20 10:58 12.12.2019
6412 Clouds 9 1015 66 10000 3.6 20 10:40 12.12.2019
6413 Clouds 8 1015 66 10000 3.1 10 10:21 12.12.2019
6414 Clouds 8 1015 66 10000 3.1 10 10:21 12.12.2019
6415 Clouds 8 1015 61 10000 2.1 320 09:56 12.12.2019
6416 Clouds 8 1015 61 10000 2.1 320 09:56 12.12.2019
6417 Clouds 8 1014 61 10000 2.6 330 09:38 12.12.2019
6418 Clouds 7 1014 61 10000 2.6 330 09:19 12.12.2019
6419 Clouds 7 1014 66 10000 5.1 300 08:47 12.12.2019
6420 Clouds 8 1014 66 10000 7.7 310 08:28 12.12.2019
6421 Clouds 7 1015 81 10000 2.1 280 07:54 12.12.2019
6422 Clouds 7 1015 81 10000 2.1 280 07:36 12.12.2019
6423 Clouds 8 1014 61 10000 5.7 300 07:18 12.12.2019
6424 Clouds 7 1014 61 10000 6.2 280 06:41 12.12.2019
6425 Clouds 8 1014 61 10000 6.7 300 06:21 12.12.2019
6426 Clouds 8 1015 57 10000 9.3 300 05:26 12.12.2019
6427 Clouds 8 1016 57 10000 7.2 290 04:31 12.12.2019
6428 Clouds 8 1016 53 10000 0.5 0 02:41 12.12.2019
6429 Clouds 8 1015 50 10000 1 120 02:23 12.12.2019
6430 Clouds 8 1016 50 10000 5.1 300 01:58 12.12.2019
6431 Clouds 8 1016 50 10000 3.1 280 01:35 12.12.2019
6432 Clouds 8 1016 50 10000 4.6 220 00:49 12.12.2019
6433 Clouds 8 1016 53 10000 1.5 240 00:22 12.12.2019
6434 Clouds 8 1017 57 10000 0.5 40 23:58 11.12.2019
6435 Clouds 8 1017 75 10000 1 0 23:36 11.12.2019
6436 Clouds 8 1017 75 10000 1 0 23:18 11.12.2019
6437 Clouds 8 1017 81 10000 3.6 290 22:55 11.12.2019
6438 Clouds 8 1017 87 10000 3.6 290 22:37 11.12.2019
6439 Clouds 8 1017 87 10000 3.6 290 22:18 11.12.2019
6440 Clouds 9 1017 81 10000 2.6 300 21:54 11.12.2019
6441 Clouds 9 1017 87 10000 3.6 280 21:36 11.12.2019
6442 Clouds 9 1017 81 10000 3.1 280 21:18 11.12.2019
6443 Clouds 9 1017 81 10000 3.1 280 20:54 11.12.2019
6444 Clouds 9 1017 76 10000 2.6 300 20:36 11.12.2019
6445 Clouds 9 1017 76 10000 2.6 300 20:18 11.12.2019
6446 Clouds 10 1017 76 10000 3.1 290 19:41 11.12.2019
6447 Clouds 10 1016 71 10000 2.6 20 19:23 11.12.2019
6448 Clouds 10 1016 66 10000 2.1 340 18:59 11.12.2019
6449 Clouds 10 1016 71 10000 3.1 360 18:39 11.12.2019
6450 Clouds 10 1016 71 10000 3.1 360 18:19 11.12.2019
6451 Rain 11 1015 71 10000 4.6 10 17:56 11.12.2019
6452 Rain 11 1015 71 10000 4.6 340 17:38 11.12.2019
6453 Rain 11 1015 71 10000 4.6 340 17:18 11.12.2019
6454 Rain 11 1014 76 10000 6.7 360 16:55 11.12.2019
6455 Rain 11 1014 58 10000 4.6 340 16:37 11.12.2019
6456 Rain 11 1014 58 10000 4.6 340 16:18 11.12.2019
6457 Clouds 12 1013 50 10000 5.7 320 15:56 11.12.2019
6458 Clouds 12 1013 54 10000 4.6 330 15:37 11.12.2019
6459 Clouds 13 1013 54 10000 4.6 330 15:18 11.12.2019
6460 Clouds 12 1013 54 10000 2.1 310 14:54 11.12.2019
6461 Clouds 13 1014 54 10000 2.6 300 14:36 11.12.2019
6462 Clouds 13 1014 54 10000 2.6 300 14:36 11.12.2019
6463 Clouds 13 1014 54 10000 2.6 300 14:18 11.12.2019
6464 Clouds 13 1014 58 10000 2.6 310 13:42 11.12.2019
6465 Clouds 13 1014 58 10000 2.6 310 13:42 11.12.2019
6466 Clouds 14 1014 58 10000 2.6 310 13:22 11.12.2019
6467 Clouds 13 1015 58 10000 2.6 300 12:58 11.12.2019
6468 Clouds 13 1016 58 10000 2.1 310 12:39 11.12.2019
6469 Clouds 13 1016 58 10000 2.1 310 12:21 11.12.2019
6470 Clouds 12 1017 62 10000 0.5 0 11:58 11.12.2019
6471 Clouds 11 1017 62 10000 0.5 0 11:39 11.12.2019
6472 Clouds 10 1017 71 10000 1.5 340 11:19 11.12.2019
6473 Clouds 10 1017 71 10000 1.5 340 11:19 11.12.2019
6474 Clouds 10 1017 75 10000 3.6 320 10:59 11.12.2019
6475 Clouds 9 1018 75 10000 4.1 330 10:39 11.12.2019
6476 Clouds 8 1018 75 10000 4.1 330 10:21 11.12.2019
6477 Clouds 8 1018 75 10000 4.6 320 09:56 11.12.2019
6478 Clouds 7 1018 81 10000 5.1 0 09:38 11.12.2019
6479 Clouds 7 1018 81 10000 5.1 0 09:19 11.12.2019
6480 Clouds 7 1018 81 10000 5.1 320 08:55 11.12.2019
6481 Clouds 7 1019 81 10000 5.7 330 08:36 11.12.2019
6482 Clouds 6 1019 81 10000 5.7 330 08:18 11.12.2019
6483 Clouds 6 1019 81 10000 5.1 330 07:42 11.12.2019
6484 Clouds 6 1019 81 10000 5.7 320 07:23 11.12.2019
6485 Clouds 6 1019 81 10000 5.1 320 06:46 11.12.2019
6486 Clouds 6 1019 81 10000 5.1 320 06:24 11.12.2019
6487 Clouds 6 1020 81 10000 5.7 320 05:54 11.12.2019
6488 Clouds 6 1020 81 10000 6.7 320 05:34 11.12.2019
6489 Clouds 6 1020 81 10000 5.7 330 04:49 11.12.2019
6490 Clouds 6 1021 81 10000 5.7 320 03:26 11.12.2019
6491 Clouds 7 1022 81 10000 5.1 330 02:35 11.12.2019
6492 Clouds 7 1022 75 10000 5.7 320 01:22 11.12.2019
6493 Clouds 7 1022 75 10000 3.6 330 00:38 11.12.2019
6494 Clouds 7 1022 75 10000 3.6 330 00:19 11.12.2019
6495 Clouds 7 1022 81 10000 4.6 330 23:44 10.12.2019
6496 Clouds 7 1022 76 10000 3.1 310 23:23 10.12.2019
6497 Clouds 8 1022 76 10000 5.1 330 22:56 10.12.2019
6498 Clouds 8 1022 76 10000 5.1 330 22:56 10.12.2019
6499 Clouds 8 1023 70 10000 3.1 320 22:38 10.12.2019
6500 Clouds 8 1023 70 10000 3.1 320 22:20 10.12.2019
6501 Clouds 8 1022 71 10000 4.1 310 21:54 10.12.2019
6502 Clouds 8 1023 76 10000 4.1 300 21:36 10.12.2019
6503 Clouds 8 1023 76 10000 4.1 300 21:18 10.12.2019
6504 Clouds 8 1023 76 10000 4.6 300 20:55 10.12.2019
6505 Clouds 8 1023 71 10000 3.6 320 20:36 10.12.2019
6506 Clouds 9 1023 71 10000 3.6 320 20:18 10.12.2019
6507 Clouds 9 1023 71 10000 3.6 320 20:18 10.12.2019
6508 Clouds 9 1022 71 10000 3.6 330 19:44 10.12.2019
6509 Clouds 9 1022 71 10000 3.6 330 19:26 10.12.2019
6510 Clouds 10 1022 66 10000 3.1 330 18:59 10.12.2019
6511 Clouds 10 1022 66 10000 3.1 330 18:39 10.12.2019
6512 Clouds 10 1022 66 10000 2.6 360 18:19 10.12.2019
6513 Clouds 11 1022 62 10000 3.1 350 17:55 10.12.2019
6514 Clouds 11 1022 58 10000 5.1 360 17:37 10.12.2019
6515 Clouds 12 1022 58 10000 5.1 360 17:19 10.12.2019
6516 Clouds 13 1022 58 10000 3.1 340 16:42 10.12.2019
6517 Clouds 13 1021 58 10000 3.1 340 16:20 10.12.2019
6518 Clouds 13 1022 58 10000 2.6 350 15:55 10.12.2019
6519 Clouds 13 1022 50 10000 5.1 350 15:37 10.12.2019
6520 Clouds 13 1022 50 10000 5.1 350 15:18 10.12.2019
6521 Clouds 13 1022 50 10000 5.1 340 15:18 10.12.2019
6522 Clouds 13 1022 50 10000 5.1 350 15:18 10.12.2019
6523 Clouds 13 1022 50 10000 5.1 340 14:55 10.12.2019
6524 Clouds 13 1022 54 10000 1.21 323 14:36 10.12.2019
6525 Clouds 13 1022 54 10000 2.41 309 14:18 10.12.2019
6526 Clouds 13 1023 58 10000 2.41 309 13:56 10.12.2019
6527 Clouds 13 1023 58 10000 2.41 309 13:56 10.12.2019
6528 Clouds 13 1023 58 10000 2.41 309 13:37 10.12.2019
6529 Clear 13 1023 58 10000 2.31 309 13:18 10.12.2019
6530 Clear 12 1024 58 10000 0.5 110 12:40 10.12.2019
6531 Clear 12 1024 58 10000 0.5 110 12:40 10.12.2019
6532 Clear 12 1024 58 10000 0.5 110 12:21 10.12.2019
6533 Clear 12 1024 58 10000 0.5 0 11:42 10.12.2019
6534 Clouds 10 1024 62 10000 1 350 11:23 10.12.2019
6535 Clouds 10 1024 66 10000 1.5 330 10:56 10.12.2019
6536 Clouds 10 1024 70 10000 3.1 310 10:37 10.12.2019
6537 Clouds 9 1024 70 10000 3.1 310 10:19 10.12.2019
6538 Clouds 9 1024 70 10000 1.5 10 09:55 10.12.2019
6539 Clouds 9 1024 70 10000 1.5 10 09:55 10.12.2019
6540 Clouds 8 1024 70 10000 1.5 10 09:37 10.12.2019
6541 Clouds 8 1024 81 10000 4.6 320 09:19 10.12.2019
6542 Clouds 7 1024 75 10000 2.6 320 08:54 10.12.2019
6543 Clouds 6 1024 75 10000 1.5 320 08:36 10.12.2019
6544 Clouds 6 1024 75 10000 1.5 320 08:36 10.12.2019
6545 Clear 6 1024 75 10000 1.5 320 08:18 10.12.2019
6546 Clear 6 1024 75 10000 2.6 330 07:43 10.12.2019
6547 Clear 6 1024 75 10000 2.6 330 07:43 10.12.2019
6548 Clear 6 1023 75 10000 1.5 290 07:25 10.12.2019
6549 Clear 6 1023 75 10000 2.6 340 06:47 10.12.2019
6550 Clear 6 1023 70 10000 2.6 320 06:21 10.12.2019
6551 Clear 7 1023 66 10000 2.6 360 05:55 10.12.2019
6552 Clear 7 1023 66 10000 4.6 20 04:55 10.12.2019
6553 Clear 9 1023 66 10000 2.6 320 03:39 10.12.2019
6554 Clear 9 1022 81 10000 3.6 300 02:46 10.12.2019
6555 Clear 9 1023 75 10000 3.6 290 01:45 10.12.2019
6556 Clear 10 1023 70 10000 4.1 320 01:24 10.12.2019
6557 Clear 10 1023 57 10000 3.6 320 00:42 10.12.2019
6558 Clear 10 1023 57 10000 3.6 320 00:22 10.12.2019
6559 Clear 10 1022 57 10000 3.6 300 23:42 09.12.2019
6560 Clear 10 1022 57 10000 3.6 300 23:42 09.12.2019
6561 Clear 10 1022 61 10000 2.6 320 23:42 09.12.2019
6562 Clear 10 1022 57 10000 3.6 300 23:23 09.12.2019
6563 Clear 10 1022 57 10000 3.6 300 23:23 09.12.2019
6564 Clear 10 1022 50 10000 3.6 310 22:58 09.12.2019
6565 Clear 10 1022 50 10000 3.6 310 22:40 09.12.2019
6566 Clear 11 1022 50 10000 2.6 320 22:20 09.12.2019
6567 Clear 11 1022 50 10000 0.5 330 21:57 09.12.2019
6568 Clear 11 1022 50 10000 0.5 330 21:38 09.12.2019
6569 Clear 11 1022 50 10000 1 0 21:19 09.12.2019
6570 Clear 12 1022 50 10000 2.6 320 20:57 09.12.2019
6571 Clear 12 1022 50 10000 2.6 320 20:57 09.12.2019
6572 Clear 12 1021 58 10000 1 0 20:39 09.12.2019
6573 Clear 12 1021 58 10000 1 0 20:20 09.12.2019
6574 Clear 12 1021 50 10000 1.5 330 19:56 09.12.2019
6575 Clear 13 1020 54 10000 3.1 270 19:38 09.12.2019
6576 Clear 13 1020 54 10000 2.6 310 19:19 09.12.2019
6577 Clear 13 1020 54 10000 2.6 310 18:58 09.12.2019
6578 Clear 13 1020 54 10000 2.6 310 18:39 09.12.2019
6579 Clear 13 1020 54 10000 5.1 270 18:20 09.12.2019
6580 Clear 14 1019 51 10000 4.6 270 17:58 09.12.2019
6581 Clear 14 1019 48 10000 4.6 300 17:40 09.12.2019
6582 Clear 14 1019 48 10000 4.6 300 17:21 09.12.2019
6583 Clear 15 1019 48 10000 3.6 310 16:56 09.12.2019
6584 Clear 15 1019 48 10000 3.6 310 16:38 09.12.2019
6585 Clear 15 1018 51 10000 7.7 300 16:20 09.12.2019
6586 Clear 15 1018 51 10000 6.2 300 15:55 09.12.2019
6587 Clear 15 1018 48 10000 9.3 300 15:37 09.12.2019
6588 Clear 15 1018 48 10000 9.3 300 15:19 09.12.2019
6589 Clear 15 1018 48 10000 8.7 310 14:57 09.12.2019
6590 Clouds 15 1018 51 10000 8.7 310 14:39 09.12.2019
6591 Clouds 15 1018 51 10000 8.7 310 14:18 09.12.2019
6592 Clouds 14 1019 48 10000 9.8 310 13:40 09.12.2019
6593 Clouds 14 1019 48 10000 9.8 300 13:40 09.12.2019
6594 Clouds 14 1019 48 10000 9.8 310 13:20 09.12.2019
6595 Clear 14 1019 51 10000 9.3 310 12:58 09.12.2019
6596 Clear 14 1019 51 10000 9.3 310 12:40 09.12.2019
6597 Clear 13 1020 51 10000 6.2 320 12:21 09.12.2019
6598 Clear 13 1020 47 10000 4.1 330 11:59 09.12.2019
6599 Clear 13 1021 58 10000 6.7 350 11:39 09.12.2019
6600 Clear 12 1021 58 10000 6.7 350 11:21 09.12.2019
6601 Clear 12 1020 54 10000 5.7 320 10:57 09.12.2019
6602 Clear 11 1020 58 10000 7.7 300 10:38 09.12.2019
6603 Clear 11 1020 58 10000 7.7 300 10:19 09.12.2019
6604 Clear 10 1020 62 10000 7.2 290 09:43 09.12.2019
6605 Clear 10 1020 66 10000 3.1 330 09:23 09.12.2019
6606 Clear 9 1020 66 10000 5.7 340 08:55 09.12.2019
6607 Clouds 9 1020 62 10000 4.1 340 08:37 09.12.2019
6608 Clouds 9 1020 62 10000 4.1 340 08:19 09.12.2019
6609 Clouds 9 1019 71 10000 6.7 320 07:48 09.12.2019
6610 Clouds 9 1019 76 10000 10.8 320 07:30 09.12.2019
6611 Clouds 9 1019 81 10000 5.7 330 06:55 09.12.2019
6612 Clouds 8 1019 81 10000 6.7 320 06:28 09.12.2019
6613 Clouds 9 1019 87 10000 6.2 320 05:30 09.12.2019
6614 Clouds 9 1019 81 10000 6.7 320 04:58 09.12.2019
6615 Clouds 9 1019 81 10000 6.2 330 04:25 09.12.2019
6616 Clouds 10 1019 76 10000 6.7 330 02:28 09.12.2019
6617 Clouds 10 1020 76 10000 6.7 340 01:45 09.12.2019
6618 Clouds 10 1019 76 10000 6.2 340 00:57 09.12.2019
6619 Clouds 10 1020 76 10000 4.6 330 00:32 09.12.2019
6620 Clouds 10 1020 76 10000 5.7 320 23:54 08.12.2019
6621 Clouds 9 1020 81 10000 3.6 320 23:36 08.12.2019
6622 Clouds 9 1020 81 10000 3.6 320 23:18 08.12.2019
6623 Clouds 9 1020 81 10000 4.6 330 22:56 08.12.2019
6624 Clouds 9 1020 81 10000 4.6 330 22:37 08.12.2019
6625 Clouds 9 1020 81 10000 4.1 330 22:18 08.12.2019
6626 Clouds 9 1020 76 10000 6.7 340 21:55 08.12.2019
6627 Clouds 9 1020 76 10000 5.7 320 21:36 08.12.2019
6628 Clouds 9 1020 76 10000 5.7 320 21:18 08.12.2019
6629 Clouds 9 1020 76 10000 6.2 320 20:54 08.12.2019
6630 Clouds 9 1020 76 10000 6.2 320 20:36 08.12.2019
6631 Clouds 9 1020 76 10000 5.1 330 20:18 08.12.2019
6632 Clouds 10 1020 81 10000 5.1 320 19:54 08.12.2019
6633 Clouds 10 1020 76 10000 4.6 330 19:36 08.12.2019
6634 Clouds 10 1020 76 10000 4.6 330 19:18 08.12.2019
6635 Clouds 10 1020 76 10000 3.6 330 18:54 08.12.2019
6636 Clouds 10 1020 76 10000 3.1 320 18:36 08.12.2019
6637 Clouds 10 1020 76 10000 3.1 320 18:18 08.12.2019
6638 Clouds 11 1020 71 10000 3.1 330 17:54 08.12.2019
6639 Clouds 11 1020 71 10000 3.1 310 17:36 08.12.2019
6640 Clear 11 1020 71 10000 3.1 310 17:18 08.12.2019
6641 Clear 12 1020 67 10000 2.6 320 16:42 08.12.2019
6642 Clear 13 1020 67 10000 2.6 320 16:23 08.12.2019
6643 Clouds 13 1020 71 10000 3.1 250 15:58 08.12.2019
6644 Clouds 13 1020 71 10000 2.6 300 15:37 08.12.2019
6645 Clouds 13 1020 71 10000 2.6 300 15:18 08.12.2019
6646 Clouds 13 1020 71 10000 3.6 320 14:46 08.12.2019
6647 Clear 13 1021 66 10000 4.6 320 14:25 08.12.2019
6648 Clear 13 1021 71 10000 4.6 330 13:59 08.12.2019
6649 Clear 13 1021 71 10000 4.6 330 13:41 08.12.2019
6650 Clear 13 1021 66 10000 4.1 320 13:22 08.12.2019
6651 Clear 12 1022 71 10000 5.1 330 12:59 08.12.2019
6652 Clear 13 1022 71 10000 5.1 330 12:40 08.12.2019
6653 Clear 12 1022 71 10000 5.7 330 12:20 08.12.2019
6654 Clear 12 1023 76 10000 5.1 330 11:58 08.12.2019
6655 Clear 12 1023 76 10000 5.1 330 11:38 08.12.2019
6656 Clear 9 1023 76 10000 5.1 330 11:19 08.12.2019
6657 Clear 9 1023 76 10000 6.2 330 10:57 08.12.2019
6658 Clear 9 1023 76 10000 6.2 330 10:38 08.12.2019
6659 Clear 8 1023 81 10000 6.7 330 10:19 08.12.2019
6660 Clear 8 1023 87 10000 5.7 330 09:55 08.12.2019
6661 Clear 8 1023 87 10000 5.7 330 09:37 08.12.2019
6662 Clear 7 1023 87 10000 5.7 330 09:18 08.12.2019
6663 Clear 7 1023 87 10000 6.2 330 08:43 08.12.2019
6664 Clear 7 1023 87 10000 6.2 330 08:43 08.12.2019
6665 Clear 7 1022 87 10000 6.2 330 08:23 08.12.2019
6666 Clear 7 1022 87 10000 5.7 320 07:58 08.12.2019
6667 Clear 7 1022 87 10000 5.7 320 07:40 08.12.2019
6668 Clear 7 1022 87 10000 6.7 330 07:19 08.12.2019
6669 Clear 7 1022 93 10000 6.7 330 06:41 08.12.2019
6670 Clear 7 1022 87 10000 7.7 330 06:21 08.12.2019
6671 Clear 7 1022 87 10000 5.7 330 05:30 08.12.2019
6672 Clear 7 1022 87 10000 5.7 330 04:57 08.12.2019
6673 Clouds 8 1023 87 10000 5.7 330 03:41 08.12.2019
6674 Clouds 8 1023 87 10000 5.1 330 02:52 08.12.2019
6675 Clear 7 1023 87